<?xml version="1.0" encoding="UTF-8" standalone="no" ?>
<gpx xmlns="http://www.topografix.com/GPX/1/1" xmlns:xsi="http://www.w3.org/2001/XMLSchema-instance" xsi:schemaLocation="http://www.topografix.com/GPX/1/1 http://www.topografix.com/GPX/1/1/gpx.xsd" version="1.1" creator="VisuGPX - https://www.visugpx.com">
  <metadata>
    <name>Vercors: Col du rousset / Roybon</name>
    <desc><![CDATA[Col du rousset / Roybon en deux jours
Aller via la chapelle en vercors
Retour via les hauts plateaux]]></desc>
  </metadata>
  <trk>
    <name><![CDATA[rousset_roybon]]></name>
    <trkseg>
      <trkpt lat="44.8399" lon="5.40628">
        <ele>1261.8679199</ele>
        <time>2011-08-27T09:12:01Z</time>
      </trkpt>
      <trkpt lat="44.83984" lon="5.40625">
        <ele>1278.2102051</ele>
        <time>2011-08-27T09:14:11Z</time>
      </trkpt>
      <trkpt lat="44.83981" lon="5.40625">
        <ele>1275.8066406</ele>
        <time>2011-08-27T09:15:00Z</time>
      </trkpt>
      <trkpt lat="44.83986" lon="5.4063">
        <ele>1272.4421387</ele>
        <time>2011-08-27T09:15:40Z</time>
      </trkpt>
      <trkpt lat="44.83986" lon="5.40629">
        <ele>1272.4421387</ele>
        <time>2011-08-27T09:16:00Z</time>
      </trkpt>
      <trkpt lat="44.83986" lon="5.40632">
        <ele>1263.7902832</ele>
        <time>2011-08-27T09:16:46Z</time>
      </trkpt>
      <trkpt lat="44.83988" lon="5.40633">
        <ele>1258.5029297</ele>
        <time>2011-08-27T09:17:10Z</time>
      </trkpt>
      <trkpt lat="44.83986" lon="5.40635">
        <ele>1257.0610352</ele>
        <time>2011-08-27T09:18:23Z</time>
      </trkpt>
      <trkpt lat="44.84001" lon="5.40634">
        <ele>1256.5803223</ele>
        <time>2011-08-27T09:18:32Z</time>
      </trkpt>
      <trkpt lat="44.84053" lon="5.40616">
        <ele>1254.1772461</ele>
        <time>2011-08-27T09:18:44Z</time>
      </trkpt>
      <trkpt lat="44.84056" lon="5.40581">
        <ele>1253.2158203</ele>
        <time>2011-08-27T09:18:52Z</time>
      </trkpt>
      <trkpt lat="44.84051" lon="5.40572">
        <ele>1253.6965332</ele>
        <time>2011-08-27T09:18:54Z</time>
      </trkpt>
      <trkpt lat="44.84033" lon="5.40536">
        <ele>1253.6965332</ele>
        <time>2011-08-27T09:19:02Z</time>
      </trkpt>
      <trkpt lat="44.84007" lon="5.40552">
        <ele>1254.1772461</ele>
        <time>2011-08-27T09:19:13Z</time>
      </trkpt>
      <trkpt lat="44.83797" lon="5.39688">
        <ele>1286.8618164</ele>
        <time>2011-08-27T09:21:19Z</time>
      </trkpt>
      <trkpt lat="44.83795" lon="5.39673">
        <ele>1285.9006348</ele>
        <time>2011-08-27T09:21:20Z</time>
      </trkpt>
      <trkpt lat="44.83817" lon="5.39629">
        <ele>1254.6577148</ele>
        <time>2011-08-27T09:21:30Z</time>
      </trkpt>
      <trkpt lat="44.8382" lon="5.39628">
        <ele>1248.8898926</ele>
        <time>2011-08-27T09:22:25Z</time>
      </trkpt>
      <trkpt lat="44.8382" lon="5.39627">
        <ele>1248.8898926</ele>
        <time>2011-08-27T09:24:50Z</time>
      </trkpt>
      <trkpt lat="44.83823" lon="5.39626">
        <ele>1248.8898926</ele>
        <time>2011-08-27T09:25:11Z</time>
      </trkpt>
      <trkpt lat="44.83825" lon="5.39618">
        <ele>1248.8898926</ele>
        <time>2011-08-27T09:25:17Z</time>
      </trkpt>
      <trkpt lat="44.83832" lon="5.39612">
        <ele>1248.8898926</ele>
        <time>2011-08-27T09:25:30Z</time>
      </trkpt>
      <trkpt lat="44.83847" lon="5.39582">
        <ele>1250.8125</ele>
        <time>2011-08-27T09:25:47Z</time>
      </trkpt>
      <trkpt lat="44.83863" lon="5.39537">
        <ele>1255.6191406</ele>
        <time>2011-08-27T09:26:09Z</time>
      </trkpt>
      <trkpt lat="44.83882" lon="5.3951">
        <ele>1261.8679199</ele>
        <time>2011-08-27T09:26:24Z</time>
      </trkpt>
      <trkpt lat="44.83909" lon="5.39486">
        <ele>1267.635498</ele>
        <time>2011-08-27T09:26:43Z</time>
      </trkpt>
      <trkpt lat="44.83924" lon="5.39474">
        <ele>1269.0776367</ele>
        <time>2011-08-27T09:26:52Z</time>
      </trkpt>
      <trkpt lat="44.83931" lon="5.39445">
        <ele>1277.7294922</ele>
        <time>2011-08-27T09:27:06Z</time>
      </trkpt>
      <trkpt lat="44.83933" lon="5.3944">
        <ele>1277.2490234</ele>
        <time>2011-08-27T09:27:08Z</time>
      </trkpt>
      <trkpt lat="44.83957" lon="5.39392">
        <ele>1283.0166016</ele>
        <time>2011-08-27T09:27:32Z</time>
      </trkpt>
      <trkpt lat="44.8397" lon="5.39356">
        <ele>1286.8618164</ele>
        <time>2011-08-27T09:27:52Z</time>
      </trkpt>
      <trkpt lat="44.83957" lon="5.39332">
        <ele>1290.2265625</ele>
        <time>2011-08-27T09:28:08Z</time>
      </trkpt>
      <trkpt lat="44.83932" lon="5.39297">
        <ele>1299.8398438</ele>
        <time>2011-08-27T09:28:29Z</time>
      </trkpt>
      <trkpt lat="44.83906" lon="5.39244">
        <ele>1315.7016602</ele>
        <time>2011-08-27T09:28:57Z</time>
      </trkpt>
      <trkpt lat="44.83898" lon="5.39232">
        <ele>1320.0273438</ele>
        <time>2011-08-27T09:29:05Z</time>
      </trkpt>
      <trkpt lat="44.83889" lon="5.39217">
        <ele>1324.8342285</ele>
        <time>2011-08-27T09:29:15Z</time>
      </trkpt>
      <trkpt lat="44.83883" lon="5.39209">
        <ele>1328.1987305</ele>
        <time>2011-08-27T09:29:21Z</time>
      </trkpt>
      <trkpt lat="44.83877" lon="5.39205">
        <ele>1330.1213379</ele>
        <time>2011-08-27T09:29:26Z</time>
      </trkpt>
      <trkpt lat="44.83866" lon="5.39193">
        <ele>1331.0827637</ele>
        <time>2011-08-27T09:29:37Z</time>
      </trkpt>
      <trkpt lat="44.83858" lon="5.39174">
        <ele>1325.7954102</ele>
        <time>2011-08-27T09:29:53Z</time>
      </trkpt>
      <trkpt lat="44.83845" lon="5.39152">
        <ele>1318.1047363</ele>
        <time>2011-08-27T09:30:08Z</time>
      </trkpt>
      <trkpt lat="44.8383" lon="5.39127">
        <ele>1306.5688477</ele>
        <time>2011-08-27T09:30:30Z</time>
      </trkpt>
      <trkpt lat="44.83828" lon="5.39119">
        <ele>1304.1657715</ele>
        <time>2011-08-27T09:30:35Z</time>
      </trkpt>
      <trkpt lat="44.83825" lon="5.39111">
        <ele>1301.7624512</ele>
        <time>2011-08-27T09:30:40Z</time>
      </trkpt>
      <trkpt lat="44.8382" lon="5.39107">
        <ele>1299.8398438</ele>
        <time>2011-08-27T09:30:44Z</time>
      </trkpt>
      <trkpt lat="44.83817" lon="5.391">
        <ele>1297.9172363</ele>
        <time>2011-08-27T09:30:48Z</time>
      </trkpt>
      <trkpt lat="44.83795" lon="5.39068">
        <ele>1292.630127</ele>
        <time>2011-08-27T09:31:11Z</time>
      </trkpt>
      <trkpt lat="44.83771" lon="5.39088">
        <ele>1283.0166016</ele>
        <time>2011-08-27T09:31:32Z</time>
      </trkpt>
      <trkpt lat="44.8376" lon="5.39079">
        <ele>1282.0554199</ele>
        <time>2011-08-27T09:31:47Z</time>
      </trkpt>
      <trkpt lat="44.83751" lon="5.39077">
        <ele>1283.0166016</ele>
        <time>2011-08-27T09:31:55Z</time>
      </trkpt>
      <trkpt lat="44.83726" lon="5.39081">
        <ele>1293.1105957</ele>
        <time>2011-08-27T09:32:18Z</time>
      </trkpt>
      <trkpt lat="44.83713" lon="5.39081">
        <ele>1294.0720215</ele>
        <time>2011-08-27T09:32:38Z</time>
      </trkpt>
      <trkpt lat="44.8371" lon="5.39078">
        <ele>1294.0720215</ele>
        <time>2011-08-27T09:33:03Z</time>
      </trkpt>
      <trkpt lat="44.83702" lon="5.39076">
        <ele>1295.0332031</ele>
        <time>2011-08-27T09:34:16Z</time>
      </trkpt>
      <trkpt lat="44.83682" lon="5.39069">
        <ele>1298.878418</ele>
        <time>2011-08-27T09:34:33Z</time>
      </trkpt>
      <trkpt lat="44.83678" lon="5.39067">
        <ele>1298.878418</ele>
        <time>2011-08-27T09:34:37Z</time>
      </trkpt>
      <trkpt lat="44.83675" lon="5.39063">
        <ele>1299.8398438</ele>
        <time>2011-08-27T09:34:42Z</time>
      </trkpt>
      <trkpt lat="44.83672" lon="5.3905">
        <ele>1300.3205566</ele>
        <time>2011-08-27T09:34:57Z</time>
      </trkpt>
      <trkpt lat="44.83671" lon="5.39048">
        <ele>1300.3205566</ele>
        <time>2011-08-27T09:34:59Z</time>
      </trkpt>
      <trkpt lat="44.83668" lon="5.39046">
        <ele>1301.2817383</ele>
        <time>2011-08-27T09:35:02Z</time>
      </trkpt>
      <trkpt lat="44.83654" lon="5.39033">
        <ele>1305.1269531</ele>
        <time>2011-08-27T09:35:22Z</time>
      </trkpt>
      <trkpt lat="44.83649" lon="5.39027">
        <ele>1306.5688477</ele>
        <time>2011-08-27T09:35:33Z</time>
      </trkpt>
      <trkpt lat="44.83644" lon="5.39009">
        <ele>1308.9724121</ele>
        <time>2011-08-27T09:35:48Z</time>
      </trkpt>
      <trkpt lat="44.8364" lon="5.38994">
        <ele>1313.2983398</ele>
        <time>2011-08-27T09:36:01Z</time>
      </trkpt>
      <trkpt lat="44.83637" lon="5.38987">
        <ele>1314.2595215</ele>
        <time>2011-08-27T09:36:17Z</time>
      </trkpt>
      <trkpt lat="44.83634" lon="5.38982">
        <ele>1318.5854492</ele>
        <time>2011-08-27T09:37:51Z</time>
      </trkpt>
      <trkpt lat="44.83633" lon="5.3898">
        <ele>1320.9887695</ele>
        <time>2011-08-27T09:38:08Z</time>
      </trkpt>
      <trkpt lat="44.83635" lon="5.38977">
        <ele>1321.4692383</ele>
        <time>2011-08-27T09:38:10Z</time>
      </trkpt>
      <trkpt lat="44.8364" lon="5.38973">
        <ele>1323.3920898</ele>
        <time>2011-08-27T09:38:15Z</time>
      </trkpt>
      <trkpt lat="44.83652" lon="5.38973">
        <ele>1326.276123</ele>
        <time>2011-08-27T09:38:30Z</time>
      </trkpt>
      <trkpt lat="44.83667" lon="5.38967">
        <ele>1328.6794434</ele>
        <time>2011-08-27T09:38:43Z</time>
      </trkpt>
      <trkpt lat="44.8367" lon="5.38962">
        <ele>1329.640625</ele>
        <time>2011-08-27T09:38:48Z</time>
      </trkpt>
      <trkpt lat="44.83672" lon="5.38955">
        <ele>1331.0827637</ele>
        <time>2011-08-27T09:38:53Z</time>
      </trkpt>
      <trkpt lat="44.83672" lon="5.3895">
        <ele>1333.005127</ele>
        <time>2011-08-27T09:38:57Z</time>
      </trkpt>
      <trkpt lat="44.83669" lon="5.38935">
        <ele>1334.9279785</ele>
        <time>2011-08-27T09:39:04Z</time>
      </trkpt>
      <trkpt lat="44.83669" lon="5.38928">
        <ele>1335.8891602</ele>
        <time>2011-08-27T09:39:08Z</time>
      </trkpt>
      <trkpt lat="44.83669" lon="5.38922">
        <ele>1338.2924805</ele>
        <time>2011-08-27T09:39:12Z</time>
      </trkpt>
      <trkpt lat="44.83667" lon="5.38911">
        <ele>1340.6958008</ele>
        <time>2011-08-27T09:39:19Z</time>
      </trkpt>
      <trkpt lat="44.83667" lon="5.38907">
        <ele>1341.1765137</ele>
        <time>2011-08-27T09:39:21Z</time>
      </trkpt>
      <trkpt lat="44.8366" lon="5.38903">
        <ele>1341.6572266</ele>
        <time>2011-08-27T09:39:25Z</time>
      </trkpt>
      <trkpt lat="44.83658" lon="5.38898">
        <ele>1342.1379395</ele>
        <time>2011-08-27T09:39:31Z</time>
      </trkpt>
      <trkpt lat="44.83647" lon="5.38892">
        <ele>1341.6572266</ele>
        <time>2011-08-27T09:39:39Z</time>
      </trkpt>
      <trkpt lat="44.83635" lon="5.38885">
        <ele>1342.6186523</ele>
        <time>2011-08-27T09:39:46Z</time>
      </trkpt>
      <trkpt lat="44.83625" lon="5.38875">
        <ele>1341.6572266</ele>
        <time>2011-08-27T09:39:59Z</time>
      </trkpt>
      <trkpt lat="44.83614" lon="5.38866">
        <ele>1339.734375</ele>
        <time>2011-08-27T09:40:09Z</time>
      </trkpt>
      <trkpt lat="44.8361" lon="5.38864">
        <ele>1338.2924805</ele>
        <time>2011-08-27T09:40:12Z</time>
      </trkpt>
      <trkpt lat="44.83592" lon="5.38848">
        <ele>1334.9279785</ele>
        <time>2011-08-27T09:40:31Z</time>
      </trkpt>
      <trkpt lat="44.83586" lon="5.38846">
        <ele>1335.8891602</ele>
        <time>2011-08-27T09:40:36Z</time>
      </trkpt>
      <trkpt lat="44.83583" lon="5.38845">
        <ele>1336.369873</ele>
        <time>2011-08-27T09:40:39Z</time>
      </trkpt>
      <trkpt lat="44.83567" lon="5.38838">
        <ele>1337.3310547</ele>
        <time>2011-08-27T09:40:52Z</time>
      </trkpt>
      <trkpt lat="44.83552" lon="5.38827">
        <ele>1339.2536621</ele>
        <time>2011-08-27T09:41:07Z</time>
      </trkpt>
      <trkpt lat="44.83538" lon="5.38817">
        <ele>1341.1765137</ele>
        <time>2011-08-27T09:41:19Z</time>
      </trkpt>
      <trkpt lat="44.83521" lon="5.38802">
        <ele>1339.734375</ele>
        <time>2011-08-27T09:41:34Z</time>
      </trkpt>
      <trkpt lat="44.83507" lon="5.38794">
        <ele>1340.215332</ele>
        <time>2011-08-27T09:41:45Z</time>
      </trkpt>
      <trkpt lat="44.83501" lon="5.3879">
        <ele>1340.6958008</ele>
        <time>2011-08-27T09:41:50Z</time>
      </trkpt>
      <trkpt lat="44.83492" lon="5.38784">
        <ele>1341.1765137</ele>
        <time>2011-08-27T09:41:57Z</time>
      </trkpt>
      <trkpt lat="44.83484" lon="5.38776">
        <ele>1342.6186523</ele>
        <time>2011-08-27T09:42:04Z</time>
      </trkpt>
      <trkpt lat="44.83481" lon="5.3877">
        <ele>1344.0605469</ele>
        <time>2011-08-27T09:42:08Z</time>
      </trkpt>
      <trkpt lat="44.83481" lon="5.38764">
        <ele>1347.9057617</ele>
        <time>2011-08-27T09:42:25Z</time>
      </trkpt>
      <trkpt lat="44.83481" lon="5.38764">
        <ele>1348.3862305</ele>
        <time>2011-08-27T09:44:41Z</time>
      </trkpt>
      <trkpt lat="44.83485" lon="5.38764">
        <ele>1349.3476563</ele>
        <time>2011-08-27T09:44:47Z</time>
      </trkpt>
      <trkpt lat="44.83489" lon="5.38764">
        <ele>1350.7895508</ele>
        <time>2011-08-27T09:44:53Z</time>
      </trkpt>
      <trkpt lat="44.83508" lon="5.38756">
        <ele>1354.1542969</ele>
        <time>2011-08-27T09:45:04Z</time>
      </trkpt>
      <trkpt lat="44.83525" lon="5.38748">
        <ele>1357.0383301</ele>
        <time>2011-08-27T09:45:16Z</time>
      </trkpt>
      <trkpt lat="44.83555" lon="5.38741">
        <ele>1363.2868652</ele>
        <time>2011-08-27T09:45:33Z</time>
      </trkpt>
      <trkpt lat="44.8357" lon="5.38744">
        <ele>1366.6513672</ele>
        <time>2011-08-27T09:45:46Z</time>
      </trkpt>
      <trkpt lat="44.83573" lon="5.38747">
        <ele>1367.1320801</ele>
        <time>2011-08-27T09:45:49Z</time>
      </trkpt>
      <trkpt lat="44.83595" lon="5.38746">
        <ele>1364.7287598</ele>
        <time>2011-08-27T09:46:02Z</time>
      </trkpt>
      <trkpt lat="44.83598" lon="5.38747">
        <ele>1364.2480469</ele>
        <time>2011-08-27T09:46:37Z</time>
      </trkpt>
      <trkpt lat="44.83599" lon="5.38747">
        <ele>1364.7287598</ele>
        <time>2011-08-27T09:48:08Z</time>
      </trkpt>
      <trkpt lat="44.83605" lon="5.38746">
        <ele>1364.7287598</ele>
        <time>2011-08-27T09:48:12Z</time>
      </trkpt>
      <trkpt lat="44.83632" lon="5.38744">
        <ele>1365.2094727</ele>
        <time>2011-08-27T09:48:31Z</time>
      </trkpt>
      <trkpt lat="44.83638" lon="5.38743">
        <ele>1364.2480469</ele>
        <time>2011-08-27T09:48:38Z</time>
      </trkpt>
      <trkpt lat="44.83661" lon="5.38743">
        <ele>1362.8061523</ele>
        <time>2011-08-27T09:48:52Z</time>
      </trkpt>
      <trkpt lat="44.83668" lon="5.38742">
        <ele>1362.8061523</ele>
        <time>2011-08-27T09:49:05Z</time>
      </trkpt>
      <trkpt lat="44.83668" lon="5.38742">
        <ele>1362.8061523</ele>
        <time>2011-08-27T09:49:12Z</time>
      </trkpt>
      <trkpt lat="44.8368" lon="5.38741">
        <ele>1361.3642578</ele>
        <time>2011-08-27T09:49:26Z</time>
      </trkpt>
      <trkpt lat="44.83696" lon="5.38741">
        <ele>1361.3642578</ele>
        <time>2011-08-27T09:49:36Z</time>
      </trkpt>
      <trkpt lat="44.83735" lon="5.38736">
        <ele>1362.8061523</ele>
        <time>2011-08-27T09:49:57Z</time>
      </trkpt>
      <trkpt lat="44.8378" lon="5.38736">
        <ele>1365.2094727</ele>
        <time>2011-08-27T09:50:21Z</time>
      </trkpt>
      <trkpt lat="44.83812" lon="5.38738">
        <ele>1366.6513672</ele>
        <time>2011-08-27T09:50:39Z</time>
      </trkpt>
      <trkpt lat="44.8384" lon="5.3874">
        <ele>1368.5739746</ele>
        <time>2011-08-27T09:50:58Z</time>
      </trkpt>
      <trkpt lat="44.8386" lon="5.3874">
        <ele>1370.496582</ele>
        <time>2011-08-27T09:51:13Z</time>
      </trkpt>
      <trkpt lat="44.83889" lon="5.38742">
        <ele>1373.8613281</ele>
        <time>2011-08-27T09:51:35Z</time>
      </trkpt>
      <trkpt lat="44.83922" lon="5.38744">
        <ele>1377.2260742</ele>
        <time>2011-08-27T09:51:58Z</time>
      </trkpt>
      <trkpt lat="44.83956" lon="5.38747">
        <ele>1381.0712891</ele>
        <time>2011-08-27T09:52:21Z</time>
      </trkpt>
      <trkpt lat="44.8399" lon="5.38746">
        <ele>1384.9165039</ele>
        <time>2011-08-27T09:52:45Z</time>
      </trkpt>
      <trkpt lat="44.84017" lon="5.38748">
        <ele>1388.28125</ele>
        <time>2011-08-27T09:53:06Z</time>
      </trkpt>
      <trkpt lat="44.8404" lon="5.38755">
        <ele>1392.1264648</ele>
        <time>2011-08-27T09:53:28Z</time>
      </trkpt>
      <trkpt lat="44.84065" lon="5.38764">
        <ele>1395.9716797</ele>
        <time>2011-08-27T09:53:51Z</time>
      </trkpt>
      <trkpt lat="44.84091" lon="5.38765">
        <ele>1400.2976074</ele>
        <time>2011-08-27T09:54:13Z</time>
      </trkpt>
      <trkpt lat="44.84118" lon="5.38768">
        <ele>1405.5849609</ele>
        <time>2011-08-27T09:54:39Z</time>
      </trkpt>
      <trkpt lat="44.84141" lon="5.38766">
        <ele>1406.5461426</ele>
        <time>2011-08-27T09:55:00Z</time>
      </trkpt>
      <trkpt lat="44.84158" lon="5.38765">
        <ele>1408.46875</ele>
        <time>2011-08-27T09:55:19Z</time>
      </trkpt>
      <trkpt lat="44.84175" lon="5.38769">
        <ele>1410.3913574</ele>
        <time>2011-08-27T09:55:33Z</time>
      </trkpt>
      <trkpt lat="44.84195" lon="5.38764">
        <ele>1413.7558594</ele>
        <time>2011-08-27T09:55:53Z</time>
      </trkpt>
      <trkpt lat="44.84201" lon="5.38761">
        <ele>1413.7558594</ele>
        <time>2011-08-27T09:55:59Z</time>
      </trkpt>
      <trkpt lat="44.84214" lon="5.38782">
        <ele>1413.7558594</ele>
        <time>2011-08-27T09:56:17Z</time>
      </trkpt>
      <trkpt lat="44.84227" lon="5.38807">
        <ele>1416.1591797</ele>
        <time>2011-08-27T09:56:38Z</time>
      </trkpt>
      <trkpt lat="44.84251" lon="5.38807">
        <ele>1419.5239258</ele>
        <time>2011-08-27T09:56:58Z</time>
      </trkpt>
      <trkpt lat="44.84257" lon="5.38805">
        <ele>1420.4853516</ele>
        <time>2011-08-27T09:57:04Z</time>
      </trkpt>
      <trkpt lat="44.84265" lon="5.38796">
        <ele>1420.9660645</ele>
        <time>2011-08-27T09:57:13Z</time>
      </trkpt>
      <trkpt lat="44.84266" lon="5.38793">
        <ele>1420.9660645</ele>
        <time>2011-08-27T09:57:15Z</time>
      </trkpt>
      <trkpt lat="44.8427" lon="5.38789">
        <ele>1421.4465332</ele>
        <time>2011-08-27T09:57:19Z</time>
      </trkpt>
      <trkpt lat="44.84272" lon="5.38774">
        <ele>1420.9660645</ele>
        <time>2011-08-27T09:57:34Z</time>
      </trkpt>
      <trkpt lat="44.84272" lon="5.38773">
        <ele>1419.0432129</ele>
        <time>2011-08-27T09:58:47Z</time>
      </trkpt>
      <trkpt lat="44.84274" lon="5.38771">
        <ele>1418.5625</ele>
        <time>2011-08-27T10:07:14Z</time>
      </trkpt>
      <trkpt lat="44.84276" lon="5.3877">
        <ele>1419.0432129</ele>
        <time>2011-08-27T10:07:38Z</time>
      </trkpt>
      <trkpt lat="44.84286" lon="5.3874">
        <ele>1415.6787109</ele>
        <time>2011-08-27T10:07:56Z</time>
      </trkpt>
      <trkpt lat="44.84318" lon="5.38684">
        <ele>1406.5461426</ele>
        <time>2011-08-27T10:08:11Z</time>
      </trkpt>
      <trkpt lat="44.8436" lon="5.3864">
        <ele>1399.3361816</ele>
        <time>2011-08-27T10:08:25Z</time>
      </trkpt>
      <trkpt lat="44.84403" lon="5.38623">
        <ele>1395.0102539</ele>
        <time>2011-08-27T10:08:37Z</time>
      </trkpt>
      <trkpt lat="44.84461" lon="5.38595">
        <ele>1387.3195801</ele>
        <time>2011-08-27T10:08:52Z</time>
      </trkpt>
      <trkpt lat="44.84528" lon="5.38573">
        <ele>1378.1872559</ele>
        <time>2011-08-27T10:09:11Z</time>
      </trkpt>
      <trkpt lat="44.84579" lon="5.38559">
        <ele>1370.496582</ele>
        <time>2011-08-27T10:09:27Z</time>
      </trkpt>
      <trkpt lat="44.84629" lon="5.38549">
        <ele>1362.3254395</ele>
        <time>2011-08-27T10:09:42Z</time>
      </trkpt>
      <trkpt lat="44.84647" lon="5.38542">
        <ele>1358.9609375</ele>
        <time>2011-08-27T10:09:53Z</time>
      </trkpt>
      <trkpt lat="44.8466" lon="5.38535">
        <ele>1357.0383301</ele>
        <time>2011-08-27T10:10:02Z</time>
      </trkpt>
      <trkpt lat="44.84669" lon="5.38526">
        <ele>1356.5576172</ele>
        <time>2011-08-27T10:10:13Z</time>
      </trkpt>
      <trkpt lat="44.84673" lon="5.3852">
        <ele>1357.9997559</ele>
        <time>2011-08-27T10:10:26Z</time>
      </trkpt>
      <trkpt lat="44.84678" lon="5.38518">
        <ele>1363.2868652</ele>
        <time>2011-08-27T10:10:45Z</time>
      </trkpt>
      <trkpt lat="44.84691" lon="5.38517">
        <ele>1362.3254395</ele>
        <time>2011-08-27T10:11:02Z</time>
      </trkpt>
      <trkpt lat="44.847" lon="5.38506">
        <ele>1361.8449707</ele>
        <time>2011-08-27T10:11:13Z</time>
      </trkpt>
      <trkpt lat="44.84707" lon="5.38506">
        <ele>1360.402832</ele>
        <time>2011-08-27T10:11:23Z</time>
      </trkpt>
      <trkpt lat="44.84706" lon="5.38508">
        <ele>1360.402832</ele>
        <time>2011-08-27T10:11:26Z</time>
      </trkpt>
      <trkpt lat="44.84708" lon="5.38516">
        <ele>1360.8835449</ele>
        <time>2011-08-27T10:11:39Z</time>
      </trkpt>
      <trkpt lat="44.84708" lon="5.38522">
        <ele>1362.3254395</ele>
        <time>2011-08-27T10:11:47Z</time>
      </trkpt>
      <trkpt lat="44.84718" lon="5.38524">
        <ele>1364.2480469</ele>
        <time>2011-08-27T10:11:58Z</time>
      </trkpt>
      <trkpt lat="44.84721" lon="5.38522">
        <ele>1365.6901855</ele>
        <time>2011-08-27T10:12:01Z</time>
      </trkpt>
      <trkpt lat="44.84727" lon="5.38521">
        <ele>1360.402832</ele>
        <time>2011-08-27T10:12:08Z</time>
      </trkpt>
      <trkpt lat="44.84733" lon="5.38519">
        <ele>1356.0769043</ele>
        <time>2011-08-27T10:12:16Z</time>
      </trkpt>
      <trkpt lat="44.84741" lon="5.38514">
        <ele>1351.7509766</ele>
        <time>2011-08-27T10:12:25Z</time>
      </trkpt>
      <trkpt lat="44.84745" lon="5.3851">
        <ele>1348.3862305</ele>
        <time>2011-08-27T10:12:36Z</time>
      </trkpt>
      <trkpt lat="44.84748" lon="5.38503">
        <ele>1346.4638672</ele>
        <time>2011-08-27T10:12:49Z</time>
      </trkpt>
      <trkpt lat="44.8475" lon="5.38495">
        <ele>1342.6186523</ele>
        <time>2011-08-27T10:13:01Z</time>
      </trkpt>
      <trkpt lat="44.84753" lon="5.38488">
        <ele>1338.7731934</ele>
        <time>2011-08-27T10:13:14Z</time>
      </trkpt>
      <trkpt lat="44.84763" lon="5.38487">
        <ele>1334.4472656</ele>
        <time>2011-08-27T10:13:31Z</time>
      </trkpt>
      <trkpt lat="44.84767" lon="5.38477">
        <ele>1332.0439453</ele>
        <time>2011-08-27T10:13:44Z</time>
      </trkpt>
      <trkpt lat="44.84771" lon="5.38462">
        <ele>1332.0439453</ele>
        <time>2011-08-27T10:13:59Z</time>
      </trkpt>
      <trkpt lat="44.84779" lon="5.38457">
        <ele>1333.9665527</ele>
        <time>2011-08-27T10:14:14Z</time>
      </trkpt>
      <trkpt lat="44.84782" lon="5.38457">
        <ele>1336.369873</ele>
        <time>2011-08-27T10:14:28Z</time>
      </trkpt>
      <trkpt lat="44.84787" lon="5.38458">
        <ele>1336.8503418</ele>
        <time>2011-08-27T10:14:35Z</time>
      </trkpt>
      <trkpt lat="44.84799" lon="5.38462">
        <ele>1331.0827637</ele>
        <time>2011-08-27T10:14:48Z</time>
      </trkpt>
      <trkpt lat="44.84803" lon="5.38462">
        <ele>1331.5632324</ele>
        <time>2011-08-27T10:14:52Z</time>
      </trkpt>
      <trkpt lat="44.84817" lon="5.38465">
        <ele>1331.5632324</ele>
        <time>2011-08-27T10:15:07Z</time>
      </trkpt>
      <trkpt lat="44.84825" lon="5.38467">
        <ele>1333.9665527</ele>
        <time>2011-08-27T10:15:25Z</time>
      </trkpt>
      <trkpt lat="44.84836" lon="5.38473">
        <ele>1335.8891602</ele>
        <time>2011-08-27T10:15:47Z</time>
      </trkpt>
      <trkpt lat="44.84843" lon="5.38472">
        <ele>1338.2924805</ele>
        <time>2011-08-27T10:16:12Z</time>
      </trkpt>
      <trkpt lat="44.84847" lon="5.38479">
        <ele>1338.2924805</ele>
        <time>2011-08-27T10:16:27Z</time>
      </trkpt>
      <trkpt lat="44.84855" lon="5.3848">
        <ele>1339.2536621</ele>
        <time>2011-08-27T10:16:38Z</time>
      </trkpt>
      <trkpt lat="44.84877" lon="5.38485">
        <ele>1335.4084473</ele>
        <time>2011-08-27T10:16:53Z</time>
      </trkpt>
      <trkpt lat="44.84898" lon="5.38487">
        <ele>1328.1987305</ele>
        <time>2011-08-27T10:17:04Z</time>
      </trkpt>
      <trkpt lat="44.84911" lon="5.38485">
        <ele>1324.8342285</ele>
        <time>2011-08-27T10:17:17Z</time>
      </trkpt>
      <trkpt lat="44.84922" lon="5.38482">
        <ele>1323.3920898</ele>
        <time>2011-08-27T10:17:28Z</time>
      </trkpt>
      <trkpt lat="44.84927" lon="5.38483">
        <ele>1322.4306641</ele>
        <time>2011-08-27T10:17:33Z</time>
      </trkpt>
      <trkpt lat="44.84939" lon="5.38482">
        <ele>1327.2375488</ele>
        <time>2011-08-27T10:17:48Z</time>
      </trkpt>
      <trkpt lat="44.84973" lon="5.38481">
        <ele>1322.4306641</ele>
        <time>2011-08-27T10:18:03Z</time>
      </trkpt>
      <trkpt lat="44.84975" lon="5.38481">
        <ele>1322.911377</ele>
        <time>2011-08-27T10:18:06Z</time>
      </trkpt>
      <trkpt lat="44.84988" lon="5.38478">
        <ele>1325.7954102</ele>
        <time>2011-08-27T10:18:21Z</time>
      </trkpt>
      <trkpt lat="44.84998" lon="5.38477">
        <ele>1325.7954102</ele>
        <time>2011-08-27T10:18:36Z</time>
      </trkpt>
      <trkpt lat="44.85005" lon="5.38473">
        <ele>1325.3146973</ele>
        <time>2011-08-27T10:18:42Z</time>
      </trkpt>
      <trkpt lat="44.85006" lon="5.38471">
        <ele>1324.3535156</ele>
        <time>2011-08-27T10:18:46Z</time>
      </trkpt>
      <trkpt lat="44.85018" lon="5.38477">
        <ele>1319.0661621</ele>
        <time>2011-08-27T10:19:02Z</time>
      </trkpt>
      <trkpt lat="44.85022" lon="5.38476">
        <ele>1317.6240234</ele>
        <time>2011-08-27T10:19:05Z</time>
      </trkpt>
      <trkpt lat="44.85032" lon="5.38475">
        <ele>1314.2595215</ele>
        <time>2011-08-27T10:19:16Z</time>
      </trkpt>
      <trkpt lat="44.85044" lon="5.38472">
        <ele>1308.4916992</ele>
        <time>2011-08-27T10:19:29Z</time>
      </trkpt>
      <trkpt lat="44.85054" lon="5.38467">
        <ele>1301.7624512</ele>
        <time>2011-08-27T10:19:42Z</time>
      </trkpt>
      <trkpt lat="44.85067" lon="5.38463">
        <ele>1298.878418</ele>
        <time>2011-08-27T10:19:57Z</time>
      </trkpt>
      <trkpt lat="44.85075" lon="5.38454">
        <ele>1298.3977051</ele>
        <time>2011-08-27T10:20:15Z</time>
      </trkpt>
      <trkpt lat="44.85081" lon="5.38451">
        <ele>1297.9172363</ele>
        <time>2011-08-27T10:20:20Z</time>
      </trkpt>
      <trkpt lat="44.85085" lon="5.38445">
        <ele>1291.1877441</ele>
        <time>2011-08-27T10:20:33Z</time>
      </trkpt>
      <trkpt lat="44.85101" lon="5.38444">
        <ele>1285.9006348</ele>
        <time>2011-08-27T10:20:47Z</time>
      </trkpt>
      <trkpt lat="44.85111" lon="5.38435">
        <ele>1289.2651367</ele>
        <time>2011-08-27T10:21:03Z</time>
      </trkpt>
      <trkpt lat="44.85108" lon="5.38434">
        <ele>1290.7070313</ele>
        <time>2011-08-27T10:22:34Z</time>
      </trkpt>
      <trkpt lat="44.85113" lon="5.38429">
        <ele>1289.2651367</ele>
        <time>2011-08-27T10:22:39Z</time>
      </trkpt>
      <trkpt lat="44.85144" lon="5.38403">
        <ele>1274.845459</ele>
        <time>2011-08-27T10:22:52Z</time>
      </trkpt>
      <trkpt lat="44.85182" lon="5.38363">
        <ele>1265.7131348</ele>
        <time>2011-08-27T10:23:05Z</time>
      </trkpt>
      <trkpt lat="44.85221" lon="5.38312">
        <ele>1256.0996094</ele>
        <time>2011-08-27T10:23:20Z</time>
      </trkpt>
      <trkpt lat="44.8523" lon="5.38312">
        <ele>1253.6965332</ele>
        <time>2011-08-27T10:23:26Z</time>
      </trkpt>
      <trkpt lat="44.85254" lon="5.38321">
        <ele>1249.8513184</ele>
        <time>2011-08-27T10:23:34Z</time>
      </trkpt>
      <trkpt lat="44.85271" lon="5.38321">
        <ele>1248.4091797</ele>
        <time>2011-08-27T10:23:46Z</time>
      </trkpt>
      <trkpt lat="44.85273" lon="5.38319">
        <ele>1249.8513184</ele>
        <time>2011-08-27T10:24:09Z</time>
      </trkpt>
      <trkpt lat="44.85277" lon="5.38322">
        <ele>1251.7739258</ele>
        <time>2011-08-27T10:24:22Z</time>
      </trkpt>
      <trkpt lat="44.85284" lon="5.38328">
        <ele>1254.1772461</ele>
        <time>2011-08-27T10:24:29Z</time>
      </trkpt>
      <trkpt lat="44.85314" lon="5.38342">
        <ele>1258.0224609</ele>
        <time>2011-08-27T10:24:42Z</time>
      </trkpt>
      <trkpt lat="44.8532" lon="5.38343">
        <ele>1257.0610352</ele>
        <time>2011-08-27T10:24:45Z</time>
      </trkpt>
      <trkpt lat="44.85347" lon="5.38348">
        <ele>1250.8125</ele>
        <time>2011-08-27T10:24:56Z</time>
      </trkpt>
      <trkpt lat="44.85369" lon="5.3836">
        <ele>1244.0834961</ele>
        <time>2011-08-27T10:25:05Z</time>
      </trkpt>
      <trkpt lat="44.85393" lon="5.38363">
        <ele>1240.7185059</ele>
        <time>2011-08-27T10:25:14Z</time>
      </trkpt>
      <trkpt lat="44.8542" lon="5.38372">
        <ele>1240.7185059</ele>
        <time>2011-08-27T10:25:25Z</time>
      </trkpt>
      <trkpt lat="44.85448" lon="5.38388">
        <ele>1240.2380371</ele>
        <time>2011-08-27T10:25:34Z</time>
      </trkpt>
      <trkpt lat="44.85502" lon="5.38404">
        <ele>1233.989502</ele>
        <time>2011-08-27T10:25:45Z</time>
      </trkpt>
      <trkpt lat="44.85513" lon="5.38405">
        <ele>1233.0280762</ele>
        <time>2011-08-27T10:25:47Z</time>
      </trkpt>
      <trkpt lat="44.85531" lon="5.3841">
        <ele>1233.0280762</ele>
        <time>2011-08-27T10:25:51Z</time>
      </trkpt>
      <trkpt lat="44.85554" lon="5.38415">
        <ele>1233.989502</ele>
        <time>2011-08-27T10:25:56Z</time>
      </trkpt>
      <trkpt lat="44.85581" lon="5.38418">
        <ele>1232.0668945</ele>
        <time>2011-08-27T10:26:01Z</time>
      </trkpt>
      <trkpt lat="44.8563" lon="5.38427">
        <ele>1233.5087891</ele>
        <time>2011-08-27T10:26:11Z</time>
      </trkpt>
      <trkpt lat="44.85661" lon="5.3841">
        <ele>1222.9343262</ele>
        <time>2011-08-27T10:26:22Z</time>
      </trkpt>
      <trkpt lat="44.85663" lon="5.38415">
        <ele>1221.4921875</ele>
        <time>2011-08-27T10:26:41Z</time>
      </trkpt>
      <trkpt lat="44.85673" lon="5.38413">
        <ele>1218.1276855</ele>
        <time>2011-08-27T10:26:46Z</time>
      </trkpt>
      <trkpt lat="44.85704" lon="5.38403">
        <ele>1211.3984375</ele>
        <time>2011-08-27T10:26:57Z</time>
      </trkpt>
      <trkpt lat="44.85748" lon="5.38366">
        <ele>1199.3820801</ele>
        <time>2011-08-27T10:27:08Z</time>
      </trkpt>
      <trkpt lat="44.85758" lon="5.38356">
        <ele>1197.4594727</ele>
        <time>2011-08-27T10:27:11Z</time>
      </trkpt>
      <trkpt lat="44.85793" lon="5.38303">
        <ele>1190.7299805</ele>
        <time>2011-08-27T10:27:19Z</time>
      </trkpt>
      <trkpt lat="44.85826" lon="5.38273">
        <ele>1184.9624023</ele>
        <time>2011-08-27T10:27:26Z</time>
      </trkpt>
      <trkpt lat="44.85866" lon="5.38257">
        <ele>1181.1171875</ele>
        <time>2011-08-27T10:27:36Z</time>
      </trkpt>
      <trkpt lat="44.85902" lon="5.38248">
        <ele>1182.0783691</ele>
        <time>2011-08-27T10:27:45Z</time>
      </trkpt>
      <trkpt lat="44.85942" lon="5.38232">
        <ele>1178.713623</ele>
        <time>2011-08-27T10:27:55Z</time>
      </trkpt>
      <trkpt lat="44.85953" lon="5.38228">
        <ele>1176.3103027</ele>
        <time>2011-08-27T10:27:59Z</time>
      </trkpt>
      <trkpt lat="44.85978" lon="5.38196">
        <ele>1171.0231934</ele>
        <time>2011-08-27T10:28:10Z</time>
      </trkpt>
      <trkpt lat="44.85982" lon="5.38192">
        <ele>1170.5424805</ele>
        <time>2011-08-27T10:28:11Z</time>
      </trkpt>
      <trkpt lat="44.86033" lon="5.38137">
        <ele>1158.0454102</ele>
        <time>2011-08-27T10:28:24Z</time>
      </trkpt>
      <trkpt lat="44.86102" lon="5.38071">
        <ele>1147.951416</ele>
        <time>2011-08-27T10:28:39Z</time>
      </trkpt>
      <trkpt lat="44.86133" lon="5.38047">
        <ele>1145.0673828</ele>
        <time>2011-08-27T10:28:45Z</time>
      </trkpt>
      <trkpt lat="44.8616" lon="5.38039">
        <ele>1143.1447754</ele>
        <time>2011-08-27T10:28:50Z</time>
      </trkpt>
      <trkpt lat="44.86227" lon="5.38044">
        <ele>1140.2609863</ele>
        <time>2011-08-27T10:29:02Z</time>
      </trkpt>
      <trkpt lat="44.86293" lon="5.38028">
        <ele>1142.1835938</ele>
        <time>2011-08-27T10:29:19Z</time>
      </trkpt>
      <trkpt lat="44.8636" lon="5.38006">
        <ele>1143.6254883</ele>
        <time>2011-08-27T10:29:40Z</time>
      </trkpt>
      <trkpt lat="44.86404" lon="5.38005">
        <ele>1142.1835938</ele>
        <time>2011-08-27T10:29:55Z</time>
      </trkpt>
      <trkpt lat="44.86441" lon="5.38001">
        <ele>1141.7028809</ele>
        <time>2011-08-27T10:30:07Z</time>
      </trkpt>
      <trkpt lat="44.86443" lon="5.38">
        <ele>1141.7028809</ele>
        <time>2011-08-27T10:30:08Z</time>
      </trkpt>
      <trkpt lat="44.86445" lon="5.37999">
        <ele>1141.222168</ele>
        <time>2011-08-27T10:30:10Z</time>
      </trkpt>
      <trkpt lat="44.86439" lon="5.37995">
        <ele>1141.222168</ele>
        <time>2011-08-27T10:30:16Z</time>
      </trkpt>
      <trkpt lat="44.86447" lon="5.38">
        <ele>1140.7414551</ele>
        <time>2011-08-27T10:30:23Z</time>
      </trkpt>
      <trkpt lat="44.86455" lon="5.38002">
        <ele>1139.7802734</ele>
        <time>2011-08-27T10:30:35Z</time>
      </trkpt>
      <trkpt lat="44.86478" lon="5.38">
        <ele>1140.2609863</ele>
        <time>2011-08-27T10:30:47Z</time>
      </trkpt>
      <trkpt lat="44.86522" lon="5.37993">
        <ele>1139.7802734</ele>
        <time>2011-08-27T10:31:03Z</time>
      </trkpt>
      <trkpt lat="44.8653" lon="5.37994">
        <ele>1139.7802734</ele>
        <time>2011-08-27T10:31:12Z</time>
      </trkpt>
      <trkpt lat="44.86551" lon="5.37986">
        <ele>1139.2995605</ele>
        <time>2011-08-27T10:31:56Z</time>
      </trkpt>
      <trkpt lat="44.86601" lon="5.37978">
        <ele>1135.9350586</ele>
        <time>2011-08-27T10:32:13Z</time>
      </trkpt>
      <trkpt lat="44.86644" lon="5.37976">
        <ele>1127.7636719</ele>
        <time>2011-08-27T10:32:26Z</time>
      </trkpt>
      <trkpt lat="44.86665" lon="5.37971">
        <ele>1122.4765625</ele>
        <time>2011-08-27T10:32:32Z</time>
      </trkpt>
      <trkpt lat="44.86736" lon="5.37963">
        <ele>1123.918457</ele>
        <time>2011-08-27T10:32:47Z</time>
      </trkpt>
      <trkpt lat="44.8676" lon="5.37963">
        <ele>1123.4379883</ele>
        <time>2011-08-27T10:32:53Z</time>
      </trkpt>
      <trkpt lat="44.8683" lon="5.37961">
        <ele>1124.3991699</ele>
        <time>2011-08-27T10:33:11Z</time>
      </trkpt>
      <trkpt lat="44.86883" lon="5.37967">
        <ele>1126.8024902</ele>
        <time>2011-08-27T10:33:26Z</time>
      </trkpt>
      <trkpt lat="44.86948" lon="5.37984">
        <ele>1125.8410645</ele>
        <time>2011-08-27T10:33:42Z</time>
      </trkpt>
      <trkpt lat="44.87036" lon="5.38001">
        <ele>1124.3991699</ele>
        <time>2011-08-27T10:34:01Z</time>
      </trkpt>
      <trkpt lat="44.87091" lon="5.38003">
        <ele>1122.4765625</ele>
        <time>2011-08-27T10:34:16Z</time>
      </trkpt>
      <trkpt lat="44.87144" lon="5.37983">
        <ele>1120.0732422</ele>
        <time>2011-08-27T10:34:32Z</time>
      </trkpt>
      <trkpt lat="44.87161" lon="5.3798">
        <ele>1119.1120605</ele>
        <time>2011-08-27T10:34:36Z</time>
      </trkpt>
      <trkpt lat="44.87176" lon="5.37968">
        <ele>1116.7087402</ele>
        <time>2011-08-27T10:34:40Z</time>
      </trkpt>
      <trkpt lat="44.87205" lon="5.37955">
        <ele>1115.2666016</ele>
        <time>2011-08-27T10:34:46Z</time>
      </trkpt>
      <trkpt lat="44.87221" lon="5.37954">
        <ele>1114.3051758</ele>
        <time>2011-08-27T10:34:49Z</time>
      </trkpt>
      <trkpt lat="44.87248" lon="5.37943">
        <ele>1111.9020996</ele>
        <time>2011-08-27T10:34:54Z</time>
      </trkpt>
      <trkpt lat="44.87257" lon="5.37937">
        <ele>1111.9020996</ele>
        <time>2011-08-27T10:34:56Z</time>
      </trkpt>
      <trkpt lat="44.87275" lon="5.37938">
        <ele>1111.4213867</ele>
        <time>2011-08-27T10:35:00Z</time>
      </trkpt>
      <trkpt lat="44.87319" lon="5.37951">
        <ele>1110.4599609</ele>
        <time>2011-08-27T10:35:10Z</time>
      </trkpt>
      <trkpt lat="44.87334" lon="5.37976">
        <ele>1110.4599609</ele>
        <time>2011-08-27T10:35:18Z</time>
      </trkpt>
      <trkpt lat="44.87331" lon="5.37993">
        <ele>1109.979248</ele>
        <time>2011-08-27T10:35:21Z</time>
      </trkpt>
      <trkpt lat="44.87337" lon="5.38005">
        <ele>1109.4987793</ele>
        <time>2011-08-27T10:35:25Z</time>
      </trkpt>
      <trkpt lat="44.87408" lon="5.38037">
        <ele>1108.0568848</ele>
        <time>2011-08-27T10:35:46Z</time>
      </trkpt>
      <trkpt lat="44.87483" lon="5.38092">
        <ele>1106.6147461</ele>
        <time>2011-08-27T10:36:06Z</time>
      </trkpt>
      <trkpt lat="44.8756" lon="5.38139">
        <ele>1103.2502441</ele>
        <time>2011-08-27T10:36:24Z</time>
      </trkpt>
      <trkpt lat="44.87655" lon="5.38189">
        <ele>1101.3276367</ele>
        <time>2011-08-27T10:36:46Z</time>
      </trkpt>
      <trkpt lat="44.8773" lon="5.38236">
        <ele>1099.4047852</ele>
        <time>2011-08-27T10:37:03Z</time>
      </trkpt>
      <trkpt lat="44.87799" lon="5.383">
        <ele>1096.5209961</ele>
        <time>2011-08-27T10:37:18Z</time>
      </trkpt>
      <trkpt lat="44.87823" lon="5.38314">
        <ele>1096.5209961</ele>
        <time>2011-08-27T10:37:23Z</time>
      </trkpt>
      <trkpt lat="44.87919" lon="5.38332">
        <ele>1094.5981445</ele>
        <time>2011-08-27T10:37:41Z</time>
      </trkpt>
      <trkpt lat="44.8799" lon="5.38344">
        <ele>1092.6757813</ele>
        <time>2011-08-27T10:37:55Z</time>
      </trkpt>
      <trkpt lat="44.88005" lon="5.38347">
        <ele>1091.7143555</ele>
        <time>2011-08-27T10:37:58Z</time>
      </trkpt>
      <trkpt lat="44.88074" lon="5.38366">
        <ele>1089.791748</ele>
        <time>2011-08-27T10:38:11Z</time>
      </trkpt>
      <trkpt lat="44.88169" lon="5.38386">
        <ele>1086.9077148</ele>
        <time>2011-08-27T10:38:28Z</time>
      </trkpt>
      <trkpt lat="44.88289" lon="5.3841">
        <ele>1083.0622559</ele>
        <time>2011-08-27T10:38:50Z</time>
      </trkpt>
      <trkpt lat="44.8839" lon="5.38432">
        <ele>1080.1784668</ele>
        <time>2011-08-27T10:39:09Z</time>
      </trkpt>
      <trkpt lat="44.88436" lon="5.38441">
        <ele>1078.2558594</ele>
        <time>2011-08-27T10:39:24Z</time>
      </trkpt>
      <trkpt lat="44.88482" lon="5.38461">
        <ele>1077.7751465</ele>
        <time>2011-08-27T10:39:40Z</time>
      </trkpt>
      <trkpt lat="44.88534" lon="5.38475">
        <ele>1078.2558594</ele>
        <time>2011-08-27T10:39:56Z</time>
      </trkpt>
      <trkpt lat="44.88612" lon="5.38515">
        <ele>1078.2558594</ele>
        <time>2011-08-27T10:40:16Z</time>
      </trkpt>
      <trkpt lat="44.887" lon="5.38575">
        <ele>1075.3718262</ele>
        <time>2011-08-27T10:40:36Z</time>
      </trkpt>
      <trkpt lat="44.88745" lon="5.38591">
        <ele>1074.8913574</ele>
        <time>2011-08-27T10:40:50Z</time>
      </trkpt>
      <trkpt lat="44.88746" lon="5.3859">
        <ele>1074.4106445</ele>
        <time>2011-08-27T10:41:13Z</time>
      </trkpt>
      <trkpt lat="44.88769" lon="5.3859">
        <ele>1073.4494629</ele>
        <time>2011-08-27T10:41:41Z</time>
      </trkpt>
      <trkpt lat="44.88843" lon="5.38582">
        <ele>1072.0073242</ele>
        <time>2011-08-27T10:42:01Z</time>
      </trkpt>
      <trkpt lat="44.88935" lon="5.38599">
        <ele>1070.5654297</ele>
        <time>2011-08-27T10:42:21Z</time>
      </trkpt>
      <trkpt lat="44.89036" lon="5.38634">
        <ele>1067.6811523</ele>
        <time>2011-08-27T10:42:41Z</time>
      </trkpt>
      <trkpt lat="44.891" lon="5.38674">
        <ele>1067.2006836</ele>
        <time>2011-08-27T10:42:56Z</time>
      </trkpt>
      <trkpt lat="44.89113" lon="5.38681">
        <ele>1066.7199707</ele>
        <time>2011-08-27T10:42:59Z</time>
      </trkpt>
      <trkpt lat="44.89231" lon="5.38717">
        <ele>1064.3166504</ele>
        <time>2011-08-27T10:43:23Z</time>
      </trkpt>
      <trkpt lat="44.8936" lon="5.38764">
        <ele>1061.4328613</ele>
        <time>2011-08-27T10:43:49Z</time>
      </trkpt>
      <trkpt lat="44.89403" lon="5.38781">
        <ele>1061.4328613</ele>
        <time>2011-08-27T10:44:01Z</time>
      </trkpt>
      <trkpt lat="44.89467" lon="5.38819">
        <ele>1060.9521484</ele>
        <time>2011-08-27T10:44:18Z</time>
      </trkpt>
      <trkpt lat="44.89524" lon="5.38863">
        <ele>1060.4714355</ele>
        <time>2011-08-27T10:44:37Z</time>
      </trkpt>
      <trkpt lat="44.89597" lon="5.38941">
        <ele>1060.4714355</ele>
        <time>2011-08-27T10:45:01Z</time>
      </trkpt>
      <trkpt lat="44.89683" lon="5.39032">
        <ele>1059.029541</ele>
        <time>2011-08-27T10:45:29Z</time>
      </trkpt>
      <trkpt lat="44.89746" lon="5.39103">
        <ele>1058.0683594</ele>
        <time>2011-08-27T10:45:50Z</time>
      </trkpt>
      <trkpt lat="44.89749" lon="5.39107">
        <ele>1058.0683594</ele>
        <time>2011-08-27T10:45:51Z</time>
      </trkpt>
      <trkpt lat="44.89793" lon="5.39164">
        <ele>1059.029541</ele>
        <time>2011-08-27T10:46:07Z</time>
      </trkpt>
      <trkpt lat="44.89845" lon="5.39185">
        <ele>1059.029541</ele>
        <time>2011-08-27T10:46:23Z</time>
      </trkpt>
      <trkpt lat="44.89894" lon="5.39203">
        <ele>1062.394043</ele>
        <time>2011-08-27T10:46:42Z</time>
      </trkpt>
      <trkpt lat="44.89903" lon="5.39221">
        <ele>1063.3554688</ele>
        <time>2011-08-27T10:46:49Z</time>
      </trkpt>
      <trkpt lat="44.89904" lon="5.39232">
        <ele>1063.3554688</ele>
        <time>2011-08-27T10:46:53Z</time>
      </trkpt>
      <trkpt lat="44.89911" lon="5.39231">
        <ele>1064.3166504</ele>
        <time>2011-08-27T10:46:59Z</time>
      </trkpt>
      <trkpt lat="44.89931" lon="5.39211">
        <ele>1065.2780762</ele>
        <time>2011-08-27T10:47:11Z</time>
      </trkpt>
      <trkpt lat="44.8994" lon="5.3921">
        <ele>1066.7199707</ele>
        <time>2011-08-27T10:47:17Z</time>
      </trkpt>
      <trkpt lat="44.89967" lon="5.39173">
        <ele>1068.1621094</ele>
        <time>2011-08-27T10:47:32Z</time>
      </trkpt>
      <trkpt lat="44.9" lon="5.39116">
        <ele>1068.6428223</ele>
        <time>2011-08-27T10:47:49Z</time>
      </trkpt>
      <trkpt lat="44.9002" lon="5.39086">
        <ele>1068.1621094</ele>
        <time>2011-08-27T10:48:03Z</time>
      </trkpt>
      <trkpt lat="44.90042" lon="5.39062">
        <ele>1067.2006836</ele>
        <time>2011-08-27T10:48:11Z</time>
      </trkpt>
      <trkpt lat="44.90061" lon="5.39049">
        <ele>1066.2392578</ele>
        <time>2011-08-27T10:48:16Z</time>
      </trkpt>
      <trkpt lat="44.90118" lon="5.39045">
        <ele>1064.3166504</ele>
        <time>2011-08-27T10:48:30Z</time>
      </trkpt>
      <trkpt lat="44.90173" lon="5.39024">
        <ele>1062.394043</ele>
        <time>2011-08-27T10:48:44Z</time>
      </trkpt>
      <trkpt lat="44.90179" lon="5.39022">
        <ele>1062.394043</ele>
        <time>2011-08-27T10:48:46Z</time>
      </trkpt>
      <trkpt lat="44.90185" lon="5.39032">
        <ele>1062.8747559</ele>
        <time>2011-08-27T10:48:51Z</time>
      </trkpt>
      <trkpt lat="44.90173" lon="5.39098">
        <ele>1064.7973633</ele>
        <time>2011-08-27T10:49:10Z</time>
      </trkpt>
      <trkpt lat="44.90167" lon="5.39174">
        <ele>1068.1621094</ele>
        <time>2011-08-27T10:49:30Z</time>
      </trkpt>
      <trkpt lat="44.90142" lon="5.39246">
        <ele>1064.7973633</ele>
        <time>2011-08-27T10:49:41Z</time>
      </trkpt>
      <trkpt lat="44.90129" lon="5.39316">
        <ele>1066.7199707</ele>
        <time>2011-08-27T10:49:53Z</time>
      </trkpt>
      <trkpt lat="44.90108" lon="5.39421">
        <ele>1067.6811523</ele>
        <time>2011-08-27T10:50:16Z</time>
      </trkpt>
      <trkpt lat="44.90109" lon="5.39427">
        <ele>1067.6811523</ele>
        <time>2011-08-27T10:50:28Z</time>
      </trkpt>
      <trkpt lat="44.9011" lon="5.39429">
        <ele>1068.1621094</ele>
        <time>2011-08-27T10:50:29Z</time>
      </trkpt>
      <trkpt lat="44.90114" lon="5.39442">
        <ele>1068.1621094</ele>
        <time>2011-08-27T10:50:47Z</time>
      </trkpt>
      <trkpt lat="44.90126" lon="5.3946">
        <ele>1067.2006836</ele>
        <time>2011-08-27T10:51:35Z</time>
      </trkpt>
      <trkpt lat="44.90163" lon="5.39493">
        <ele>1066.2392578</ele>
        <time>2011-08-27T10:51:49Z</time>
      </trkpt>
      <trkpt lat="44.90204" lon="5.39533">
        <ele>1066.2392578</ele>
        <time>2011-08-27T10:52:04Z</time>
      </trkpt>
      <trkpt lat="44.90243" lon="5.39551">
        <ele>1066.2392578</ele>
        <time>2011-08-27T10:52:20Z</time>
      </trkpt>
      <trkpt lat="44.90299" lon="5.39581">
        <ele>1065.2780762</ele>
        <time>2011-08-27T10:52:40Z</time>
      </trkpt>
      <trkpt lat="44.90359" lon="5.39635">
        <ele>1064.7973633</ele>
        <time>2011-08-27T10:53:00Z</time>
      </trkpt>
      <trkpt lat="44.90391" lon="5.39695">
        <ele>1065.7587891</ele>
        <time>2011-08-27T10:53:16Z</time>
      </trkpt>
      <trkpt lat="44.90421" lon="5.39744">
        <ele>1064.7973633</ele>
        <time>2011-08-27T10:53:31Z</time>
      </trkpt>
      <trkpt lat="44.90429" lon="5.39763">
        <ele>1063.3554688</ele>
        <time>2011-08-27T10:53:36Z</time>
      </trkpt>
      <trkpt lat="44.90483" lon="5.39785">
        <ele>1059.029541</ele>
        <time>2011-08-27T10:53:48Z</time>
      </trkpt>
      <trkpt lat="44.90529" lon="5.39786">
        <ele>1059.5102539</ele>
        <time>2011-08-27T10:54:02Z</time>
      </trkpt>
      <trkpt lat="44.90562" lon="5.39801">
        <ele>1062.8747559</ele>
        <time>2011-08-27T10:54:17Z</time>
      </trkpt>
      <trkpt lat="44.90573" lon="5.39826">
        <ele>1062.8747559</ele>
        <time>2011-08-27T10:54:29Z</time>
      </trkpt>
      <trkpt lat="44.90573" lon="5.39826">
        <ele>1062.8747559</ele>
        <time>2011-08-27T10:55:20Z</time>
      </trkpt>
      <trkpt lat="44.90596" lon="5.39841">
        <ele>1060.4714355</ele>
        <time>2011-08-27T10:55:34Z</time>
      </trkpt>
      <trkpt lat="44.90614" lon="5.39866">
        <ele>1058.0683594</ele>
        <time>2011-08-27T10:55:44Z</time>
      </trkpt>
      <trkpt lat="44.90654" lon="5.39907">
        <ele>1058.0683594</ele>
        <time>2011-08-27T10:55:57Z</time>
      </trkpt>
      <trkpt lat="44.90697" lon="5.39925">
        <ele>1057.1069336</ele>
        <time>2011-08-27T10:56:11Z</time>
      </trkpt>
      <trkpt lat="44.90725" lon="5.39928">
        <ele>1057.1069336</ele>
        <time>2011-08-27T10:56:21Z</time>
      </trkpt>
      <trkpt lat="44.90737" lon="5.39913">
        <ele>1056.6262207</ele>
        <time>2011-08-27T10:56:26Z</time>
      </trkpt>
      <trkpt lat="44.90748" lon="5.39917">
        <ele>1056.6262207</ele>
        <time>2011-08-27T10:56:30Z</time>
      </trkpt>
      <trkpt lat="44.90758" lon="5.39928">
        <ele>1057.1069336</ele>
        <time>2011-08-27T10:56:41Z</time>
      </trkpt>
      <trkpt lat="44.90755" lon="5.39924">
        <ele>1057.1069336</ele>
        <time>2011-08-27T10:56:49Z</time>
      </trkpt>
      <trkpt lat="44.90754" lon="5.39923">
        <ele>1056.6262207</ele>
        <time>2011-08-27T10:56:51Z</time>
      </trkpt>
      <trkpt lat="44.90752" lon="5.39917">
        <ele>1057.1069336</ele>
        <time>2011-08-27T10:57:04Z</time>
      </trkpt>
      <trkpt lat="44.90752" lon="5.39917">
        <ele>1056.1455078</ele>
        <time>2011-08-27T10:57:51Z</time>
      </trkpt>
      <trkpt lat="44.9075" lon="5.39918">
        <ele>1054.7036133</ele>
        <time>2011-08-27T11:33:47Z</time>
      </trkpt>
      <trkpt lat="44.9075" lon="5.39918">
        <ele>1054.2231445</ele>
        <time>2011-08-27T11:35:31Z</time>
      </trkpt>
      <trkpt lat="44.90751" lon="5.39921">
        <ele>1052.7810059</ele>
        <time>2011-08-27T11:36:18Z</time>
      </trkpt>
      <trkpt lat="44.90752" lon="5.39922">
        <ele>1053.7424316</ele>
        <time>2011-08-27T11:36:30Z</time>
      </trkpt>
      <trkpt lat="44.90791" lon="5.39949">
        <ele>1052.300293</ele>
        <time>2011-08-27T11:36:45Z</time>
      </trkpt>
      <trkpt lat="44.90836" lon="5.39991">
        <ele>1052.300293</ele>
        <time>2011-08-27T11:37:00Z</time>
      </trkpt>
      <trkpt lat="44.90849" lon="5.40023">
        <ele>1053.2617188</ele>
        <time>2011-08-27T11:37:07Z</time>
      </trkpt>
      <trkpt lat="44.90887" lon="5.40076">
        <ele>1050.8581543</ele>
        <time>2011-08-27T11:37:22Z</time>
      </trkpt>
      <trkpt lat="44.9091" lon="5.40098">
        <ele>1048.454834</ele>
        <time>2011-08-27T11:37:27Z</time>
      </trkpt>
      <trkpt lat="44.90955" lon="5.40109">
        <ele>1047.4936523</ele>
        <time>2011-08-27T11:37:36Z</time>
      </trkpt>
      <trkpt lat="44.91011" lon="5.4009">
        <ele>1047.4936523</ele>
        <time>2011-08-27T11:37:50Z</time>
      </trkpt>
      <trkpt lat="44.9106" lon="5.40047">
        <ele>1047.0129395</ele>
        <time>2011-08-27T11:38:06Z</time>
      </trkpt>
      <trkpt lat="44.91099" lon="5.40019">
        <ele>1048.9355469</ele>
        <time>2011-08-27T11:38:20Z</time>
      </trkpt>
      <trkpt lat="44.91116" lon="5.40016">
        <ele>1047.9743652</ele>
        <time>2011-08-27T11:38:25Z</time>
      </trkpt>
      <trkpt lat="44.9114" lon="5.40015">
        <ele>1047.9743652</ele>
        <time>2011-08-27T11:38:31Z</time>
      </trkpt>
      <trkpt lat="44.91185" lon="5.40023">
        <ele>1050.3776855</ele>
        <time>2011-08-27T11:38:46Z</time>
      </trkpt>
      <trkpt lat="44.91211" lon="5.40044">
        <ele>1053.2617188</ele>
        <time>2011-08-27T11:39:03Z</time>
      </trkpt>
      <trkpt lat="44.91233" lon="5.40074">
        <ele>1054.2231445</ele>
        <time>2011-08-27T11:39:18Z</time>
      </trkpt>
      <trkpt lat="44.91259" lon="5.40129">
        <ele>1053.7424316</ele>
        <time>2011-08-27T11:39:35Z</time>
      </trkpt>
      <trkpt lat="44.91287" lon="5.40189">
        <ele>1053.7424316</ele>
        <time>2011-08-27T11:39:51Z</time>
      </trkpt>
      <trkpt lat="44.91333" lon="5.40258">
        <ele>1054.7036133</ele>
        <time>2011-08-27T11:40:10Z</time>
      </trkpt>
      <trkpt lat="44.91382" lon="5.40262">
        <ele>1054.7036133</ele>
        <time>2011-08-27T11:40:24Z</time>
      </trkpt>
      <trkpt lat="44.91434" lon="5.40256">
        <ele>1055.1843262</ele>
        <time>2011-08-27T11:40:36Z</time>
      </trkpt>
      <trkpt lat="44.91452" lon="5.40254">
        <ele>1055.1843262</ele>
        <time>2011-08-27T11:40:40Z</time>
      </trkpt>
      <trkpt lat="44.91482" lon="5.40238">
        <ele>1055.1843262</ele>
        <time>2011-08-27T11:40:48Z</time>
      </trkpt>
      <trkpt lat="44.91506" lon="5.40218">
        <ele>1053.7424316</ele>
        <time>2011-08-27T11:40:54Z</time>
      </trkpt>
      <trkpt lat="44.91546" lon="5.40211">
        <ele>1053.2617188</ele>
        <time>2011-08-27T11:41:03Z</time>
      </trkpt>
      <trkpt lat="44.91576" lon="5.40217">
        <ele>1051.3388672</ele>
        <time>2011-08-27T11:41:12Z</time>
      </trkpt>
      <trkpt lat="44.91591" lon="5.40217">
        <ele>1050.3776855</ele>
        <time>2011-08-27T11:41:24Z</time>
      </trkpt>
      <trkpt lat="44.91587" lon="5.40214">
        <ele>1050.8581543</ele>
        <time>2011-08-27T11:41:37Z</time>
      </trkpt>
      <trkpt lat="44.91586" lon="5.40214">
        <ele>1050.8581543</ele>
        <time>2011-08-27T11:41:38Z</time>
      </trkpt>
      <trkpt lat="44.9158" lon="5.40214">
        <ele>1051.3388672</ele>
        <time>2011-08-27T11:41:51Z</time>
      </trkpt>
      <trkpt lat="44.9158" lon="5.40214">
        <ele>1051.3388672</ele>
        <time>2011-08-27T11:41:53Z</time>
      </trkpt>
      <trkpt lat="44.9159" lon="5.40182">
        <ele>1049.4162598</ele>
        <time>2011-08-27T11:42:01Z</time>
      </trkpt>
      <trkpt lat="44.91611" lon="5.40173">
        <ele>1047.9743652</ele>
        <time>2011-08-27T11:42:06Z</time>
      </trkpt>
      <trkpt lat="44.91637" lon="5.40146">
        <ele>1047.4936523</ele>
        <time>2011-08-27T11:42:17Z</time>
      </trkpt>
      <trkpt lat="44.91637" lon="5.40146">
        <ele>1047.4936523</ele>
        <time>2011-08-27T11:42:31Z</time>
      </trkpt>
      <trkpt lat="44.91637" lon="5.40143">
        <ele>1047.4936523</ele>
        <time>2011-08-27T11:42:33Z</time>
      </trkpt>
      <trkpt lat="44.91661" lon="5.40105">
        <ele>1046.0517578</ele>
        <time>2011-08-27T11:42:46Z</time>
      </trkpt>
      <trkpt lat="44.917" lon="5.40065">
        <ele>1047.0129395</ele>
        <time>2011-08-27T11:43:01Z</time>
      </trkpt>
      <trkpt lat="44.91727" lon="5.40029">
        <ele>1047.4936523</ele>
        <time>2011-08-27T11:43:15Z</time>
      </trkpt>
      <trkpt lat="44.91755" lon="5.39998">
        <ele>1049.4162598</ele>
        <time>2011-08-27T11:43:27Z</time>
      </trkpt>
      <trkpt lat="44.91766" lon="5.39964">
        <ele>1050.8581543</ele>
        <time>2011-08-27T11:43:41Z</time>
      </trkpt>
      <trkpt lat="44.91778" lon="5.39936">
        <ele>1054.7036133</ele>
        <time>2011-08-27T11:43:58Z</time>
      </trkpt>
      <trkpt lat="44.91781" lon="5.39934">
        <ele>1054.7036133</ele>
        <time>2011-08-27T11:44:01Z</time>
      </trkpt>
      <trkpt lat="44.9179" lon="5.39934">
        <ele>1054.2231445</ele>
        <time>2011-08-27T11:44:06Z</time>
      </trkpt>
      <trkpt lat="44.91835" lon="5.39933">
        <ele>1054.7036133</ele>
        <time>2011-08-27T11:44:22Z</time>
      </trkpt>
      <trkpt lat="44.91843" lon="5.39932">
        <ele>1055.1843262</ele>
        <time>2011-08-27T11:44:26Z</time>
      </trkpt>
      <trkpt lat="44.91846" lon="5.3993">
        <ele>1056.1455078</ele>
        <time>2011-08-27T11:44:28Z</time>
      </trkpt>
      <trkpt lat="44.91881" lon="5.39925">
        <ele>1055.1843262</ele>
        <time>2011-08-27T11:44:43Z</time>
      </trkpt>
      <trkpt lat="44.91926" lon="5.3993">
        <ele>1056.1455078</ele>
        <time>2011-08-27T11:44:58Z</time>
      </trkpt>
      <trkpt lat="44.91968" lon="5.39932">
        <ele>1058.5488281</ele>
        <time>2011-08-27T11:45:14Z</time>
      </trkpt>
      <trkpt lat="44.92016" lon="5.39948">
        <ele>1055.1843262</ele>
        <time>2011-08-27T11:45:29Z</time>
      </trkpt>
      <trkpt lat="44.92055" lon="5.39977">
        <ele>1056.1455078</ele>
        <time>2011-08-27T11:45:40Z</time>
      </trkpt>
      <trkpt lat="44.92086" lon="5.3999">
        <ele>1056.1455078</ele>
        <time>2011-08-27T11:45:54Z</time>
      </trkpt>
      <trkpt lat="44.92127" lon="5.40014">
        <ele>1053.2617188</ele>
        <time>2011-08-27T11:46:07Z</time>
      </trkpt>
      <trkpt lat="44.92134" lon="5.40019">
        <ele>1052.300293</ele>
        <time>2011-08-27T11:46:09Z</time>
      </trkpt>
      <trkpt lat="44.92154" lon="5.40022">
        <ele>1051.8195801</ele>
        <time>2011-08-27T11:46:14Z</time>
      </trkpt>
      <trkpt lat="44.92173" lon="5.40039">
        <ele>1050.3776855</ele>
        <time>2011-08-27T11:46:20Z</time>
      </trkpt>
      <trkpt lat="44.92193" lon="5.40077">
        <ele>1048.9355469</ele>
        <time>2011-08-27T11:46:31Z</time>
      </trkpt>
      <trkpt lat="44.92221" lon="5.40095">
        <ele>1047.4936523</ele>
        <time>2011-08-27T11:46:38Z</time>
      </trkpt>
      <trkpt lat="44.92237" lon="5.40096">
        <ele>1047.0129395</ele>
        <time>2011-08-27T11:46:42Z</time>
      </trkpt>
      <trkpt lat="44.92258" lon="5.40088">
        <ele>1045.090332</ele>
        <time>2011-08-27T11:46:48Z</time>
      </trkpt>
      <trkpt lat="44.92274" lon="5.40087">
        <ele>1045.090332</ele>
        <time>2011-08-27T11:46:52Z</time>
      </trkpt>
      <trkpt lat="44.92291" lon="5.40058">
        <ele>1044.1291504</ele>
        <time>2011-08-27T11:47:03Z</time>
      </trkpt>
      <trkpt lat="44.92297" lon="5.39991">
        <ele>1043.1677246</ele>
        <time>2011-08-27T11:47:18Z</time>
      </trkpt>
      <trkpt lat="44.92321" lon="5.39949">
        <ele>1044.1291504</ele>
        <time>2011-08-27T11:47:30Z</time>
      </trkpt>
      <trkpt lat="44.92335" lon="5.39923">
        <ele>1042.6872559</ele>
        <time>2011-08-27T11:47:38Z</time>
      </trkpt>
      <trkpt lat="44.92344" lon="5.39921">
        <ele>1043.1677246</ele>
        <time>2011-08-27T11:47:47Z</time>
      </trkpt>
      <trkpt lat="44.92345" lon="5.39924">
        <ele>1042.206543</ele>
        <time>2011-08-27T11:48:07Z</time>
      </trkpt>
      <trkpt lat="44.92346" lon="5.3992">
        <ele>1043.1677246</ele>
        <time>2011-08-27T11:50:07Z</time>
      </trkpt>
      <trkpt lat="44.92351" lon="5.39913">
        <ele>1044.1291504</ele>
        <time>2011-08-27T11:50:31Z</time>
      </trkpt>
      <trkpt lat="44.92351" lon="5.39912">
        <ele>1044.1291504</ele>
        <time>2011-08-27T11:50:55Z</time>
      </trkpt>
      <trkpt lat="44.92352" lon="5.39911">
        <ele>1044.1291504</ele>
        <time>2011-08-27T11:51:00Z</time>
      </trkpt>
      <trkpt lat="44.92368" lon="5.39868">
        <ele>1042.6872559</ele>
        <time>2011-08-27T11:51:11Z</time>
      </trkpt>
      <trkpt lat="44.92398" lon="5.39829">
        <ele>1043.1677246</ele>
        <time>2011-08-27T11:51:23Z</time>
      </trkpt>
      <trkpt lat="44.92438" lon="5.39838">
        <ele>1046.0517578</ele>
        <time>2011-08-27T11:51:35Z</time>
      </trkpt>
      <trkpt lat="44.92458" lon="5.39848">
        <ele>1046.0517578</ele>
        <time>2011-08-27T11:51:41Z</time>
      </trkpt>
      <trkpt lat="44.92473" lon="5.39862">
        <ele>1046.5324707</ele>
        <time>2011-08-27T11:51:45Z</time>
      </trkpt>
      <trkpt lat="44.92509" lon="5.39884">
        <ele>1047.9743652</ele>
        <time>2011-08-27T11:51:57Z</time>
      </trkpt>
      <trkpt lat="44.92529" lon="5.39907">
        <ele>1045.090332</ele>
        <time>2011-08-27T11:52:05Z</time>
      </trkpt>
      <trkpt lat="44.9256" lon="5.39931">
        <ele>1041.7258301</ele>
        <time>2011-08-27T11:52:17Z</time>
      </trkpt>
      <trkpt lat="44.92574" lon="5.3995">
        <ele>1038.842041</ele>
        <time>2011-08-27T11:52:26Z</time>
      </trkpt>
      <trkpt lat="44.9258" lon="5.3996">
        <ele>1037.3999023</ele>
        <time>2011-08-27T11:52:30Z</time>
      </trkpt>
      <trkpt lat="44.92603" lon="5.40018">
        <ele>1037.8806152</ele>
        <time>2011-08-27T11:52:44Z</time>
      </trkpt>
      <trkpt lat="44.92632" lon="5.40046">
        <ele>1033.0737305</ele>
        <time>2011-08-27T11:52:56Z</time>
      </trkpt>
      <trkpt lat="44.92642" lon="5.40059">
        <ele>1032.5932617</ele>
        <time>2011-08-27T11:53:02Z</time>
      </trkpt>
      <trkpt lat="44.9265" lon="5.40054">
        <ele>1035.4770508</ele>
        <time>2011-08-27T11:53:15Z</time>
      </trkpt>
      <trkpt lat="44.92658" lon="5.4005">
        <ele>1038.3613281</ele>
        <time>2011-08-27T11:53:31Z</time>
      </trkpt>
      <trkpt lat="44.92661" lon="5.40048">
        <ele>1039.3225098</ele>
        <time>2011-08-27T11:53:56Z</time>
      </trkpt>
      <trkpt lat="44.92662" lon="5.40043">
        <ele>1040.2839355</ele>
        <time>2011-08-27T11:54:15Z</time>
      </trkpt>
      <trkpt lat="44.92672" lon="5.40038">
        <ele>1042.206543</ele>
        <time>2011-08-27T11:54:32Z</time>
      </trkpt>
      <trkpt lat="44.92677" lon="5.40035">
        <ele>1040.7644043</ele>
        <time>2011-08-27T11:54:47Z</time>
      </trkpt>
      <trkpt lat="44.92684" lon="5.40024">
        <ele>1037.8806152</ele>
        <time>2011-08-27T11:55:02Z</time>
      </trkpt>
      <trkpt lat="44.92697" lon="5.40022">
        <ele>1037.8806152</ele>
        <time>2011-08-27T11:55:15Z</time>
      </trkpt>
      <trkpt lat="44.92721" lon="5.40014">
        <ele>1039.3225098</ele>
        <time>2011-08-27T11:55:32Z</time>
      </trkpt>
      <trkpt lat="44.92734" lon="5.40001">
        <ele>1041.2451172</ele>
        <time>2011-08-27T11:55:51Z</time>
      </trkpt>
      <trkpt lat="44.92746" lon="5.39987">
        <ele>1044.6096191</ele>
        <time>2011-08-27T11:56:11Z</time>
      </trkpt>
      <trkpt lat="44.92747" lon="5.39985">
        <ele>1045.090332</ele>
        <time>2011-08-27T11:56:13Z</time>
      </trkpt>
      <trkpt lat="44.92761" lon="5.3997">
        <ele>1047.0129395</ele>
        <time>2011-08-27T11:56:33Z</time>
      </trkpt>
      <trkpt lat="44.92763" lon="5.39965">
        <ele>1047.4936523</ele>
        <time>2011-08-27T11:56:36Z</time>
      </trkpt>
      <trkpt lat="44.92766" lon="5.39956">
        <ele>1047.4936523</ele>
        <time>2011-08-27T11:56:40Z</time>
      </trkpt>
      <trkpt lat="44.92773" lon="5.39952">
        <ele>1045.090332</ele>
        <time>2011-08-27T11:56:51Z</time>
      </trkpt>
      <trkpt lat="44.92786" lon="5.3994">
        <ele>1044.1291504</ele>
        <time>2011-08-27T11:56:58Z</time>
      </trkpt>
      <trkpt lat="44.92797" lon="5.39892">
        <ele>1040.7644043</ele>
        <time>2011-08-27T11:57:10Z</time>
      </trkpt>
      <trkpt lat="44.92817" lon="5.39887">
        <ele>1043.1677246</ele>
        <time>2011-08-27T11:57:22Z</time>
      </trkpt>
      <trkpt lat="44.9282" lon="5.39888">
        <ele>1043.1677246</ele>
        <time>2011-08-27T11:57:24Z</time>
      </trkpt>
      <trkpt lat="44.92824" lon="5.39891">
        <ele>1042.6872559</ele>
        <time>2011-08-27T11:57:27Z</time>
      </trkpt>
      <trkpt lat="44.92827" lon="5.39887">
        <ele>1041.7258301</ele>
        <time>2011-08-27T11:57:38Z</time>
      </trkpt>
      <trkpt lat="44.92828" lon="5.39886">
        <ele>1041.2451172</ele>
        <time>2011-08-27T11:57:39Z</time>
      </trkpt>
      <trkpt lat="44.9283" lon="5.39882">
        <ele>1040.7644043</ele>
        <time>2011-08-27T11:57:42Z</time>
      </trkpt>
      <trkpt lat="44.92835" lon="5.39881">
        <ele>1040.7644043</ele>
        <time>2011-08-27T11:57:46Z</time>
      </trkpt>
      <trkpt lat="44.92849" lon="5.39876">
        <ele>1040.2839355</ele>
        <time>2011-08-27T11:57:54Z</time>
      </trkpt>
      <trkpt lat="44.92882" lon="5.39885">
        <ele>1044.1291504</ele>
        <time>2011-08-27T11:58:15Z</time>
      </trkpt>
      <trkpt lat="44.92886" lon="5.39892">
        <ele>1045.090332</ele>
        <time>2011-08-27T11:58:20Z</time>
      </trkpt>
      <trkpt lat="44.92887" lon="5.39897">
        <ele>1045.090332</ele>
        <time>2011-08-27T11:58:22Z</time>
      </trkpt>
      <trkpt lat="44.92893" lon="5.39905">
        <ele>1045.090332</ele>
        <time>2011-08-27T11:58:26Z</time>
      </trkpt>
      <trkpt lat="44.92911" lon="5.39915">
        <ele>1047.4936523</ele>
        <time>2011-08-27T11:58:39Z</time>
      </trkpt>
      <trkpt lat="44.9292" lon="5.39951">
        <ele>1048.454834</ele>
        <time>2011-08-27T11:58:55Z</time>
      </trkpt>
      <trkpt lat="44.92926" lon="5.39956">
        <ele>1048.9355469</ele>
        <time>2011-08-27T11:58:59Z</time>
      </trkpt>
      <trkpt lat="44.92927" lon="5.39963">
        <ele>1049.8969727</ele>
        <time>2011-08-27T11:59:10Z</time>
      </trkpt>
      <trkpt lat="44.9293" lon="5.39971">
        <ele>1050.8581543</ele>
        <time>2011-08-27T11:59:19Z</time>
      </trkpt>
      <trkpt lat="44.92932" lon="5.3997">
        <ele>1050.8581543</ele>
        <time>2011-08-27T11:59:22Z</time>
      </trkpt>
      <trkpt lat="44.92935" lon="5.39963">
        <ele>1051.3388672</ele>
        <time>2011-08-27T11:59:28Z</time>
      </trkpt>
      <trkpt lat="44.92947" lon="5.39953">
        <ele>1052.7810059</ele>
        <time>2011-08-27T11:59:45Z</time>
      </trkpt>
      <trkpt lat="44.92949" lon="5.39952">
        <ele>1053.2617188</ele>
        <time>2011-08-27T11:59:47Z</time>
      </trkpt>
      <trkpt lat="44.92967" lon="5.39944">
        <ele>1053.7424316</ele>
        <time>2011-08-27T12:00:06Z</time>
      </trkpt>
      <trkpt lat="44.92973" lon="5.39935">
        <ele>1052.300293</ele>
        <time>2011-08-27T12:00:18Z</time>
      </trkpt>
      <trkpt lat="44.92983" lon="5.39931">
        <ele>1052.300293</ele>
        <time>2011-08-27T12:00:32Z</time>
      </trkpt>
      <trkpt lat="44.92986" lon="5.39928">
        <ele>1051.3388672</ele>
        <time>2011-08-27T12:00:52Z</time>
      </trkpt>
      <trkpt lat="44.9299" lon="5.39923">
        <ele>1051.3388672</ele>
        <time>2011-08-27T12:01:36Z</time>
      </trkpt>
      <trkpt lat="44.92995" lon="5.39923">
        <ele>1050.3776855</ele>
        <time>2011-08-27T12:02:11Z</time>
      </trkpt>
      <trkpt lat="44.92996" lon="5.39923">
        <ele>1050.3776855</ele>
        <time>2011-08-27T12:02:13Z</time>
      </trkpt>
      <trkpt lat="44.93003" lon="5.39921">
        <ele>1050.3776855</ele>
        <time>2011-08-27T12:02:18Z</time>
      </trkpt>
      <trkpt lat="44.93007" lon="5.39918">
        <ele>1049.8969727</ele>
        <time>2011-08-27T12:02:20Z</time>
      </trkpt>
      <trkpt lat="44.93012" lon="5.39894">
        <ele>1047.0129395</ele>
        <time>2011-08-27T12:02:28Z</time>
      </trkpt>
      <trkpt lat="44.93018" lon="5.3989">
        <ele>1044.6096191</ele>
        <time>2011-08-27T12:02:32Z</time>
      </trkpt>
      <trkpt lat="44.93023" lon="5.39888">
        <ele>1044.1291504</ele>
        <time>2011-08-27T12:02:34Z</time>
      </trkpt>
      <trkpt lat="44.93055" lon="5.39869">
        <ele>1040.7644043</ele>
        <time>2011-08-27T12:02:45Z</time>
      </trkpt>
      <trkpt lat="44.93097" lon="5.39844">
        <ele>1039.3225098</ele>
        <time>2011-08-27T12:02:58Z</time>
      </trkpt>
      <trkpt lat="44.93105" lon="5.39839">
        <ele>1040.7644043</ele>
        <time>2011-08-27T12:03:10Z</time>
      </trkpt>
      <trkpt lat="44.93125" lon="5.39829">
        <ele>1042.206543</ele>
        <time>2011-08-27T12:03:23Z</time>
      </trkpt>
      <trkpt lat="44.93148" lon="5.3983">
        <ele>1045.5710449</ele>
        <time>2011-08-27T12:03:38Z</time>
      </trkpt>
      <trkpt lat="44.93149" lon="5.39828">
        <ele>1046.0517578</ele>
        <time>2011-08-27T12:03:52Z</time>
      </trkpt>
      <trkpt lat="44.93155" lon="5.39829">
        <ele>1046.5324707</ele>
        <time>2011-08-27T12:04:07Z</time>
      </trkpt>
      <trkpt lat="44.93176" lon="5.39831">
        <ele>1048.454834</ele>
        <time>2011-08-27T12:04:20Z</time>
      </trkpt>
      <trkpt lat="44.93215" lon="5.39831">
        <ele>1046.0517578</ele>
        <time>2011-08-27T12:04:38Z</time>
      </trkpt>
      <trkpt lat="44.93218" lon="5.39831">
        <ele>1045.5710449</ele>
        <time>2011-08-27T12:04:39Z</time>
      </trkpt>
      <trkpt lat="44.93231" lon="5.39834">
        <ele>1044.6096191</ele>
        <time>2011-08-27T12:04:43Z</time>
      </trkpt>
      <trkpt lat="44.93274" lon="5.39846">
        <ele>1035.9577637</ele>
        <time>2011-08-27T12:04:57Z</time>
      </trkpt>
      <trkpt lat="44.93278" lon="5.39847">
        <ele>1036.4387207</ele>
        <time>2011-08-27T12:05:07Z</time>
      </trkpt>
      <trkpt lat="44.93279" lon="5.39847">
        <ele>1035.9577637</ele>
        <time>2011-08-27T12:05:43Z</time>
      </trkpt>
      <trkpt lat="44.93279" lon="5.39847">
        <ele>1035.9577637</ele>
        <time>2011-08-27T12:05:44Z</time>
      </trkpt>
      <trkpt lat="44.93312" lon="5.39844">
        <ele>1033.0737305</ele>
        <time>2011-08-27T12:05:56Z</time>
      </trkpt>
      <trkpt lat="44.93315" lon="5.39842">
        <ele>1033.0737305</ele>
        <time>2011-08-27T12:05:57Z</time>
      </trkpt>
      <trkpt lat="44.93335" lon="5.39792">
        <ele>1033.5544434</ele>
        <time>2011-08-27T12:06:13Z</time>
      </trkpt>
      <trkpt lat="44.93357" lon="5.3978">
        <ele>1035.4770508</ele>
        <time>2011-08-27T12:06:29Z</time>
      </trkpt>
      <trkpt lat="44.93361" lon="5.3978">
        <ele>1035.9577637</ele>
        <time>2011-08-27T12:06:31Z</time>
      </trkpt>
      <trkpt lat="44.93369" lon="5.39782">
        <ele>1036.9191895</ele>
        <time>2011-08-27T12:06:43Z</time>
      </trkpt>
      <trkpt lat="44.93377" lon="5.39784">
        <ele>1036.9191895</ele>
        <time>2011-08-27T12:06:51Z</time>
      </trkpt>
      <trkpt lat="44.93393" lon="5.39791">
        <ele>1040.2839355</ele>
        <time>2011-08-27T12:07:09Z</time>
      </trkpt>
      <trkpt lat="44.93407" lon="5.39804">
        <ele>1043.6484375</ele>
        <time>2011-08-27T12:07:27Z</time>
      </trkpt>
      <trkpt lat="44.93418" lon="5.39812">
        <ele>1045.090332</ele>
        <time>2011-08-27T12:07:41Z</time>
      </trkpt>
      <trkpt lat="44.93428" lon="5.39824">
        <ele>1046.5324707</ele>
        <time>2011-08-27T12:07:54Z</time>
      </trkpt>
      <trkpt lat="44.93438" lon="5.39828">
        <ele>1046.5324707</ele>
        <time>2011-08-27T12:08:10Z</time>
      </trkpt>
      <trkpt lat="44.93456" lon="5.39824">
        <ele>1047.9743652</ele>
        <time>2011-08-27T12:08:29Z</time>
      </trkpt>
      <trkpt lat="44.93459" lon="5.39822">
        <ele>1047.4936523</ele>
        <time>2011-08-27T12:09:56Z</time>
      </trkpt>
      <trkpt lat="44.93477" lon="5.39826">
        <ele>1046.5324707</ele>
        <time>2011-08-27T12:10:10Z</time>
      </trkpt>
      <trkpt lat="44.93532" lon="5.39816">
        <ele>1046.0517578</ele>
        <time>2011-08-27T12:10:29Z</time>
      </trkpt>
      <trkpt lat="44.93577" lon="5.39802">
        <ele>1041.7258301</ele>
        <time>2011-08-27T12:10:43Z</time>
      </trkpt>
      <trkpt lat="44.93616" lon="5.39805">
        <ele>1037.3999023</ele>
        <time>2011-08-27T12:10:55Z</time>
      </trkpt>
      <trkpt lat="44.9362" lon="5.39808">
        <ele>1036.9191895</ele>
        <time>2011-08-27T12:11:04Z</time>
      </trkpt>
      <trkpt lat="44.9362" lon="5.39808">
        <ele>1036.9191895</ele>
        <time>2011-08-27T12:11:12Z</time>
      </trkpt>
      <trkpt lat="44.93654" lon="5.39807">
        <ele>1030.6706543</ele>
        <time>2011-08-27T12:11:25Z</time>
      </trkpt>
      <trkpt lat="44.93659" lon="5.39806">
        <ele>1029.7092285</ele>
        <time>2011-08-27T12:11:26Z</time>
      </trkpt>
      <trkpt lat="44.93682" lon="5.39796">
        <ele>1024.902832</ele>
        <time>2011-08-27T12:11:31Z</time>
      </trkpt>
      <trkpt lat="44.93694" lon="5.39786">
        <ele>1022.4995117</ele>
        <time>2011-08-27T12:11:34Z</time>
      </trkpt>
      <trkpt lat="44.93712" lon="5.39786">
        <ele>1021.0576172</ele>
        <time>2011-08-27T12:11:38Z</time>
      </trkpt>
      <trkpt lat="44.93736" lon="5.39782">
        <ele>1019.6154785</ele>
        <time>2011-08-27T12:11:43Z</time>
      </trkpt>
      <trkpt lat="44.9375" lon="5.39783">
        <ele>1017.692627</ele>
        <time>2011-08-27T12:11:46Z</time>
      </trkpt>
      <trkpt lat="44.93782" lon="5.39776">
        <ele>1015.2895508</ele>
        <time>2011-08-27T12:11:53Z</time>
      </trkpt>
      <trkpt lat="44.93798" lon="5.3978">
        <ele>1013.3669434</ele>
        <time>2011-08-27T12:11:57Z</time>
      </trkpt>
      <trkpt lat="44.93809" lon="5.39776">
        <ele>1010.963623</ele>
        <time>2011-08-27T12:12:01Z</time>
      </trkpt>
      <trkpt lat="44.93816" lon="5.3977">
        <ele>1008.5603027</ele>
        <time>2011-08-27T12:12:04Z</time>
      </trkpt>
      <trkpt lat="44.93836" lon="5.39781">
        <ele>1005.1958008</ele>
        <time>2011-08-27T12:12:10Z</time>
      </trkpt>
      <trkpt lat="44.9386" lon="5.39803">
        <ele>1001.8310547</ele>
        <time>2011-08-27T12:12:16Z</time>
      </trkpt>
      <trkpt lat="44.93889" lon="5.39787">
        <ele>997.0244141</ele>
        <time>2011-08-27T12:12:25Z</time>
      </trkpt>
      <trkpt lat="44.93918" lon="5.3976">
        <ele>991.7373047</ele>
        <time>2011-08-27T12:12:36Z</time>
      </trkpt>
      <trkpt lat="44.9393" lon="5.39745">
        <ele>989.3339844</ele>
        <time>2011-08-27T12:12:40Z</time>
      </trkpt>
      <trkpt lat="44.93949" lon="5.39724">
        <ele>987.8918457</ele>
        <time>2011-08-27T12:12:45Z</time>
      </trkpt>
      <trkpt lat="44.93987" lon="5.39663">
        <ele>984.5273438</ele>
        <time>2011-08-27T12:13:00Z</time>
      </trkpt>
      <trkpt lat="44.93995" lon="5.39637">
        <ele>983.565918</ele>
        <time>2011-08-27T12:14:17Z</time>
      </trkpt>
      <trkpt lat="44.94023" lon="5.39578">
        <ele>983.565918</ele>
        <time>2011-08-27T12:14:30Z</time>
      </trkpt>
      <trkpt lat="44.94084" lon="5.39545">
        <ele>983.565918</ele>
        <time>2011-08-27T12:14:47Z</time>
      </trkpt>
      <trkpt lat="44.94113" lon="5.39531">
        <ele>982.6047363</ele>
        <time>2011-08-27T12:14:56Z</time>
      </trkpt>
      <trkpt lat="44.94128" lon="5.39512">
        <ele>981.1628418</ele>
        <time>2011-08-27T12:15:02Z</time>
      </trkpt>
      <trkpt lat="44.9415" lon="5.39497">
        <ele>977.7980957</ele>
        <time>2011-08-27T12:15:11Z</time>
      </trkpt>
      <trkpt lat="44.94186" lon="5.39494">
        <ele>975.8754883</ele>
        <time>2011-08-27T12:15:21Z</time>
      </trkpt>
      <trkpt lat="44.94193" lon="5.39491">
        <ele>974.9143066</ele>
        <time>2011-08-27T12:15:24Z</time>
      </trkpt>
      <trkpt lat="44.94194" lon="5.3948">
        <ele>972.5109863</ele>
        <time>2011-08-27T12:15:29Z</time>
      </trkpt>
      <trkpt lat="44.94174" lon="5.39448">
        <ele>966.7429199</ele>
        <time>2011-08-27T12:15:41Z</time>
      </trkpt>
      <trkpt lat="44.94167" lon="5.39419">
        <ele>964.3395996</ele>
        <time>2011-08-27T12:15:48Z</time>
      </trkpt>
      <trkpt lat="44.94171" lon="5.39379">
        <ele>961.4558105</ele>
        <time>2011-08-27T12:15:56Z</time>
      </trkpt>
      <trkpt lat="44.94174" lon="5.39352">
        <ele>958.5717773</ele>
        <time>2011-08-27T12:16:06Z</time>
      </trkpt>
      <trkpt lat="44.94175" lon="5.39354">
        <ele>958.5717773</ele>
        <time>2011-08-27T12:16:12Z</time>
      </trkpt>
      <trkpt lat="44.94175" lon="5.39363">
        <ele>956.6491699</ele>
        <time>2011-08-27T12:16:16Z</time>
      </trkpt>
      <trkpt lat="44.94181" lon="5.39388">
        <ele>955.2070313</ele>
        <time>2011-08-27T12:16:23Z</time>
      </trkpt>
      <trkpt lat="44.94193" lon="5.39383">
        <ele>954.2458496</ele>
        <time>2011-08-27T12:16:32Z</time>
      </trkpt>
      <trkpt lat="44.94212" lon="5.39374">
        <ele>949.9199219</ele>
        <time>2011-08-27T12:16:42Z</time>
      </trkpt>
      <trkpt lat="44.94214" lon="5.39374">
        <ele>948.9584961</ele>
        <time>2011-08-27T12:16:56Z</time>
      </trkpt>
      <trkpt lat="44.9421" lon="5.39374">
        <ele>948.9584961</ele>
        <time>2011-08-27T12:16:59Z</time>
      </trkpt>
      <trkpt lat="44.94203" lon="5.39372">
        <ele>950.4006348</ele>
        <time>2011-08-27T12:17:04Z</time>
      </trkpt>
      <trkpt lat="44.94202" lon="5.39373">
        <ele>951.3618164</ele>
        <time>2011-08-27T12:17:06Z</time>
      </trkpt>
      <trkpt lat="44.94198" lon="5.39377">
        <ele>953.7651367</ele>
        <time>2011-08-27T12:17:11Z</time>
      </trkpt>
      <trkpt lat="44.94196" lon="5.39381">
        <ele>955.2070313</ele>
        <time>2011-08-27T12:17:15Z</time>
      </trkpt>
      <trkpt lat="44.94193" lon="5.39399">
        <ele>959.5332031</ele>
        <time>2011-08-27T12:17:29Z</time>
      </trkpt>
      <trkpt lat="44.94209" lon="5.39408">
        <ele>956.6491699</ele>
        <time>2011-08-27T12:17:36Z</time>
      </trkpt>
      <trkpt lat="44.94236" lon="5.39388">
        <ele>953.2844238</ele>
        <time>2011-08-27T12:17:47Z</time>
      </trkpt>
      <trkpt lat="44.94261" lon="5.3936">
        <ele>950.8811035</ele>
        <time>2011-08-27T12:18:00Z</time>
      </trkpt>
      <trkpt lat="44.94288" lon="5.39332">
        <ele>946.5554199</ele>
        <time>2011-08-27T12:18:11Z</time>
      </trkpt>
      <trkpt lat="44.94307" lon="5.39328">
        <ele>944.6325684</ele>
        <time>2011-08-27T12:18:16Z</time>
      </trkpt>
      <trkpt lat="44.94312" lon="5.39329">
        <ele>943.1906738</ele>
        <time>2011-08-27T12:18:18Z</time>
      </trkpt>
      <trkpt lat="44.9436" lon="5.39308">
        <ele>939.3452148</ele>
        <time>2011-08-27T12:18:30Z</time>
      </trkpt>
      <trkpt lat="44.94364" lon="5.39307">
        <ele>938.8647461</ele>
        <time>2011-08-27T12:18:31Z</time>
      </trkpt>
      <trkpt lat="44.94414" lon="5.39312">
        <ele>934.0581055</ele>
        <time>2011-08-27T12:18:43Z</time>
      </trkpt>
      <trkpt lat="44.94419" lon="5.39311">
        <ele>934.0581055</ele>
        <time>2011-08-27T12:18:53Z</time>
      </trkpt>
      <trkpt lat="44.94438" lon="5.39321">
        <ele>933.0966797</ele>
        <time>2011-08-27T12:19:10Z</time>
      </trkpt>
      <trkpt lat="44.94469" lon="5.39347">
        <ele>932.135498</ele>
        <time>2011-08-27T12:19:23Z</time>
      </trkpt>
      <trkpt lat="44.94504" lon="5.39369">
        <ele>931.1743164</ele>
        <time>2011-08-27T12:19:37Z</time>
      </trkpt>
      <trkpt lat="44.94506" lon="5.3937">
        <ele>932.135498</ele>
        <time>2011-08-27T12:19:38Z</time>
      </trkpt>
      <trkpt lat="44.94521" lon="5.39361">
        <ele>930.6936035</ele>
        <time>2011-08-27T12:19:46Z</time>
      </trkpt>
      <trkpt lat="44.94532" lon="5.39346">
        <ele>930.2128906</ele>
        <time>2011-08-27T12:19:50Z</time>
      </trkpt>
      <trkpt lat="44.94545" lon="5.39328">
        <ele>930.2128906</ele>
        <time>2011-08-27T12:19:55Z</time>
      </trkpt>
      <trkpt lat="44.94551" lon="5.3933">
        <ele>930.2128906</ele>
        <time>2011-08-27T12:20:07Z</time>
      </trkpt>
      <trkpt lat="44.94551" lon="5.3933">
        <ele>930.2128906</ele>
        <time>2011-08-27T12:20:21Z</time>
      </trkpt>
      <trkpt lat="44.94549" lon="5.39334">
        <ele>929.7321777</ele>
        <time>2011-08-27T12:20:24Z</time>
      </trkpt>
      <trkpt lat="44.94572" lon="5.39367">
        <ele>929.2514648</ele>
        <time>2011-08-27T12:20:37Z</time>
      </trkpt>
      <trkpt lat="44.94591" lon="5.39416">
        <ele>926.3676758</ele>
        <time>2011-08-27T12:20:49Z</time>
      </trkpt>
      <trkpt lat="44.94608" lon="5.39486">
        <ele>926.3676758</ele>
        <time>2011-08-27T12:21:04Z</time>
      </trkpt>
      <trkpt lat="44.94664" lon="5.3954">
        <ele>924.9257813</ele>
        <time>2011-08-27T12:21:21Z</time>
      </trkpt>
      <trkpt lat="44.94672" lon="5.39545">
        <ele>925.40625</ele>
        <time>2011-08-27T12:21:24Z</time>
      </trkpt>
      <trkpt lat="44.94688" lon="5.39538">
        <ele>926.3676758</ele>
        <time>2011-08-27T12:21:30Z</time>
      </trkpt>
      <trkpt lat="44.94713" lon="5.39525">
        <ele>927.8095703</ele>
        <time>2011-08-27T12:21:39Z</time>
      </trkpt>
      <trkpt lat="44.94718" lon="5.39538">
        <ele>927.3291016</ele>
        <time>2011-08-27T12:21:44Z</time>
      </trkpt>
      <trkpt lat="44.94732" lon="5.39548">
        <ele>925.40625</ele>
        <time>2011-08-27T12:21:48Z</time>
      </trkpt>
      <trkpt lat="44.94758" lon="5.39559">
        <ele>923.4836426</ele>
        <time>2011-08-27T12:21:55Z</time>
      </trkpt>
      <trkpt lat="44.94756" lon="5.39551">
        <ele>923.4836426</ele>
        <time>2011-08-27T12:22:02Z</time>
      </trkpt>
      <trkpt lat="44.94745" lon="5.39546">
        <ele>925.8869629</ele>
        <time>2011-08-27T12:22:11Z</time>
      </trkpt>
      <trkpt lat="44.94738" lon="5.39543">
        <ele>926.8483887</ele>
        <time>2011-08-27T12:22:25Z</time>
      </trkpt>
      <trkpt lat="44.94737" lon="5.39543">
        <ele>927.3291016</ele>
        <time>2011-08-27T12:22:39Z</time>
      </trkpt>
      <trkpt lat="44.94724" lon="5.39531">
        <ele>929.7321777</ele>
        <time>2011-08-27T12:22:48Z</time>
      </trkpt>
      <trkpt lat="44.94721" lon="5.39526">
        <ele>930.2128906</ele>
        <time>2011-08-27T12:22:50Z</time>
      </trkpt>
      <trkpt lat="44.94725" lon="5.39518">
        <ele>929.7321777</ele>
        <time>2011-08-27T12:22:55Z</time>
      </trkpt>
      <trkpt lat="44.94764" lon="5.39502">
        <ele>930.2128906</ele>
        <time>2011-08-27T12:23:13Z</time>
      </trkpt>
      <trkpt lat="44.94803" lon="5.39491">
        <ele>929.2514648</ele>
        <time>2011-08-27T12:23:27Z</time>
      </trkpt>
      <trkpt lat="44.94832" lon="5.39469">
        <ele>929.7321777</ele>
        <time>2011-08-27T12:23:40Z</time>
      </trkpt>
      <trkpt lat="44.94835" lon="5.39466">
        <ele>929.7321777</ele>
        <time>2011-08-27T12:23:41Z</time>
      </trkpt>
      <trkpt lat="44.94846" lon="5.39466">
        <ele>931.1743164</ele>
        <time>2011-08-27T12:23:45Z</time>
      </trkpt>
      <trkpt lat="44.94864" lon="5.39474">
        <ele>931.1743164</ele>
        <time>2011-08-27T12:23:54Z</time>
      </trkpt>
      <trkpt lat="44.94865" lon="5.3947">
        <ele>930.6936035</ele>
        <time>2011-08-27T12:23:57Z</time>
      </trkpt>
      <trkpt lat="44.94865" lon="5.39464">
        <ele>931.1743164</ele>
        <time>2011-08-27T12:24:00Z</time>
      </trkpt>
      <trkpt lat="44.94867" lon="5.39458">
        <ele>931.6547852</ele>
        <time>2011-08-27T12:24:03Z</time>
      </trkpt>
      <trkpt lat="44.94853" lon="5.39434">
        <ele>934.0581055</ele>
        <time>2011-08-27T12:24:17Z</time>
      </trkpt>
      <trkpt lat="44.94852" lon="5.39432">
        <ele>934.0581055</ele>
        <time>2011-08-27T12:24:18Z</time>
      </trkpt>
      <trkpt lat="44.94848" lon="5.39417">
        <ele>935.5</ele>
        <time>2011-08-27T12:24:25Z</time>
      </trkpt>
      <trkpt lat="44.94849" lon="5.39409">
        <ele>935.9807129</ele>
        <time>2011-08-27T12:24:34Z</time>
      </trkpt>
      <trkpt lat="44.94867" lon="5.39366">
        <ele>935.9807129</ele>
        <time>2011-08-27T12:24:51Z</time>
      </trkpt>
      <trkpt lat="44.94881" lon="5.39327">
        <ele>934.5388184</ele>
        <time>2011-08-27T12:25:05Z</time>
      </trkpt>
      <trkpt lat="44.94898" lon="5.39288">
        <ele>934.0581055</ele>
        <time>2011-08-27T12:25:16Z</time>
      </trkpt>
      <trkpt lat="44.94916" lon="5.3924">
        <ele>933.5773926</ele>
        <time>2011-08-27T12:25:31Z</time>
      </trkpt>
      <trkpt lat="44.94929" lon="5.39205">
        <ele>935.5</ele>
        <time>2011-08-27T12:25:45Z</time>
      </trkpt>
      <trkpt lat="44.94934" lon="5.39202">
        <ele>934.5388184</ele>
        <time>2011-08-27T12:25:59Z</time>
      </trkpt>
      <trkpt lat="44.94953" lon="5.39179">
        <ele>933.0966797</ele>
        <time>2011-08-27T12:26:36Z</time>
      </trkpt>
      <trkpt lat="44.94961" lon="5.39171">
        <ele>932.6162109</ele>
        <time>2011-08-27T12:26:39Z</time>
      </trkpt>
      <trkpt lat="44.94958" lon="5.39152">
        <ele>932.6162109</ele>
        <time>2011-08-27T12:26:44Z</time>
      </trkpt>
      <trkpt lat="44.94961" lon="5.39114">
        <ele>932.135498</ele>
        <time>2011-08-27T12:26:51Z</time>
      </trkpt>
      <trkpt lat="44.94978" lon="5.39104">
        <ele>932.135498</ele>
        <time>2011-08-27T12:26:57Z</time>
      </trkpt>
      <trkpt lat="44.94993" lon="5.39106">
        <ele>930.6936035</ele>
        <time>2011-08-27T12:27:01Z</time>
      </trkpt>
      <trkpt lat="44.95011" lon="5.39091">
        <ele>931.1743164</ele>
        <time>2011-08-27T12:27:06Z</time>
      </trkpt>
      <trkpt lat="44.95042" lon="5.39073">
        <ele>929.7321777</ele>
        <time>2011-08-27T12:27:15Z</time>
      </trkpt>
      <trkpt lat="44.95076" lon="5.39072">
        <ele>928.2902832</ele>
        <time>2011-08-27T12:27:25Z</time>
      </trkpt>
      <trkpt lat="44.95079" lon="5.39079">
        <ele>927.3291016</ele>
        <time>2011-08-27T12:27:27Z</time>
      </trkpt>
      <trkpt lat="44.95104" lon="5.39119">
        <ele>921.0803223</ele>
        <time>2011-08-27T12:27:37Z</time>
      </trkpt>
      <trkpt lat="44.95115" lon="5.39159">
        <ele>918.677002</ele>
        <time>2011-08-27T12:27:44Z</time>
      </trkpt>
      <trkpt lat="44.95123" lon="5.3923">
        <ele>919.1577148</ele>
        <time>2011-08-27T12:27:59Z</time>
      </trkpt>
      <trkpt lat="44.95125" lon="5.39248">
        <ele>918.1962891</ele>
        <time>2011-08-27T12:28:03Z</time>
      </trkpt>
      <trkpt lat="44.95121" lon="5.39273">
        <ele>917.2351074</ele>
        <time>2011-08-27T12:28:07Z</time>
      </trkpt>
      <trkpt lat="44.95113" lon="5.39321">
        <ele>917.2351074</ele>
        <time>2011-08-27T12:28:17Z</time>
      </trkpt>
      <trkpt lat="44.95095" lon="5.39369">
        <ele>917.7155762</ele>
        <time>2011-08-27T12:28:31Z</time>
      </trkpt>
      <trkpt lat="44.95085" lon="5.39416">
        <ele>918.1962891</ele>
        <time>2011-08-27T12:28:43Z</time>
      </trkpt>
      <trkpt lat="44.95067" lon="5.39472">
        <ele>914.3510742</ele>
        <time>2011-08-27T12:28:57Z</time>
      </trkpt>
      <trkpt lat="44.95065" lon="5.39478">
        <ele>913.8703613</ele>
        <time>2011-08-27T12:28:58Z</time>
      </trkpt>
      <trkpt lat="44.95044" lon="5.39545">
        <ele>910.9865723</ele>
        <time>2011-08-27T12:29:11Z</time>
      </trkpt>
      <trkpt lat="44.95039" lon="5.39582">
        <ele>908.1027832</ele>
        <time>2011-08-27T12:29:21Z</time>
      </trkpt>
      <trkpt lat="44.95037" lon="5.39622">
        <ele>904.737793</ele>
        <time>2011-08-27T12:29:30Z</time>
      </trkpt>
      <trkpt lat="44.95042" lon="5.3964">
        <ele>904.2573242</ele>
        <time>2011-08-27T12:29:34Z</time>
      </trkpt>
      <trkpt lat="44.95071" lon="5.39677">
        <ele>904.737793</ele>
        <time>2011-08-27T12:29:52Z</time>
      </trkpt>
      <trkpt lat="44.9511" lon="5.39713">
        <ele>905.6992188</ele>
        <time>2011-08-27T12:30:09Z</time>
      </trkpt>
      <trkpt lat="44.95111" lon="5.39718">
        <ele>905.6992188</ele>
        <time>2011-08-27T12:30:12Z</time>
      </trkpt>
      <trkpt lat="44.95112" lon="5.39721">
        <ele>905.2185059</ele>
        <time>2011-08-27T12:30:14Z</time>
      </trkpt>
      <trkpt lat="44.95116" lon="5.39737">
        <ele>903.2958984</ele>
        <time>2011-08-27T12:30:20Z</time>
      </trkpt>
      <trkpt lat="44.95118" lon="5.39768">
        <ele>899.9313965</ele>
        <time>2011-08-27T12:30:32Z</time>
      </trkpt>
      <trkpt lat="44.95121" lon="5.39788">
        <ele>897.5280762</ele>
        <time>2011-08-27T12:30:47Z</time>
      </trkpt>
      <trkpt lat="44.95124" lon="5.39802">
        <ele>895.6054688</ele>
        <time>2011-08-27T12:30:59Z</time>
      </trkpt>
      <trkpt lat="44.95123" lon="5.39809">
        <ele>891.7600098</ele>
        <time>2011-08-27T12:31:11Z</time>
      </trkpt>
      <trkpt lat="44.95121" lon="5.39809">
        <ele>891.2792969</ele>
        <time>2011-08-27T12:31:13Z</time>
      </trkpt>
      <trkpt lat="44.95122" lon="5.39813">
        <ele>894.1635742</ele>
        <time>2011-08-27T12:31:24Z</time>
      </trkpt>
      <trkpt lat="44.95126" lon="5.39819">
        <ele>895.6054688</ele>
        <time>2011-08-27T12:31:36Z</time>
      </trkpt>
      <trkpt lat="44.95127" lon="5.3982">
        <ele>896.0861816</ele>
        <time>2011-08-27T12:32:38Z</time>
      </trkpt>
      <trkpt lat="44.95127" lon="5.3982">
        <ele>896.0861816</ele>
        <time>2011-08-27T12:33:09Z</time>
      </trkpt>
      <trkpt lat="44.95151" lon="5.39838">
        <ele>896.5668945</ele>
        <time>2011-08-27T12:33:23Z</time>
      </trkpt>
      <trkpt lat="44.95189" lon="5.39844">
        <ele>897.0473633</ele>
        <time>2011-08-27T12:33:40Z</time>
      </trkpt>
      <trkpt lat="44.95218" lon="5.3984">
        <ele>897.0473633</ele>
        <time>2011-08-27T12:33:53Z</time>
      </trkpt>
      <trkpt lat="44.95234" lon="5.39831">
        <ele>895.1247559</ele>
        <time>2011-08-27T12:33:59Z</time>
      </trkpt>
      <trkpt lat="44.9524" lon="5.39825">
        <ele>893.6828613</ele>
        <time>2011-08-27T12:34:02Z</time>
      </trkpt>
      <trkpt lat="44.95252" lon="5.39813">
        <ele>893.2021484</ele>
        <time>2011-08-27T12:34:09Z</time>
      </trkpt>
      <trkpt lat="44.95259" lon="5.39808">
        <ele>892.2409668</ele>
        <time>2011-08-27T12:34:23Z</time>
      </trkpt>
      <trkpt lat="44.95264" lon="5.39808">
        <ele>890.798584</ele>
        <time>2011-08-27T12:34:39Z</time>
      </trkpt>
      <trkpt lat="44.95265" lon="5.39808">
        <ele>890.3181152</ele>
        <time>2011-08-27T12:34:41Z</time>
      </trkpt>
      <trkpt lat="44.95273" lon="5.39817">
        <ele>891.2792969</ele>
        <time>2011-08-27T12:34:58Z</time>
      </trkpt>
      <trkpt lat="44.95275" lon="5.39817">
        <ele>891.7600098</ele>
        <time>2011-08-27T12:35:02Z</time>
      </trkpt>
      <trkpt lat="44.95287" lon="5.39817">
        <ele>890.798584</ele>
        <time>2011-08-27T12:35:07Z</time>
      </trkpt>
      <trkpt lat="44.95294" lon="5.39825">
        <ele>889.8374023</ele>
        <time>2011-08-27T12:35:11Z</time>
      </trkpt>
      <trkpt lat="44.95322" lon="5.39831">
        <ele>887.9147949</ele>
        <time>2011-08-27T12:35:21Z</time>
      </trkpt>
      <trkpt lat="44.95327" lon="5.39833">
        <ele>887.9147949</ele>
        <time>2011-08-27T12:35:29Z</time>
      </trkpt>
      <trkpt lat="44.95333" lon="5.39838">
        <ele>884.0695801</ele>
        <time>2011-08-27T12:35:51Z</time>
      </trkpt>
      <trkpt lat="44.95354" lon="5.39841">
        <ele>881.185791</ele>
        <time>2011-08-27T12:36:02Z</time>
      </trkpt>
      <trkpt lat="44.95377" lon="5.39841">
        <ele>880.7050781</ele>
        <time>2011-08-27T12:36:12Z</time>
      </trkpt>
      <trkpt lat="44.95391" lon="5.39844">
        <ele>880.7050781</ele>
        <time>2011-08-27T12:36:17Z</time>
      </trkpt>
      <trkpt lat="44.95413" lon="5.39846">
        <ele>879.2629395</ele>
        <time>2011-08-27T12:36:28Z</time>
      </trkpt>
      <trkpt lat="44.9543" lon="5.39847">
        <ele>879.2629395</ele>
        <time>2011-08-27T12:36:35Z</time>
      </trkpt>
      <trkpt lat="44.95441" lon="5.39855">
        <ele>878.7824707</ele>
        <time>2011-08-27T12:36:40Z</time>
      </trkpt>
      <trkpt lat="44.95463" lon="5.39866">
        <ele>876.8598633</ele>
        <time>2011-08-27T12:36:48Z</time>
      </trkpt>
      <trkpt lat="44.95496" lon="5.39887">
        <ele>872.0529785</ele>
        <time>2011-08-27T12:37:02Z</time>
      </trkpt>
      <trkpt lat="44.9553" lon="5.39908">
        <ele>870.1303711</ele>
        <time>2011-08-27T12:37:14Z</time>
      </trkpt>
      <trkpt lat="44.95572" lon="5.39931">
        <ele>866.7658691</ele>
        <time>2011-08-27T12:37:27Z</time>
      </trkpt>
      <trkpt lat="44.95575" lon="5.39933">
        <ele>866.2851563</ele>
        <time>2011-08-27T12:37:28Z</time>
      </trkpt>
      <trkpt lat="44.95595" lon="5.39931">
        <ele>866.2851563</ele>
        <time>2011-08-27T12:37:35Z</time>
      </trkpt>
      <trkpt lat="44.956" lon="5.39934">
        <ele>865.8046875</ele>
        <time>2011-08-27T12:37:38Z</time>
      </trkpt>
      <trkpt lat="44.95607" lon="5.39938">
        <ele>864.3625488</ele>
        <time>2011-08-27T12:37:41Z</time>
      </trkpt>
      <trkpt lat="44.95653" lon="5.39945">
        <ele>860.9980469</ele>
        <time>2011-08-27T12:37:54Z</time>
      </trkpt>
      <trkpt lat="44.95664" lon="5.39945">
        <ele>859.0751953</ele>
        <time>2011-08-27T12:38:03Z</time>
      </trkpt>
      <trkpt lat="44.95683" lon="5.39947">
        <ele>859.0751953</ele>
        <time>2011-08-27T12:38:13Z</time>
      </trkpt>
      <trkpt lat="44.95713" lon="5.39954">
        <ele>855.7106934</ele>
        <time>2011-08-27T12:38:23Z</time>
      </trkpt>
      <trkpt lat="44.95729" lon="5.39951">
        <ele>856.1911621</ele>
        <time>2011-08-27T12:38:32Z</time>
      </trkpt>
      <trkpt lat="44.95728" lon="5.39954">
        <ele>855.7106934</ele>
        <time>2011-08-27T12:39:12Z</time>
      </trkpt>
      <trkpt lat="44.95726" lon="5.39957">
        <ele>853.7880859</ele>
        <time>2011-08-27T12:39:25Z</time>
      </trkpt>
      <trkpt lat="44.95723" lon="5.3996">
        <ele>853.307373</ele>
        <time>2011-08-27T12:39:53Z</time>
      </trkpt>
      <trkpt lat="44.95714" lon="5.39964">
        <ele>849.9428711</ele>
        <time>2011-08-27T12:40:05Z</time>
      </trkpt>
      <trkpt lat="44.95708" lon="5.39968">
        <ele>848.0202637</ele>
        <time>2011-08-27T12:40:12Z</time>
      </trkpt>
      <trkpt lat="44.95701" lon="5.39972">
        <ele>847.0588379</ele>
        <time>2011-08-27T12:40:23Z</time>
      </trkpt>
      <trkpt lat="44.95698" lon="5.39978">
        <ele>847.0588379</ele>
        <time>2011-08-27T12:40:32Z</time>
      </trkpt>
      <trkpt lat="44.95686" lon="5.40029">
        <ele>846.5783691</ele>
        <time>2011-08-27T12:40:43Z</time>
      </trkpt>
      <trkpt lat="44.95682" lon="5.40069">
        <ele>847.5395508</ele>
        <time>2011-08-27T12:40:53Z</time>
      </trkpt>
      <trkpt lat="44.95682" lon="5.40082">
        <ele>847.5395508</ele>
        <time>2011-08-27T12:40:56Z</time>
      </trkpt>
      <trkpt lat="44.95679" lon="5.40128">
        <ele>851.8654785</ele>
        <time>2011-08-27T12:41:06Z</time>
      </trkpt>
      <trkpt lat="44.95677" lon="5.40131">
        <ele>852.3459473</ele>
        <time>2011-08-27T12:41:07Z</time>
      </trkpt>
      <trkpt lat="44.95683" lon="5.40134">
        <ele>851.8654785</ele>
        <time>2011-08-27T12:41:19Z</time>
      </trkpt>
      <trkpt lat="44.95702" lon="5.40136">
        <ele>851.8654785</ele>
        <time>2011-08-27T12:42:00Z</time>
      </trkpt>
      <trkpt lat="44.95775" lon="5.40142">
        <ele>849.4621582</ele>
        <time>2011-08-27T12:42:17Z</time>
      </trkpt>
      <trkpt lat="44.95789" lon="5.40141">
        <ele>848.9814453</ele>
        <time>2011-08-27T12:42:20Z</time>
      </trkpt>
      <trkpt lat="44.95882" lon="5.40138">
        <ele>846.5783691</ele>
        <time>2011-08-27T12:42:40Z</time>
      </trkpt>
      <trkpt lat="44.95896" lon="5.40136">
        <ele>845.1362305</ele>
        <time>2011-08-27T12:42:43Z</time>
      </trkpt>
      <trkpt lat="44.9592" lon="5.40134">
        <ele>844.1750488</ele>
        <time>2011-08-27T12:42:48Z</time>
      </trkpt>
      <trkpt lat="44.96003" lon="5.40136">
        <ele>842.2521973</ele>
        <time>2011-08-27T12:43:03Z</time>
      </trkpt>
      <trkpt lat="44.9608" lon="5.40137">
        <ele>841.2907715</ele>
        <time>2011-08-27T12:43:18Z</time>
      </trkpt>
      <trkpt lat="44.96183" lon="5.40131">
        <ele>838.8876953</ele>
        <time>2011-08-27T12:43:38Z</time>
      </trkpt>
      <trkpt lat="44.96221" lon="5.40135">
        <ele>837.9262695</ele>
        <time>2011-08-27T12:43:46Z</time>
      </trkpt>
      <trkpt lat="44.96302" lon="5.40168">
        <ele>836.484375</ele>
        <time>2011-08-27T12:44:03Z</time>
      </trkpt>
      <trkpt lat="44.96378" lon="5.40183">
        <ele>835.5229492</ele>
        <time>2011-08-27T12:44:19Z</time>
      </trkpt>
      <trkpt lat="44.96389" lon="5.40183">
        <ele>835.0424805</ele>
        <time>2011-08-27T12:44:21Z</time>
      </trkpt>
      <trkpt lat="44.96445" lon="5.40157">
        <ele>836.0036621</ele>
        <time>2011-08-27T12:44:36Z</time>
      </trkpt>
      <trkpt lat="44.96505" lon="5.40103">
        <ele>833.6003418</ele>
        <time>2011-08-27T12:44:51Z</time>
      </trkpt>
      <trkpt lat="44.96543" lon="5.40097">
        <ele>832.6391602</ele>
        <time>2011-08-27T12:44:59Z</time>
      </trkpt>
      <trkpt lat="44.96558" lon="5.40097">
        <ele>832.1584473</ele>
        <time>2011-08-27T12:45:02Z</time>
      </trkpt>
      <trkpt lat="44.96626" lon="5.40121">
        <ele>831.6777344</ele>
        <time>2011-08-27T12:45:17Z</time>
      </trkpt>
      <trkpt lat="44.9672" lon="5.4012">
        <ele>829.755127</ele>
        <time>2011-08-27T12:45:36Z</time>
      </trkpt>
      <trkpt lat="44.96795" lon="5.40106">
        <ele>829.2744141</ele>
        <time>2011-08-27T12:45:53Z</time>
      </trkpt>
      <trkpt lat="44.96817" lon="5.40107">
        <ele>828.7939453</ele>
        <time>2011-08-27T12:45:59Z</time>
      </trkpt>
      <trkpt lat="44.96886" lon="5.40096">
        <ele>827.3518066</ele>
        <time>2011-08-27T12:46:14Z</time>
      </trkpt>
      <trkpt lat="44.96987" lon="5.40104">
        <ele>824.4677734</ele>
        <time>2011-08-27T12:46:32Z</time>
      </trkpt>
      <trkpt lat="44.97057" lon="5.40115">
        <ele>823.9870605</ele>
        <time>2011-08-27T12:46:45Z</time>
      </trkpt>
      <trkpt lat="44.97111" lon="5.40138">
        <ele>824.4677734</ele>
        <time>2011-08-27T12:46:58Z</time>
      </trkpt>
      <trkpt lat="44.9712" lon="5.40144">
        <ele>823.9870605</ele>
        <time>2011-08-27T12:47:02Z</time>
      </trkpt>
      <trkpt lat="44.9712" lon="5.40147">
        <ele>824.4677734</ele>
        <time>2011-08-27T12:47:12Z</time>
      </trkpt>
      <trkpt lat="44.97096" lon="5.4013">
        <ele>823.9870605</ele>
        <time>2011-08-27T12:47:24Z</time>
      </trkpt>
      <trkpt lat="44.97094" lon="5.4013">
        <ele>823.9870605</ele>
        <time>2011-08-27T12:47:25Z</time>
      </trkpt>
      <trkpt lat="44.9709" lon="5.40133">
        <ele>825.4289551</ele>
        <time>2011-08-27T12:47:39Z</time>
      </trkpt>
      <trkpt lat="44.9709" lon="5.40133">
        <ele>824.9484863</ele>
        <time>2011-08-27T12:49:06Z</time>
      </trkpt>
      <trkpt lat="44.97089" lon="5.40133">
        <ele>825.4289551</ele>
        <time>2011-08-27T12:52:15Z</time>
      </trkpt>
      <trkpt lat="44.97078" lon="5.40158">
        <ele>825.4289551</ele>
        <time>2011-08-27T12:52:28Z</time>
      </trkpt>
      <trkpt lat="44.97058" lon="5.40226">
        <ele>823.5065918</ele>
        <time>2011-08-27T12:52:41Z</time>
      </trkpt>
      <trkpt lat="44.97037" lon="5.40299">
        <ele>823.9870605</ele>
        <time>2011-08-27T12:52:56Z</time>
      </trkpt>
      <trkpt lat="44.97021" lon="5.4037">
        <ele>825.4289551</ele>
        <time>2011-08-27T12:53:14Z</time>
      </trkpt>
      <trkpt lat="44.97003" lon="5.40403">
        <ele>826.8710938</ele>
        <time>2011-08-27T12:53:27Z</time>
      </trkpt>
      <trkpt lat="44.96973" lon="5.40425">
        <ele>827.8322754</ele>
        <time>2011-08-27T12:53:44Z</time>
      </trkpt>
      <trkpt lat="44.9694" lon="5.40458">
        <ele>828.7939453</ele>
        <time>2011-08-27T12:54:02Z</time>
      </trkpt>
      <trkpt lat="44.96929" lon="5.40511">
        <ele>830.2358398</ele>
        <time>2011-08-27T12:54:21Z</time>
      </trkpt>
      <trkpt lat="44.96929" lon="5.4056">
        <ele>832.1584473</ele>
        <time>2011-08-27T12:54:36Z</time>
      </trkpt>
      <trkpt lat="44.96929" lon="5.40619">
        <ele>833.1196289</ele>
        <time>2011-08-27T12:54:51Z</time>
      </trkpt>
      <trkpt lat="44.96933" lon="5.4068">
        <ele>835.5229492</ele>
        <time>2011-08-27T12:55:08Z</time>
      </trkpt>
      <trkpt lat="44.96931" lon="5.40723">
        <ele>837.4455566</ele>
        <time>2011-08-27T12:55:25Z</time>
      </trkpt>
      <trkpt lat="44.96931" lon="5.40754">
        <ele>840.3295898</ele>
        <time>2011-08-27T12:55:41Z</time>
      </trkpt>
      <trkpt lat="44.96927" lon="5.40763">
        <ele>842.2521973</ele>
        <time>2011-08-27T12:55:47Z</time>
      </trkpt>
      <trkpt lat="44.96925" lon="5.40803">
        <ele>846.0976563</ele>
        <time>2011-08-27T12:56:09Z</time>
      </trkpt>
      <trkpt lat="44.96928" lon="5.40844">
        <ele>845.6169434</ele>
        <time>2011-08-27T12:56:25Z</time>
      </trkpt>
      <trkpt lat="44.9693" lon="5.40852">
        <ele>845.6169434</ele>
        <time>2011-08-27T12:56:28Z</time>
      </trkpt>
      <trkpt lat="44.96928" lon="5.40885">
        <ele>845.6169434</ele>
        <time>2011-08-27T12:56:37Z</time>
      </trkpt>
      <trkpt lat="44.9693" lon="5.40888">
        <ele>845.6169434</ele>
        <time>2011-08-27T12:56:40Z</time>
      </trkpt>
      <trkpt lat="44.9693" lon="5.40885">
        <ele>845.1362305</ele>
        <time>2011-08-27T12:56:42Z</time>
      </trkpt>
      <trkpt lat="44.96928" lon="5.40873">
        <ele>843.6940918</ele>
        <time>2011-08-27T12:56:46Z</time>
      </trkpt>
      <trkpt lat="44.96931" lon="5.40867">
        <ele>843.6940918</ele>
        <time>2011-08-27T12:56:48Z</time>
      </trkpt>
      <trkpt lat="44.96931" lon="5.40868">
        <ele>843.6940918</ele>
        <time>2011-08-27T12:56:57Z</time>
      </trkpt>
      <trkpt lat="44.96932" lon="5.40873">
        <ele>843.2133789</ele>
        <time>2011-08-27T13:02:54Z</time>
      </trkpt>
      <trkpt lat="44.9693" lon="5.40915">
        <ele>844.1750488</ele>
        <time>2011-08-27T13:03:09Z</time>
      </trkpt>
      <trkpt lat="44.96928" lon="5.40941">
        <ele>846.0976563</ele>
        <time>2011-08-27T13:03:17Z</time>
      </trkpt>
      <trkpt lat="44.96934" lon="5.40949">
        <ele>844.6555176</ele>
        <time>2011-08-27T13:03:19Z</time>
      </trkpt>
      <trkpt lat="44.96928" lon="5.41004">
        <ele>847.5395508</ele>
        <time>2011-08-27T13:03:36Z</time>
      </trkpt>
      <trkpt lat="44.96923" lon="5.41037">
        <ele>850.9040527</ele>
        <time>2011-08-27T13:03:52Z</time>
      </trkpt>
      <trkpt lat="44.96907" lon="5.41073">
        <ele>856.1911621</ele>
        <time>2011-08-27T13:04:14Z</time>
      </trkpt>
      <trkpt lat="44.96889" lon="5.41099">
        <ele>860.9980469</ele>
        <time>2011-08-27T13:04:33Z</time>
      </trkpt>
      <trkpt lat="44.9687" lon="5.4113">
        <ele>865.3239746</ele>
        <time>2011-08-27T13:04:53Z</time>
      </trkpt>
      <trkpt lat="44.96859" lon="5.41155">
        <ele>866.7658691</ele>
        <time>2011-08-27T13:05:09Z</time>
      </trkpt>
      <trkpt lat="44.96859" lon="5.41158">
        <ele>866.7658691</ele>
        <time>2011-08-27T13:05:11Z</time>
      </trkpt>
      <trkpt lat="44.96854" lon="5.41173">
        <ele>868.6884766</ele>
        <time>2011-08-27T13:05:20Z</time>
      </trkpt>
      <trkpt lat="44.96851" lon="5.41186">
        <ele>870.1303711</ele>
        <time>2011-08-27T13:05:27Z</time>
      </trkpt>
      <trkpt lat="44.96843" lon="5.41206">
        <ele>872.5336914</ele>
        <time>2011-08-27T13:05:39Z</time>
      </trkpt>
      <trkpt lat="44.96828" lon="5.4125">
        <ele>876.8598633</ele>
        <time>2011-08-27T13:06:00Z</time>
      </trkpt>
      <trkpt lat="44.96826" lon="5.41262">
        <ele>876.8598633</ele>
        <time>2011-08-27T13:06:04Z</time>
      </trkpt>
      <trkpt lat="44.96826" lon="5.41266">
        <ele>876.3791504</ele>
        <time>2011-08-27T13:06:06Z</time>
      </trkpt>
      <trkpt lat="44.96816" lon="5.41317">
        <ele>877.3405762</ele>
        <time>2011-08-27T13:06:24Z</time>
      </trkpt>
      <trkpt lat="44.96802" lon="5.41388">
        <ele>879.2629395</ele>
        <time>2011-08-27T13:06:46Z</time>
      </trkpt>
      <trkpt lat="44.96788" lon="5.41446">
        <ele>879.7436523</ele>
        <time>2011-08-27T13:07:03Z</time>
      </trkpt>
      <trkpt lat="44.96783" lon="5.41479">
        <ele>878.3017578</ele>
        <time>2011-08-27T13:07:13Z</time>
      </trkpt>
      <trkpt lat="44.96792" lon="5.4149">
        <ele>875.4174805</ele>
        <time>2011-08-27T13:07:17Z</time>
      </trkpt>
      <trkpt lat="44.9676" lon="5.41534">
        <ele>879.2629395</ele>
        <time>2011-08-27T13:07:35Z</time>
      </trkpt>
      <trkpt lat="44.96759" lon="5.41537">
        <ele>879.2629395</ele>
        <time>2011-08-27T13:07:36Z</time>
      </trkpt>
      <trkpt lat="44.9676" lon="5.41552">
        <ele>880.2243652</ele>
        <time>2011-08-27T13:07:41Z</time>
      </trkpt>
      <trkpt lat="44.96747" lon="5.41598">
        <ele>880.7050781</ele>
        <time>2011-08-27T13:07:57Z</time>
      </trkpt>
      <trkpt lat="44.96745" lon="5.41604">
        <ele>880.2243652</ele>
        <time>2011-08-27T13:08:00Z</time>
      </trkpt>
      <trkpt lat="44.96741" lon="5.41608">
        <ele>880.2243652</ele>
        <time>2011-08-27T13:08:03Z</time>
      </trkpt>
      <trkpt lat="44.96729" lon="5.41639">
        <ele>880.2243652</ele>
        <time>2011-08-27T13:08:16Z</time>
      </trkpt>
      <trkpt lat="44.96726" lon="5.4164">
        <ele>880.7050781</ele>
        <time>2011-08-27T13:08:18Z</time>
      </trkpt>
      <trkpt lat="44.96731" lon="5.4163">
        <ele>879.7436523</ele>
        <time>2011-08-27T13:08:26Z</time>
      </trkpt>
      <trkpt lat="44.96735" lon="5.41613">
        <ele>879.2629395</ele>
        <time>2011-08-27T13:08:40Z</time>
      </trkpt>
      <trkpt lat="44.96748" lon="5.41599">
        <ele>880.2243652</ele>
        <time>2011-08-27T13:08:48Z</time>
      </trkpt>
      <trkpt lat="44.96762" lon="5.4154">
        <ele>885.5114746</ele>
        <time>2011-08-27T13:09:05Z</time>
      </trkpt>
      <trkpt lat="44.96768" lon="5.41519">
        <ele>885.5114746</ele>
        <time>2011-08-27T13:09:12Z</time>
      </trkpt>
      <trkpt lat="44.96766" lon="5.41515">
        <ele>885.9921875</ele>
        <time>2011-08-27T13:09:18Z</time>
      </trkpt>
      <trkpt lat="44.96762" lon="5.41519">
        <ele>885.5114746</ele>
        <time>2011-08-27T13:09:22Z</time>
      </trkpt>
      <trkpt lat="44.96758" lon="5.4152">
        <ele>884.0695801</ele>
        <time>2011-08-27T13:09:34Z</time>
      </trkpt>
      <trkpt lat="44.96757" lon="5.41519">
        <ele>883.5888672</ele>
        <time>2011-08-27T13:10:04Z</time>
      </trkpt>
      <trkpt lat="44.96756" lon="5.41515">
        <ele>882.1469727</ele>
        <time>2011-08-27T13:10:15Z</time>
      </trkpt>
      <trkpt lat="44.96753" lon="5.41506">
        <ele>882.1469727</ele>
        <time>2011-08-27T13:10:21Z</time>
      </trkpt>
      <trkpt lat="44.96753" lon="5.41503">
        <ele>882.6276855</ele>
        <time>2011-08-27T13:10:38Z</time>
      </trkpt>
      <trkpt lat="44.96753" lon="5.41507">
        <ele>884.0695801</ele>
        <time>2011-08-27T13:11:00Z</time>
      </trkpt>
      <trkpt lat="44.96751" lon="5.4151">
        <ele>883.1081543</ele>
        <time>2011-08-27T13:11:16Z</time>
      </trkpt>
      <trkpt lat="44.96751" lon="5.41512">
        <ele>883.1081543</ele>
        <time>2011-08-27T13:11:20Z</time>
      </trkpt>
      <trkpt lat="44.96748" lon="5.41514">
        <ele>876.8598633</ele>
        <time>2011-08-27T13:28:22Z</time>
      </trkpt>
      <trkpt lat="44.9675" lon="5.41517">
        <ele>891.2792969</ele>
        <time>2011-08-27T13:29:23Z</time>
      </trkpt>
      <trkpt lat="44.96749" lon="5.41512">
        <ele>891.7600098</ele>
        <time>2011-08-27T13:29:34Z</time>
      </trkpt>
      <trkpt lat="44.96747" lon="5.41512">
        <ele>889.8374023</ele>
        <time>2011-08-27T13:30:01Z</time>
      </trkpt>
      <trkpt lat="44.96752" lon="5.41523">
        <ele>887.434082</ele>
        <time>2011-08-27T13:30:12Z</time>
      </trkpt>
      <trkpt lat="44.96757" lon="5.41527">
        <ele>886.4729004</ele>
        <time>2011-08-27T13:30:18Z</time>
      </trkpt>
      <trkpt lat="44.96755" lon="5.4153">
        <ele>884.550293</ele>
        <time>2011-08-27T13:30:33Z</time>
      </trkpt>
      <trkpt lat="44.96752" lon="5.41533">
        <ele>884.0695801</ele>
        <time>2011-08-27T13:30:43Z</time>
      </trkpt>
      <trkpt lat="44.96738" lon="5.4156">
        <ele>883.1081543</ele>
        <time>2011-08-27T13:30:54Z</time>
      </trkpt>
      <trkpt lat="44.96735" lon="5.41612">
        <ele>883.1081543</ele>
        <time>2011-08-27T13:31:08Z</time>
      </trkpt>
      <trkpt lat="44.96715" lon="5.41684">
        <ele>881.6662598</ele>
        <time>2011-08-27T13:31:27Z</time>
      </trkpt>
      <trkpt lat="44.96696" lon="5.41752">
        <ele>880.7050781</ele>
        <time>2011-08-27T13:31:43Z</time>
      </trkpt>
      <trkpt lat="44.96674" lon="5.41824">
        <ele>880.7050781</ele>
        <time>2011-08-27T13:32:00Z</time>
      </trkpt>
      <trkpt lat="44.96631" lon="5.41885">
        <ele>881.185791</ele>
        <time>2011-08-27T13:32:18Z</time>
      </trkpt>
      <trkpt lat="44.96619" lon="5.41889">
        <ele>880.7050781</ele>
        <time>2011-08-27T13:32:23Z</time>
      </trkpt>
      <trkpt lat="44.96624" lon="5.41894">
        <ele>883.1081543</ele>
        <time>2011-08-27T13:32:30Z</time>
      </trkpt>
      <trkpt lat="44.96642" lon="5.41887">
        <ele>883.5888672</ele>
        <time>2011-08-27T13:32:37Z</time>
      </trkpt>
      <trkpt lat="44.96647" lon="5.41892">
        <ele>884.550293</ele>
        <time>2011-08-27T13:32:41Z</time>
      </trkpt>
      <trkpt lat="44.96626" lon="5.41923">
        <ele>889.3566895</ele>
        <time>2011-08-27T13:32:59Z</time>
      </trkpt>
      <trkpt lat="44.96601" lon="5.41978">
        <ele>892.2409668</ele>
        <time>2011-08-27T13:33:21Z</time>
      </trkpt>
      <trkpt lat="44.9659" lon="5.42004">
        <ele>892.2409668</ele>
        <time>2011-08-27T13:33:32Z</time>
      </trkpt>
      <trkpt lat="44.96588" lon="5.42011">
        <ele>892.2409668</ele>
        <time>2011-08-27T13:33:35Z</time>
      </trkpt>
      <trkpt lat="44.96562" lon="5.42069">
        <ele>895.6054688</ele>
        <time>2011-08-27T13:33:57Z</time>
      </trkpt>
      <trkpt lat="44.96541" lon="5.42148">
        <ele>898.0087891</ele>
        <time>2011-08-27T13:34:18Z</time>
      </trkpt>
      <trkpt lat="44.96526" lon="5.42205">
        <ele>895.6054688</ele>
        <time>2011-08-27T13:34:32Z</time>
      </trkpt>
      <trkpt lat="44.96513" lon="5.42214">
        <ele>895.1247559</ele>
        <time>2011-08-27T13:34:36Z</time>
      </trkpt>
      <trkpt lat="44.96453" lon="5.42215">
        <ele>890.3181152</ele>
        <time>2011-08-27T13:34:47Z</time>
      </trkpt>
      <trkpt lat="44.96433" lon="5.42257">
        <ele>886.9533691</ele>
        <time>2011-08-27T13:34:55Z</time>
      </trkpt>
      <trkpt lat="44.96441" lon="5.42268">
        <ele>885.9921875</ele>
        <time>2011-08-27T13:34:57Z</time>
      </trkpt>
      <trkpt lat="44.96526" lon="5.42352">
        <ele>876.3791504</ele>
        <time>2011-08-27T13:35:11Z</time>
      </trkpt>
      <trkpt lat="44.96547" lon="5.42376">
        <ele>875.8981934</ele>
        <time>2011-08-27T13:35:20Z</time>
      </trkpt>
      <trkpt lat="44.96556" lon="5.4243">
        <ele>872.5336914</ele>
        <time>2011-08-27T13:35:30Z</time>
      </trkpt>
      <trkpt lat="44.96608" lon="5.42542">
        <ele>868.6884766</ele>
        <time>2011-08-27T13:35:43Z</time>
      </trkpt>
      <trkpt lat="44.96618" lon="5.42556">
        <ele>867.7270508</ele>
        <time>2011-08-27T13:35:45Z</time>
      </trkpt>
      <trkpt lat="44.96651" lon="5.42591">
        <ele>866.7658691</ele>
        <time>2011-08-27T13:35:51Z</time>
      </trkpt>
      <trkpt lat="44.967" lon="5.4268">
        <ele>866.2851563</ele>
        <time>2011-08-27T13:36:04Z</time>
      </trkpt>
      <trkpt lat="44.96772" lon="5.42728">
        <ele>865.8046875</ele>
        <time>2011-08-27T13:36:18Z</time>
      </trkpt>
      <trkpt lat="44.96823" lon="5.42789">
        <ele>868.2077637</ele>
        <time>2011-08-27T13:36:33Z</time>
      </trkpt>
      <trkpt lat="44.96855" lon="5.42861">
        <ele>871.0917969</ele>
        <time>2011-08-27T13:36:51Z</time>
      </trkpt>
      <trkpt lat="44.96876" lon="5.42881">
        <ele>872.0529785</ele>
        <time>2011-08-27T13:37:02Z</time>
      </trkpt>
      <trkpt lat="44.9692" lon="5.42898">
        <ele>872.0529785</ele>
        <time>2011-08-27T13:37:17Z</time>
      </trkpt>
      <trkpt lat="44.96959" lon="5.42894">
        <ele>873.9755859</ele>
        <time>2011-08-27T13:37:31Z</time>
      </trkpt>
      <trkpt lat="44.96961" lon="5.42892">
        <ele>874.4562988</ele>
        <time>2011-08-27T13:37:32Z</time>
      </trkpt>
      <trkpt lat="44.96966" lon="5.42894">
        <ele>874.9370117</ele>
        <time>2011-08-27T13:37:51Z</time>
      </trkpt>
      <trkpt lat="44.96969" lon="5.42895">
        <ele>875.8981934</ele>
        <time>2011-08-27T13:38:16Z</time>
      </trkpt>
      <trkpt lat="44.97011" lon="5.42894">
        <ele>881.185791</ele>
        <time>2011-08-27T13:38:35Z</time>
      </trkpt>
      <trkpt lat="44.97047" lon="5.42891">
        <ele>884.0695801</ele>
        <time>2011-08-27T13:38:50Z</time>
      </trkpt>
      <trkpt lat="44.97095" lon="5.42904">
        <ele>885.5114746</ele>
        <time>2011-08-27T13:39:11Z</time>
      </trkpt>
      <trkpt lat="44.97136" lon="5.42919">
        <ele>885.5114746</ele>
        <time>2011-08-27T13:39:29Z</time>
      </trkpt>
      <trkpt lat="44.97187" lon="5.42952">
        <ele>887.434082</ele>
        <time>2011-08-27T13:39:51Z</time>
      </trkpt>
      <trkpt lat="44.97244" lon="5.42975">
        <ele>888.8762207</ele>
        <time>2011-08-27T13:40:12Z</time>
      </trkpt>
      <trkpt lat="44.97277" lon="5.42976">
        <ele>890.798584</ele>
        <time>2011-08-27T13:40:24Z</time>
      </trkpt>
      <trkpt lat="44.97299" lon="5.42981">
        <ele>895.1247559</ele>
        <time>2011-08-27T13:40:36Z</time>
      </trkpt>
      <trkpt lat="44.97325" lon="5.42985">
        <ele>894.1635742</ele>
        <time>2011-08-27T13:40:51Z</time>
      </trkpt>
      <trkpt lat="44.97323" lon="5.42984">
        <ele>894.644043</ele>
        <time>2011-08-27T13:41:02Z</time>
      </trkpt>
      <trkpt lat="44.97287" lon="5.42977">
        <ele>893.2021484</ele>
        <time>2011-08-27T13:41:18Z</time>
      </trkpt>
      <trkpt lat="44.97277" lon="5.42977">
        <ele>892.2409668</ele>
        <time>2011-08-27T13:41:21Z</time>
      </trkpt>
      <trkpt lat="44.97279" lon="5.42989">
        <ele>891.2792969</ele>
        <time>2011-08-27T13:41:28Z</time>
      </trkpt>
      <trkpt lat="44.97313" lon="5.4301">
        <ele>892.2409668</ele>
        <time>2011-08-27T13:41:40Z</time>
      </trkpt>
      <trkpt lat="44.97328" lon="5.43012">
        <ele>894.1635742</ele>
        <time>2011-08-27T13:41:44Z</time>
      </trkpt>
      <trkpt lat="44.97378" lon="5.4302">
        <ele>886.4729004</ele>
        <time>2011-08-27T13:41:55Z</time>
      </trkpt>
      <trkpt lat="44.97382" lon="5.43019">
        <ele>886.4729004</ele>
        <time>2011-08-27T13:41:56Z</time>
      </trkpt>
      <trkpt lat="44.97398" lon="5.43024">
        <ele>884.550293</ele>
        <time>2011-08-27T13:42:00Z</time>
      </trkpt>
      <trkpt lat="44.9741" lon="5.43032">
        <ele>883.5888672</ele>
        <time>2011-08-27T13:42:03Z</time>
      </trkpt>
      <trkpt lat="44.97457" lon="5.43061">
        <ele>880.2243652</ele>
        <time>2011-08-27T13:42:16Z</time>
      </trkpt>
      <trkpt lat="44.97487" lon="5.43079">
        <ele>878.7824707</ele>
        <time>2011-08-27T13:42:28Z</time>
      </trkpt>
      <trkpt lat="44.97528" lon="5.43114">
        <ele>878.7824707</ele>
        <time>2011-08-27T13:42:43Z</time>
      </trkpt>
      <trkpt lat="44.97553" lon="5.43129">
        <ele>881.6662598</ele>
        <time>2011-08-27T13:42:53Z</time>
      </trkpt>
      <trkpt lat="44.97574" lon="5.43134">
        <ele>885.5114746</ele>
        <time>2011-08-27T13:43:04Z</time>
      </trkpt>
      <trkpt lat="44.97579" lon="5.43135">
        <ele>885.9921875</ele>
        <time>2011-08-27T13:43:31Z</time>
      </trkpt>
      <trkpt lat="44.97594" lon="5.4314">
        <ele>884.550293</ele>
        <time>2011-08-27T13:43:47Z</time>
      </trkpt>
      <trkpt lat="44.97607" lon="5.43145">
        <ele>884.550293</ele>
        <time>2011-08-27T13:43:53Z</time>
      </trkpt>
      <trkpt lat="44.97647" lon="5.43157">
        <ele>885.5114746</ele>
        <time>2011-08-27T13:44:07Z</time>
      </trkpt>
      <trkpt lat="44.97691" lon="5.4317">
        <ele>882.6276855</ele>
        <time>2011-08-27T13:44:20Z</time>
      </trkpt>
      <trkpt lat="44.97719" lon="5.43184">
        <ele>881.6662598</ele>
        <time>2011-08-27T13:44:30Z</time>
      </trkpt>
      <trkpt lat="44.97732" lon="5.43194">
        <ele>881.6662598</ele>
        <time>2011-08-27T13:44:34Z</time>
      </trkpt>
      <trkpt lat="44.97758" lon="5.43216">
        <ele>883.1081543</ele>
        <time>2011-08-27T13:44:41Z</time>
      </trkpt>
      <trkpt lat="44.9777" lon="5.43221">
        <ele>884.0695801</ele>
        <time>2011-08-27T13:44:44Z</time>
      </trkpt>
      <trkpt lat="44.97801" lon="5.43234">
        <ele>889.3566895</ele>
        <time>2011-08-27T13:44:52Z</time>
      </trkpt>
      <trkpt lat="44.97821" lon="5.43243">
        <ele>891.7600098</ele>
        <time>2011-08-27T13:45:01Z</time>
      </trkpt>
      <trkpt lat="44.97829" lon="5.43241">
        <ele>891.2792969</ele>
        <time>2011-08-27T13:45:06Z</time>
      </trkpt>
      <trkpt lat="44.97862" lon="5.43248">
        <ele>893.6828613</ele>
        <time>2011-08-27T13:45:17Z</time>
      </trkpt>
      <trkpt lat="44.97908" lon="5.43262">
        <ele>901.373291</ele>
        <time>2011-08-27T13:45:29Z</time>
      </trkpt>
      <trkpt lat="44.97943" lon="5.43271">
        <ele>900.8925781</ele>
        <time>2011-08-27T13:45:38Z</time>
      </trkpt>
      <trkpt lat="44.97968" lon="5.43275">
        <ele>904.737793</ele>
        <time>2011-08-27T13:45:45Z</time>
      </trkpt>
      <trkpt lat="44.98009" lon="5.43289">
        <ele>910.9865723</ele>
        <time>2011-08-27T13:45:58Z</time>
      </trkpt>
      <trkpt lat="44.98042" lon="5.43306">
        <ele>917.7155762</ele>
        <time>2011-08-27T13:46:10Z</time>
      </trkpt>
      <trkpt lat="44.98045" lon="5.43308">
        <ele>917.7155762</ele>
        <time>2011-08-27T13:46:11Z</time>
      </trkpt>
      <trkpt lat="44.98055" lon="5.43318">
        <ele>917.2351074</ele>
        <time>2011-08-27T13:46:15Z</time>
      </trkpt>
      <trkpt lat="44.98081" lon="5.4333">
        <ele>917.2351074</ele>
        <time>2011-08-27T13:46:23Z</time>
      </trkpt>
      <trkpt lat="44.98121" lon="5.43349">
        <ele>915.3125</ele>
        <time>2011-08-27T13:46:34Z</time>
      </trkpt>
      <trkpt lat="44.98167" lon="5.4335">
        <ele>921.560791</ele>
        <time>2011-08-27T13:46:45Z</time>
      </trkpt>
      <trkpt lat="44.982" lon="5.4336">
        <ele>923.9641113</ele>
        <time>2011-08-27T13:46:54Z</time>
      </trkpt>
      <trkpt lat="44.98228" lon="5.43368">
        <ele>926.8483887</ele>
        <time>2011-08-27T13:47:04Z</time>
      </trkpt>
      <trkpt lat="44.98266" lon="5.43378">
        <ele>925.40625</ele>
        <time>2011-08-27T13:47:16Z</time>
      </trkpt>
      <trkpt lat="44.98304" lon="5.43377">
        <ele>920.1188965</ele>
        <time>2011-08-27T13:47:27Z</time>
      </trkpt>
      <trkpt lat="44.98336" lon="5.43373">
        <ele>919.1577148</ele>
        <time>2011-08-27T13:47:37Z</time>
      </trkpt>
      <trkpt lat="44.98387" lon="5.43371">
        <ele>922.0415039</ele>
        <time>2011-08-27T13:47:51Z</time>
      </trkpt>
      <trkpt lat="44.9843" lon="5.43363">
        <ele>922.0415039</ele>
        <time>2011-08-27T13:48:04Z</time>
      </trkpt>
      <trkpt lat="44.98444" lon="5.43358">
        <ele>923.0029297</ele>
        <time>2011-08-27T13:48:09Z</time>
      </trkpt>
      <trkpt lat="44.98484" lon="5.43378">
        <ele>926.8483887</ele>
        <time>2011-08-27T13:48:23Z</time>
      </trkpt>
      <trkpt lat="44.98509" lon="5.43391">
        <ele>932.6162109</ele>
        <time>2011-08-27T13:48:33Z</time>
      </trkpt>
      <trkpt lat="44.98514" lon="5.43397">
        <ele>934.5388184</ele>
        <time>2011-08-27T13:48:36Z</time>
      </trkpt>
      <trkpt lat="44.98544" lon="5.43407">
        <ele>941.2680664</ele>
        <time>2011-08-27T13:48:47Z</time>
      </trkpt>
      <trkpt lat="44.98556" lon="5.43414">
        <ele>946.074707</ele>
        <time>2011-08-27T13:48:57Z</time>
      </trkpt>
      <trkpt lat="44.98562" lon="5.43416">
        <ele>949.439209</ele>
        <time>2011-08-27T13:49:05Z</time>
      </trkpt>
      <trkpt lat="44.98581" lon="5.43421">
        <ele>948.9584961</ele>
        <time>2011-08-27T13:49:15Z</time>
      </trkpt>
      <trkpt lat="44.9859" lon="5.43431">
        <ele>948.9584961</ele>
        <time>2011-08-27T13:49:22Z</time>
      </trkpt>
      <trkpt lat="44.98601" lon="5.43442">
        <ele>948.9584961</ele>
        <time>2011-08-27T13:49:28Z</time>
      </trkpt>
      <trkpt lat="44.98628" lon="5.43452">
        <ele>950.8811035</ele>
        <time>2011-08-27T13:49:35Z</time>
      </trkpt>
      <trkpt lat="44.98631" lon="5.43466">
        <ele>956.168457</ele>
        <time>2011-08-27T13:49:49Z</time>
      </trkpt>
      <trkpt lat="44.98678" lon="5.43417">
        <ele>955.6877441</ele>
        <time>2011-08-27T13:50:01Z</time>
      </trkpt>
      <trkpt lat="44.98687" lon="5.43414">
        <ele>955.6877441</ele>
        <time>2011-08-27T13:51:21Z</time>
      </trkpt>
      <trkpt lat="44.987" lon="5.43429">
        <ele>955.2070313</ele>
        <time>2011-08-27T13:51:30Z</time>
      </trkpt>
      <trkpt lat="44.98707" lon="5.43432">
        <ele>956.168457</ele>
        <time>2011-08-27T13:51:34Z</time>
      </trkpt>
      <trkpt lat="44.98721" lon="5.4344">
        <ele>955.6877441</ele>
        <time>2011-08-27T13:51:45Z</time>
      </trkpt>
      <trkpt lat="44.98742" lon="5.43446">
        <ele>956.168457</ele>
        <time>2011-08-27T13:51:53Z</time>
      </trkpt>
      <trkpt lat="44.9875" lon="5.43449">
        <ele>957.1298828</ele>
        <time>2011-08-27T13:51:58Z</time>
      </trkpt>
      <trkpt lat="44.98775" lon="5.43447">
        <ele>960.4943848</ele>
        <time>2011-08-27T13:52:10Z</time>
      </trkpt>
      <trkpt lat="44.98817" lon="5.43448">
        <ele>957.6105957</ele>
        <time>2011-08-27T13:52:23Z</time>
      </trkpt>
      <trkpt lat="44.98827" lon="5.43454">
        <ele>957.6105957</ele>
        <time>2011-08-27T13:52:33Z</time>
      </trkpt>
      <trkpt lat="44.98827" lon="5.43453">
        <ele>957.6105957</ele>
        <time>2011-08-27T13:52:34Z</time>
      </trkpt>
      <trkpt lat="44.98832" lon="5.43453">
        <ele>957.1298828</ele>
        <time>2011-08-27T13:52:37Z</time>
      </trkpt>
      <trkpt lat="44.98841" lon="5.43453">
        <ele>954.2458496</ele>
        <time>2011-08-27T13:52:52Z</time>
      </trkpt>
      <trkpt lat="44.98841" lon="5.43451">
        <ele>952.322998</ele>
        <time>2011-08-27T13:52:56Z</time>
      </trkpt>
      <trkpt lat="44.98845" lon="5.43453">
        <ele>951.8425293</ele>
        <time>2011-08-27T13:52:59Z</time>
      </trkpt>
      <trkpt lat="44.9885" lon="5.43455">
        <ele>951.3618164</ele>
        <time>2011-08-27T13:53:01Z</time>
      </trkpt>
      <trkpt lat="44.9887" lon="5.43451">
        <ele>949.9199219</ele>
        <time>2011-08-27T13:53:12Z</time>
      </trkpt>
      <trkpt lat="44.98873" lon="5.43455">
        <ele>945.5939941</ele>
        <time>2011-08-27T13:53:29Z</time>
      </trkpt>
      <trkpt lat="44.98876" lon="5.43457">
        <ele>944.6325684</ele>
        <time>2011-08-27T13:53:40Z</time>
      </trkpt>
      <trkpt lat="44.9888" lon="5.43458">
        <ele>943.6713867</ele>
        <time>2011-08-27T13:53:44Z</time>
      </trkpt>
      <trkpt lat="44.98888" lon="5.43462">
        <ele>943.1906738</ele>
        <time>2011-08-27T13:53:49Z</time>
      </trkpt>
      <trkpt lat="44.98916" lon="5.43471">
        <ele>940.7873535</ele>
        <time>2011-08-27T13:54:00Z</time>
      </trkpt>
      <trkpt lat="44.98949" lon="5.43493">
        <ele>940.3068848</ele>
        <time>2011-08-27T13:54:14Z</time>
      </trkpt>
      <trkpt lat="44.98979" lon="5.43489">
        <ele>942.2294922</ele>
        <time>2011-08-27T13:54:26Z</time>
      </trkpt>
      <trkpt lat="44.98985" lon="5.43488">
        <ele>942.2294922</ele>
        <time>2011-08-27T13:54:28Z</time>
      </trkpt>
      <trkpt lat="44.98997" lon="5.43489">
        <ele>943.6713867</ele>
        <time>2011-08-27T13:54:33Z</time>
      </trkpt>
      <trkpt lat="44.99021" lon="5.43477">
        <ele>945.1132813</ele>
        <time>2011-08-27T13:54:40Z</time>
      </trkpt>
      <trkpt lat="44.99028" lon="5.43479">
        <ele>946.074707</ele>
        <time>2011-08-27T13:54:44Z</time>
      </trkpt>
      <trkpt lat="44.99041" lon="5.43475">
        <ele>947.5166016</ele>
        <time>2011-08-27T13:54:49Z</time>
      </trkpt>
      <trkpt lat="44.99062" lon="5.43466">
        <ele>950.4006348</ele>
        <time>2011-08-27T13:55:01Z</time>
      </trkpt>
      <trkpt lat="44.99067" lon="5.43464">
        <ele>951.3618164</ele>
        <time>2011-08-27T13:55:05Z</time>
      </trkpt>
      <trkpt lat="44.99078" lon="5.43458">
        <ele>949.439209</ele>
        <time>2011-08-27T13:55:19Z</time>
      </trkpt>
      <trkpt lat="44.99082" lon="5.43458">
        <ele>948.9584961</ele>
        <time>2011-08-27T13:55:22Z</time>
      </trkpt>
      <trkpt lat="44.99091" lon="5.43471">
        <ele>947.9973145</ele>
        <time>2011-08-27T13:55:31Z</time>
      </trkpt>
      <trkpt lat="44.99123" lon="5.43478">
        <ele>945.5939941</ele>
        <time>2011-08-27T13:55:44Z</time>
      </trkpt>
      <trkpt lat="44.99131" lon="5.43492">
        <ele>946.074707</ele>
        <time>2011-08-27T13:55:50Z</time>
      </trkpt>
      <trkpt lat="44.99162" lon="5.43478">
        <ele>946.5554199</ele>
        <time>2011-08-27T13:56:05Z</time>
      </trkpt>
      <trkpt lat="44.9918" lon="5.4348">
        <ele>946.074707</ele>
        <time>2011-08-27T13:56:21Z</time>
      </trkpt>
      <trkpt lat="44.99192" lon="5.43478">
        <ele>945.5939941</ele>
        <time>2011-08-27T13:56:29Z</time>
      </trkpt>
      <trkpt lat="44.992" lon="5.43489">
        <ele>946.074707</ele>
        <time>2011-08-27T13:56:41Z</time>
      </trkpt>
      <trkpt lat="44.992" lon="5.43495">
        <ele>946.5554199</ele>
        <time>2011-08-27T13:56:43Z</time>
      </trkpt>
      <trkpt lat="44.9921" lon="5.43511">
        <ele>947.9973145</ele>
        <time>2011-08-27T13:56:53Z</time>
      </trkpt>
      <trkpt lat="44.99211" lon="5.43512">
        <ele>947.9973145</ele>
        <time>2011-08-27T13:56:54Z</time>
      </trkpt>
      <trkpt lat="44.99226" lon="5.43514">
        <ele>950.4006348</ele>
        <time>2011-08-27T13:57:05Z</time>
      </trkpt>
      <trkpt lat="44.9923" lon="5.43513">
        <ele>950.8811035</ele>
        <time>2011-08-27T13:57:07Z</time>
      </trkpt>
      <trkpt lat="44.99236" lon="5.43518">
        <ele>951.8425293</ele>
        <time>2011-08-27T13:57:11Z</time>
      </trkpt>
      <trkpt lat="44.99284" lon="5.43548">
        <ele>914.8317871</ele>
        <time>2011-08-27T13:57:32Z</time>
      </trkpt>
      <trkpt lat="44.99285" lon="5.4354">
        <ele>913.3898926</ele>
        <time>2011-08-27T13:58:01Z</time>
      </trkpt>
      <trkpt lat="44.99282" lon="5.43528">
        <ele>911.947998</ele>
        <time>2011-08-27T13:58:08Z</time>
      </trkpt>
      <trkpt lat="44.9929" lon="5.43519">
        <ele>910.9865723</ele>
        <time>2011-08-27T13:58:11Z</time>
      </trkpt>
      <trkpt lat="44.99296" lon="5.43515">
        <ele>910.0251465</ele>
        <time>2011-08-27T13:58:16Z</time>
      </trkpt>
      <trkpt lat="44.99299" lon="5.4351">
        <ele>910.0251465</ele>
        <time>2011-08-27T13:58:19Z</time>
      </trkpt>
      <trkpt lat="44.99306" lon="5.4352">
        <ele>909.0639648</ele>
        <time>2011-08-27T13:58:26Z</time>
      </trkpt>
      <trkpt lat="44.99331" lon="5.4353">
        <ele>909.5446777</ele>
        <time>2011-08-27T13:58:38Z</time>
      </trkpt>
      <trkpt lat="44.99335" lon="5.43535">
        <ele>910.0251465</ele>
        <time>2011-08-27T13:58:40Z</time>
      </trkpt>
      <trkpt lat="44.99341" lon="5.43542">
        <ele>910.9865723</ele>
        <time>2011-08-27T13:58:44Z</time>
      </trkpt>
      <trkpt lat="44.99402" lon="5.43573">
        <ele>914.3510742</ele>
        <time>2011-08-27T13:58:53Z</time>
      </trkpt>
      <trkpt lat="44.99408" lon="5.43577">
        <ele>915.3125</ele>
        <time>2011-08-27T13:58:56Z</time>
      </trkpt>
      <trkpt lat="44.99417" lon="5.43583">
        <ele>917.7155762</ele>
        <time>2011-08-27T13:59:00Z</time>
      </trkpt>
      <trkpt lat="44.99425" lon="5.43614">
        <ele>918.677002</ele>
        <time>2011-08-27T13:59:09Z</time>
      </trkpt>
      <trkpt lat="44.99456" lon="5.43619">
        <ele>922.5222168</ele>
        <time>2011-08-27T13:59:19Z</time>
      </trkpt>
      <trkpt lat="44.99489" lon="5.43622">
        <ele>930.2128906</ele>
        <time>2011-08-27T13:59:29Z</time>
      </trkpt>
      <trkpt lat="44.99509" lon="5.43633">
        <ele>939.3452148</ele>
        <time>2011-08-27T13:59:41Z</time>
      </trkpt>
      <trkpt lat="44.99542" lon="5.43648">
        <ele>944.6325684</ele>
        <time>2011-08-27T13:59:54Z</time>
      </trkpt>
      <trkpt lat="44.99563" lon="5.4364">
        <ele>945.5939941</ele>
        <time>2011-08-27T14:00:02Z</time>
      </trkpt>
      <trkpt lat="44.99588" lon="5.43646">
        <ele>945.5939941</ele>
        <time>2011-08-27T14:00:09Z</time>
      </trkpt>
      <trkpt lat="44.99631" lon="5.43634">
        <ele>946.074707</ele>
        <time>2011-08-27T14:00:22Z</time>
      </trkpt>
      <trkpt lat="44.99658" lon="5.43629">
        <ele>945.5939941</ele>
        <time>2011-08-27T14:00:32Z</time>
      </trkpt>
      <trkpt lat="44.99662" lon="5.4363">
        <ele>945.5939941</ele>
        <time>2011-08-27T14:00:35Z</time>
      </trkpt>
      <trkpt lat="44.99671" lon="5.43629">
        <ele>945.5939941</ele>
        <time>2011-08-27T14:00:38Z</time>
      </trkpt>
      <trkpt lat="44.99707" lon="5.43606">
        <ele>943.6713867</ele>
        <time>2011-08-27T14:00:49Z</time>
      </trkpt>
      <trkpt lat="44.99708" lon="5.43608">
        <ele>944.1520996</ele>
        <time>2011-08-27T14:01:22Z</time>
      </trkpt>
      <trkpt lat="44.99712" lon="5.43608">
        <ele>943.1906738</ele>
        <time>2011-08-27T14:01:33Z</time>
      </trkpt>
      <trkpt lat="44.99716" lon="5.43604">
        <ele>942.2294922</ele>
        <time>2011-08-27T14:01:37Z</time>
      </trkpt>
      <trkpt lat="44.99718" lon="5.43603">
        <ele>941.7487793</ele>
        <time>2011-08-27T14:01:39Z</time>
      </trkpt>
      <trkpt lat="44.99736" lon="5.43596">
        <ele>937.4226074</ele>
        <time>2011-08-27T14:01:47Z</time>
      </trkpt>
      <trkpt lat="44.99741" lon="5.4359">
        <ele>936.4614258</ele>
        <time>2011-08-27T14:01:52Z</time>
      </trkpt>
      <trkpt lat="44.99768" lon="5.43589">
        <ele>934.5388184</ele>
        <time>2011-08-27T14:02:02Z</time>
      </trkpt>
      <trkpt lat="44.99792" lon="5.43593">
        <ele>928.2902832</ele>
        <time>2011-08-27T14:02:10Z</time>
      </trkpt>
      <trkpt lat="44.99852" lon="5.43602">
        <ele>903.2958984</ele>
        <time>2011-08-27T14:02:21Z</time>
      </trkpt>
      <trkpt lat="44.99893" lon="5.4361">
        <ele>879.7436523</ele>
        <time>2011-08-27T14:02:29Z</time>
      </trkpt>
      <trkpt lat="44.99909" lon="5.43576">
        <ele>829.2744141</ele>
        <time>2011-08-27T14:02:42Z</time>
      </trkpt>
      <trkpt lat="44.99915" lon="5.43577">
        <ele>826.3903809</ele>
        <time>2011-08-27T14:03:27Z</time>
      </trkpt>
      <trkpt lat="44.99915" lon="5.43578">
        <ele>825.4289551</ele>
        <time>2011-08-27T14:03:58Z</time>
      </trkpt>
      <trkpt lat="44.99917" lon="5.43573">
        <ele>820.6225586</ele>
        <time>2011-08-27T14:05:26Z</time>
      </trkpt>
      <trkpt lat="44.99919" lon="5.43577">
        <ele>817.7385254</ele>
        <time>2011-08-27T14:05:41Z</time>
      </trkpt>
      <trkpt lat="44.99929" lon="5.43586">
        <ele>813.8933105</ele>
        <time>2011-08-27T14:05:54Z</time>
      </trkpt>
      <trkpt lat="44.99956" lon="5.43591">
        <ele>809.0866699</ele>
        <time>2011-08-27T14:06:08Z</time>
      </trkpt>
      <trkpt lat="44.99965" lon="5.43592">
        <ele>804.7607422</ele>
        <time>2011-08-27T14:06:15Z</time>
      </trkpt>
      <trkpt lat="44.99967" lon="5.43593">
        <ele>803.7995605</ele>
        <time>2011-08-27T14:06:17Z</time>
      </trkpt>
      <trkpt lat="44.9998" lon="5.43594">
        <ele>798.0317383</ele>
        <time>2011-08-27T14:06:33Z</time>
      </trkpt>
      <trkpt lat="44.9998" lon="5.43594">
        <ele>798.0317383</ele>
        <time>2011-08-27T14:06:34Z</time>
      </trkpt>
      <trkpt lat="44.9999" lon="5.43608">
        <ele>793.7055664</ele>
        <time>2011-08-27T14:06:41Z</time>
      </trkpt>
      <trkpt lat="44.99991" lon="5.43612">
        <ele>793.7055664</ele>
        <time>2011-08-27T14:06:43Z</time>
      </trkpt>
      <trkpt lat="44.99993" lon="5.43627">
        <ele>792.2636719</ele>
        <time>2011-08-27T14:06:47Z</time>
      </trkpt>
      <trkpt lat="44.99989" lon="5.43635">
        <ele>787.9377441</ele>
        <time>2011-08-27T14:06:51Z</time>
      </trkpt>
      <trkpt lat="44.99977" lon="5.4365">
        <ele>784.5732422</ele>
        <time>2011-08-27T14:06:57Z</time>
      </trkpt>
      <trkpt lat="44.99974" lon="5.43654">
        <ele>783.1311035</ele>
        <time>2011-08-27T14:07:00Z</time>
      </trkpt>
      <trkpt lat="44.99963" lon="5.43661">
        <ele>778.3244629</ele>
        <time>2011-08-27T14:07:07Z</time>
      </trkpt>
      <trkpt lat="44.99956" lon="5.43685">
        <ele>765.8276367</ele>
        <time>2011-08-27T14:07:15Z</time>
      </trkpt>
      <trkpt lat="44.99946" lon="5.43693">
        <ele>762.9433594</ele>
        <time>2011-08-27T14:07:18Z</time>
      </trkpt>
      <trkpt lat="44.99942" lon="5.43703">
        <ele>761.020752</ele>
        <time>2011-08-27T14:07:20Z</time>
      </trkpt>
      <trkpt lat="44.99934" lon="5.4375">
        <ele>752.8496094</ele>
        <time>2011-08-27T14:07:26Z</time>
      </trkpt>
      <trkpt lat="44.99921" lon="5.43779">
        <ele>729.777832</ele>
        <time>2011-08-27T14:07:35Z</time>
      </trkpt>
      <trkpt lat="44.99918" lon="5.43789">
        <ele>725.9326172</ele>
        <time>2011-08-27T14:07:38Z</time>
      </trkpt>
      <trkpt lat="44.99918" lon="5.43808">
        <ele>724.0100098</ele>
        <time>2011-08-27T14:07:43Z</time>
      </trkpt>
      <trkpt lat="44.99917" lon="5.43819">
        <ele>724.4907227</ele>
        <time>2011-08-27T14:07:45Z</time>
      </trkpt>
      <trkpt lat="44.99924" lon="5.43838">
        <ele>723.529541</ele>
        <time>2011-08-27T14:07:51Z</time>
      </trkpt>
      <trkpt lat="44.99919" lon="5.43875">
        <ele>724.0100098</ele>
        <time>2011-08-27T14:07:55Z</time>
      </trkpt>
      <trkpt lat="44.99902" lon="5.43981">
        <ele>728.3359375</ele>
        <time>2011-08-27T14:08:06Z</time>
      </trkpt>
      <trkpt lat="44.99889" lon="5.4402">
        <ele>719.2036133</ele>
        <time>2011-08-27T14:08:17Z</time>
      </trkpt>
      <trkpt lat="44.99888" lon="5.44032">
        <ele>713.9160156</ele>
        <time>2011-08-27T14:08:23Z</time>
      </trkpt>
      <trkpt lat="44.99894" lon="5.44036">
        <ele>711.5129395</ele>
        <time>2011-08-27T14:08:43Z</time>
      </trkpt>
      <trkpt lat="44.999" lon="5.44042">
        <ele>710.0708008</ele>
        <time>2011-08-27T14:09:37Z</time>
      </trkpt>
      <trkpt lat="44.99905" lon="5.44042">
        <ele>711.5129395</ele>
        <time>2011-08-27T14:09:46Z</time>
      </trkpt>
      <trkpt lat="44.99909" lon="5.4404">
        <ele>709.590332</ele>
        <time>2011-08-27T14:09:49Z</time>
      </trkpt>
      <trkpt lat="44.99914" lon="5.44046">
        <ele>709.1096191</ele>
        <time>2011-08-27T14:10:01Z</time>
      </trkpt>
      <trkpt lat="44.99914" lon="5.44052">
        <ele>708.6289063</ele>
        <time>2011-08-27T14:10:39Z</time>
      </trkpt>
      <trkpt lat="44.99914" lon="5.44098">
        <ele>706.7062988</ele>
        <time>2011-08-27T14:10:53Z</time>
      </trkpt>
      <trkpt lat="44.99902" lon="5.44123">
        <ele>707.6677246</ele>
        <time>2011-08-27T14:11:06Z</time>
      </trkpt>
      <trkpt lat="44.99889" lon="5.44156">
        <ele>711.0322266</ele>
        <time>2011-08-27T14:11:24Z</time>
      </trkpt>
      <trkpt lat="44.99882" lon="5.44205">
        <ele>713.4355469</ele>
        <time>2011-08-27T14:11:46Z</time>
      </trkpt>
      <trkpt lat="44.99882" lon="5.44215">
        <ele>714.3967285</ele>
        <time>2011-08-27T14:11:51Z</time>
      </trkpt>
      <trkpt lat="44.99888" lon="5.4422">
        <ele>713.4355469</ele>
        <time>2011-08-27T14:11:56Z</time>
      </trkpt>
      <trkpt lat="44.99908" lon="5.44191">
        <ele>716.3195801</ele>
        <time>2011-08-27T14:12:19Z</time>
      </trkpt>
      <trkpt lat="44.99916" lon="5.44187">
        <ele>717.7614746</ele>
        <time>2011-08-27T14:12:26Z</time>
      </trkpt>
      <trkpt lat="44.99922" lon="5.44186">
        <ele>718.7229004</ele>
        <time>2011-08-27T14:12:31Z</time>
      </trkpt>
      <trkpt lat="44.99952" lon="5.44188">
        <ele>722.5681152</ele>
        <time>2011-08-27T14:12:55Z</time>
      </trkpt>
      <trkpt lat="44.99984" lon="5.44191">
        <ele>724.0100098</ele>
        <time>2011-08-27T14:13:15Z</time>
      </trkpt>
      <trkpt lat="45" lon="5.44179">
        <ele>725.4519043</ele>
        <time>2011-08-27T14:13:30Z</time>
      </trkpt>
      <trkpt lat="45.0002" lon="5.44171">
        <ele>727.8552246</ele>
        <time>2011-08-27T14:13:49Z</time>
      </trkpt>
      <trkpt lat="45.00051" lon="5.44165">
        <ele>732.1813965</ele>
        <time>2011-08-27T14:14:12Z</time>
      </trkpt>
      <trkpt lat="45.00056" lon="5.44164">
        <ele>732.1813965</ele>
        <time>2011-08-27T14:14:15Z</time>
      </trkpt>
      <trkpt lat="45.00062" lon="5.44165">
        <ele>731.7004395</ele>
        <time>2011-08-27T14:14:20Z</time>
      </trkpt>
      <trkpt lat="45.00085" lon="5.44162">
        <ele>733.623291</ele>
        <time>2011-08-27T14:14:37Z</time>
      </trkpt>
      <trkpt lat="45.00113" lon="5.44161">
        <ele>736.987793</ele>
        <time>2011-08-27T14:14:54Z</time>
      </trkpt>
      <trkpt lat="45.00118" lon="5.44181">
        <ele>735.5458984</ele>
        <time>2011-08-27T14:15:00Z</time>
      </trkpt>
      <trkpt lat="45.0012" lon="5.44228">
        <ele>736.0266113</ele>
        <time>2011-08-27T14:15:12Z</time>
      </trkpt>
      <trkpt lat="45.00116" lon="5.44281">
        <ele>738.9106445</ele>
        <time>2011-08-27T14:15:35Z</time>
      </trkpt>
      <trkpt lat="45.00109" lon="5.443">
        <ele>740.3525391</ele>
        <time>2011-08-27T14:15:52Z</time>
      </trkpt>
      <trkpt lat="45.00104" lon="5.44313">
        <ele>743.2363281</ele>
        <time>2011-08-27T14:16:24Z</time>
      </trkpt>
      <trkpt lat="45.001" lon="5.44319">
        <ele>744.6782227</ele>
        <time>2011-08-27T14:16:39Z</time>
      </trkpt>
      <trkpt lat="45.0009" lon="5.4434">
        <ele>746.6010742</ele>
        <time>2011-08-27T14:16:58Z</time>
      </trkpt>
      <trkpt lat="45.00085" lon="5.44346">
        <ele>749.0043945</ele>
        <time>2011-08-27T14:17:04Z</time>
      </trkpt>
      <trkpt lat="45.0008" lon="5.4435">
        <ele>749.4851074</ele>
        <time>2011-08-27T14:17:08Z</time>
      </trkpt>
      <trkpt lat="45.00078" lon="5.44351">
        <ele>749.4851074</ele>
        <time>2011-08-27T14:17:10Z</time>
      </trkpt>
      <trkpt lat="45.00041" lon="5.44376">
        <ele>753.8110352</ele>
        <time>2011-08-27T14:17:41Z</time>
      </trkpt>
      <trkpt lat="45.00006" lon="5.44403">
        <ele>758.6174316</ele>
        <time>2011-08-27T14:18:09Z</time>
      </trkpt>
      <trkpt lat="45.00004" lon="5.44406">
        <ele>759.5788574</ele>
        <time>2011-08-27T14:18:11Z</time>
      </trkpt>
      <trkpt lat="45.00006" lon="5.44417">
        <ele>759.5788574</ele>
        <time>2011-08-27T14:18:20Z</time>
      </trkpt>
      <trkpt lat="45.00012" lon="5.44415">
        <ele>760.0593262</ele>
        <time>2011-08-27T14:18:39Z</time>
      </trkpt>
      <trkpt lat="45.0001" lon="5.44417">
        <ele>760.0593262</ele>
        <time>2011-08-27T14:19:00Z</time>
      </trkpt>
      <trkpt lat="45.00003" lon="5.44421">
        <ele>759.5788574</ele>
        <time>2011-08-27T14:19:15Z</time>
      </trkpt>
      <trkpt lat="44.9999" lon="5.44431">
        <ele>757.1755371</ele>
        <time>2011-08-27T14:21:44Z</time>
      </trkpt>
      <trkpt lat="44.99993" lon="5.44497">
        <ele>754.7722168</ele>
        <time>2011-08-27T14:21:53Z</time>
      </trkpt>
      <trkpt lat="45.00007" lon="5.44528">
        <ele>756.2141113</ele>
        <time>2011-08-27T14:22:05Z</time>
      </trkpt>
      <trkpt lat="45.00007" lon="5.44529">
        <ele>755.7336426</ele>
        <time>2011-08-27T14:22:22Z</time>
      </trkpt>
      <trkpt lat="45.00008" lon="5.44528">
        <ele>755.7336426</ele>
        <time>2011-08-27T14:29:49Z</time>
      </trkpt>
      <trkpt lat="45.00008" lon="5.4453">
        <ele>755.2529297</ele>
        <time>2011-08-27T14:31:08Z</time>
      </trkpt>
      <trkpt lat="45.00008" lon="5.44531">
        <ele>754.291748</ele>
        <time>2011-08-27T14:32:00Z</time>
      </trkpt>
      <trkpt lat="45.00019" lon="5.44554">
        <ele>753.8110352</ele>
        <time>2011-08-27T14:32:13Z</time>
      </trkpt>
      <trkpt lat="45.00036" lon="5.44608">
        <ele>753.8110352</ele>
        <time>2011-08-27T14:32:30Z</time>
      </trkpt>
      <trkpt lat="45.00044" lon="5.44686">
        <ele>749.9658203</ele>
        <time>2011-08-27T14:32:40Z</time>
      </trkpt>
      <trkpt lat="45.00068" lon="5.44707">
        <ele>748.0432129</ele>
        <time>2011-08-27T14:32:47Z</time>
      </trkpt>
      <trkpt lat="45.00156" lon="5.44695">
        <ele>745.1589355</ele>
        <time>2011-08-27T14:33:01Z</time>
      </trkpt>
      <trkpt lat="45.00185" lon="5.4471">
        <ele>741.7944336</ele>
        <time>2011-08-27T14:33:06Z</time>
      </trkpt>
      <trkpt lat="45.00204" lon="5.44735">
        <ele>739.3911133</ele>
        <time>2011-08-27T14:33:10Z</time>
      </trkpt>
      <trkpt lat="45.00242" lon="5.4475">
        <ele>736.987793</ele>
        <time>2011-08-27T14:33:16Z</time>
      </trkpt>
      <trkpt lat="45.00256" lon="5.44751">
        <ele>735.5458984</ele>
        <time>2011-08-27T14:33:18Z</time>
      </trkpt>
      <trkpt lat="45.00304" lon="5.44758">
        <ele>734.5847168</ele>
        <time>2011-08-27T14:33:25Z</time>
      </trkpt>
      <trkpt lat="45.00325" lon="5.44766">
        <ele>734.5847168</ele>
        <time>2011-08-27T14:33:34Z</time>
      </trkpt>
      <trkpt lat="45.00326" lon="5.44765">
        <ele>735.5458984</ele>
        <time>2011-08-27T14:33:49Z</time>
      </trkpt>
      <trkpt lat="45.00344" lon="5.44757">
        <ele>733.1425781</ele>
        <time>2011-08-27T14:33:55Z</time>
      </trkpt>
      <trkpt lat="45.00359" lon="5.44745">
        <ele>732.1813965</ele>
        <time>2011-08-27T14:33:59Z</time>
      </trkpt>
      <trkpt lat="45.00376" lon="5.44745">
        <ele>731.2199707</ele>
        <time>2011-08-27T14:34:03Z</time>
      </trkpt>
      <trkpt lat="45.00386" lon="5.44748">
        <ele>730.2585449</ele>
        <time>2011-08-27T14:34:06Z</time>
      </trkpt>
      <trkpt lat="45.00394" lon="5.44745">
        <ele>728.8166504</ele>
        <time>2011-08-27T14:34:09Z</time>
      </trkpt>
      <trkpt lat="45.00403" lon="5.44751">
        <ele>725.4519043</ele>
        <time>2011-08-27T14:34:13Z</time>
      </trkpt>
      <trkpt lat="45.00433" lon="5.44814">
        <ele>726.4133301</ele>
        <time>2011-08-27T14:34:29Z</time>
      </trkpt>
      <trkpt lat="45.00438" lon="5.44828">
        <ele>725.4519043</ele>
        <time>2011-08-27T14:34:37Z</time>
      </trkpt>
      <trkpt lat="45.00435" lon="5.44818">
        <ele>725.4519043</ele>
        <time>2011-08-27T14:34:42Z</time>
      </trkpt>
      <trkpt lat="45.00426" lon="5.44806">
        <ele>724.0100098</ele>
        <time>2011-08-27T14:34:53Z</time>
      </trkpt>
      <trkpt lat="45.00424" lon="5.44807">
        <ele>723.529541</ele>
        <time>2011-08-27T14:35:31Z</time>
      </trkpt>
      <trkpt lat="45.0043" lon="5.44812">
        <ele>728.3359375</ele>
        <time>2011-08-27T14:38:24Z</time>
      </trkpt>
      <trkpt lat="45.00433" lon="5.44815">
        <ele>723.529541</ele>
        <time>2011-08-27T14:55:31Z</time>
      </trkpt>
      <trkpt lat="45.00433" lon="5.44821">
        <ele>721.6066895</ele>
        <time>2011-08-27T14:55:54Z</time>
      </trkpt>
      <trkpt lat="45.00432" lon="5.44821">
        <ele>721.1262207</ele>
        <time>2011-08-27T14:56:08Z</time>
      </trkpt>
      <trkpt lat="45.00447" lon="5.44867">
        <ele>717.2810059</ele>
        <time>2011-08-27T14:56:22Z</time>
      </trkpt>
      <trkpt lat="45.00471" lon="5.4496">
        <ele>714.3967285</ele>
        <time>2011-08-27T14:56:43Z</time>
      </trkpt>
      <trkpt lat="45.00483" lon="5.45024">
        <ele>713.9160156</ele>
        <time>2011-08-27T14:56:59Z</time>
      </trkpt>
      <trkpt lat="45.005" lon="5.45073">
        <ele>712.954834</ele>
        <time>2011-08-27T14:57:11Z</time>
      </trkpt>
      <trkpt lat="45.00508" lon="5.45097">
        <ele>713.9160156</ele>
        <time>2011-08-27T14:57:20Z</time>
      </trkpt>
      <trkpt lat="45.00497" lon="5.45122">
        <ele>715.3581543</ele>
        <time>2011-08-27T14:57:33Z</time>
      </trkpt>
      <trkpt lat="45.00497" lon="5.45132">
        <ele>715.8388672</ele>
        <time>2011-08-27T14:57:37Z</time>
      </trkpt>
      <trkpt lat="45.005" lon="5.45146">
        <ele>716.800293</ele>
        <time>2011-08-27T14:57:49Z</time>
      </trkpt>
      <trkpt lat="45.00495" lon="5.45139">
        <ele>717.7614746</ele>
        <time>2011-08-27T14:57:56Z</time>
      </trkpt>
      <trkpt lat="45.00482" lon="5.45153">
        <ele>715.3581543</ele>
        <time>2011-08-27T14:58:10Z</time>
      </trkpt>
      <trkpt lat="45.00477" lon="5.45154">
        <ele>714.8774414</ele>
        <time>2011-08-27T14:58:13Z</time>
      </trkpt>
      <trkpt lat="45.00472" lon="5.45156">
        <ele>716.800293</ele>
        <time>2011-08-27T14:58:18Z</time>
      </trkpt>
      <trkpt lat="45.00456" lon="5.4516">
        <ele>719.6843262</ele>
        <time>2011-08-27T14:58:36Z</time>
      </trkpt>
      <trkpt lat="45.00445" lon="5.45158">
        <ele>722.0874023</ele>
        <time>2011-08-27T14:58:52Z</time>
      </trkpt>
      <trkpt lat="45.00437" lon="5.45155">
        <ele>727.3747559</ele>
        <time>2011-08-27T14:59:12Z</time>
      </trkpt>
      <trkpt lat="45.00425" lon="5.45157">
        <ele>730.2585449</ele>
        <time>2011-08-27T14:59:31Z</time>
      </trkpt>
      <trkpt lat="45.00412" lon="5.45167">
        <ele>728.8166504</ele>
        <time>2011-08-27T14:59:47Z</time>
      </trkpt>
      <trkpt lat="45.00391" lon="5.4518">
        <ele>731.7004395</ele>
        <time>2011-08-27T15:00:09Z</time>
      </trkpt>
      <trkpt lat="45.00388" lon="5.4518">
        <ele>732.6621094</ele>
        <time>2011-08-27T15:00:12Z</time>
      </trkpt>
      <trkpt lat="45.00386" lon="5.45182">
        <ele>733.623291</ele>
        <time>2011-08-27T15:00:15Z</time>
      </trkpt>
      <trkpt lat="45.00367" lon="5.45164">
        <ele>736.0266113</ele>
        <time>2011-08-27T15:00:31Z</time>
      </trkpt>
      <trkpt lat="45.00348" lon="5.45142">
        <ele>736.987793</ele>
        <time>2011-08-27T15:00:47Z</time>
      </trkpt>
      <trkpt lat="45.00346" lon="5.45144">
        <ele>735.0654297</ele>
        <time>2011-08-27T15:02:13Z</time>
      </trkpt>
      <trkpt lat="45.00344" lon="5.45142">
        <ele>735.0654297</ele>
        <time>2011-08-27T15:04:16Z</time>
      </trkpt>
      <trkpt lat="45.00321" lon="5.45118">
        <ele>737.9492188</ele>
        <time>2011-08-27T15:04:33Z</time>
      </trkpt>
      <trkpt lat="45.00319" lon="5.45118">
        <ele>737.9492188</ele>
        <time>2011-08-27T15:04:34Z</time>
      </trkpt>
      <trkpt lat="45.00317" lon="5.45132">
        <ele>738.9106445</ele>
        <time>2011-08-27T15:04:41Z</time>
      </trkpt>
      <trkpt lat="45.00328" lon="5.45157">
        <ele>740.8330078</ele>
        <time>2011-08-27T15:04:51Z</time>
      </trkpt>
      <trkpt lat="45.00338" lon="5.45205">
        <ele>742.2751465</ele>
        <time>2011-08-27T15:05:12Z</time>
      </trkpt>
      <trkpt lat="45.00332" lon="5.45246">
        <ele>745.1589355</ele>
        <time>2011-08-27T15:05:31Z</time>
      </trkpt>
      <trkpt lat="45.00326" lon="5.45288">
        <ele>746.1203613</ele>
        <time>2011-08-27T15:05:53Z</time>
      </trkpt>
      <trkpt lat="45.0032" lon="5.45323">
        <ele>746.1203613</ele>
        <time>2011-08-27T15:06:13Z</time>
      </trkpt>
      <trkpt lat="45.00315" lon="5.45363">
        <ele>749.0043945</ele>
        <time>2011-08-27T15:06:35Z</time>
      </trkpt>
      <trkpt lat="45.00309" lon="5.45391">
        <ele>752.8496094</ele>
        <time>2011-08-27T15:06:51Z</time>
      </trkpt>
      <trkpt lat="45.00303" lon="5.4543">
        <ele>756.2141113</ele>
        <time>2011-08-27T15:07:13Z</time>
      </trkpt>
      <trkpt lat="45.00302" lon="5.45438">
        <ele>756.2141113</ele>
        <time>2011-08-27T15:07:17Z</time>
      </trkpt>
      <trkpt lat="45.003" lon="5.4544">
        <ele>756.2141113</ele>
        <time>2011-08-27T15:07:19Z</time>
      </trkpt>
      <trkpt lat="45.00296" lon="5.45469">
        <ele>760.0593262</ele>
        <time>2011-08-27T15:07:39Z</time>
      </trkpt>
      <trkpt lat="45.00292" lon="5.45481">
        <ele>761.5014648</ele>
        <time>2011-08-27T15:07:47Z</time>
      </trkpt>
      <trkpt lat="45.00283" lon="5.45499">
        <ele>763.4240723</ele>
        <time>2011-08-27T15:07:59Z</time>
      </trkpt>
      <trkpt lat="45.00282" lon="5.45517">
        <ele>767.2695313</ele>
        <time>2011-08-27T15:08:12Z</time>
      </trkpt>
      <trkpt lat="45.00279" lon="5.45551">
        <ele>773.0373535</ele>
        <time>2011-08-27T15:08:32Z</time>
      </trkpt>
      <trkpt lat="45.00281" lon="5.45564">
        <ele>775.9211426</ele>
        <time>2011-08-27T15:08:44Z</time>
      </trkpt>
      <trkpt lat="45.00274" lon="5.45571">
        <ele>776.8825684</ele>
        <time>2011-08-27T15:08:49Z</time>
      </trkpt>
      <trkpt lat="45.00267" lon="5.45583">
        <ele>778.8051758</ele>
        <time>2011-08-27T15:08:59Z</time>
      </trkpt>
      <trkpt lat="45.00261" lon="5.45597">
        <ele>780.2473145</ele>
        <time>2011-08-27T15:09:06Z</time>
      </trkpt>
      <trkpt lat="45.00241" lon="5.45625">
        <ele>782.1699219</ele>
        <time>2011-08-27T15:09:21Z</time>
      </trkpt>
      <trkpt lat="45.00227" lon="5.45639">
        <ele>788.418457</ele>
        <time>2011-08-27T15:09:34Z</time>
      </trkpt>
      <trkpt lat="45.0022" lon="5.45655">
        <ele>792.2636719</ele>
        <time>2011-08-27T15:09:46Z</time>
      </trkpt>
      <trkpt lat="45.00218" lon="5.45662">
        <ele>793.7055664</ele>
        <time>2011-08-27T15:09:50Z</time>
      </trkpt>
      <trkpt lat="45.00211" lon="5.45669">
        <ele>796.5898438</ele>
        <time>2011-08-27T15:09:56Z</time>
      </trkpt>
      <trkpt lat="45.00196" lon="5.45688">
        <ele>802.3574219</ele>
        <time>2011-08-27T15:10:10Z</time>
      </trkpt>
      <trkpt lat="45.00195" lon="5.45689">
        <ele>802.8381348</ele>
        <time>2011-08-27T15:10:11Z</time>
      </trkpt>
      <trkpt lat="45.00185" lon="5.45707">
        <ele>809.0866699</ele>
        <time>2011-08-27T15:10:25Z</time>
      </trkpt>
      <trkpt lat="45.00164" lon="5.45729">
        <ele>811.4899902</ele>
        <time>2011-08-27T15:10:50Z</time>
      </trkpt>
      <trkpt lat="45.00152" lon="5.45745">
        <ele>814.3740234</ele>
        <time>2011-08-27T15:11:01Z</time>
      </trkpt>
      <trkpt lat="45.00147" lon="5.4577">
        <ele>818.6999512</ele>
        <time>2011-08-27T15:11:16Z</time>
      </trkpt>
      <trkpt lat="45.00146" lon="5.45777">
        <ele>820.1418457</ele>
        <time>2011-08-27T15:11:19Z</time>
      </trkpt>
      <trkpt lat="45.00148" lon="5.45792">
        <ele>821.1032715</ele>
        <time>2011-08-27T15:11:29Z</time>
      </trkpt>
      <trkpt lat="45.00148" lon="5.45806">
        <ele>822.545166</ele>
        <time>2011-08-27T15:11:37Z</time>
      </trkpt>
      <trkpt lat="45.00144" lon="5.45815">
        <ele>823.0258789</ele>
        <time>2011-08-27T15:11:43Z</time>
      </trkpt>
      <trkpt lat="45.00144" lon="5.45835">
        <ele>823.0258789</ele>
        <time>2011-08-27T15:11:55Z</time>
      </trkpt>
      <trkpt lat="45.00146" lon="5.45861">
        <ele>819.661377</ele>
        <time>2011-08-27T15:12:08Z</time>
      </trkpt>
      <trkpt lat="45.00145" lon="5.45861">
        <ele>819.661377</ele>
        <time>2011-08-27T15:12:09Z</time>
      </trkpt>
      <trkpt lat="45.00141" lon="5.4587">
        <ele>818.2192383</ele>
        <time>2011-08-27T15:12:25Z</time>
      </trkpt>
      <trkpt lat="45.00141" lon="5.45874">
        <ele>820.1418457</ele>
        <time>2011-08-27T15:17:48Z</time>
      </trkpt>
      <trkpt lat="45.0014" lon="5.45877">
        <ele>819.1806641</ele>
        <time>2011-08-27T15:18:01Z</time>
      </trkpt>
      <trkpt lat="45.00141" lon="5.459">
        <ele>817.2580566</ele>
        <time>2011-08-27T15:18:13Z</time>
      </trkpt>
      <trkpt lat="45.00144" lon="5.45914">
        <ele>818.2192383</ele>
        <time>2011-08-27T15:18:20Z</time>
      </trkpt>
      <trkpt lat="45.00146" lon="5.45929">
        <ele>819.1806641</ele>
        <time>2011-08-27T15:18:31Z</time>
      </trkpt>
      <trkpt lat="45.00149" lon="5.45944">
        <ele>820.1418457</ele>
        <time>2011-08-27T15:18:41Z</time>
      </trkpt>
      <trkpt lat="45.00149" lon="5.45967">
        <ele>824.4677734</ele>
        <time>2011-08-27T15:18:56Z</time>
      </trkpt>
      <trkpt lat="45.0015" lon="5.45976">
        <ele>821.5837402</ele>
        <time>2011-08-27T15:19:02Z</time>
      </trkpt>
      <trkpt lat="45.00149" lon="5.45979">
        <ele>821.5837402</ele>
        <time>2011-08-27T15:19:04Z</time>
      </trkpt>
      <trkpt lat="45.00148" lon="5.45984">
        <ele>820.1418457</ele>
        <time>2011-08-27T15:19:08Z</time>
      </trkpt>
      <trkpt lat="45.0015" lon="5.45988">
        <ele>821.1032715</ele>
        <time>2011-08-27T15:19:10Z</time>
      </trkpt>
      <trkpt lat="45.00157" lon="5.46003">
        <ele>824.9484863</ele>
        <time>2011-08-27T15:19:21Z</time>
      </trkpt>
      <trkpt lat="45.00159" lon="5.46008">
        <ele>827.8322754</ele>
        <time>2011-08-27T15:19:26Z</time>
      </trkpt>
      <trkpt lat="45.00161" lon="5.46012">
        <ele>829.2744141</ele>
        <time>2011-08-27T15:19:30Z</time>
      </trkpt>
      <trkpt lat="45.00163" lon="5.46019">
        <ele>830.7165527</ele>
        <time>2011-08-27T15:19:38Z</time>
      </trkpt>
      <trkpt lat="45.00169" lon="5.46027">
        <ele>831.1972656</ele>
        <time>2011-08-27T15:19:45Z</time>
      </trkpt>
      <trkpt lat="45.00184" lon="5.46059">
        <ele>831.1972656</ele>
        <time>2011-08-27T15:20:09Z</time>
      </trkpt>
      <trkpt lat="45.0019" lon="5.46077">
        <ele>827.3518066</ele>
        <time>2011-08-27T15:20:23Z</time>
      </trkpt>
      <trkpt lat="45.00205" lon="5.46092">
        <ele>829.2744141</ele>
        <time>2011-08-27T15:20:40Z</time>
      </trkpt>
      <trkpt lat="45.00216" lon="5.46097">
        <ele>826.3903809</ele>
        <time>2011-08-27T15:20:55Z</time>
      </trkpt>
      <trkpt lat="45.00227" lon="5.46093">
        <ele>826.3903809</ele>
        <time>2011-08-27T15:21:06Z</time>
      </trkpt>
      <trkpt lat="45.0023" lon="5.46091">
        <ele>825.4289551</ele>
        <time>2011-08-27T15:21:09Z</time>
      </trkpt>
      <trkpt lat="45.00234" lon="5.46089">
        <ele>823.9870605</ele>
        <time>2011-08-27T15:21:13Z</time>
      </trkpt>
      <trkpt lat="45.00248" lon="5.4609">
        <ele>828.3132324</ele>
        <time>2011-08-27T15:21:29Z</time>
      </trkpt>
      <trkpt lat="45.00256" lon="5.46092">
        <ele>829.2744141</ele>
        <time>2011-08-27T15:21:37Z</time>
      </trkpt>
      <trkpt lat="45.00261" lon="5.46096">
        <ele>829.755127</ele>
        <time>2011-08-27T15:21:42Z</time>
      </trkpt>
      <trkpt lat="45.00272" lon="5.461">
        <ele>827.3518066</ele>
        <time>2011-08-27T15:21:53Z</time>
      </trkpt>
      <trkpt lat="45.00274" lon="5.46105">
        <ele>826.8710938</ele>
        <time>2011-08-27T15:21:57Z</time>
      </trkpt>
      <trkpt lat="45.00286" lon="5.46109">
        <ele>831.6777344</ele>
        <time>2011-08-27T15:22:10Z</time>
      </trkpt>
      <trkpt lat="45.00292" lon="5.46117">
        <ele>835.0424805</ele>
        <time>2011-08-27T15:22:21Z</time>
      </trkpt>
      <trkpt lat="45.00298" lon="5.46129">
        <ele>836.9648438</ele>
        <time>2011-08-27T15:22:33Z</time>
      </trkpt>
      <trkpt lat="45.00309" lon="5.46142">
        <ele>832.6391602</ele>
        <time>2011-08-27T15:22:45Z</time>
      </trkpt>
      <trkpt lat="45.00313" lon="5.46143">
        <ele>834.5617676</ele>
        <time>2011-08-27T15:22:48Z</time>
      </trkpt>
      <trkpt lat="45.0033" lon="5.46152">
        <ele>834.5617676</ele>
        <time>2011-08-27T15:23:05Z</time>
      </trkpt>
      <trkpt lat="45.00342" lon="5.4617">
        <ele>831.1972656</ele>
        <time>2011-08-27T15:23:19Z</time>
      </trkpt>
      <trkpt lat="45.00351" lon="5.46178">
        <ele>836.0036621</ele>
        <time>2011-08-27T15:23:31Z</time>
      </trkpt>
      <trkpt lat="45.00359" lon="5.46178">
        <ele>839.3681641</ele>
        <time>2011-08-27T15:23:42Z</time>
      </trkpt>
      <trkpt lat="45.00366" lon="5.46176">
        <ele>838.8876953</ele>
        <time>2011-08-27T15:23:49Z</time>
      </trkpt>
      <trkpt lat="45.0038" lon="5.46183">
        <ele>836.0036621</ele>
        <time>2011-08-27T15:24:02Z</time>
      </trkpt>
      <trkpt lat="45.00391" lon="5.46192">
        <ele>839.3681641</ele>
        <time>2011-08-27T15:24:16Z</time>
      </trkpt>
      <trkpt lat="45.00396" lon="5.46197">
        <ele>844.1750488</ele>
        <time>2011-08-27T15:24:27Z</time>
      </trkpt>
      <trkpt lat="45.00408" lon="5.46204">
        <ele>844.1750488</ele>
        <time>2011-08-27T15:24:38Z</time>
      </trkpt>
      <trkpt lat="45.00412" lon="5.46205">
        <ele>844.1750488</ele>
        <time>2011-08-27T15:24:41Z</time>
      </trkpt>
      <trkpt lat="45.00423" lon="5.46212">
        <ele>847.5395508</ele>
        <time>2011-08-27T15:24:54Z</time>
      </trkpt>
      <trkpt lat="45.00435" lon="5.46219">
        <ele>856.1911621</ele>
        <time>2011-08-27T15:25:08Z</time>
      </trkpt>
      <trkpt lat="45.00445" lon="5.46232">
        <ele>853.307373</ele>
        <time>2011-08-27T15:25:22Z</time>
      </trkpt>
      <trkpt lat="45.00456" lon="5.46249">
        <ele>851.8654785</ele>
        <time>2011-08-27T15:25:38Z</time>
      </trkpt>
      <trkpt lat="45.00472" lon="5.46269">
        <ele>848.9814453</ele>
        <time>2011-08-27T15:25:55Z</time>
      </trkpt>
      <trkpt lat="45.00486" lon="5.46277">
        <ele>850.9040527</ele>
        <time>2011-08-27T15:26:06Z</time>
      </trkpt>
      <trkpt lat="45.00494" lon="5.46283">
        <ele>857.1525879</ele>
        <time>2011-08-27T15:26:16Z</time>
      </trkpt>
      <trkpt lat="45.00505" lon="5.46288">
        <ele>861.9594727</ele>
        <time>2011-08-27T15:26:27Z</time>
      </trkpt>
      <trkpt lat="45.00519" lon="5.46299">
        <ele>864.8432617</ele>
        <time>2011-08-27T15:26:40Z</time>
      </trkpt>
      <trkpt lat="45.0053" lon="5.46312">
        <ele>865.3239746</ele>
        <time>2011-08-27T15:26:55Z</time>
      </trkpt>
      <trkpt lat="45.00536" lon="5.46317">
        <ele>868.2077637</ele>
        <time>2011-08-27T15:27:03Z</time>
      </trkpt>
      <trkpt lat="45.00549" lon="5.46323">
        <ele>872.5336914</ele>
        <time>2011-08-27T15:27:18Z</time>
      </trkpt>
      <trkpt lat="45.00563" lon="5.46328">
        <ele>877.8210449</ele>
        <time>2011-08-27T15:27:33Z</time>
      </trkpt>
      <trkpt lat="45.00573" lon="5.46334">
        <ele>881.185791</ele>
        <time>2011-08-27T15:27:44Z</time>
      </trkpt>
      <trkpt lat="45.00573" lon="5.46335">
        <ele>881.185791</ele>
        <time>2011-08-27T15:27:46Z</time>
      </trkpt>
      <trkpt lat="45.00587" lon="5.46342">
        <ele>880.2243652</ele>
        <time>2011-08-27T15:27:59Z</time>
      </trkpt>
      <trkpt lat="45.00588" lon="5.46342">
        <ele>881.6662598</ele>
        <time>2011-08-27T15:28:01Z</time>
      </trkpt>
      <trkpt lat="45.006" lon="5.4635">
        <ele>885.5114746</ele>
        <time>2011-08-27T15:28:13Z</time>
      </trkpt>
      <trkpt lat="45.00607" lon="5.46353">
        <ele>886.4729004</ele>
        <time>2011-08-27T15:28:24Z</time>
      </trkpt>
      <trkpt lat="45.00616" lon="5.46357">
        <ele>887.434082</ele>
        <time>2011-08-27T15:28:33Z</time>
      </trkpt>
      <trkpt lat="45.00631" lon="5.4636">
        <ele>893.6828613</ele>
        <time>2011-08-27T15:28:46Z</time>
      </trkpt>
      <trkpt lat="45.00638" lon="5.46363">
        <ele>899.4506836</ele>
        <time>2011-08-27T15:28:56Z</time>
      </trkpt>
      <trkpt lat="45.00655" lon="5.46369">
        <ele>903.2958984</ele>
        <time>2011-08-27T15:29:11Z</time>
      </trkpt>
      <trkpt lat="45.00664" lon="5.46372">
        <ele>905.2185059</ele>
        <time>2011-08-27T15:29:21Z</time>
      </trkpt>
      <trkpt lat="45.00684" lon="5.46381">
        <ele>907.1411133</ele>
        <time>2011-08-27T15:29:39Z</time>
      </trkpt>
      <trkpt lat="45.0069" lon="5.46383">
        <ele>908.1027832</ele>
        <time>2011-08-27T15:29:45Z</time>
      </trkpt>
      <trkpt lat="45.00694" lon="5.46385">
        <ele>909.0639648</ele>
        <time>2011-08-27T15:29:50Z</time>
      </trkpt>
      <trkpt lat="45.00707" lon="5.46387">
        <ele>914.3510742</ele>
        <time>2011-08-27T15:30:04Z</time>
      </trkpt>
      <trkpt lat="45.00721" lon="5.4639">
        <ele>913.8703613</ele>
        <time>2011-08-27T15:30:20Z</time>
      </trkpt>
      <trkpt lat="45.00733" lon="5.46387">
        <ele>916.7543945</ele>
        <time>2011-08-27T15:30:35Z</time>
      </trkpt>
      <trkpt lat="45.0075" lon="5.4639">
        <ele>916.7543945</ele>
        <time>2011-08-27T15:30:52Z</time>
      </trkpt>
      <trkpt lat="45.00759" lon="5.46393">
        <ele>912.4284668</ele>
        <time>2011-08-27T15:31:02Z</time>
      </trkpt>
      <trkpt lat="45.00773" lon="5.46396">
        <ele>910.9865723</ele>
        <time>2011-08-27T15:31:17Z</time>
      </trkpt>
      <trkpt lat="45.00778" lon="5.46403">
        <ele>909.5446777</ele>
        <time>2011-08-27T15:31:30Z</time>
      </trkpt>
      <trkpt lat="45.00796" lon="5.46402">
        <ele>910.9865723</ele>
        <time>2011-08-27T15:31:47Z</time>
      </trkpt>
      <trkpt lat="45.00809" lon="5.46406">
        <ele>915.3125</ele>
        <time>2011-08-27T15:32:05Z</time>
      </trkpt>
      <trkpt lat="45.00813" lon="5.46409">
        <ele>919.1577148</ele>
        <time>2011-08-27T15:32:24Z</time>
      </trkpt>
      <trkpt lat="45.00827" lon="5.46408">
        <ele>925.8869629</ele>
        <time>2011-08-27T15:32:38Z</time>
      </trkpt>
      <trkpt lat="45.00834" lon="5.46414">
        <ele>927.3291016</ele>
        <time>2011-08-27T15:32:48Z</time>
      </trkpt>
      <trkpt lat="45.00845" lon="5.46418">
        <ele>927.3291016</ele>
        <time>2011-08-27T15:33:09Z</time>
      </trkpt>
      <trkpt lat="45.00846" lon="5.46422">
        <ele>928.7709961</ele>
        <time>2011-08-27T15:37:47Z</time>
      </trkpt>
      <trkpt lat="45.0085" lon="5.46421">
        <ele>941.2680664</ele>
        <time>2011-08-27T15:43:52Z</time>
      </trkpt>
      <trkpt lat="45.00855" lon="5.46421">
        <ele>940.3068848</ele>
        <time>2011-08-27T15:44:11Z</time>
      </trkpt>
      <trkpt lat="45.00855" lon="5.4642">
        <ele>942.7102051</ele>
        <time>2011-08-27T15:44:12Z</time>
      </trkpt>
      <trkpt lat="45.00862" lon="5.46419">
        <ele>947.5166016</ele>
        <time>2011-08-27T15:44:24Z</time>
      </trkpt>
      <trkpt lat="45.00873" lon="5.46422">
        <ele>952.322998</ele>
        <time>2011-08-27T15:44:35Z</time>
      </trkpt>
      <trkpt lat="45.00881" lon="5.46428">
        <ele>955.2070313</ele>
        <time>2011-08-27T15:44:45Z</time>
      </trkpt>
      <trkpt lat="45.00882" lon="5.46429">
        <ele>954.7263184</ele>
        <time>2011-08-27T15:44:46Z</time>
      </trkpt>
      <trkpt lat="45.00898" lon="5.46433">
        <ele>952.8037109</ele>
        <time>2011-08-27T15:44:59Z</time>
      </trkpt>
      <trkpt lat="45.00909" lon="5.46437">
        <ele>952.322998</ele>
        <time>2011-08-27T15:45:09Z</time>
      </trkpt>
      <trkpt lat="45.00922" lon="5.4644">
        <ele>954.7263184</ele>
        <time>2011-08-27T15:45:20Z</time>
      </trkpt>
      <trkpt lat="45.00932" lon="5.46443">
        <ele>958.0913086</ele>
        <time>2011-08-27T15:45:30Z</time>
      </trkpt>
      <trkpt lat="45.00943" lon="5.46441">
        <ele>959.0524902</ele>
        <time>2011-08-27T15:45:40Z</time>
      </trkpt>
      <trkpt lat="45.00955" lon="5.46442">
        <ele>962.4169922</ele>
        <time>2011-08-27T15:45:53Z</time>
      </trkpt>
      <trkpt lat="45.00968" lon="5.46445">
        <ele>963.8588867</ele>
        <time>2011-08-27T15:46:06Z</time>
      </trkpt>
      <trkpt lat="45.00978" lon="5.46448">
        <ele>963.378418</ele>
        <time>2011-08-27T15:46:14Z</time>
      </trkpt>
      <trkpt lat="45.00986" lon="5.46449">
        <ele>964.3395996</ele>
        <time>2011-08-27T15:46:25Z</time>
      </trkpt>
      <trkpt lat="45.00995" lon="5.46451">
        <ele>964.3395996</ele>
        <time>2011-08-27T15:46:34Z</time>
      </trkpt>
      <trkpt lat="45.01006" lon="5.46453">
        <ele>968.1848145</ele>
        <time>2011-08-27T15:46:45Z</time>
      </trkpt>
      <trkpt lat="45.0102" lon="5.4646">
        <ele>968.6655273</ele>
        <time>2011-08-27T15:46:59Z</time>
      </trkpt>
      <trkpt lat="45.0103" lon="5.46468">
        <ele>972.5109863</ele>
        <time>2011-08-27T15:47:10Z</time>
      </trkpt>
      <trkpt lat="45.01045" lon="5.46478">
        <ele>974.9143066</ele>
        <time>2011-08-27T15:47:24Z</time>
      </trkpt>
      <trkpt lat="45.01051" lon="5.46479">
        <ele>979.7207031</ele>
        <time>2011-08-27T15:47:33Z</time>
      </trkpt>
      <trkpt lat="45.01056" lon="5.46479">
        <ele>982.1240234</ele>
        <time>2011-08-27T15:47:39Z</time>
      </trkpt>
      <trkpt lat="45.01062" lon="5.46478">
        <ele>983.0852051</ele>
        <time>2011-08-27T15:47:50Z</time>
      </trkpt>
      <trkpt lat="45.01066" lon="5.46476">
        <ele>984.0466309</ele>
        <time>2011-08-27T15:47:56Z</time>
      </trkpt>
      <trkpt lat="45.01077" lon="5.46469">
        <ele>984.5273438</ele>
        <time>2011-08-27T15:48:08Z</time>
      </trkpt>
      <trkpt lat="45.01085" lon="5.46463">
        <ele>983.0852051</ele>
        <time>2011-08-27T15:48:17Z</time>
      </trkpt>
      <trkpt lat="45.01089" lon="5.46462">
        <ele>982.1240234</ele>
        <time>2011-08-27T15:48:21Z</time>
      </trkpt>
      <trkpt lat="45.01093" lon="5.46465">
        <ele>980.6821289</ele>
        <time>2011-08-27T15:48:24Z</time>
      </trkpt>
      <trkpt lat="45.01092" lon="5.46473">
        <ele>979.7207031</ele>
        <time>2011-08-27T15:48:31Z</time>
      </trkpt>
      <trkpt lat="45.01085" lon="5.46483">
        <ele>976.8369141</ele>
        <time>2011-08-27T15:48:42Z</time>
      </trkpt>
      <trkpt lat="45.01082" lon="5.46487">
        <ele>976.3562012</ele>
        <time>2011-08-27T15:48:45Z</time>
      </trkpt>
      <trkpt lat="45.01081" lon="5.46489">
        <ele>977.317627</ele>
        <time>2011-08-27T15:48:50Z</time>
      </trkpt>
      <trkpt lat="45.01077" lon="5.46494">
        <ele>975.3947754</ele>
        <time>2011-08-27T15:48:54Z</time>
      </trkpt>
      <trkpt lat="45.01074" lon="5.46499">
        <ele>974.4335938</ele>
        <time>2011-08-27T15:48:59Z</time>
      </trkpt>
      <trkpt lat="45.01074" lon="5.46503">
        <ele>973.9528809</ele>
        <time>2011-08-27T15:49:04Z</time>
      </trkpt>
      <trkpt lat="45.01075" lon="5.46506">
        <ele>973.9528809</ele>
        <time>2011-08-27T15:49:06Z</time>
      </trkpt>
      <trkpt lat="45.0107" lon="5.46509">
        <ele>974.4335938</ele>
        <time>2011-08-27T15:49:11Z</time>
      </trkpt>
      <trkpt lat="45.01066" lon="5.46513">
        <ele>974.9143066</ele>
        <time>2011-08-27T15:49:16Z</time>
      </trkpt>
      <trkpt lat="45.01061" lon="5.46513">
        <ele>975.3947754</ele>
        <time>2011-08-27T15:49:18Z</time>
      </trkpt>
      <trkpt lat="45.01041" lon="5.46517">
        <ele>979.7207031</ele>
        <time>2011-08-27T15:49:28Z</time>
      </trkpt>
      <trkpt lat="45.01029" lon="5.46519">
        <ele>978.7595215</ele>
        <time>2011-08-27T15:49:39Z</time>
      </trkpt>
      <trkpt lat="45.01014" lon="5.46521">
        <ele>977.7980957</ele>
        <time>2011-08-27T15:49:53Z</time>
      </trkpt>
      <trkpt lat="45.01004" lon="5.46525">
        <ele>977.7980957</ele>
        <time>2011-08-27T15:50:03Z</time>
      </trkpt>
      <trkpt lat="45.00991" lon="5.46531">
        <ele>980.201416</ele>
        <time>2011-08-27T15:50:14Z</time>
      </trkpt>
      <trkpt lat="45.00977" lon="5.46533">
        <ele>981.6433105</ele>
        <time>2011-08-27T15:50:22Z</time>
      </trkpt>
      <trkpt lat="45.00974" lon="5.46539">
        <ele>979.7207031</ele>
        <time>2011-08-27T15:50:32Z</time>
      </trkpt>
      <trkpt lat="45.0096" lon="5.46544">
        <ele>981.6433105</ele>
        <time>2011-08-27T15:50:47Z</time>
      </trkpt>
      <trkpt lat="45.00945" lon="5.4655">
        <ele>981.6433105</ele>
        <time>2011-08-27T15:50:58Z</time>
      </trkpt>
      <trkpt lat="45.00926" lon="5.46554">
        <ele>981.1628418</ele>
        <time>2011-08-27T15:51:08Z</time>
      </trkpt>
      <trkpt lat="45.00899" lon="5.46558">
        <ele>984.0466309</ele>
        <time>2011-08-27T15:51:22Z</time>
      </trkpt>
      <trkpt lat="45.00886" lon="5.46558">
        <ele>985.9692383</ele>
        <time>2011-08-27T15:51:30Z</time>
      </trkpt>
      <trkpt lat="45.00865" lon="5.46559">
        <ele>986.9304199</ele>
        <time>2011-08-27T15:51:47Z</time>
      </trkpt>
      <trkpt lat="45.00845" lon="5.4656">
        <ele>988.3728027</ele>
        <time>2011-08-27T15:51:59Z</time>
      </trkpt>
      <trkpt lat="45.00829" lon="5.46561">
        <ele>991.7373047</ele>
        <time>2011-08-27T15:52:11Z</time>
      </trkpt>
      <trkpt lat="45.00818" lon="5.46559">
        <ele>992.6987305</ele>
        <time>2011-08-27T15:52:18Z</time>
      </trkpt>
      <trkpt lat="45.00815" lon="5.46565">
        <ele>991.7373047</ele>
        <time>2011-08-27T15:52:23Z</time>
      </trkpt>
      <trkpt lat="45.00818" lon="5.4657">
        <ele>992.6987305</ele>
        <time>2011-08-27T15:52:28Z</time>
      </trkpt>
      <trkpt lat="45.00832" lon="5.46571">
        <ele>995.1018066</ele>
        <time>2011-08-27T15:52:42Z</time>
      </trkpt>
      <trkpt lat="45.00849" lon="5.46573">
        <ele>1002.3115234</ele>
        <time>2011-08-27T15:52:56Z</time>
      </trkpt>
      <trkpt lat="45.0087" lon="5.4658">
        <ele>1009.0410156</ele>
        <time>2011-08-27T15:53:18Z</time>
      </trkpt>
      <trkpt lat="45.00886" lon="5.46588">
        <ele>1013.3669434</ele>
        <time>2011-08-27T15:53:34Z</time>
      </trkpt>
      <trkpt lat="45.00903" lon="5.46593">
        <ele>1016.2507324</ele>
        <time>2011-08-27T15:53:50Z</time>
      </trkpt>
      <trkpt lat="45.00922" lon="5.466">
        <ele>1022.0187988</ele>
        <time>2011-08-27T15:54:13Z</time>
      </trkpt>
      <trkpt lat="45.00944" lon="5.46603">
        <ele>1028.7480469</ele>
        <time>2011-08-27T15:54:31Z</time>
      </trkpt>
      <trkpt lat="45.00976" lon="5.4661">
        <ele>1034.5158691</ele>
        <time>2011-08-27T15:54:58Z</time>
      </trkpt>
      <trkpt lat="45.00991" lon="5.46611">
        <ele>1037.3999023</ele>
        <time>2011-08-27T15:55:13Z</time>
      </trkpt>
      <trkpt lat="45.01006" lon="5.46613">
        <ele>1039.3225098</ele>
        <time>2011-08-27T15:55:28Z</time>
      </trkpt>
      <trkpt lat="45.01023" lon="5.46615">
        <ele>1042.206543</ele>
        <time>2011-08-27T15:55:46Z</time>
      </trkpt>
      <trkpt lat="45.01034" lon="5.46616">
        <ele>1044.1291504</ele>
        <time>2011-08-27T15:55:57Z</time>
      </trkpt>
      <trkpt lat="45.01055" lon="5.46618">
        <ele>1042.6872559</ele>
        <time>2011-08-27T15:56:14Z</time>
      </trkpt>
      <trkpt lat="45.01072" lon="5.4662">
        <ele>1041.2451172</ele>
        <time>2011-08-27T15:56:27Z</time>
      </trkpt>
      <trkpt lat="45.01082" lon="5.46621">
        <ele>1042.6872559</ele>
        <time>2011-08-27T15:56:39Z</time>
      </trkpt>
      <trkpt lat="45.01097" lon="5.46621">
        <ele>1043.6484375</ele>
        <time>2011-08-27T15:56:52Z</time>
      </trkpt>
      <trkpt lat="45.01112" lon="5.46621">
        <ele>1044.1291504</ele>
        <time>2011-08-27T15:57:05Z</time>
      </trkpt>
      <trkpt lat="45.01127" lon="5.46619">
        <ele>1047.4936523</ele>
        <time>2011-08-27T15:57:20Z</time>
      </trkpt>
      <trkpt lat="45.0114" lon="5.46616">
        <ele>1051.8195801</ele>
        <time>2011-08-27T15:57:35Z</time>
      </trkpt>
      <trkpt lat="45.01155" lon="5.46613">
        <ele>1055.6650391</ele>
        <time>2011-08-27T15:57:49Z</time>
      </trkpt>
      <trkpt lat="45.01176" lon="5.46612">
        <ele>1058.5488281</ele>
        <time>2011-08-27T15:58:09Z</time>
      </trkpt>
      <trkpt lat="45.01183" lon="5.4661">
        <ele>1061.9135742</ele>
        <time>2011-08-27T15:58:21Z</time>
      </trkpt>
      <trkpt lat="45.01196" lon="5.46608">
        <ele>1062.394043</ele>
        <time>2011-08-27T15:58:30Z</time>
      </trkpt>
      <trkpt lat="45.01209" lon="5.46607">
        <ele>1062.394043</ele>
        <time>2011-08-27T15:58:41Z</time>
      </trkpt>
      <trkpt lat="45.01216" lon="5.46605">
        <ele>1067.2006836</ele>
        <time>2011-08-27T15:58:53Z</time>
      </trkpt>
      <trkpt lat="45.01225" lon="5.46604">
        <ele>1069.604248</ele>
        <time>2011-08-27T15:59:12Z</time>
      </trkpt>
      <trkpt lat="45.01237" lon="5.46603">
        <ele>1069.1235352</ele>
        <time>2011-08-27T15:59:26Z</time>
      </trkpt>
      <trkpt lat="45.01248" lon="5.46601">
        <ele>1075.3718262</ele>
        <time>2011-08-27T15:59:43Z</time>
      </trkpt>
      <trkpt lat="45.01261" lon="5.46595">
        <ele>1077.2946777</ele>
        <time>2011-08-27T16:00:01Z</time>
      </trkpt>
      <trkpt lat="45.01276" lon="5.46591">
        <ele>1076.8139648</ele>
        <time>2011-08-27T16:00:16Z</time>
      </trkpt>
      <trkpt lat="45.01289" lon="5.4659">
        <ele>1076.8139648</ele>
        <time>2011-08-27T16:00:31Z</time>
      </trkpt>
      <trkpt lat="45.01301" lon="5.46586">
        <ele>1078.7365723</ele>
        <time>2011-08-27T16:00:48Z</time>
      </trkpt>
      <trkpt lat="45.0131" lon="5.46583">
        <ele>1081.1398926</ele>
        <time>2011-08-27T16:01:01Z</time>
      </trkpt>
      <trkpt lat="45.01323" lon="5.46581">
        <ele>1084.5046387</ele>
        <time>2011-08-27T16:01:18Z</time>
      </trkpt>
      <trkpt lat="45.01336" lon="5.46575">
        <ele>1090.2724609</ele>
        <time>2011-08-27T16:01:37Z</time>
      </trkpt>
      <trkpt lat="45.01352" lon="5.46567">
        <ele>1096.5209961</ele>
        <time>2011-08-27T16:01:59Z</time>
      </trkpt>
      <trkpt lat="45.0137" lon="5.46562">
        <ele>1103.730957</ele>
        <time>2011-08-27T16:02:21Z</time>
      </trkpt>
      <trkpt lat="45.01371" lon="5.46561">
        <ele>1104.2116699</ele>
        <time>2011-08-27T16:02:23Z</time>
      </trkpt>
      <trkpt lat="45.01376" lon="5.46559">
        <ele>1106.1340332</ele>
        <time>2011-08-27T16:02:38Z</time>
      </trkpt>
      <trkpt lat="45.01373" lon="5.46564">
        <ele>1105.6535645</ele>
        <time>2011-08-27T16:03:13Z</time>
      </trkpt>
      <trkpt lat="45.01337" lon="5.46523">
        <ele>1052.7810059</ele>
        <time>2011-08-27T16:09:24Z</time>
      </trkpt>
      <trkpt lat="45.01382" lon="5.46571">
        <ele>1101.3276367</ele>
        <time>2011-08-27T16:09:40Z</time>
      </trkpt>
      <trkpt lat="45.01372" lon="5.46578">
        <ele>1103.730957</ele>
        <time>2011-08-27T16:09:48Z</time>
      </trkpt>
      <trkpt lat="45.01369" lon="5.46584">
        <ele>1103.730957</ele>
        <time>2011-08-27T16:09:53Z</time>
      </trkpt>
      <trkpt lat="45.01348" lon="5.466">
        <ele>1099.885498</ele>
        <time>2011-08-27T16:10:06Z</time>
      </trkpt>
      <trkpt lat="45.01335" lon="5.46606">
        <ele>1097.9628906</ele>
        <time>2011-08-27T16:10:14Z</time>
      </trkpt>
      <trkpt lat="45.01338" lon="5.46611">
        <ele>1095.5595703</ele>
        <time>2011-08-27T16:10:17Z</time>
      </trkpt>
      <trkpt lat="45.01336" lon="5.46621">
        <ele>1090.2724609</ele>
        <time>2011-08-27T16:10:25Z</time>
      </trkpt>
      <trkpt lat="45.01323" lon="5.46637">
        <ele>1085.9465332</ele>
        <time>2011-08-27T16:10:35Z</time>
      </trkpt>
      <trkpt lat="45.01307" lon="5.46652">
        <ele>1089.791748</ele>
        <time>2011-08-27T16:10:47Z</time>
      </trkpt>
      <trkpt lat="45.01288" lon="5.46664">
        <ele>1091.7143555</ele>
        <time>2011-08-27T16:10:59Z</time>
      </trkpt>
      <trkpt lat="45.01262" lon="5.46675">
        <ele>1095.0788574</ele>
        <time>2011-08-27T16:11:15Z</time>
      </trkpt>
      <trkpt lat="45.01235" lon="5.46686">
        <ele>1097.0014648</ele>
        <time>2011-08-27T16:11:31Z</time>
      </trkpt>
      <trkpt lat="45.01202" lon="5.46695">
        <ele>1100.8469238</ele>
        <time>2011-08-27T16:11:53Z</time>
      </trkpt>
      <trkpt lat="45.01161" lon="5.46706">
        <ele>1104.6921387</ele>
        <time>2011-08-27T16:12:17Z</time>
      </trkpt>
      <trkpt lat="45.01119" lon="5.46719">
        <ele>1109.4987793</ele>
        <time>2011-08-27T16:12:43Z</time>
      </trkpt>
      <trkpt lat="45.01062" lon="5.46737">
        <ele>1114.3051758</ele>
        <time>2011-08-27T16:13:18Z</time>
      </trkpt>
      <trkpt lat="45.01013" lon="5.46761">
        <ele>1118.1506348</ele>
        <time>2011-08-27T16:13:48Z</time>
      </trkpt>
      <trkpt lat="45.0098" lon="5.46767">
        <ele>1120.0732422</ele>
        <time>2011-08-27T16:14:07Z</time>
      </trkpt>
      <trkpt lat="45.00942" lon="5.46772">
        <ele>1121.034668</ele>
        <time>2011-08-27T16:14:29Z</time>
      </trkpt>
      <trkpt lat="45.00913" lon="5.46775">
        <ele>1123.918457</ele>
        <time>2011-08-27T16:14:45Z</time>
      </trkpt>
      <trkpt lat="45.00876" lon="5.46775">
        <ele>1125.8410645</ele>
        <time>2011-08-27T16:15:03Z</time>
      </trkpt>
      <trkpt lat="45.00837" lon="5.46775">
        <ele>1129.6862793</ele>
        <time>2011-08-27T16:15:24Z</time>
      </trkpt>
      <trkpt lat="45.00802" lon="5.46782">
        <ele>1132.0898438</ele>
        <time>2011-08-27T16:15:44Z</time>
      </trkpt>
      <trkpt lat="45.00765" lon="5.46791">
        <ele>1134.4931641</ele>
        <time>2011-08-27T16:16:04Z</time>
      </trkpt>
      <trkpt lat="45.00733" lon="5.46792">
        <ele>1134.0124512</ele>
        <time>2011-08-27T16:16:22Z</time>
      </trkpt>
      <trkpt lat="45.00709" lon="5.46793">
        <ele>1135.9350586</ele>
        <time>2011-08-27T16:16:36Z</time>
      </trkpt>
      <trkpt lat="45.0069" lon="5.46792">
        <ele>1137.3769531</ele>
        <time>2011-08-27T16:16:48Z</time>
      </trkpt>
      <trkpt lat="45.00653" lon="5.46783">
        <ele>1141.222168</ele>
        <time>2011-08-27T16:17:10Z</time>
      </trkpt>
      <trkpt lat="45.00616" lon="5.46793">
        <ele>1145.5480957</ele>
        <time>2011-08-27T16:17:33Z</time>
      </trkpt>
      <trkpt lat="45.00576" lon="5.46795">
        <ele>1148.9128418</ele>
        <time>2011-08-27T16:17:56Z</time>
      </trkpt>
      <trkpt lat="45.00556" lon="5.46787">
        <ele>1149.8742676</ele>
        <time>2011-08-27T16:18:07Z</time>
      </trkpt>
      <trkpt lat="45.00552" lon="5.46788">
        <ele>1149.3935547</ele>
        <time>2011-08-27T16:18:09Z</time>
      </trkpt>
      <trkpt lat="45.0052" lon="5.46783">
        <ele>1152.2773438</ele>
        <time>2011-08-27T16:18:27Z</time>
      </trkpt>
      <trkpt lat="45.00494" lon="5.46789">
        <ele>1155.6420898</ele>
        <time>2011-08-27T16:18:44Z</time>
      </trkpt>
      <trkpt lat="45.00469" lon="5.46789">
        <ele>1156.1225586</ele>
        <time>2011-08-27T16:19:00Z</time>
      </trkpt>
      <trkpt lat="45.00468" lon="5.46788">
        <ele>1156.6032715</ele>
        <time>2011-08-27T16:19:01Z</time>
      </trkpt>
      <trkpt lat="45.00447" lon="5.46779">
        <ele>1159.9677734</ele>
        <time>2011-08-27T16:19:16Z</time>
      </trkpt>
      <trkpt lat="45.00418" lon="5.4677">
        <ele>1166.2165527</ele>
        <time>2011-08-27T16:19:36Z</time>
      </trkpt>
      <trkpt lat="45.00415" lon="5.4677">
        <ele>1167.6584473</ele>
        <time>2011-08-27T16:19:39Z</time>
      </trkpt>
      <trkpt lat="45.00409" lon="5.4677">
        <ele>1169.5812988</ele>
        <time>2011-08-27T16:19:44Z</time>
      </trkpt>
      <trkpt lat="45.00376" lon="5.46757">
        <ele>1171.0231934</ele>
        <time>2011-08-27T16:20:04Z</time>
      </trkpt>
      <trkpt lat="45.0035" lon="5.46745">
        <ele>1173.9069824</ele>
        <time>2011-08-27T16:20:26Z</time>
      </trkpt>
      <trkpt lat="45.00348" lon="5.46748">
        <ele>1173.4265137</ele>
        <time>2011-08-27T16:20:28Z</time>
      </trkpt>
      <trkpt lat="45.00365" lon="5.46773">
        <ele>1174.3876953</ele>
        <time>2011-08-27T16:20:44Z</time>
      </trkpt>
      <trkpt lat="45.0039" lon="5.46801">
        <ele>1178.713623</ele>
        <time>2011-08-27T16:21:05Z</time>
      </trkpt>
      <trkpt lat="45.0042" lon="5.46822">
        <ele>1180.1557617</ele>
        <time>2011-08-27T16:21:24Z</time>
      </trkpt>
      <trkpt lat="45.00445" lon="5.4685">
        <ele>1183.5202637</ele>
        <time>2011-08-27T16:21:43Z</time>
      </trkpt>
      <trkpt lat="45.00471" lon="5.46893">
        <ele>1184.4816895</ele>
        <time>2011-08-27T16:22:06Z</time>
      </trkpt>
      <trkpt lat="45.00492" lon="5.46915">
        <ele>1189.7687988</ele>
        <time>2011-08-27T16:22:21Z</time>
      </trkpt>
      <trkpt lat="45.00513" lon="5.46928">
        <ele>1191.2106934</ele>
        <time>2011-08-27T16:22:34Z</time>
      </trkpt>
      <trkpt lat="45.00533" lon="5.46937">
        <ele>1193.1333008</ele>
        <time>2011-08-27T16:22:46Z</time>
      </trkpt>
      <trkpt lat="45.00558" lon="5.46963">
        <ele>1195.0559082</ele>
        <time>2011-08-27T16:23:02Z</time>
      </trkpt>
      <trkpt lat="45.00577" lon="5.46984">
        <ele>1196.9787598</ele>
        <time>2011-08-27T16:23:15Z</time>
      </trkpt>
      <trkpt lat="45.00585" lon="5.46985">
        <ele>1199.3820801</ele>
        <time>2011-08-27T16:23:19Z</time>
      </trkpt>
      <trkpt lat="45.00587" lon="5.46987">
        <ele>1199.862793</ele>
        <time>2011-08-27T16:23:31Z</time>
      </trkpt>
      <trkpt lat="45.0059" lon="5.46987">
        <ele>1205.1499023</ele>
        <time>2011-08-27T16:24:27Z</time>
      </trkpt>
      <trkpt lat="45.00591" lon="5.46985">
        <ele>1208.0339355</ele>
        <time>2011-08-27T16:26:30Z</time>
      </trkpt>
      <trkpt lat="45.00559" lon="5.46953">
        <ele>1206.5917969</ele>
        <time>2011-08-27T16:26:42Z</time>
      </trkpt>
      <trkpt lat="45.0055" lon="5.46954">
        <ele>1208.5144043</ele>
        <time>2011-08-27T16:26:54Z</time>
      </trkpt>
      <trkpt lat="45.00546" lon="5.46953">
        <ele>1207.5532227</ele>
        <time>2011-08-27T16:27:22Z</time>
      </trkpt>
      <trkpt lat="45.00546" lon="5.46955">
        <ele>1209.4758301</ele>
        <time>2011-08-27T16:33:57Z</time>
      </trkpt>
      <trkpt lat="45.00553" lon="5.46961">
        <ele>1210.4370117</ele>
        <time>2011-08-27T16:34:11Z</time>
      </trkpt>
      <trkpt lat="45.00585" lon="5.46987">
        <ele>1209.4758301</ele>
        <time>2011-08-27T16:34:31Z</time>
      </trkpt>
      <trkpt lat="45.00599" lon="5.46988">
        <ele>1207.5532227</ele>
        <time>2011-08-27T16:34:39Z</time>
      </trkpt>
      <trkpt lat="45.00621" lon="5.46967">
        <ele>1206.111084</ele>
        <time>2011-08-27T16:34:55Z</time>
      </trkpt>
      <trkpt lat="45.00646" lon="5.46943">
        <ele>1207.0725098</ele>
        <time>2011-08-27T16:35:16Z</time>
      </trkpt>
      <trkpt lat="45.00652" lon="5.46938">
        <ele>1207.0725098</ele>
        <time>2011-08-27T16:35:21Z</time>
      </trkpt>
      <trkpt lat="45.00676" lon="5.46932">
        <ele>1209.9562988</ele>
        <time>2011-08-27T16:35:40Z</time>
      </trkpt>
      <trkpt lat="45.007" lon="5.46951">
        <ele>1211.8791504</ele>
        <time>2011-08-27T16:36:00Z</time>
      </trkpt>
      <trkpt lat="45.00724" lon="5.46971">
        <ele>1214.2824707</ele>
        <time>2011-08-27T16:36:21Z</time>
      </trkpt>
      <trkpt lat="45.00732" lon="5.46974">
        <ele>1216.2050781</ele>
        <time>2011-08-27T16:36:27Z</time>
      </trkpt>
      <trkpt lat="45.0076" lon="5.46978">
        <ele>1217.6469727</ele>
        <time>2011-08-27T16:36:48Z</time>
      </trkpt>
      <trkpt lat="45.0077" lon="5.46975">
        <ele>1218.6083984</ele>
        <time>2011-08-27T16:36:56Z</time>
      </trkpt>
      <trkpt lat="45.00793" lon="5.46961">
        <ele>1218.1276855</ele>
        <time>2011-08-27T16:37:14Z</time>
      </trkpt>
      <trkpt lat="45.00813" lon="5.46974">
        <ele>1220.5310059</ele>
        <time>2011-08-27T16:37:32Z</time>
      </trkpt>
      <trkpt lat="45.00815" lon="5.46976">
        <ele>1220.5310059</ele>
        <time>2011-08-27T16:37:34Z</time>
      </trkpt>
      <trkpt lat="45.00824" lon="5.4702">
        <ele>1226.2988281</ele>
        <time>2011-08-27T16:38:00Z</time>
      </trkpt>
      <trkpt lat="45.00824" lon="5.47022">
        <ele>1226.2988281</ele>
        <time>2011-08-27T16:38:01Z</time>
      </trkpt>
      <trkpt lat="45.00823" lon="5.47031">
        <ele>1228.2216797</ele>
        <time>2011-08-27T16:38:07Z</time>
      </trkpt>
      <trkpt lat="45.00799" lon="5.47075">
        <ele>1232.5476074</ele>
        <time>2011-08-27T16:38:37Z</time>
      </trkpt>
      <trkpt lat="45.00762" lon="5.47109">
        <ele>1235.4313965</ele>
        <time>2011-08-27T16:39:08Z</time>
      </trkpt>
      <trkpt lat="45.00776" lon="5.47123">
        <ele>1232.0668945</ele>
        <time>2011-08-27T16:39:23Z</time>
      </trkpt>
      <trkpt lat="45.00805" lon="5.4711">
        <ele>1233.989502</ele>
        <time>2011-08-27T16:39:45Z</time>
      </trkpt>
      <trkpt lat="45.00836" lon="5.47103">
        <ele>1240.7185059</ele>
        <time>2011-08-27T16:40:08Z</time>
      </trkpt>
      <trkpt lat="45.00858" lon="5.47123">
        <ele>1244.0834961</ele>
        <time>2011-08-27T16:40:27Z</time>
      </trkpt>
      <trkpt lat="45.00882" lon="5.47133">
        <ele>1246.0061035</ele>
        <time>2011-08-27T16:40:46Z</time>
      </trkpt>
      <trkpt lat="45.00906" lon="5.47108">
        <ele>1249.3706055</ele>
        <time>2011-08-27T16:41:08Z</time>
      </trkpt>
      <trkpt lat="45.00935" lon="5.47072">
        <ele>1246.0061035</ele>
        <time>2011-08-27T16:41:35Z</time>
      </trkpt>
      <trkpt lat="45.00956" lon="5.47052">
        <ele>1249.3706055</ele>
        <time>2011-08-27T16:41:54Z</time>
      </trkpt>
      <trkpt lat="45.00958" lon="5.4705">
        <ele>1249.8513184</ele>
        <time>2011-08-27T16:41:56Z</time>
      </trkpt>
      <trkpt lat="45.00986" lon="5.4703">
        <ele>1251.2932129</ele>
        <time>2011-08-27T16:42:19Z</time>
      </trkpt>
      <trkpt lat="45.01016" lon="5.47012">
        <ele>1253.6965332</ele>
        <time>2011-08-27T16:42:42Z</time>
      </trkpt>
      <trkpt lat="45.01036" lon="5.46999">
        <ele>1257.541748</ele>
        <time>2011-08-27T16:42:58Z</time>
      </trkpt>
      <trkpt lat="45.01067" lon="5.46991">
        <ele>1261.387207</ele>
        <time>2011-08-27T16:43:21Z</time>
      </trkpt>
      <trkpt lat="45.01094" lon="5.46989">
        <ele>1265.2324219</ele>
        <time>2011-08-27T16:43:41Z</time>
      </trkpt>
      <trkpt lat="45.01122" lon="5.46985">
        <ele>1269.5583496</ele>
        <time>2011-08-27T16:44:01Z</time>
      </trkpt>
      <trkpt lat="45.01153" lon="5.4699">
        <ele>1271.9614258</ele>
        <time>2011-08-27T16:44:23Z</time>
      </trkpt>
      <trkpt lat="45.01156" lon="5.46995">
        <ele>1272.4421387</ele>
        <time>2011-08-27T16:44:27Z</time>
      </trkpt>
      <trkpt lat="45.01178" lon="5.46997">
        <ele>1274.845459</ele>
        <time>2011-08-27T16:44:48Z</time>
      </trkpt>
      <trkpt lat="45.01178" lon="5.46999">
        <ele>1275.3259277</ele>
        <time>2011-08-27T16:45:03Z</time>
      </trkpt>
      <trkpt lat="45.01179" lon="5.46999">
        <ele>1275.3259277</ele>
        <time>2011-08-27T16:47:30Z</time>
      </trkpt>
      <trkpt lat="45.01178" lon="5.46997">
        <ele>1277.2490234</ele>
        <time>2011-08-27T16:49:39Z</time>
      </trkpt>
      <trkpt lat="45.01181" lon="5.46993">
        <ele>1279.6520996</ele>
        <time>2011-08-27T16:49:52Z</time>
      </trkpt>
      <trkpt lat="45.01181" lon="5.46992">
        <ele>1279.6520996</ele>
        <time>2011-08-27T16:50:41Z</time>
      </trkpt>
      <trkpt lat="45.01182" lon="5.46991">
        <ele>1279.6520996</ele>
        <time>2011-08-27T16:51:24Z</time>
      </trkpt>
      <trkpt lat="45.01192" lon="5.46993">
        <ele>1279.6520996</ele>
        <time>2011-08-27T16:51:31Z</time>
      </trkpt>
      <trkpt lat="45.01202" lon="5.46997">
        <ele>1280.1328125</ele>
        <time>2011-08-27T16:51:37Z</time>
      </trkpt>
      <trkpt lat="45.01232" lon="5.47001">
        <ele>1283.4973145</ele>
        <time>2011-08-27T16:51:56Z</time>
      </trkpt>
      <trkpt lat="45.01263" lon="5.47">
        <ele>1289.2651367</ele>
        <time>2011-08-27T16:52:11Z</time>
      </trkpt>
      <trkpt lat="45.01295" lon="5.47013">
        <ele>1290.7070313</ele>
        <time>2011-08-27T16:52:27Z</time>
      </trkpt>
      <trkpt lat="45.01327" lon="5.47041">
        <ele>1291.1877441</ele>
        <time>2011-08-27T16:52:49Z</time>
      </trkpt>
      <trkpt lat="45.01341" lon="5.47084">
        <ele>1289.2651367</ele>
        <time>2011-08-27T16:53:06Z</time>
      </trkpt>
      <trkpt lat="45.01343" lon="5.47134">
        <ele>1287.8232422</ele>
        <time>2011-08-27T16:53:26Z</time>
      </trkpt>
      <trkpt lat="45.01335" lon="5.47142">
        <ele>1288.784668</ele>
        <time>2011-08-27T16:53:31Z</time>
      </trkpt>
      <trkpt lat="45.01309" lon="5.47144">
        <ele>1289.7458496</ele>
        <time>2011-08-27T16:53:45Z</time>
      </trkpt>
      <trkpt lat="45.01306" lon="5.4715">
        <ele>1289.2651367</ele>
        <time>2011-08-27T16:53:48Z</time>
      </trkpt>
      <trkpt lat="45.01302" lon="5.47194">
        <ele>1289.2651367</ele>
        <time>2011-08-27T16:54:07Z</time>
      </trkpt>
      <trkpt lat="45.01289" lon="5.47239">
        <ele>1290.7070313</ele>
        <time>2011-08-27T16:54:26Z</time>
      </trkpt>
      <trkpt lat="45.01262" lon="5.4726">
        <ele>1293.1105957</ele>
        <time>2011-08-27T16:54:43Z</time>
      </trkpt>
      <trkpt lat="45.01245" lon="5.47291">
        <ele>1295.513916</ele>
        <time>2011-08-27T16:54:59Z</time>
      </trkpt>
      <trkpt lat="45.01243" lon="5.47296">
        <ele>1295.513916</ele>
        <time>2011-08-27T16:55:01Z</time>
      </trkpt>
      <trkpt lat="45.0122" lon="5.47317">
        <ele>1298.3977051</ele>
        <time>2011-08-27T16:55:17Z</time>
      </trkpt>
      <trkpt lat="45.01196" lon="5.47324">
        <ele>1297.4365234</ele>
        <time>2011-08-27T16:55:32Z</time>
      </trkpt>
      <trkpt lat="45.0118" lon="5.47357">
        <ele>1299.8398438</ele>
        <time>2011-08-27T16:55:48Z</time>
      </trkpt>
      <trkpt lat="45.01151" lon="5.47398">
        <ele>1303.2043457</ele>
        <time>2011-08-27T16:56:11Z</time>
      </trkpt>
      <trkpt lat="45.01129" lon="5.4744">
        <ele>1306.5688477</ele>
        <time>2011-08-27T16:56:32Z</time>
      </trkpt>
      <trkpt lat="45.01104" lon="5.47447">
        <ele>1306.5688477</ele>
        <time>2011-08-27T16:56:48Z</time>
      </trkpt>
      <trkpt lat="45.01097" lon="5.47448">
        <ele>1306.0881348</ele>
        <time>2011-08-27T16:56:52Z</time>
      </trkpt>
      <trkpt lat="45.01085" lon="5.47459">
        <ele>1307.0495605</ele>
        <time>2011-08-27T16:57:07Z</time>
      </trkpt>
      <trkpt lat="45.01084" lon="5.47459">
        <ele>1307.5302734</ele>
        <time>2011-08-27T16:58:01Z</time>
      </trkpt>
      <trkpt lat="45.01067" lon="5.47488">
        <ele>1309.453125</ele>
        <time>2011-08-27T16:58:15Z</time>
      </trkpt>
      <trkpt lat="45.01054" lon="5.47562">
        <ele>1310.8950195</ele>
        <time>2011-08-27T16:58:38Z</time>
      </trkpt>
      <trkpt lat="45.01054" lon="5.47568">
        <ele>1311.3757324</ele>
        <time>2011-08-27T16:58:40Z</time>
      </trkpt>
      <trkpt lat="45.01054" lon="5.47576">
        <ele>1311.3757324</ele>
        <time>2011-08-27T16:58:43Z</time>
      </trkpt>
      <trkpt lat="45.01055" lon="5.47579">
        <ele>1310.4143066</ele>
        <time>2011-08-27T16:59:04Z</time>
      </trkpt>
      <trkpt lat="45.01055" lon="5.47576">
        <ele>1309.453125</ele>
        <time>2011-08-27T16:59:27Z</time>
      </trkpt>
      <trkpt lat="45.01056" lon="5.4757">
        <ele>1308.4916992</ele>
        <time>2011-08-27T16:59:30Z</time>
      </trkpt>
      <trkpt lat="45.01055" lon="5.47558">
        <ele>1308.4916992</ele>
        <time>2011-08-27T16:59:34Z</time>
      </trkpt>
      <trkpt lat="45.01068" lon="5.4755">
        <ele>1307.5302734</ele>
        <time>2011-08-27T16:59:43Z</time>
      </trkpt>
      <trkpt lat="45.01081" lon="5.4757">
        <ele>1307.0495605</ele>
        <time>2011-08-27T16:59:50Z</time>
      </trkpt>
      <trkpt lat="45.01076" lon="5.47579">
        <ele>1307.0495605</ele>
        <time>2011-08-27T17:00:00Z</time>
      </trkpt>
      <trkpt lat="45.01076" lon="5.47578">
        <ele>1307.0495605</ele>
        <time>2011-08-27T17:00:11Z</time>
      </trkpt>
      <trkpt lat="45.01062" lon="5.47566">
        <ele>1313.7788086</ele>
        <time>2011-08-28T07:46:35Z</time>
      </trkpt>
      <trkpt lat="45.01061" lon="5.4757">
        <ele>1315.7016602</ele>
        <time>2011-08-28T07:47:06Z</time>
      </trkpt>
      <trkpt lat="45.01058" lon="5.47573">
        <ele>1315.2209473</ele>
        <time>2011-08-28T07:47:46Z</time>
      </trkpt>
      <trkpt lat="45.01059" lon="5.47567">
        <ele>1314.7402344</ele>
        <time>2011-08-28T07:48:02Z</time>
      </trkpt>
      <trkpt lat="45.01058" lon="5.47568">
        <ele>1314.7402344</ele>
        <time>2011-08-28T07:48:20Z</time>
      </trkpt>
      <trkpt lat="45.01049" lon="5.47582">
        <ele>1314.2595215</ele>
        <time>2011-08-28T07:48:30Z</time>
      </trkpt>
      <trkpt lat="45.01047" lon="5.47586">
        <ele>1314.7402344</ele>
        <time>2011-08-28T07:48:33Z</time>
      </trkpt>
      <trkpt lat="45.01021" lon="5.47601">
        <ele>1313.2983398</ele>
        <time>2011-08-28T07:48:48Z</time>
      </trkpt>
      <trkpt lat="45.0099" lon="5.4764">
        <ele>1311.8564453</ele>
        <time>2011-08-28T07:49:04Z</time>
      </trkpt>
      <trkpt lat="45.00973" lon="5.47668">
        <ele>1313.2983398</ele>
        <time>2011-08-28T07:49:14Z</time>
      </trkpt>
      <trkpt lat="45.00943" lon="5.47698">
        <ele>1316.6628418</ele>
        <time>2011-08-28T07:49:27Z</time>
      </trkpt>
      <trkpt lat="45.00913" lon="5.4772">
        <ele>1318.5854492</ele>
        <time>2011-08-28T07:49:40Z</time>
      </trkpt>
      <trkpt lat="45.00876" lon="5.47739">
        <ele>1319.546875</ele>
        <time>2011-08-28T07:49:54Z</time>
      </trkpt>
      <trkpt lat="45.00859" lon="5.47749">
        <ele>1319.546875</ele>
        <time>2011-08-28T07:50:01Z</time>
      </trkpt>
      <trkpt lat="45.00839" lon="5.47774">
        <ele>1319.0661621</ele>
        <time>2011-08-28T07:50:11Z</time>
      </trkpt>
      <trkpt lat="45.00802" lon="5.47807">
        <ele>1319.0661621</ele>
        <time>2011-08-28T07:50:26Z</time>
      </trkpt>
      <trkpt lat="45.0077" lon="5.47836">
        <ele>1321.4692383</ele>
        <time>2011-08-28T07:50:40Z</time>
      </trkpt>
      <trkpt lat="45.00768" lon="5.47837">
        <ele>1321.9499512</ele>
        <time>2011-08-28T07:50:41Z</time>
      </trkpt>
      <trkpt lat="45.00739" lon="5.47854">
        <ele>1322.911377</ele>
        <time>2011-08-28T07:50:54Z</time>
      </trkpt>
      <trkpt lat="45.00724" lon="5.47867">
        <ele>1322.4306641</ele>
        <time>2011-08-28T07:51:00Z</time>
      </trkpt>
      <trkpt lat="45.00689" lon="5.47878">
        <ele>1328.1987305</ele>
        <time>2011-08-28T07:51:14Z</time>
      </trkpt>
      <trkpt lat="45.00647" lon="5.47863">
        <ele>1330.1213379</ele>
        <time>2011-08-28T07:51:29Z</time>
      </trkpt>
      <trkpt lat="45.00618" lon="5.47863">
        <ele>1328.1987305</ele>
        <time>2011-08-28T07:51:38Z</time>
      </trkpt>
      <trkpt lat="45.00581" lon="5.47899">
        <ele>1326.7568359</ele>
        <time>2011-08-28T07:51:52Z</time>
      </trkpt>
      <trkpt lat="45.00579" lon="5.47902">
        <ele>1328.6794434</ele>
        <time>2011-08-28T07:52:09Z</time>
      </trkpt>
      <trkpt lat="45.00579" lon="5.47902">
        <ele>1328.6794434</ele>
        <time>2011-08-28T07:52:13Z</time>
      </trkpt>
      <trkpt lat="45.00576" lon="5.479">
        <ele>1329.640625</ele>
        <time>2011-08-28T07:52:24Z</time>
      </trkpt>
      <trkpt lat="45.00575" lon="5.47899">
        <ele>1330.1213379</ele>
        <time>2011-08-28T07:52:34Z</time>
      </trkpt>
      <trkpt lat="45.0057" lon="5.47901">
        <ele>1330.6020508</ele>
        <time>2011-08-28T07:52:38Z</time>
      </trkpt>
      <trkpt lat="45.00535" lon="5.47917">
        <ele>1331.5632324</ele>
        <time>2011-08-28T07:52:50Z</time>
      </trkpt>
      <trkpt lat="45.00521" lon="5.47927">
        <ele>1331.0827637</ele>
        <time>2011-08-28T07:52:54Z</time>
      </trkpt>
      <trkpt lat="45.00515" lon="5.47938">
        <ele>1329.640625</ele>
        <time>2011-08-28T07:52:57Z</time>
      </trkpt>
      <trkpt lat="45.00494" lon="5.47942">
        <ele>1329.1599121</ele>
        <time>2011-08-28T07:53:02Z</time>
      </trkpt>
      <trkpt lat="45.00484" lon="5.4794">
        <ele>1328.6794434</ele>
        <time>2011-08-28T07:53:05Z</time>
      </trkpt>
      <trkpt lat="45.00467" lon="5.47931">
        <ele>1327.2375488</ele>
        <time>2011-08-28T07:53:09Z</time>
      </trkpt>
      <trkpt lat="45.00443" lon="5.47903">
        <ele>1327.7180176</ele>
        <time>2011-08-28T07:53:15Z</time>
      </trkpt>
      <trkpt lat="45.00415" lon="5.47895">
        <ele>1327.7180176</ele>
        <time>2011-08-28T07:53:22Z</time>
      </trkpt>
      <trkpt lat="45.00406" lon="5.479">
        <ele>1328.1987305</ele>
        <time>2011-08-28T07:53:24Z</time>
      </trkpt>
      <trkpt lat="45.00386" lon="5.47913">
        <ele>1328.1987305</ele>
        <time>2011-08-28T07:53:28Z</time>
      </trkpt>
      <trkpt lat="45.0033" lon="5.47966">
        <ele>1320.9887695</ele>
        <time>2011-08-28T07:53:43Z</time>
      </trkpt>
      <trkpt lat="45.00307" lon="5.47973">
        <ele>1320.0273438</ele>
        <time>2011-08-28T07:53:49Z</time>
      </trkpt>
      <trkpt lat="45.0028" lon="5.4798">
        <ele>1320.9887695</ele>
        <time>2011-08-28T07:53:56Z</time>
      </trkpt>
      <trkpt lat="45.00266" lon="5.47994">
        <ele>1320.5080566</ele>
        <time>2011-08-28T07:54:00Z</time>
      </trkpt>
      <trkpt lat="45.00237" lon="5.48038">
        <ele>1319.0661621</ele>
        <time>2011-08-28T07:54:09Z</time>
      </trkpt>
      <trkpt lat="45.00219" lon="5.48047">
        <ele>1319.0661621</ele>
        <time>2011-08-28T07:54:13Z</time>
      </trkpt>
      <trkpt lat="45.00203" lon="5.48049">
        <ele>1320.0273438</ele>
        <time>2011-08-28T07:54:17Z</time>
      </trkpt>
      <trkpt lat="45.00167" lon="5.48046">
        <ele>1320.5080566</ele>
        <time>2011-08-28T07:54:24Z</time>
      </trkpt>
      <trkpt lat="45.00148" lon="5.48041">
        <ele>1321.4692383</ele>
        <time>2011-08-28T07:54:28Z</time>
      </trkpt>
      <trkpt lat="45.00114" lon="5.48029">
        <ele>1320.0273438</ele>
        <time>2011-08-28T07:54:33Z</time>
      </trkpt>
      <trkpt lat="45.00087" lon="5.48019">
        <ele>1316.6628418</ele>
        <time>2011-08-28T07:54:38Z</time>
      </trkpt>
      <trkpt lat="45.0006" lon="5.48005">
        <ele>1316.6628418</ele>
        <time>2011-08-28T07:54:44Z</time>
      </trkpt>
      <trkpt lat="45.00005" lon="5.47949">
        <ele>1313.2983398</ele>
        <time>2011-08-28T07:54:58Z</time>
      </trkpt>
      <trkpt lat="44.99988" lon="5.4791">
        <ele>1313.7788086</ele>
        <time>2011-08-28T07:55:05Z</time>
      </trkpt>
      <trkpt lat="44.99984" lon="5.47899">
        <ele>1314.7402344</ele>
        <time>2011-08-28T07:55:07Z</time>
      </trkpt>
      <trkpt lat="44.99938" lon="5.47868">
        <ele>1317.1435547</ele>
        <time>2011-08-28T07:55:18Z</time>
      </trkpt>
      <trkpt lat="44.99924" lon="5.47852">
        <ele>1318.1047363</ele>
        <time>2011-08-28T07:55:22Z</time>
      </trkpt>
      <trkpt lat="44.99919" lon="5.47844">
        <ele>1317.6240234</ele>
        <time>2011-08-28T07:55:24Z</time>
      </trkpt>
      <trkpt lat="44.99889" lon="5.47837">
        <ele>1316.1821289</ele>
        <time>2011-08-28T07:55:33Z</time>
      </trkpt>
      <trkpt lat="44.99871" lon="5.47805">
        <ele>1316.6628418</ele>
        <time>2011-08-28T07:55:42Z</time>
      </trkpt>
      <trkpt lat="44.99845" lon="5.47774">
        <ele>1316.6628418</ele>
        <time>2011-08-28T07:55:54Z</time>
      </trkpt>
      <trkpt lat="44.99809" lon="5.47765">
        <ele>1320.0273438</ele>
        <time>2011-08-28T07:56:10Z</time>
      </trkpt>
      <trkpt lat="44.99776" lon="5.47768">
        <ele>1322.4306641</ele>
        <time>2011-08-28T07:56:26Z</time>
      </trkpt>
      <trkpt lat="44.99771" lon="5.47769">
        <ele>1323.3920898</ele>
        <time>2011-08-28T07:56:29Z</time>
      </trkpt>
      <trkpt lat="44.99752" lon="5.47747">
        <ele>1325.3146973</ele>
        <time>2011-08-28T07:56:41Z</time>
      </trkpt>
      <trkpt lat="44.99737" lon="5.47716">
        <ele>1326.276123</ele>
        <time>2011-08-28T07:56:58Z</time>
      </trkpt>
      <trkpt lat="44.99733" lon="5.47717">
        <ele>1326.276123</ele>
        <time>2011-08-28T07:57:20Z</time>
      </trkpt>
      <trkpt lat="44.99725" lon="5.4772">
        <ele>1326.7568359</ele>
        <time>2011-08-28T07:59:16Z</time>
      </trkpt>
      <trkpt lat="44.99691" lon="5.4773">
        <ele>1327.2375488</ele>
        <time>2011-08-28T07:59:33Z</time>
      </trkpt>
      <trkpt lat="44.9968" lon="5.47735">
        <ele>1327.2375488</ele>
        <time>2011-08-28T07:59:39Z</time>
      </trkpt>
      <trkpt lat="44.99673" lon="5.47738">
        <ele>1327.7180176</ele>
        <time>2011-08-28T07:59:43Z</time>
      </trkpt>
      <trkpt lat="44.99644" lon="5.47735">
        <ele>1330.1213379</ele>
        <time>2011-08-28T07:59:57Z</time>
      </trkpt>
      <trkpt lat="44.99619" lon="5.47708">
        <ele>1329.1599121</ele>
        <time>2011-08-28T08:00:11Z</time>
      </trkpt>
      <trkpt lat="44.99612" lon="5.4768">
        <ele>1330.1213379</ele>
        <time>2011-08-28T08:00:21Z</time>
      </trkpt>
      <trkpt lat="44.99576" lon="5.47665">
        <ele>1329.640625</ele>
        <time>2011-08-28T08:00:37Z</time>
      </trkpt>
      <trkpt lat="44.99533" lon="5.4771">
        <ele>1328.6794434</ele>
        <time>2011-08-28T08:00:57Z</time>
      </trkpt>
      <trkpt lat="44.99487" lon="5.47733">
        <ele>1328.6794434</ele>
        <time>2011-08-28T08:01:17Z</time>
      </trkpt>
      <trkpt lat="44.99457" lon="5.47761">
        <ele>1329.640625</ele>
        <time>2011-08-28T08:01:32Z</time>
      </trkpt>
      <trkpt lat="44.99417" lon="5.47804">
        <ele>1330.1213379</ele>
        <time>2011-08-28T08:01:52Z</time>
      </trkpt>
      <trkpt lat="44.9937" lon="5.47841">
        <ele>1332.0439453</ele>
        <time>2011-08-28T08:02:13Z</time>
      </trkpt>
      <trkpt lat="44.99321" lon="5.47867">
        <ele>1333.9665527</ele>
        <time>2011-08-28T08:02:33Z</time>
      </trkpt>
      <trkpt lat="44.99273" lon="5.47889">
        <ele>1338.7731934</ele>
        <time>2011-08-28T08:02:54Z</time>
      </trkpt>
      <trkpt lat="44.99265" lon="5.47864">
        <ele>1340.215332</ele>
        <time>2011-08-28T08:03:04Z</time>
      </trkpt>
      <trkpt lat="44.99288" lon="5.4783">
        <ele>1342.6186523</ele>
        <time>2011-08-28T08:03:21Z</time>
      </trkpt>
      <trkpt lat="44.99313" lon="5.47808">
        <ele>1343.0991211</ele>
        <time>2011-08-28T08:03:37Z</time>
      </trkpt>
      <trkpt lat="44.99311" lon="5.47774">
        <ele>1345.9831543</ele>
        <time>2011-08-28T08:03:52Z</time>
      </trkpt>
      <trkpt lat="44.9928" lon="5.4774">
        <ele>1345.5024414</ele>
        <time>2011-08-28T08:04:11Z</time>
      </trkpt>
      <trkpt lat="44.99278" lon="5.47735">
        <ele>1345.5024414</ele>
        <time>2011-08-28T08:04:13Z</time>
      </trkpt>
      <trkpt lat="44.99277" lon="5.47713">
        <ele>1347.4250488</ele>
        <time>2011-08-28T08:04:21Z</time>
      </trkpt>
      <trkpt lat="44.99278" lon="5.47705">
        <ele>1348.8669434</ele>
        <time>2011-08-28T08:04:24Z</time>
      </trkpt>
      <trkpt lat="44.99278" lon="5.47693">
        <ele>1349.8283691</ele>
        <time>2011-08-28T08:04:29Z</time>
      </trkpt>
      <trkpt lat="44.99277" lon="5.47687">
        <ele>1349.3476563</ele>
        <time>2011-08-28T08:04:31Z</time>
      </trkpt>
      <trkpt lat="44.99269" lon="5.47677">
        <ele>1350.7895508</ele>
        <time>2011-08-28T08:04:36Z</time>
      </trkpt>
      <trkpt lat="44.99243" lon="5.47673">
        <ele>1352.2314453</ele>
        <time>2011-08-28T08:04:49Z</time>
      </trkpt>
      <trkpt lat="44.99242" lon="5.47673">
        <ele>1352.2314453</ele>
        <time>2011-08-28T08:05:08Z</time>
      </trkpt>
      <trkpt lat="44.99238" lon="5.47671">
        <ele>1352.2314453</ele>
        <time>2011-08-28T08:05:20Z</time>
      </trkpt>
      <trkpt lat="44.99211" lon="5.47652">
        <ele>1352.7121582</ele>
        <time>2011-08-28T08:05:36Z</time>
      </trkpt>
      <trkpt lat="44.9918" lon="5.47645">
        <ele>1354.6347656</ele>
        <time>2011-08-28T08:05:51Z</time>
      </trkpt>
      <trkpt lat="44.99151" lon="5.47648">
        <ele>1355.5961914</ele>
        <time>2011-08-28T08:06:04Z</time>
      </trkpt>
      <trkpt lat="44.99112" lon="5.47658">
        <ele>1354.1542969</ele>
        <time>2011-08-28T08:06:20Z</time>
      </trkpt>
      <trkpt lat="44.99074" lon="5.47643">
        <ele>1356.0769043</ele>
        <time>2011-08-28T08:06:36Z</time>
      </trkpt>
      <trkpt lat="44.9904" lon="5.47634">
        <ele>1357.0383301</ele>
        <time>2011-08-28T08:06:53Z</time>
      </trkpt>
      <trkpt lat="44.99014" lon="5.47622">
        <ele>1360.402832</ele>
        <time>2011-08-28T08:07:07Z</time>
      </trkpt>
      <trkpt lat="44.98997" lon="5.476">
        <ele>1362.8061523</ele>
        <time>2011-08-28T08:07:26Z</time>
      </trkpt>
      <trkpt lat="44.99" lon="5.47595">
        <ele>1362.8061523</ele>
        <time>2011-08-28T08:07:54Z</time>
      </trkpt>
      <trkpt lat="44.99001" lon="5.47592">
        <ele>1361.8449707</ele>
        <time>2011-08-28T08:08:02Z</time>
      </trkpt>
      <trkpt lat="44.98994" lon="5.47549">
        <ele>1365.2094727</ele>
        <time>2011-08-28T08:08:21Z</time>
      </trkpt>
      <trkpt lat="44.98986" lon="5.47515">
        <ele>1366.6513672</ele>
        <time>2011-08-28T08:08:37Z</time>
      </trkpt>
      <trkpt lat="44.98977" lon="5.47474">
        <ele>1368.0932617</ele>
        <time>2011-08-28T08:08:58Z</time>
      </trkpt>
      <trkpt lat="44.98953" lon="5.47456">
        <ele>1369.0546875</ele>
        <time>2011-08-28T08:09:16Z</time>
      </trkpt>
      <trkpt lat="44.98929" lon="5.47445">
        <ele>1369.5354004</ele>
        <time>2011-08-28T08:09:32Z</time>
      </trkpt>
      <trkpt lat="44.98906" lon="5.47431">
        <ele>1368.0932617</ele>
        <time>2011-08-28T08:09:47Z</time>
      </trkpt>
      <trkpt lat="44.98881" lon="5.47417">
        <ele>1369.0546875</ele>
        <time>2011-08-28T08:10:03Z</time>
      </trkpt>
      <trkpt lat="44.98869" lon="5.4741">
        <ele>1369.5354004</ele>
        <time>2011-08-28T08:10:11Z</time>
      </trkpt>
      <trkpt lat="44.98841" lon="5.47398">
        <ele>1373.8613281</ele>
        <time>2011-08-28T08:10:31Z</time>
      </trkpt>
      <trkpt lat="44.98835" lon="5.47395">
        <ele>1374.342041</ele>
        <time>2011-08-28T08:10:49Z</time>
      </trkpt>
      <trkpt lat="44.98829" lon="5.47389">
        <ele>1374.342041</ele>
        <time>2011-08-28T08:11:03Z</time>
      </trkpt>
      <trkpt lat="44.98819" lon="5.47374">
        <ele>1374.8227539</ele>
        <time>2011-08-28T08:11:13Z</time>
      </trkpt>
      <trkpt lat="44.98814" lon="5.47375">
        <ele>1373.8613281</ele>
        <time>2011-08-28T08:11:18Z</time>
      </trkpt>
      <trkpt lat="44.98793" lon="5.47404">
        <ele>1369.5354004</ele>
        <time>2011-08-28T08:11:31Z</time>
      </trkpt>
      <trkpt lat="44.98794" lon="5.47411">
        <ele>1368.5739746</ele>
        <time>2011-08-28T08:11:34Z</time>
      </trkpt>
      <trkpt lat="44.98794" lon="5.47415">
        <ele>1368.0932617</ele>
        <time>2011-08-28T08:11:36Z</time>
      </trkpt>
      <trkpt lat="44.98787" lon="5.47421">
        <ele>1366.6513672</ele>
        <time>2011-08-28T08:11:48Z</time>
      </trkpt>
      <trkpt lat="44.98784" lon="5.47414">
        <ele>1366.1706543</ele>
        <time>2011-08-28T08:11:59Z</time>
      </trkpt>
      <trkpt lat="44.98768" lon="5.47362">
        <ele>1362.3254395</ele>
        <time>2011-08-28T08:12:11Z</time>
      </trkpt>
      <trkpt lat="44.9875" lon="5.47331">
        <ele>1361.3642578</ele>
        <time>2011-08-28T08:12:20Z</time>
      </trkpt>
      <trkpt lat="44.98737" lon="5.47291">
        <ele>1359.4416504</ele>
        <time>2011-08-28T08:12:29Z</time>
      </trkpt>
      <trkpt lat="44.98735" lon="5.47287">
        <ele>1359.4416504</ele>
        <time>2011-08-28T08:12:30Z</time>
      </trkpt>
      <trkpt lat="44.98704" lon="5.47255">
        <ele>1362.3254395</ele>
        <time>2011-08-28T08:12:40Z</time>
      </trkpt>
      <trkpt lat="44.98698" lon="5.47247">
        <ele>1362.3254395</ele>
        <time>2011-08-28T08:12:51Z</time>
      </trkpt>
      <trkpt lat="44.9869" lon="5.47236">
        <ele>1366.6513672</ele>
        <time>2011-08-28T08:13:12Z</time>
      </trkpt>
      <trkpt lat="44.98685" lon="5.47227">
        <ele>1368.0932617</ele>
        <time>2011-08-28T08:13:26Z</time>
      </trkpt>
      <trkpt lat="44.98681" lon="5.47206">
        <ele>1366.6513672</ele>
        <time>2011-08-28T08:13:49Z</time>
      </trkpt>
      <trkpt lat="44.98679" lon="5.4719">
        <ele>1370.496582</ele>
        <time>2011-08-28T08:14:11Z</time>
      </trkpt>
      <trkpt lat="44.98675" lon="5.47175">
        <ele>1376.2646484</ele>
        <time>2011-08-28T08:14:33Z</time>
      </trkpt>
      <trkpt lat="44.98676" lon="5.47173">
        <ele>1375.7839355</ele>
        <time>2011-08-28T08:15:10Z</time>
      </trkpt>
      <trkpt lat="44.98676" lon="5.47173">
        <ele>1375.7839355</ele>
        <time>2011-08-28T08:15:48Z</time>
      </trkpt>
      <trkpt lat="44.98675" lon="5.47168">
        <ele>1377.2260742</ele>
        <time>2011-08-28T08:17:01Z</time>
      </trkpt>
      <trkpt lat="44.98666" lon="5.47157">
        <ele>1379.1484375</ele>
        <time>2011-08-28T08:17:56Z</time>
      </trkpt>
      <trkpt lat="44.98662" lon="5.47155">
        <ele>1381.5517578</ele>
        <time>2011-08-28T08:18:00Z</time>
      </trkpt>
      <trkpt lat="44.98648" lon="5.47157">
        <ele>1384.9165039</ele>
        <time>2011-08-28T08:18:13Z</time>
      </trkpt>
      <trkpt lat="44.98632" lon="5.47155">
        <ele>1388.28125</ele>
        <time>2011-08-28T08:18:35Z</time>
      </trkpt>
      <trkpt lat="44.98621" lon="5.47138">
        <ele>1390.6843262</ele>
        <time>2011-08-28T08:18:56Z</time>
      </trkpt>
      <trkpt lat="44.98617" lon="5.47132">
        <ele>1391.645752</ele>
        <time>2011-08-28T08:19:11Z</time>
      </trkpt>
      <trkpt lat="44.98618" lon="5.47132">
        <ele>1392.6071777</ele>
        <time>2011-08-28T08:19:29Z</time>
      </trkpt>
      <trkpt lat="44.98616" lon="5.47131">
        <ele>1393.5683594</ele>
        <time>2011-08-28T08:19:54Z</time>
      </trkpt>
      <trkpt lat="44.98613" lon="5.47127">
        <ele>1393.5683594</ele>
        <time>2011-08-28T08:20:15Z</time>
      </trkpt>
      <trkpt lat="44.98599" lon="5.47103">
        <ele>1393.5683594</ele>
        <time>2011-08-28T08:20:28Z</time>
      </trkpt>
      <trkpt lat="44.98583" lon="5.47098">
        <ele>1396.4523926</ele>
        <time>2011-08-28T08:20:38Z</time>
      </trkpt>
      <trkpt lat="44.98569" lon="5.47094">
        <ele>1398.3747559</ele>
        <time>2011-08-28T08:20:46Z</time>
      </trkpt>
      <trkpt lat="44.98555" lon="5.4709">
        <ele>1404.6235352</ele>
        <time>2011-08-28T08:20:56Z</time>
      </trkpt>
      <trkpt lat="44.98543" lon="5.47078">
        <ele>1407.0268555</ele>
        <time>2011-08-28T08:21:07Z</time>
      </trkpt>
      <trkpt lat="44.98539" lon="5.47062">
        <ele>1408.46875</ele>
        <time>2011-08-28T08:21:14Z</time>
      </trkpt>
      <trkpt lat="44.98532" lon="5.47049">
        <ele>1409.9106445</ele>
        <time>2011-08-28T08:21:22Z</time>
      </trkpt>
      <trkpt lat="44.98517" lon="5.47045">
        <ele>1408.9494629</ele>
        <time>2011-08-28T08:21:28Z</time>
      </trkpt>
      <trkpt lat="44.98505" lon="5.47041">
        <ele>1410.3913574</ele>
        <time>2011-08-28T08:21:33Z</time>
      </trkpt>
      <trkpt lat="44.98498" lon="5.47035">
        <ele>1408.9494629</ele>
        <time>2011-08-28T08:21:36Z</time>
      </trkpt>
      <trkpt lat="44.98492" lon="5.47028">
        <ele>1408.46875</ele>
        <time>2011-08-28T08:21:38Z</time>
      </trkpt>
      <trkpt lat="44.98479" lon="5.47004">
        <ele>1409.4301758</ele>
        <time>2011-08-28T08:21:47Z</time>
      </trkpt>
      <trkpt lat="44.98472" lon="5.47">
        <ele>1410.8720703</ele>
        <time>2011-08-28T08:21:53Z</time>
      </trkpt>
      <trkpt lat="44.98466" lon="5.46968">
        <ele>1412.3139648</ele>
        <time>2011-08-28T08:22:06Z</time>
      </trkpt>
      <trkpt lat="44.98466" lon="5.46959">
        <ele>1411.3527832</ele>
        <time>2011-08-28T08:22:08Z</time>
      </trkpt>
      <trkpt lat="44.98456" lon="5.4693">
        <ele>1411.8334961</ele>
        <time>2011-08-28T08:22:19Z</time>
      </trkpt>
      <trkpt lat="44.98449" lon="5.46896">
        <ele>1411.8334961</ele>
        <time>2011-08-28T08:22:31Z</time>
      </trkpt>
      <trkpt lat="44.98443" lon="5.46861">
        <ele>1407.9882813</ele>
        <time>2011-08-28T08:22:44Z</time>
      </trkpt>
      <trkpt lat="44.98438" lon="5.4684">
        <ele>1407.0268555</ele>
        <time>2011-08-28T08:22:51Z</time>
      </trkpt>
      <trkpt lat="44.98434" lon="5.46817">
        <ele>1406.5461426</ele>
        <time>2011-08-28T08:22:55Z</time>
      </trkpt>
      <trkpt lat="44.98435" lon="5.46807">
        <ele>1409.4301758</ele>
        <time>2011-08-28T08:23:00Z</time>
      </trkpt>
      <trkpt lat="44.98424" lon="5.46775">
        <ele>1404.6235352</ele>
        <time>2011-08-28T08:23:19Z</time>
      </trkpt>
      <trkpt lat="44.98407" lon="5.46754">
        <ele>1410.3913574</ele>
        <time>2011-08-28T08:23:39Z</time>
      </trkpt>
      <trkpt lat="44.98392" lon="5.4673">
        <ele>1407.0268555</ele>
        <time>2011-08-28T08:23:53Z</time>
      </trkpt>
      <trkpt lat="44.9839" lon="5.46726">
        <ele>1407.0268555</ele>
        <time>2011-08-28T08:23:55Z</time>
      </trkpt>
      <trkpt lat="44.98384" lon="5.46706">
        <ele>1405.104248</ele>
        <time>2011-08-28T08:24:11Z</time>
      </trkpt>
      <trkpt lat="44.98385" lon="5.46704">
        <ele>1406.0654297</ele>
        <time>2011-08-28T08:25:22Z</time>
      </trkpt>
      <trkpt lat="44.98385" lon="5.46704">
        <ele>1406.0654297</ele>
        <time>2011-08-28T08:26:17Z</time>
      </trkpt>
      <trkpt lat="44.98385" lon="5.46709">
        <ele>1406.5461426</ele>
        <time>2011-08-28T08:29:31Z</time>
      </trkpt>
      <trkpt lat="44.98385" lon="5.46718">
        <ele>1405.5849609</ele>
        <time>2011-08-28T08:29:41Z</time>
      </trkpt>
      <trkpt lat="44.98384" lon="5.46707">
        <ele>1405.104248</ele>
        <time>2011-08-28T08:29:54Z</time>
      </trkpt>
      <trkpt lat="44.98385" lon="5.46704">
        <ele>1405.104248</ele>
        <time>2011-08-28T08:30:39Z</time>
      </trkpt>
      <trkpt lat="44.98379" lon="5.46668">
        <ele>1401.2587891</ele>
        <time>2011-08-28T08:30:54Z</time>
      </trkpt>
      <trkpt lat="44.9836" lon="5.46623">
        <ele>1395.4909668</ele>
        <time>2011-08-28T08:31:07Z</time>
      </trkpt>
      <trkpt lat="44.98338" lon="5.46593">
        <ele>1391.1650391</ele>
        <time>2011-08-28T08:31:20Z</time>
      </trkpt>
      <trkpt lat="44.98318" lon="5.4656">
        <ele>1386.3583984</ele>
        <time>2011-08-28T08:31:33Z</time>
      </trkpt>
      <trkpt lat="44.98292" lon="5.46528">
        <ele>1382.0324707</ele>
        <time>2011-08-28T08:31:47Z</time>
      </trkpt>
      <trkpt lat="44.98268" lon="5.46496">
        <ele>1376.7453613</ele>
        <time>2011-08-28T08:31:59Z</time>
      </trkpt>
      <trkpt lat="44.98244" lon="5.46453">
        <ele>1374.8227539</ele>
        <time>2011-08-28T08:32:12Z</time>
      </trkpt>
      <trkpt lat="44.98221" lon="5.46424">
        <ele>1364.7287598</ele>
        <time>2011-08-28T08:32:23Z</time>
      </trkpt>
      <trkpt lat="44.98191" lon="5.46374">
        <ele>1360.8835449</ele>
        <time>2011-08-28T08:32:35Z</time>
      </trkpt>
      <trkpt lat="44.98188" lon="5.46369">
        <ele>1360.402832</ele>
        <time>2011-08-28T08:32:36Z</time>
      </trkpt>
      <trkpt lat="44.98145" lon="5.46299">
        <ele>1354.1542969</ele>
        <time>2011-08-28T08:32:52Z</time>
      </trkpt>
      <trkpt lat="44.98125" lon="5.46254">
        <ele>1349.8283691</ele>
        <time>2011-08-28T08:33:04Z</time>
      </trkpt>
      <trkpt lat="44.98102" lon="5.46236">
        <ele>1345.5024414</ele>
        <time>2011-08-28T08:33:16Z</time>
      </trkpt>
      <trkpt lat="44.9807" lon="5.46244">
        <ele>1345.0217285</ele>
        <time>2011-08-28T08:33:26Z</time>
      </trkpt>
      <trkpt lat="44.98051" lon="5.46212">
        <ele>1343.0991211</ele>
        <time>2011-08-28T08:33:35Z</time>
      </trkpt>
      <trkpt lat="44.98052" lon="5.46178">
        <ele>1340.6958008</ele>
        <time>2011-08-28T08:33:44Z</time>
      </trkpt>
      <trkpt lat="44.98053" lon="5.46173">
        <ele>1339.2536621</ele>
        <time>2011-08-28T08:34:03Z</time>
      </trkpt>
      <trkpt lat="44.98054" lon="5.46171">
        <ele>1340.215332</ele>
        <time>2011-08-28T08:34:30Z</time>
      </trkpt>
      <trkpt lat="44.98051" lon="5.4614">
        <ele>1336.369873</ele>
        <time>2011-08-28T08:34:41Z</time>
      </trkpt>
      <trkpt lat="44.98048" lon="5.4611">
        <ele>1334.9279785</ele>
        <time>2011-08-28T08:34:49Z</time>
      </trkpt>
      <trkpt lat="44.98042" lon="5.46071">
        <ele>1334.4472656</ele>
        <time>2011-08-28T08:34:59Z</time>
      </trkpt>
      <trkpt lat="44.98036" lon="5.46031">
        <ele>1329.640625</ele>
        <time>2011-08-28T08:35:08Z</time>
      </trkpt>
      <trkpt lat="44.98028" lon="5.45984">
        <ele>1329.640625</ele>
        <time>2011-08-28T08:35:17Z</time>
      </trkpt>
      <trkpt lat="44.98021" lon="5.45937">
        <ele>1315.2209473</ele>
        <time>2011-08-28T08:35:29Z</time>
      </trkpt>
      <trkpt lat="44.98015" lon="5.45895">
        <ele>1303.6850586</ele>
        <time>2011-08-28T08:35:42Z</time>
      </trkpt>
      <trkpt lat="44.98014" lon="5.45896">
        <ele>1302.7236328</ele>
        <time>2011-08-28T08:36:19Z</time>
      </trkpt>
      <trkpt lat="44.98013" lon="5.45897">
        <ele>1302.7236328</ele>
        <time>2011-08-28T08:37:04Z</time>
      </trkpt>
      <trkpt lat="44.98012" lon="5.45897">
        <ele>1302.7236328</ele>
        <time>2011-08-28T08:37:06Z</time>
      </trkpt>
      <trkpt lat="44.97977" lon="5.45897">
        <ele>1300.3205566</ele>
        <time>2011-08-28T08:37:22Z</time>
      </trkpt>
      <trkpt lat="44.97966" lon="5.45897">
        <ele>1300.8010254</ele>
        <time>2011-08-28T08:37:27Z</time>
      </trkpt>
      <trkpt lat="44.97928" lon="5.45898">
        <ele>1299.3591309</ele>
        <time>2011-08-28T08:37:44Z</time>
      </trkpt>
      <trkpt lat="44.97887" lon="5.45899">
        <ele>1297.9172363</ele>
        <time>2011-08-28T08:38:02Z</time>
      </trkpt>
      <trkpt lat="44.97853" lon="5.45905">
        <ele>1305.607666</ele>
        <time>2011-08-28T08:38:20Z</time>
      </trkpt>
      <trkpt lat="44.9783" lon="5.45904">
        <ele>1306.5688477</ele>
        <time>2011-08-28T08:38:32Z</time>
      </trkpt>
      <trkpt lat="44.9779" lon="5.4592">
        <ele>1309.9335938</ele>
        <time>2011-08-28T08:38:56Z</time>
      </trkpt>
      <trkpt lat="44.97782" lon="5.45929">
        <ele>1309.453125</ele>
        <time>2011-08-28T08:39:02Z</time>
      </trkpt>
      <trkpt lat="44.97767" lon="5.45971">
        <ele>1303.2043457</ele>
        <time>2011-08-28T08:39:19Z</time>
      </trkpt>
      <trkpt lat="44.97755" lon="5.46012">
        <ele>1304.6462402</ele>
        <time>2011-08-28T08:39:33Z</time>
      </trkpt>
      <trkpt lat="44.97752" lon="5.46023">
        <ele>1304.1657715</ele>
        <time>2011-08-28T08:39:37Z</time>
      </trkpt>
      <trkpt lat="44.97738" lon="5.4606">
        <ele>1305.607666</ele>
        <time>2011-08-28T08:39:50Z</time>
      </trkpt>
      <trkpt lat="44.97735" lon="5.46068">
        <ele>1307.0495605</ele>
        <time>2011-08-28T08:39:53Z</time>
      </trkpt>
      <trkpt lat="44.97717" lon="5.46094">
        <ele>1308.4916992</ele>
        <time>2011-08-28T08:40:04Z</time>
      </trkpt>
      <trkpt lat="44.97695" lon="5.46122">
        <ele>1307.0495605</ele>
        <time>2011-08-28T08:40:15Z</time>
      </trkpt>
      <trkpt lat="44.97659" lon="5.46164">
        <ele>1312.3369141</ele>
        <time>2011-08-28T08:40:31Z</time>
      </trkpt>
      <trkpt lat="44.97625" lon="5.46191">
        <ele>1313.7788086</ele>
        <time>2011-08-28T08:40:45Z</time>
      </trkpt>
      <trkpt lat="44.97576" lon="5.46206">
        <ele>1320.9887695</ele>
        <time>2011-08-28T08:41:05Z</time>
      </trkpt>
      <trkpt lat="44.97545" lon="5.4621">
        <ele>1326.7568359</ele>
        <time>2011-08-28T08:41:21Z</time>
      </trkpt>
      <trkpt lat="44.97504" lon="5.46221">
        <ele>1329.1599121</ele>
        <time>2011-08-28T08:41:41Z</time>
      </trkpt>
      <trkpt lat="44.97493" lon="5.46226">
        <ele>1330.1213379</ele>
        <time>2011-08-28T08:41:47Z</time>
      </trkpt>
      <trkpt lat="44.97487" lon="5.46228">
        <ele>1330.1213379</ele>
        <time>2011-08-28T08:41:50Z</time>
      </trkpt>
      <trkpt lat="44.97449" lon="5.46235">
        <ele>1333.9665527</ele>
        <time>2011-08-28T08:42:09Z</time>
      </trkpt>
      <trkpt lat="44.97404" lon="5.46245">
        <ele>1336.8503418</ele>
        <time>2011-08-28T08:42:31Z</time>
      </trkpt>
      <trkpt lat="44.9737" lon="5.46259">
        <ele>1337.3310547</ele>
        <time>2011-08-28T08:42:49Z</time>
      </trkpt>
      <trkpt lat="44.97349" lon="5.46255">
        <ele>1339.2536621</ele>
        <time>2011-08-28T08:43:00Z</time>
      </trkpt>
      <trkpt lat="44.97342" lon="5.46257">
        <ele>1338.7731934</ele>
        <time>2011-08-28T08:43:03Z</time>
      </trkpt>
      <trkpt lat="44.97307" lon="5.46255">
        <ele>1338.7731934</ele>
        <time>2011-08-28T08:43:20Z</time>
      </trkpt>
      <trkpt lat="44.97276" lon="5.46248">
        <ele>1337.3310547</ele>
        <time>2011-08-28T08:43:36Z</time>
      </trkpt>
      <trkpt lat="44.97257" lon="5.46243">
        <ele>1335.4084473</ele>
        <time>2011-08-28T08:43:46Z</time>
      </trkpt>
      <trkpt lat="44.97235" lon="5.46244">
        <ele>1337.3310547</ele>
        <time>2011-08-28T08:44:03Z</time>
      </trkpt>
      <trkpt lat="44.97235" lon="5.46244">
        <ele>1337.8117676</ele>
        <time>2011-08-28T08:44:30Z</time>
      </trkpt>
      <trkpt lat="44.97234" lon="5.46246">
        <ele>1338.2924805</ele>
        <time>2011-08-28T08:46:00Z</time>
      </trkpt>
      <trkpt lat="44.97228" lon="5.46246">
        <ele>1337.3310547</ele>
        <time>2011-08-28T08:46:04Z</time>
      </trkpt>
      <trkpt lat="44.97178" lon="5.4624">
        <ele>1331.5632324</ele>
        <time>2011-08-28T08:46:21Z</time>
      </trkpt>
      <trkpt lat="44.97133" lon="5.46196">
        <ele>1331.5632324</ele>
        <time>2011-08-28T08:46:35Z</time>
      </trkpt>
      <trkpt lat="44.97117" lon="5.4617">
        <ele>1333.4858398</ele>
        <time>2011-08-28T08:46:41Z</time>
      </trkpt>
      <trkpt lat="44.9709" lon="5.46141">
        <ele>1335.8891602</ele>
        <time>2011-08-28T08:46:49Z</time>
      </trkpt>
      <trkpt lat="44.97071" lon="5.4611">
        <ele>1335.8891602</ele>
        <time>2011-08-28T08:46:56Z</time>
      </trkpt>
      <trkpt lat="44.9707" lon="5.46065">
        <ele>1337.8117676</ele>
        <time>2011-08-28T08:47:03Z</time>
      </trkpt>
      <trkpt lat="44.9706" lon="5.4602">
        <ele>1340.215332</ele>
        <time>2011-08-28T08:47:10Z</time>
      </trkpt>
      <trkpt lat="44.9705" lon="5.46009">
        <ele>1341.1765137</ele>
        <time>2011-08-28T08:47:13Z</time>
      </trkpt>
      <trkpt lat="44.9703" lon="5.45986">
        <ele>1344.5410156</ele>
        <time>2011-08-28T08:47:19Z</time>
      </trkpt>
      <trkpt lat="44.97017" lon="5.45975">
        <ele>1345.0217285</ele>
        <time>2011-08-28T08:47:23Z</time>
      </trkpt>
      <trkpt lat="44.97004" lon="5.45958">
        <ele>1345.9831543</ele>
        <time>2011-08-28T08:47:27Z</time>
      </trkpt>
      <trkpt lat="44.96972" lon="5.45938">
        <ele>1344.0605469</ele>
        <time>2011-08-28T08:47:36Z</time>
      </trkpt>
      <trkpt lat="44.96946" lon="5.45941">
        <ele>1344.0605469</ele>
        <time>2011-08-28T08:47:43Z</time>
      </trkpt>
      <trkpt lat="44.96933" lon="5.45937">
        <ele>1345.5024414</ele>
        <time>2011-08-28T08:47:46Z</time>
      </trkpt>
      <trkpt lat="44.96895" lon="5.45896">
        <ele>1347.4250488</ele>
        <time>2011-08-28T08:47:56Z</time>
      </trkpt>
      <trkpt lat="44.96869" lon="5.45872">
        <ele>1346.9443359</ele>
        <time>2011-08-28T08:48:02Z</time>
      </trkpt>
      <trkpt lat="44.9685" lon="5.45834">
        <ele>1343.0991211</ele>
        <time>2011-08-28T08:48:08Z</time>
      </trkpt>
      <trkpt lat="44.96831" lon="5.45764">
        <ele>1339.734375</ele>
        <time>2011-08-28T08:48:19Z</time>
      </trkpt>
      <trkpt lat="44.96815" lon="5.45744">
        <ele>1338.2924805</ele>
        <time>2011-08-28T08:48:24Z</time>
      </trkpt>
      <trkpt lat="44.96807" lon="5.45738">
        <ele>1338.2924805</ele>
        <time>2011-08-28T08:48:26Z</time>
      </trkpt>
      <trkpt lat="44.96773" lon="5.45689">
        <ele>1318.1047363</ele>
        <time>2011-08-28T08:48:38Z</time>
      </trkpt>
      <trkpt lat="44.96723" lon="5.45652">
        <ele>1310.8950195</ele>
        <time>2011-08-28T08:48:53Z</time>
      </trkpt>
      <trkpt lat="44.96718" lon="5.45657">
        <ele>1311.3757324</ele>
        <time>2011-08-28T08:48:57Z</time>
      </trkpt>
      <trkpt lat="44.96696" lon="5.45709">
        <ele>1310.8950195</ele>
        <time>2011-08-28T08:49:17Z</time>
      </trkpt>
      <trkpt lat="44.96665" lon="5.45766">
        <ele>1308.4916992</ele>
        <time>2011-08-28T08:49:34Z</time>
      </trkpt>
      <trkpt lat="44.96651" lon="5.45819">
        <ele>1306.5688477</ele>
        <time>2011-08-28T08:49:47Z</time>
      </trkpt>
      <trkpt lat="44.96637" lon="5.45884">
        <ele>1304.6462402</ele>
        <time>2011-08-28T08:50:01Z</time>
      </trkpt>
      <trkpt lat="44.96629" lon="5.4597">
        <ele>1305.607666</ele>
        <time>2011-08-28T08:50:18Z</time>
      </trkpt>
      <trkpt lat="44.96601" lon="5.46019">
        <ele>1306.0881348</ele>
        <time>2011-08-28T08:50:31Z</time>
      </trkpt>
      <trkpt lat="44.96556" lon="5.46014">
        <ele>1306.5688477</ele>
        <time>2011-08-28T08:50:44Z</time>
      </trkpt>
      <trkpt lat="44.96508" lon="5.46027">
        <ele>1308.9724121</ele>
        <time>2011-08-28T08:50:58Z</time>
      </trkpt>
      <trkpt lat="44.96468" lon="5.46053">
        <ele>1311.3757324</ele>
        <time>2011-08-28T08:51:11Z</time>
      </trkpt>
      <trkpt lat="44.96448" lon="5.4605">
        <ele>1313.7788086</ele>
        <time>2011-08-28T08:51:19Z</time>
      </trkpt>
      <trkpt lat="44.96441" lon="5.46047">
        <ele>1314.7402344</ele>
        <time>2011-08-28T08:51:22Z</time>
      </trkpt>
      <trkpt lat="44.96404" lon="5.46029">
        <ele>1314.2595215</ele>
        <time>2011-08-28T08:51:39Z</time>
      </trkpt>
      <trkpt lat="44.96367" lon="5.46035">
        <ele>1313.7788086</ele>
        <time>2011-08-28T08:51:58Z</time>
      </trkpt>
      <trkpt lat="44.96353" lon="5.46041">
        <ele>1314.7402344</ele>
        <time>2011-08-28T08:52:05Z</time>
      </trkpt>
      <trkpt lat="44.96325" lon="5.46035">
        <ele>1317.1435547</ele>
        <time>2011-08-28T08:52:21Z</time>
      </trkpt>
      <trkpt lat="44.9632" lon="5.46026">
        <ele>1318.5854492</ele>
        <time>2011-08-28T08:52:26Z</time>
      </trkpt>
      <trkpt lat="44.96318" lon="5.46013">
        <ele>1318.1047363</ele>
        <time>2011-08-28T08:52:32Z</time>
      </trkpt>
      <trkpt lat="44.96323" lon="5.4599">
        <ele>1326.7568359</ele>
        <time>2011-08-28T08:52:47Z</time>
      </trkpt>
      <trkpt lat="44.96335" lon="5.45986">
        <ele>1332.0439453</ele>
        <time>2011-08-28T08:52:55Z</time>
      </trkpt>
      <trkpt lat="44.96364" lon="5.45956">
        <ele>1333.4858398</ele>
        <time>2011-08-28T08:53:12Z</time>
      </trkpt>
      <trkpt lat="44.96385" lon="5.45935">
        <ele>1334.4472656</ele>
        <time>2011-08-28T08:53:26Z</time>
      </trkpt>
      <trkpt lat="44.96398" lon="5.4592">
        <ele>1335.4084473</ele>
        <time>2011-08-28T08:53:35Z</time>
      </trkpt>
      <trkpt lat="44.96399" lon="5.45911">
        <ele>1335.4084473</ele>
        <time>2011-08-28T08:53:39Z</time>
      </trkpt>
      <trkpt lat="44.96395" lon="5.45904">
        <ele>1335.8891602</ele>
        <time>2011-08-28T08:53:43Z</time>
      </trkpt>
      <trkpt lat="44.96385" lon="5.45903">
        <ele>1336.369873</ele>
        <time>2011-08-28T08:53:50Z</time>
      </trkpt>
      <trkpt lat="44.96358" lon="5.45919">
        <ele>1336.8503418</ele>
        <time>2011-08-28T08:54:07Z</time>
      </trkpt>
      <trkpt lat="44.96319" lon="5.45925">
        <ele>1337.8117676</ele>
        <time>2011-08-28T08:54:28Z</time>
      </trkpt>
      <trkpt lat="44.96293" lon="5.45921">
        <ele>1340.6958008</ele>
        <time>2011-08-28T08:54:43Z</time>
      </trkpt>
      <trkpt lat="44.96281" lon="5.45897">
        <ele>1342.6186523</ele>
        <time>2011-08-28T08:54:54Z</time>
      </trkpt>
      <trkpt lat="44.96274" lon="5.45892">
        <ele>1342.6186523</ele>
        <time>2011-08-28T08:54:58Z</time>
      </trkpt>
      <trkpt lat="44.9626" lon="5.45866">
        <ele>1342.1379395</ele>
        <time>2011-08-28T08:55:11Z</time>
      </trkpt>
      <trkpt lat="44.96236" lon="5.45856">
        <ele>1344.5410156</ele>
        <time>2011-08-28T08:55:26Z</time>
      </trkpt>
      <trkpt lat="44.96205" lon="5.45861">
        <ele>1345.5024414</ele>
        <time>2011-08-28T08:55:44Z</time>
      </trkpt>
      <trkpt lat="44.96183" lon="5.45867">
        <ele>1345.5024414</ele>
        <time>2011-08-28T08:55:58Z</time>
      </trkpt>
      <trkpt lat="44.96157" lon="5.45886">
        <ele>1349.8283691</ele>
        <time>2011-08-28T08:56:16Z</time>
      </trkpt>
      <trkpt lat="44.96132" lon="5.45913">
        <ele>1352.7121582</ele>
        <time>2011-08-28T08:56:34Z</time>
      </trkpt>
      <trkpt lat="44.9612" lon="5.45932">
        <ele>1352.7121582</ele>
        <time>2011-08-28T08:56:45Z</time>
      </trkpt>
      <trkpt lat="44.96115" lon="5.45962">
        <ele>1353.673584</ele>
        <time>2011-08-28T08:56:58Z</time>
      </trkpt>
      <trkpt lat="44.96109" lon="5.45992">
        <ele>1353.1928711</ele>
        <time>2011-08-28T08:57:10Z</time>
      </trkpt>
      <trkpt lat="44.96105" lon="5.46006">
        <ele>1354.6347656</ele>
        <time>2011-08-28T08:57:25Z</time>
      </trkpt>
      <trkpt lat="44.96105" lon="5.4601">
        <ele>1355.5961914</ele>
        <time>2011-08-28T08:59:30Z</time>
      </trkpt>
      <trkpt lat="44.96103" lon="5.4602">
        <ele>1357.9997559</ele>
        <time>2011-08-28T09:09:13Z</time>
      </trkpt>
      <trkpt lat="44.96101" lon="5.46029">
        <ele>1357.9997559</ele>
        <time>2011-08-28T09:09:16Z</time>
      </trkpt>
      <trkpt lat="44.96104" lon="5.46074">
        <ele>1351.7509766</ele>
        <time>2011-08-28T09:09:25Z</time>
      </trkpt>
      <trkpt lat="44.96088" lon="5.46101">
        <ele>1347.9057617</ele>
        <time>2011-08-28T09:09:31Z</time>
      </trkpt>
      <trkpt lat="44.96076" lon="5.46114">
        <ele>1346.4638672</ele>
        <time>2011-08-28T09:09:35Z</time>
      </trkpt>
      <trkpt lat="44.96078" lon="5.46134">
        <ele>1347.4250488</ele>
        <time>2011-08-28T09:09:40Z</time>
      </trkpt>
      <trkpt lat="44.96087" lon="5.46144">
        <ele>1346.9443359</ele>
        <time>2011-08-28T09:09:43Z</time>
      </trkpt>
      <trkpt lat="44.96101" lon="5.46156">
        <ele>1343.0991211</ele>
        <time>2011-08-28T09:09:47Z</time>
      </trkpt>
      <trkpt lat="44.96111" lon="5.46169">
        <ele>1342.6186523</ele>
        <time>2011-08-28T09:09:51Z</time>
      </trkpt>
      <trkpt lat="44.96094" lon="5.46189">
        <ele>1342.6186523</ele>
        <time>2011-08-28T09:09:58Z</time>
      </trkpt>
      <trkpt lat="44.96086" lon="5.46186">
        <ele>1342.6186523</ele>
        <time>2011-08-28T09:10:00Z</time>
      </trkpt>
      <trkpt lat="44.96068" lon="5.46206">
        <ele>1340.215332</ele>
        <time>2011-08-28T09:10:06Z</time>
      </trkpt>
      <trkpt lat="44.9605" lon="5.46247">
        <ele>1336.8503418</ele>
        <time>2011-08-28T09:10:13Z</time>
      </trkpt>
      <trkpt lat="44.96005" lon="5.46268">
        <ele>1336.8503418</ele>
        <time>2011-08-28T09:10:22Z</time>
      </trkpt>
      <trkpt lat="44.95965" lon="5.4625">
        <ele>1343.0991211</ele>
        <time>2011-08-28T09:10:34Z</time>
      </trkpt>
      <trkpt lat="44.9595" lon="5.46238">
        <ele>1344.0605469</ele>
        <time>2011-08-28T09:10:40Z</time>
      </trkpt>
      <trkpt lat="44.95946" lon="5.46228">
        <ele>1345.5024414</ele>
        <time>2011-08-28T09:10:43Z</time>
      </trkpt>
      <trkpt lat="44.95933" lon="5.46215">
        <ele>1345.9831543</ele>
        <time>2011-08-28T09:10:51Z</time>
      </trkpt>
      <trkpt lat="44.95941" lon="5.46201">
        <ele>1345.5024414</ele>
        <time>2011-08-28T09:10:56Z</time>
      </trkpt>
      <trkpt lat="44.95956" lon="5.46178">
        <ele>1345.5024414</ele>
        <time>2011-08-28T09:11:00Z</time>
      </trkpt>
      <trkpt lat="44.95954" lon="5.46172">
        <ele>1346.9443359</ele>
        <time>2011-08-28T09:11:24Z</time>
      </trkpt>
      <trkpt lat="44.95953" lon="5.46173">
        <ele>1346.4638672</ele>
        <time>2011-08-28T09:11:29Z</time>
      </trkpt>
      <trkpt lat="44.95945" lon="5.46186">
        <ele>1346.4638672</ele>
        <time>2011-08-28T09:11:34Z</time>
      </trkpt>
      <trkpt lat="44.95944" lon="5.46182">
        <ele>1349.3476563</ele>
        <time>2011-08-28T09:11:46Z</time>
      </trkpt>
      <trkpt lat="44.95944" lon="5.46181">
        <ele>1348.8669434</ele>
        <time>2011-08-28T09:11:51Z</time>
      </trkpt>
      <trkpt lat="44.95941" lon="5.46143">
        <ele>1346.4638672</ele>
        <time>2011-08-28T09:12:04Z</time>
      </trkpt>
      <trkpt lat="44.95928" lon="5.46114">
        <ele>1348.3862305</ele>
        <time>2011-08-28T09:12:14Z</time>
      </trkpt>
      <trkpt lat="44.95895" lon="5.4611">
        <ele>1345.5024414</ele>
        <time>2011-08-28T09:12:27Z</time>
      </trkpt>
      <trkpt lat="44.95868" lon="5.46111">
        <ele>1338.7731934</ele>
        <time>2011-08-28T09:12:38Z</time>
      </trkpt>
      <trkpt lat="44.95852" lon="5.46104">
        <ele>1336.8503418</ele>
        <time>2011-08-28T09:12:42Z</time>
      </trkpt>
      <trkpt lat="44.95828" lon="5.46089">
        <ele>1334.9279785</ele>
        <time>2011-08-28T09:12:48Z</time>
      </trkpt>
      <trkpt lat="44.95802" lon="5.46059">
        <ele>1337.8117676</ele>
        <time>2011-08-28T09:12:57Z</time>
      </trkpt>
      <trkpt lat="44.9578" lon="5.46056">
        <ele>1339.2536621</ele>
        <time>2011-08-28T09:13:03Z</time>
      </trkpt>
      <trkpt lat="44.95743" lon="5.46061">
        <ele>1339.734375</ele>
        <time>2011-08-28T09:13:14Z</time>
      </trkpt>
      <trkpt lat="44.95717" lon="5.46057">
        <ele>1342.1379395</ele>
        <time>2011-08-28T09:13:24Z</time>
      </trkpt>
      <trkpt lat="44.95716" lon="5.46054">
        <ele>1340.215332</ele>
        <time>2011-08-28T09:13:38Z</time>
      </trkpt>
      <trkpt lat="44.95709" lon="5.46042">
        <ele>1338.2924805</ele>
        <time>2011-08-28T09:13:45Z</time>
      </trkpt>
      <trkpt lat="44.95707" lon="5.46036">
        <ele>1336.369873</ele>
        <time>2011-08-28T09:13:48Z</time>
      </trkpt>
      <trkpt lat="44.95705" lon="5.46032">
        <ele>1335.8891602</ele>
        <time>2011-08-28T09:13:50Z</time>
      </trkpt>
      <trkpt lat="44.95706" lon="5.46028">
        <ele>1334.9279785</ele>
        <time>2011-08-28T09:13:55Z</time>
      </trkpt>
      <trkpt lat="44.95705" lon="5.46024">
        <ele>1332.0439453</ele>
        <time>2011-08-28T09:14:08Z</time>
      </trkpt>
      <trkpt lat="44.95697" lon="5.46018">
        <ele>1332.0439453</ele>
        <time>2011-08-28T09:14:20Z</time>
      </trkpt>
      <trkpt lat="44.95692" lon="5.4601">
        <ele>1325.7954102</ele>
        <time>2011-08-28T09:14:36Z</time>
      </trkpt>
      <trkpt lat="44.95681" lon="5.46003">
        <ele>1324.8342285</ele>
        <time>2011-08-28T09:14:53Z</time>
      </trkpt>
      <trkpt lat="44.95674" lon="5.46">
        <ele>1323.3920898</ele>
        <time>2011-08-28T09:15:09Z</time>
      </trkpt>
      <trkpt lat="44.95662" lon="5.46002">
        <ele>1319.0661621</ele>
        <time>2011-08-28T09:15:29Z</time>
      </trkpt>
      <trkpt lat="44.9565" lon="5.46009">
        <ele>1311.8564453</ele>
        <time>2011-08-28T09:15:48Z</time>
      </trkpt>
      <trkpt lat="44.95643" lon="5.4601">
        <ele>1308.0112305</ele>
        <time>2011-08-28T09:16:00Z</time>
      </trkpt>
      <trkpt lat="44.95628" lon="5.46007">
        <ele>1307.5302734</ele>
        <time>2011-08-28T09:16:16Z</time>
      </trkpt>
      <trkpt lat="44.95621" lon="5.46008">
        <ele>1307.0495605</ele>
        <time>2011-08-28T09:16:19Z</time>
      </trkpt>
      <trkpt lat="44.95603" lon="5.46003">
        <ele>1305.1269531</ele>
        <time>2011-08-28T09:16:27Z</time>
      </trkpt>
      <trkpt lat="44.95565" lon="5.45962">
        <ele>1299.8398438</ele>
        <time>2011-08-28T09:16:42Z</time>
      </trkpt>
      <trkpt lat="44.95543" lon="5.45948">
        <ele>1297.9172363</ele>
        <time>2011-08-28T09:16:51Z</time>
      </trkpt>
      <trkpt lat="44.95538" lon="5.45941">
        <ele>1294.0720215</ele>
        <time>2011-08-28T09:17:00Z</time>
      </trkpt>
      <trkpt lat="44.9553" lon="5.45937">
        <ele>1288.3039551</ele>
        <time>2011-08-28T09:17:20Z</time>
      </trkpt>
      <trkpt lat="44.95527" lon="5.45935">
        <ele>1287.3425293</ele>
        <time>2011-08-28T09:17:22Z</time>
      </trkpt>
      <trkpt lat="44.95506" lon="5.4592">
        <ele>1283.0166016</ele>
        <time>2011-08-28T09:17:31Z</time>
      </trkpt>
      <trkpt lat="44.95503" lon="5.45898">
        <ele>1281.0942383</ele>
        <time>2011-08-28T09:17:38Z</time>
      </trkpt>
      <trkpt lat="44.955" lon="5.45894">
        <ele>1282.5361328</ele>
        <time>2011-08-28T09:17:52Z</time>
      </trkpt>
      <trkpt lat="44.95498" lon="5.45898">
        <ele>1282.5361328</ele>
        <time>2011-08-28T09:18:30Z</time>
      </trkpt>
      <trkpt lat="44.95494" lon="5.45906">
        <ele>1281.574707</ele>
        <time>2011-08-28T09:18:35Z</time>
      </trkpt>
      <trkpt lat="44.95451" lon="5.45922">
        <ele>1271.9614258</ele>
        <time>2011-08-28T09:18:53Z</time>
      </trkpt>
      <trkpt lat="44.9543" lon="5.45931">
        <ele>1267.1550293</ele>
        <time>2011-08-28T09:19:02Z</time>
      </trkpt>
      <trkpt lat="44.95424" lon="5.45938">
        <ele>1266.6743164</ele>
        <time>2011-08-28T09:19:05Z</time>
      </trkpt>
      <trkpt lat="44.95414" lon="5.45969">
        <ele>1262.3483887</ele>
        <time>2011-08-28T09:19:17Z</time>
      </trkpt>
      <trkpt lat="44.95395" lon="5.46001">
        <ele>1262.3483887</ele>
        <time>2011-08-28T09:19:26Z</time>
      </trkpt>
      <trkpt lat="44.95393" lon="5.4601">
        <ele>1263.7902832</ele>
        <time>2011-08-28T09:19:29Z</time>
      </trkpt>
      <trkpt lat="44.95382" lon="5.46025">
        <ele>1267.1550293</ele>
        <time>2011-08-28T09:19:35Z</time>
      </trkpt>
      <trkpt lat="44.95377" lon="5.46072">
        <ele>1268.1162109</ele>
        <time>2011-08-28T09:19:50Z</time>
      </trkpt>
      <trkpt lat="44.95376" lon="5.46076">
        <ele>1268.1162109</ele>
        <time>2011-08-28T09:19:51Z</time>
      </trkpt>
      <trkpt lat="44.95371" lon="5.46087">
        <ele>1270.0388184</ele>
        <time>2011-08-28T09:19:55Z</time>
      </trkpt>
      <trkpt lat="44.9537" lon="5.46091">
        <ele>1270.0388184</ele>
        <time>2011-08-28T09:19:57Z</time>
      </trkpt>
      <trkpt lat="44.9536" lon="5.46104">
        <ele>1271.4807129</ele>
        <time>2011-08-28T09:20:02Z</time>
      </trkpt>
      <trkpt lat="44.95348" lon="5.46126">
        <ele>1276.7683105</ele>
        <time>2011-08-28T09:20:08Z</time>
      </trkpt>
      <trkpt lat="44.95346" lon="5.4617">
        <ele>1277.7294922</ele>
        <time>2011-08-28T09:20:24Z</time>
      </trkpt>
      <trkpt lat="44.95333" lon="5.46206">
        <ele>1276.7683105</ele>
        <time>2011-08-28T09:20:39Z</time>
      </trkpt>
      <trkpt lat="44.953" lon="5.46225">
        <ele>1282.0554199</ele>
        <time>2011-08-28T09:20:57Z</time>
      </trkpt>
      <trkpt lat="44.95264" lon="5.46246">
        <ele>1285.9006348</ele>
        <time>2011-08-28T09:21:10Z</time>
      </trkpt>
      <trkpt lat="44.95234" lon="5.46214">
        <ele>1285.4199219</ele>
        <time>2011-08-28T09:21:20Z</time>
      </trkpt>
      <trkpt lat="44.95202" lon="5.46192">
        <ele>1287.8232422</ele>
        <time>2011-08-28T09:21:32Z</time>
      </trkpt>
      <trkpt lat="44.95172" lon="5.462">
        <ele>1292.1494141</ele>
        <time>2011-08-28T09:21:45Z</time>
      </trkpt>
      <trkpt lat="44.95171" lon="5.462">
        <ele>1293.1105957</ele>
        <time>2011-08-28T09:21:46Z</time>
      </trkpt>
      <trkpt lat="44.95162" lon="5.46197">
        <ele>1294.5524902</ele>
        <time>2011-08-28T09:21:50Z</time>
      </trkpt>
      <trkpt lat="44.95142" lon="5.46169">
        <ele>1299.3591309</ele>
        <time>2011-08-28T09:22:02Z</time>
      </trkpt>
      <trkpt lat="44.95131" lon="5.46161">
        <ele>1300.3205566</ele>
        <time>2011-08-28T09:22:08Z</time>
      </trkpt>
      <trkpt lat="44.95119" lon="5.46166">
        <ele>1300.3205566</ele>
        <time>2011-08-28T09:22:15Z</time>
      </trkpt>
      <trkpt lat="44.95097" lon="5.46196">
        <ele>1301.7624512</ele>
        <time>2011-08-28T09:22:30Z</time>
      </trkpt>
      <trkpt lat="44.95086" lon="5.46212">
        <ele>1304.6462402</ele>
        <time>2011-08-28T09:22:40Z</time>
      </trkpt>
      <trkpt lat="44.95073" lon="5.46223">
        <ele>1306.5688477</ele>
        <time>2011-08-28T09:22:48Z</time>
      </trkpt>
      <trkpt lat="44.95043" lon="5.46244">
        <ele>1308.4916992</ele>
        <time>2011-08-28T09:23:03Z</time>
      </trkpt>
      <trkpt lat="44.95005" lon="5.46241">
        <ele>1312.3369141</ele>
        <time>2011-08-28T09:23:23Z</time>
      </trkpt>
      <trkpt lat="44.95001" lon="5.46241">
        <ele>1313.2983398</ele>
        <time>2011-08-28T09:23:44Z</time>
      </trkpt>
      <trkpt lat="44.95004" lon="5.4624">
        <ele>1312.817627</ele>
        <time>2011-08-28T09:25:19Z</time>
      </trkpt>
      <trkpt lat="44.94985" lon="5.46231">
        <ele>1315.7016602</ele>
        <time>2011-08-28T09:26:28Z</time>
      </trkpt>
      <trkpt lat="44.94952" lon="5.4621">
        <ele>1314.7402344</ele>
        <time>2011-08-28T09:26:40Z</time>
      </trkpt>
      <trkpt lat="44.94944" lon="5.46193">
        <ele>1314.2595215</ele>
        <time>2011-08-28T09:26:45Z</time>
      </trkpt>
      <trkpt lat="44.94935" lon="5.46163">
        <ele>1315.2209473</ele>
        <time>2011-08-28T09:26:53Z</time>
      </trkpt>
      <trkpt lat="44.94922" lon="5.46153">
        <ele>1315.2209473</ele>
        <time>2011-08-28T09:26:58Z</time>
      </trkpt>
      <trkpt lat="44.94891" lon="5.46172">
        <ele>1315.2209473</ele>
        <time>2011-08-28T09:27:11Z</time>
      </trkpt>
      <trkpt lat="44.9487" lon="5.46201">
        <ele>1313.7788086</ele>
        <time>2011-08-28T09:27:22Z</time>
      </trkpt>
      <trkpt lat="44.94844" lon="5.46237">
        <ele>1310.4143066</ele>
        <time>2011-08-28T09:27:34Z</time>
      </trkpt>
      <trkpt lat="44.94816" lon="5.4629">
        <ele>1312.3369141</ele>
        <time>2011-08-28T09:27:50Z</time>
      </trkpt>
      <trkpt lat="44.94788" lon="5.46316">
        <ele>1314.2595215</ele>
        <time>2011-08-28T09:28:04Z</time>
      </trkpt>
      <trkpt lat="44.94752" lon="5.46326">
        <ele>1316.1821289</ele>
        <time>2011-08-28T09:28:21Z</time>
      </trkpt>
      <trkpt lat="44.94736" lon="5.46336">
        <ele>1318.1047363</ele>
        <time>2011-08-28T09:28:37Z</time>
      </trkpt>
      <trkpt lat="44.9472" lon="5.46337">
        <ele>1319.0661621</ele>
        <time>2011-08-28T09:28:54Z</time>
      </trkpt>
      <trkpt lat="44.94709" lon="5.46339">
        <ele>1320.5080566</ele>
        <time>2011-08-28T09:29:07Z</time>
      </trkpt>
      <trkpt lat="44.94697" lon="5.46332">
        <ele>1321.4692383</ele>
        <time>2011-08-28T09:29:27Z</time>
      </trkpt>
      <trkpt lat="44.94684" lon="5.46328">
        <ele>1319.0661621</ele>
        <time>2011-08-28T09:29:36Z</time>
      </trkpt>
      <trkpt lat="44.94677" lon="5.46309">
        <ele>1320.5080566</ele>
        <time>2011-08-28T09:29:48Z</time>
      </trkpt>
      <trkpt lat="44.94673" lon="5.46296">
        <ele>1322.4306641</ele>
        <time>2011-08-28T09:30:04Z</time>
      </trkpt>
      <trkpt lat="44.94673" lon="5.46293">
        <ele>1322.4306641</ele>
        <time>2011-08-28T09:30:35Z</time>
      </trkpt>
      <trkpt lat="44.94671" lon="5.46286">
        <ele>1322.4306641</ele>
        <time>2011-08-28T09:30:40Z</time>
      </trkpt>
      <trkpt lat="44.9467" lon="5.46283">
        <ele>1322.4306641</ele>
        <time>2011-08-28T09:30:42Z</time>
      </trkpt>
      <trkpt lat="44.9467" lon="5.46264">
        <ele>1323.3920898</ele>
        <time>2011-08-28T09:30:58Z</time>
      </trkpt>
      <trkpt lat="44.94676" lon="5.46247">
        <ele>1323.3920898</ele>
        <time>2011-08-28T09:31:08Z</time>
      </trkpt>
      <trkpt lat="44.94677" lon="5.46243">
        <ele>1322.911377</ele>
        <time>2011-08-28T09:31:10Z</time>
      </trkpt>
      <trkpt lat="44.94685" lon="5.4622">
        <ele>1320.9887695</ele>
        <time>2011-08-28T09:31:22Z</time>
      </trkpt>
      <trkpt lat="44.94691" lon="5.46207">
        <ele>1321.9499512</ele>
        <time>2011-08-28T09:31:27Z</time>
      </trkpt>
      <trkpt lat="44.94691" lon="5.46185">
        <ele>1323.8725586</ele>
        <time>2011-08-28T09:31:35Z</time>
      </trkpt>
      <trkpt lat="44.94691" lon="5.46174">
        <ele>1324.8342285</ele>
        <time>2011-08-28T09:31:40Z</time>
      </trkpt>
      <trkpt lat="44.94691" lon="5.46161">
        <ele>1327.2375488</ele>
        <time>2011-08-28T09:31:50Z</time>
      </trkpt>
      <trkpt lat="44.94691" lon="5.46157">
        <ele>1328.1987305</ele>
        <time>2011-08-28T09:31:53Z</time>
      </trkpt>
      <trkpt lat="44.94691" lon="5.46126">
        <ele>1332.0439453</ele>
        <time>2011-08-28T09:32:13Z</time>
      </trkpt>
      <trkpt lat="44.94688" lon="5.46103">
        <ele>1333.005127</ele>
        <time>2011-08-28T09:32:30Z</time>
      </trkpt>
      <trkpt lat="44.94686" lon="5.46088">
        <ele>1333.005127</ele>
        <time>2011-08-28T09:32:41Z</time>
      </trkpt>
      <trkpt lat="44.94685" lon="5.46072">
        <ele>1332.5246582</ele>
        <time>2011-08-28T09:32:56Z</time>
      </trkpt>
      <trkpt lat="44.94681" lon="5.46066">
        <ele>1332.5246582</ele>
        <time>2011-08-28T09:33:04Z</time>
      </trkpt>
      <trkpt lat="44.94676" lon="5.46051">
        <ele>1333.005127</ele>
        <time>2011-08-28T09:33:21Z</time>
      </trkpt>
      <trkpt lat="44.94672" lon="5.46048">
        <ele>1333.4858398</ele>
        <time>2011-08-28T09:34:13Z</time>
      </trkpt>
      <trkpt lat="44.9466" lon="5.4603">
        <ele>1332.5246582</ele>
        <time>2011-08-28T09:34:21Z</time>
      </trkpt>
      <trkpt lat="44.94659" lon="5.46017">
        <ele>1332.0439453</ele>
        <time>2011-08-28T09:34:26Z</time>
      </trkpt>
      <trkpt lat="44.94654" lon="5.46">
        <ele>1336.369873</ele>
        <time>2011-08-28T09:34:38Z</time>
      </trkpt>
      <trkpt lat="44.94654" lon="5.46">
        <ele>1336.8503418</ele>
        <time>2011-08-28T09:34:40Z</time>
      </trkpt>
      <trkpt lat="44.94651" lon="5.46">
        <ele>1337.3310547</ele>
        <time>2011-08-28T09:34:42Z</time>
      </trkpt>
      <trkpt lat="44.94652" lon="5.4599">
        <ele>1337.8117676</ele>
        <time>2011-08-28T09:34:47Z</time>
      </trkpt>
      <trkpt lat="44.94651" lon="5.45984">
        <ele>1337.8117676</ele>
        <time>2011-08-28T09:34:50Z</time>
      </trkpt>
      <trkpt lat="44.94654" lon="5.45968">
        <ele>1339.734375</ele>
        <time>2011-08-28T09:34:58Z</time>
      </trkpt>
      <trkpt lat="44.94651" lon="5.45961">
        <ele>1339.2536621</ele>
        <time>2011-08-28T09:35:02Z</time>
      </trkpt>
      <trkpt lat="44.94646" lon="5.45954">
        <ele>1343.579834</ele>
        <time>2011-08-28T09:35:13Z</time>
      </trkpt>
      <trkpt lat="44.94642" lon="5.45941">
        <ele>1343.579834</ele>
        <time>2011-08-28T09:35:28Z</time>
      </trkpt>
      <trkpt lat="44.9464" lon="5.45935">
        <ele>1344.5410156</ele>
        <time>2011-08-28T09:35:41Z</time>
      </trkpt>
      <trkpt lat="44.94639" lon="5.45928">
        <ele>1347.4250488</ele>
        <time>2011-08-28T09:35:49Z</time>
      </trkpt>
      <trkpt lat="44.94635" lon="5.45918">
        <ele>1350.7895508</ele>
        <time>2011-08-28T09:35:59Z</time>
      </trkpt>
      <trkpt lat="44.94636" lon="5.45911">
        <ele>1352.7121582</ele>
        <time>2011-08-28T09:36:06Z</time>
      </trkpt>
      <trkpt lat="44.94636" lon="5.45894">
        <ele>1358.4802246</ele>
        <time>2011-08-28T09:36:23Z</time>
      </trkpt>
      <trkpt lat="44.94635" lon="5.45887">
        <ele>1359.4416504</ele>
        <time>2011-08-28T09:36:30Z</time>
      </trkpt>
      <trkpt lat="44.94632" lon="5.45872">
        <ele>1363.767334</ele>
        <time>2011-08-28T09:36:42Z</time>
      </trkpt>
      <trkpt lat="44.94633" lon="5.45862">
        <ele>1363.767334</ele>
        <time>2011-08-28T09:36:50Z</time>
      </trkpt>
      <trkpt lat="44.94635" lon="5.4585">
        <ele>1363.767334</ele>
        <time>2011-08-28T09:36:59Z</time>
      </trkpt>
      <trkpt lat="44.94635" lon="5.45837">
        <ele>1363.2868652</ele>
        <time>2011-08-28T09:37:11Z</time>
      </trkpt>
      <trkpt lat="44.94629" lon="5.45828">
        <ele>1359.9221191</ele>
        <time>2011-08-28T09:37:25Z</time>
      </trkpt>
      <trkpt lat="44.94618" lon="5.45829">
        <ele>1356.5576172</ele>
        <time>2011-08-28T09:37:38Z</time>
      </trkpt>
      <trkpt lat="44.94608" lon="5.45828">
        <ele>1355.5961914</ele>
        <time>2011-08-28T09:37:44Z</time>
      </trkpt>
      <trkpt lat="44.94601" lon="5.45821">
        <ele>1355.1154785</ele>
        <time>2011-08-28T09:37:48Z</time>
      </trkpt>
      <trkpt lat="44.94597" lon="5.45814">
        <ele>1357.0383301</ele>
        <time>2011-08-28T09:37:59Z</time>
      </trkpt>
      <trkpt lat="44.94585" lon="5.45797">
        <ele>1356.5576172</ele>
        <time>2011-08-28T09:38:17Z</time>
      </trkpt>
      <trkpt lat="44.94584" lon="5.45795">
        <ele>1356.5576172</ele>
        <time>2011-08-28T09:38:21Z</time>
      </trkpt>
      <trkpt lat="44.94561" lon="5.45788">
        <ele>1354.6347656</ele>
        <time>2011-08-28T09:38:37Z</time>
      </trkpt>
      <trkpt lat="44.94554" lon="5.4579">
        <ele>1354.1542969</ele>
        <time>2011-08-28T09:38:41Z</time>
      </trkpt>
      <trkpt lat="44.94546" lon="5.45807">
        <ele>1350.7895508</ele>
        <time>2011-08-28T09:38:49Z</time>
      </trkpt>
      <trkpt lat="44.94535" lon="5.45839">
        <ele>1348.3862305</ele>
        <time>2011-08-28T09:39:03Z</time>
      </trkpt>
      <trkpt lat="44.94516" lon="5.45859">
        <ele>1347.4250488</ele>
        <time>2011-08-28T09:39:15Z</time>
      </trkpt>
      <trkpt lat="44.94481" lon="5.45885">
        <ele>1345.9831543</ele>
        <time>2011-08-28T09:39:27Z</time>
      </trkpt>
      <trkpt lat="44.94471" lon="5.45894">
        <ele>1345.5024414</ele>
        <time>2011-08-28T09:39:30Z</time>
      </trkpt>
      <trkpt lat="44.94424" lon="5.45886">
        <ele>1343.579834</ele>
        <time>2011-08-28T09:39:40Z</time>
      </trkpt>
      <trkpt lat="44.94413" lon="5.45888">
        <ele>1344.0605469</ele>
        <time>2011-08-28T09:39:42Z</time>
      </trkpt>
      <trkpt lat="44.944" lon="5.45894">
        <ele>1344.0605469</ele>
        <time>2011-08-28T09:39:45Z</time>
      </trkpt>
      <trkpt lat="44.94376" lon="5.4589">
        <ele>1343.0991211</ele>
        <time>2011-08-28T09:39:51Z</time>
      </trkpt>
      <trkpt lat="44.94352" lon="5.45884">
        <ele>1341.6572266</ele>
        <time>2011-08-28T09:39:56Z</time>
      </trkpt>
      <trkpt lat="44.94342" lon="5.45886">
        <ele>1341.6572266</ele>
        <time>2011-08-28T09:39:58Z</time>
      </trkpt>
      <trkpt lat="44.94308" lon="5.45881">
        <ele>1339.734375</ele>
        <time>2011-08-28T09:40:04Z</time>
      </trkpt>
      <trkpt lat="44.94266" lon="5.45855">
        <ele>1338.2924805</ele>
        <time>2011-08-28T09:40:11Z</time>
      </trkpt>
      <trkpt lat="44.94241" lon="5.45848">
        <ele>1337.8117676</ele>
        <time>2011-08-28T09:40:15Z</time>
      </trkpt>
      <trkpt lat="44.94202" lon="5.45847">
        <ele>1339.734375</ele>
        <time>2011-08-28T09:40:23Z</time>
      </trkpt>
      <trkpt lat="44.94161" lon="5.45846">
        <ele>1338.7731934</ele>
        <time>2011-08-28T09:40:32Z</time>
      </trkpt>
      <trkpt lat="44.9411" lon="5.45858">
        <ele>1342.1379395</ele>
        <time>2011-08-28T09:40:47Z</time>
      </trkpt>
      <trkpt lat="44.94045" lon="5.45863">
        <ele>1342.1379395</ele>
        <time>2011-08-28T09:41:08Z</time>
      </trkpt>
      <trkpt lat="44.9401" lon="5.45872">
        <ele>1345.5024414</ele>
        <time>2011-08-28T09:41:23Z</time>
      </trkpt>
      <trkpt lat="44.93996" lon="5.4588">
        <ele>1349.3476563</ele>
        <time>2011-08-28T09:41:32Z</time>
      </trkpt>
      <trkpt lat="44.93976" lon="5.45863">
        <ele>1349.8283691</ele>
        <time>2011-08-28T09:41:45Z</time>
      </trkpt>
      <trkpt lat="44.9397" lon="5.45862">
        <ele>1350.309082</ele>
        <time>2011-08-28T09:41:48Z</time>
      </trkpt>
      <trkpt lat="44.93947" lon="5.45859">
        <ele>1353.1928711</ele>
        <time>2011-08-28T09:41:59Z</time>
      </trkpt>
      <trkpt lat="44.9393" lon="5.45852">
        <ele>1357.519043</ele>
        <time>2011-08-28T09:42:13Z</time>
      </trkpt>
      <trkpt lat="44.93927" lon="5.45848">
        <ele>1357.9997559</ele>
        <time>2011-08-28T09:42:15Z</time>
      </trkpt>
      <trkpt lat="44.93928" lon="5.4584">
        <ele>1359.4416504</ele>
        <time>2011-08-28T09:42:20Z</time>
      </trkpt>
      <trkpt lat="44.93923" lon="5.45832">
        <ele>1360.402832</ele>
        <time>2011-08-28T09:42:25Z</time>
      </trkpt>
      <trkpt lat="44.93913" lon="5.45821">
        <ele>1363.2868652</ele>
        <time>2011-08-28T09:42:33Z</time>
      </trkpt>
      <trkpt lat="44.93887" lon="5.45815">
        <ele>1369.5354004</ele>
        <time>2011-08-28T09:42:48Z</time>
      </trkpt>
      <trkpt lat="44.93871" lon="5.45806">
        <ele>1368.5739746</ele>
        <time>2011-08-28T09:42:57Z</time>
      </trkpt>
      <trkpt lat="44.93868" lon="5.45786">
        <ele>1372.4194336</ele>
        <time>2011-08-28T09:43:07Z</time>
      </trkpt>
      <trkpt lat="44.93867" lon="5.45782">
        <ele>1373.8613281</ele>
        <time>2011-08-28T09:43:09Z</time>
      </trkpt>
      <trkpt lat="44.93867" lon="5.45771">
        <ele>1374.8227539</ele>
        <time>2011-08-28T09:43:15Z</time>
      </trkpt>
      <trkpt lat="44.93867" lon="5.45767">
        <ele>1374.8227539</ele>
        <time>2011-08-28T09:43:17Z</time>
      </trkpt>
      <trkpt lat="44.93862" lon="5.45757">
        <ele>1374.8227539</ele>
        <time>2011-08-28T09:43:23Z</time>
      </trkpt>
      <trkpt lat="44.93845" lon="5.45756">
        <ele>1370.9772949</ele>
        <time>2011-08-28T09:43:33Z</time>
      </trkpt>
      <trkpt lat="44.93827" lon="5.4576">
        <ele>1373.3808594</ele>
        <time>2011-08-28T09:43:45Z</time>
      </trkpt>
      <trkpt lat="44.93819" lon="5.45765">
        <ele>1373.8613281</ele>
        <time>2011-08-28T09:43:50Z</time>
      </trkpt>
      <trkpt lat="44.93813" lon="5.4577">
        <ele>1373.8613281</ele>
        <time>2011-08-28T09:44:04Z</time>
      </trkpt>
      <trkpt lat="44.93815" lon="5.45769">
        <ele>1374.8227539</ele>
        <time>2011-08-28T09:44:16Z</time>
      </trkpt>
      <trkpt lat="44.93816" lon="5.45767">
        <ele>1377.706543</ele>
        <time>2011-08-28T09:47:21Z</time>
      </trkpt>
      <trkpt lat="44.9381" lon="5.45768">
        <ele>1376.7453613</ele>
        <time>2011-08-28T09:47:34Z</time>
      </trkpt>
      <trkpt lat="44.93799" lon="5.45772">
        <ele>1383.9550781</ele>
        <time>2011-08-28T09:49:00Z</time>
      </trkpt>
      <trkpt lat="44.93796" lon="5.45775">
        <ele>1384.435791</ele>
        <time>2011-08-28T09:51:36Z</time>
      </trkpt>
      <trkpt lat="44.9379" lon="5.45788">
        <ele>1384.435791</ele>
        <time>2011-08-28T09:51:43Z</time>
      </trkpt>
      <trkpt lat="44.93768" lon="5.45828">
        <ele>1380.1098633</ele>
        <time>2011-08-28T09:51:52Z</time>
      </trkpt>
      <trkpt lat="44.9374" lon="5.45891">
        <ele>1370.9772949</ele>
        <time>2011-08-28T09:52:03Z</time>
      </trkpt>
      <trkpt lat="44.93713" lon="5.45901">
        <ele>1367.6125488</ele>
        <time>2011-08-28T09:52:11Z</time>
      </trkpt>
      <trkpt lat="44.93706" lon="5.45893">
        <ele>1366.6513672</ele>
        <time>2011-08-28T09:52:13Z</time>
      </trkpt>
      <trkpt lat="44.93682" lon="5.45842">
        <ele>1364.7287598</ele>
        <time>2011-08-28T09:52:24Z</time>
      </trkpt>
      <trkpt lat="44.93653" lon="5.45771">
        <ele>1362.3254395</ele>
        <time>2011-08-28T09:52:39Z</time>
      </trkpt>
      <trkpt lat="44.93653" lon="5.45754">
        <ele>1360.8835449</ele>
        <time>2011-08-28T09:52:43Z</time>
      </trkpt>
      <trkpt lat="44.93654" lon="5.45734">
        <ele>1359.4416504</ele>
        <time>2011-08-28T09:52:46Z</time>
      </trkpt>
      <trkpt lat="44.9365" lon="5.45709">
        <ele>1357.0383301</ele>
        <time>2011-08-28T09:52:50Z</time>
      </trkpt>
      <trkpt lat="44.93632" lon="5.45671">
        <ele>1352.7121582</ele>
        <time>2011-08-28T09:52:58Z</time>
      </trkpt>
      <trkpt lat="44.93591" lon="5.45663">
        <ele>1349.8283691</ele>
        <time>2011-08-28T09:53:05Z</time>
      </trkpt>
      <trkpt lat="44.93566" lon="5.45651">
        <ele>1349.8283691</ele>
        <time>2011-08-28T09:53:09Z</time>
      </trkpt>
      <trkpt lat="44.93556" lon="5.45642">
        <ele>1349.8283691</ele>
        <time>2011-08-28T09:53:11Z</time>
      </trkpt>
      <trkpt lat="44.93528" lon="5.45639">
        <ele>1353.1928711</ele>
        <time>2011-08-28T09:53:17Z</time>
      </trkpt>
      <trkpt lat="44.93496" lon="5.45671">
        <ele>1358.9609375</ele>
        <time>2011-08-28T09:53:29Z</time>
      </trkpt>
      <trkpt lat="44.9346" lon="5.45698">
        <ele>1357.9997559</ele>
        <time>2011-08-28T09:53:43Z</time>
      </trkpt>
      <trkpt lat="44.93408" lon="5.45713">
        <ele>1356.5576172</ele>
        <time>2011-08-28T09:53:59Z</time>
      </trkpt>
      <trkpt lat="44.93373" lon="5.45696">
        <ele>1357.519043</ele>
        <time>2011-08-28T09:54:11Z</time>
      </trkpt>
      <trkpt lat="44.93359" lon="5.45653">
        <ele>1358.9609375</ele>
        <time>2011-08-28T09:54:24Z</time>
      </trkpt>
      <trkpt lat="44.9337" lon="5.45603">
        <ele>1359.4416504</ele>
        <time>2011-08-28T09:54:38Z</time>
      </trkpt>
      <trkpt lat="44.93391" lon="5.45548">
        <ele>1364.7287598</ele>
        <time>2011-08-28T09:54:55Z</time>
      </trkpt>
      <trkpt lat="44.93403" lon="5.4551">
        <ele>1367.1320801</ele>
        <time>2011-08-28T09:55:08Z</time>
      </trkpt>
      <trkpt lat="44.93409" lon="5.45446">
        <ele>1370.9772949</ele>
        <time>2011-08-28T09:55:29Z</time>
      </trkpt>
      <trkpt lat="44.93407" lon="5.4544">
        <ele>1371.4577637</ele>
        <time>2011-08-28T09:55:31Z</time>
      </trkpt>
      <trkpt lat="44.93395" lon="5.45374">
        <ele>1373.3808594</ele>
        <time>2011-08-28T09:55:53Z</time>
      </trkpt>
      <trkpt lat="44.93395" lon="5.4533">
        <ele>1374.8227539</ele>
        <time>2011-08-28T09:56:08Z</time>
      </trkpt>
      <trkpt lat="44.9338" lon="5.45342">
        <ele>1374.342041</ele>
        <time>2011-08-28T09:56:17Z</time>
      </trkpt>
      <trkpt lat="44.93382" lon="5.45393">
        <ele>1374.342041</ele>
        <time>2011-08-28T09:56:36Z</time>
      </trkpt>
      <trkpt lat="44.93373" lon="5.45432">
        <ele>1374.342041</ele>
        <time>2011-08-28T09:56:51Z</time>
      </trkpt>
      <trkpt lat="44.9336" lon="5.45495">
        <ele>1372.9001465</ele>
        <time>2011-08-28T09:57:08Z</time>
      </trkpt>
      <trkpt lat="44.93356" lon="5.45532">
        <ele>1371.4577637</ele>
        <time>2011-08-28T09:57:16Z</time>
      </trkpt>
      <trkpt lat="44.93339" lon="5.45554">
        <ele>1372.4194336</ele>
        <time>2011-08-28T09:57:25Z</time>
      </trkpt>
      <trkpt lat="44.93311" lon="5.45597">
        <ele>1375.3032227</ele>
        <time>2011-08-28T09:57:40Z</time>
      </trkpt>
      <trkpt lat="44.93285" lon="5.45605">
        <ele>1378.1872559</ele>
        <time>2011-08-28T09:57:52Z</time>
      </trkpt>
      <trkpt lat="44.93252" lon="5.45621">
        <ele>1384.9165039</ele>
        <time>2011-08-28T09:58:06Z</time>
      </trkpt>
      <trkpt lat="44.93229" lon="5.45642">
        <ele>1389.7231445</ele>
        <time>2011-08-28T09:58:16Z</time>
      </trkpt>
      <trkpt lat="44.93206" lon="5.45658">
        <ele>1389.7231445</ele>
        <time>2011-08-28T09:58:27Z</time>
      </trkpt>
      <trkpt lat="44.93173" lon="5.45673">
        <ele>1391.645752</ele>
        <time>2011-08-28T09:58:40Z</time>
      </trkpt>
      <trkpt lat="44.9315" lon="5.45701">
        <ele>1390.2038574</ele>
        <time>2011-08-28T09:58:53Z</time>
      </trkpt>
      <trkpt lat="44.93117" lon="5.45743">
        <ele>1390.2038574</ele>
        <time>2011-08-28T09:59:10Z</time>
      </trkpt>
      <trkpt lat="44.93094" lon="5.45779">
        <ele>1389.7231445</ele>
        <time>2011-08-28T09:59:23Z</time>
      </trkpt>
      <trkpt lat="44.93075" lon="5.45806">
        <ele>1394.0490723</ele>
        <time>2011-08-28T09:59:35Z</time>
      </trkpt>
      <trkpt lat="44.93033" lon="5.45819">
        <ele>1396.4523926</ele>
        <time>2011-08-28T09:59:53Z</time>
      </trkpt>
      <trkpt lat="44.92997" lon="5.45848">
        <ele>1400.2976074</ele>
        <time>2011-08-28T10:00:10Z</time>
      </trkpt>
      <trkpt lat="44.92997" lon="5.45863">
        <ele>1399.8168945</ele>
        <time>2011-08-28T10:00:14Z</time>
      </trkpt>
      <trkpt lat="44.93002" lon="5.45905">
        <ele>1400.2976074</ele>
        <time>2011-08-28T10:00:27Z</time>
      </trkpt>
      <trkpt lat="44.93001" lon="5.45908">
        <ele>1399.8168945</ele>
        <time>2011-08-28T10:00:28Z</time>
      </trkpt>
      <trkpt lat="44.92999" lon="5.45918">
        <ele>1399.3361816</ele>
        <time>2011-08-28T10:00:31Z</time>
      </trkpt>
      <trkpt lat="44.93004" lon="5.45931">
        <ele>1402.2199707</ele>
        <time>2011-08-28T10:00:35Z</time>
      </trkpt>
      <trkpt lat="44.9301" lon="5.45939">
        <ele>1403.1813965</ele>
        <time>2011-08-28T10:00:39Z</time>
      </trkpt>
      <trkpt lat="44.93001" lon="5.45977">
        <ele>1407.0268555</ele>
        <time>2011-08-28T10:00:53Z</time>
      </trkpt>
      <trkpt lat="44.92967" lon="5.46005">
        <ele>1410.8720703</ele>
        <time>2011-08-28T10:01:11Z</time>
      </trkpt>
      <trkpt lat="44.92954" lon="5.46014">
        <ele>1412.7946777</ele>
        <time>2011-08-28T10:01:17Z</time>
      </trkpt>
      <trkpt lat="44.92948" lon="5.46026">
        <ele>1413.2753906</ele>
        <time>2011-08-28T10:01:21Z</time>
      </trkpt>
      <trkpt lat="44.92953" lon="5.46058">
        <ele>1408.9494629</ele>
        <time>2011-08-28T10:01:31Z</time>
      </trkpt>
      <trkpt lat="44.9297" lon="5.46098">
        <ele>1411.3527832</ele>
        <time>2011-08-28T10:01:45Z</time>
      </trkpt>
      <trkpt lat="44.92973" lon="5.46109">
        <ele>1411.3527832</ele>
        <time>2011-08-28T10:01:48Z</time>
      </trkpt>
      <trkpt lat="44.92974" lon="5.46114">
        <ele>1410.8720703</ele>
        <time>2011-08-28T10:01:50Z</time>
      </trkpt>
      <trkpt lat="44.92973" lon="5.46124">
        <ele>1411.3527832</ele>
        <time>2011-08-28T10:01:54Z</time>
      </trkpt>
      <trkpt lat="44.92964" lon="5.46176">
        <ele>1411.3527832</ele>
        <time>2011-08-28T10:02:13Z</time>
      </trkpt>
      <trkpt lat="44.92937" lon="5.46217">
        <ele>1410.8720703</ele>
        <time>2011-08-28T10:02:28Z</time>
      </trkpt>
      <trkpt lat="44.9289" lon="5.46298">
        <ele>1412.3139648</ele>
        <time>2011-08-28T10:02:47Z</time>
      </trkpt>
      <trkpt lat="44.92881" lon="5.46311">
        <ele>1412.3139648</ele>
        <time>2011-08-28T10:02:50Z</time>
      </trkpt>
      <trkpt lat="44.92861" lon="5.46305">
        <ele>1415.197998</ele>
        <time>2011-08-28T10:02:59Z</time>
      </trkpt>
      <trkpt lat="44.92868" lon="5.46245">
        <ele>1418.5625</ele>
        <time>2011-08-28T10:03:14Z</time>
      </trkpt>
      <trkpt lat="44.92891" lon="5.46158">
        <ele>1420.9660645</ele>
        <time>2011-08-28T10:03:35Z</time>
      </trkpt>
      <trkpt lat="44.9288" lon="5.4608">
        <ele>1423.3693848</ele>
        <time>2011-08-28T10:03:53Z</time>
      </trkpt>
      <trkpt lat="44.92858" lon="5.46091">
        <ele>1421.4465332</ele>
        <time>2011-08-28T10:04:01Z</time>
      </trkpt>
      <trkpt lat="44.92837" lon="5.46115">
        <ele>1420.4853516</ele>
        <time>2011-08-28T10:04:09Z</time>
      </trkpt>
      <trkpt lat="44.92817" lon="5.46128">
        <ele>1421.4465332</ele>
        <time>2011-08-28T10:04:15Z</time>
      </trkpt>
      <trkpt lat="44.92808" lon="5.46148">
        <ele>1421.9272461</ele>
        <time>2011-08-28T10:04:20Z</time>
      </trkpt>
      <trkpt lat="44.9279" lon="5.46225">
        <ele>1420.9660645</ele>
        <time>2011-08-28T10:04:36Z</time>
      </trkpt>
      <trkpt lat="44.92764" lon="5.46252">
        <ele>1422.8886719</ele>
        <time>2011-08-28T10:04:46Z</time>
      </trkpt>
      <trkpt lat="44.92761" lon="5.46259">
        <ele>1422.407959</ele>
        <time>2011-08-28T10:04:54Z</time>
      </trkpt>
      <trkpt lat="44.92762" lon="5.46259">
        <ele>1421.4465332</ele>
        <time>2011-08-28T10:05:22Z</time>
      </trkpt>
      <trkpt lat="44.9276" lon="5.46255">
        <ele>1420.0046387</ele>
        <time>2011-08-28T10:05:42Z</time>
      </trkpt>
      <trkpt lat="44.92759" lon="5.46248">
        <ele>1422.8886719</ele>
        <time>2011-08-28T10:14:55Z</time>
      </trkpt>
      <trkpt lat="44.92756" lon="5.46248">
        <ele>1422.407959</ele>
        <time>2011-08-28T10:15:22Z</time>
      </trkpt>
      <trkpt lat="44.9275" lon="5.46244">
        <ele>1422.407959</ele>
        <time>2011-08-28T10:15:27Z</time>
      </trkpt>
      <trkpt lat="44.92743" lon="5.46234">
        <ele>1421.9272461</ele>
        <time>2011-08-28T10:15:40Z</time>
      </trkpt>
      <trkpt lat="44.9273" lon="5.46174">
        <ele>1416.1591797</ele>
        <time>2011-08-28T10:15:52Z</time>
      </trkpt>
      <trkpt lat="44.92728" lon="5.46168">
        <ele>1415.6787109</ele>
        <time>2011-08-28T10:15:53Z</time>
      </trkpt>
      <trkpt lat="44.92717" lon="5.4615">
        <ele>1413.7558594</ele>
        <time>2011-08-28T10:15:57Z</time>
      </trkpt>
      <trkpt lat="44.92688" lon="5.46136">
        <ele>1410.8720703</ele>
        <time>2011-08-28T10:16:03Z</time>
      </trkpt>
      <trkpt lat="44.92672" lon="5.46123">
        <ele>1409.4301758</ele>
        <time>2011-08-28T10:16:07Z</time>
      </trkpt>
      <trkpt lat="44.92662" lon="5.46092">
        <ele>1403.6621094</ele>
        <time>2011-08-28T10:16:13Z</time>
      </trkpt>
      <trkpt lat="44.92647" lon="5.46082">
        <ele>1402.2199707</ele>
        <time>2011-08-28T10:16:21Z</time>
      </trkpt>
      <trkpt lat="44.92648" lon="5.46092">
        <ele>1401.2587891</ele>
        <time>2011-08-28T10:16:23Z</time>
      </trkpt>
      <trkpt lat="44.92652" lon="5.46137">
        <ele>1398.3747559</ele>
        <time>2011-08-28T10:16:32Z</time>
      </trkpt>
      <trkpt lat="44.92642" lon="5.46169">
        <ele>1398.8554688</ele>
        <time>2011-08-28T10:16:38Z</time>
      </trkpt>
      <trkpt lat="44.92607" lon="5.46208">
        <ele>1399.3361816</ele>
        <time>2011-08-28T10:16:47Z</time>
      </trkpt>
      <trkpt lat="44.92576" lon="5.46237">
        <ele>1400.2976074</ele>
        <time>2011-08-28T10:16:56Z</time>
      </trkpt>
      <trkpt lat="44.92574" lon="5.46234">
        <ele>1397.8942871</ele>
        <time>2011-08-28T10:16:57Z</time>
      </trkpt>
      <trkpt lat="44.92567" lon="5.46229">
        <ele>1397.8942871</ele>
        <time>2011-08-28T10:16:59Z</time>
      </trkpt>
      <trkpt lat="44.92552" lon="5.4622">
        <ele>1396.9328613</ele>
        <time>2011-08-28T10:17:03Z</time>
      </trkpt>
      <trkpt lat="44.92542" lon="5.462">
        <ele>1395.4909668</ele>
        <time>2011-08-28T10:17:07Z</time>
      </trkpt>
      <trkpt lat="44.9254" lon="5.46185">
        <ele>1395.0102539</ele>
        <time>2011-08-28T10:17:09Z</time>
      </trkpt>
      <trkpt lat="44.92527" lon="5.46161">
        <ele>1395.9716797</ele>
        <time>2011-08-28T10:17:13Z</time>
      </trkpt>
      <trkpt lat="44.92522" lon="5.46151">
        <ele>1393.5683594</ele>
        <time>2011-08-28T10:17:15Z</time>
      </trkpt>
      <trkpt lat="44.92516" lon="5.46136">
        <ele>1392.1264648</ele>
        <time>2011-08-28T10:17:18Z</time>
      </trkpt>
      <trkpt lat="44.92496" lon="5.46114">
        <ele>1390.6843262</ele>
        <time>2011-08-28T10:17:25Z</time>
      </trkpt>
      <trkpt lat="44.92485" lon="5.46114">
        <ele>1390.2038574</ele>
        <time>2011-08-28T10:17:28Z</time>
      </trkpt>
      <trkpt lat="44.92469" lon="5.46104">
        <ele>1387.800293</ele>
        <time>2011-08-28T10:17:32Z</time>
      </trkpt>
      <trkpt lat="44.92447" lon="5.46094">
        <ele>1386.8388672</ele>
        <time>2011-08-28T10:17:37Z</time>
      </trkpt>
      <trkpt lat="44.924" lon="5.46114">
        <ele>1379.6291504</ele>
        <time>2011-08-28T10:17:47Z</time>
      </trkpt>
      <trkpt lat="44.92379" lon="5.46112">
        <ele>1377.706543</ele>
        <time>2011-08-28T10:17:51Z</time>
      </trkpt>
      <trkpt lat="44.92368" lon="5.46104">
        <ele>1377.2260742</ele>
        <time>2011-08-28T10:17:54Z</time>
      </trkpt>
      <trkpt lat="44.92351" lon="5.46108">
        <ele>1374.8227539</ele>
        <time>2011-08-28T10:17:58Z</time>
      </trkpt>
      <trkpt lat="44.92339" lon="5.46113">
        <ele>1375.3032227</ele>
        <time>2011-08-28T10:18:00Z</time>
      </trkpt>
      <trkpt lat="44.92318" lon="5.46102">
        <ele>1374.8227539</ele>
        <time>2011-08-28T10:18:06Z</time>
      </trkpt>
      <trkpt lat="44.92314" lon="5.46094">
        <ele>1374.342041</ele>
        <time>2011-08-28T10:18:08Z</time>
      </trkpt>
      <trkpt lat="44.92297" lon="5.46082">
        <ele>1372.4194336</ele>
        <time>2011-08-28T10:18:12Z</time>
      </trkpt>
      <trkpt lat="44.92286" lon="5.46078">
        <ele>1371.9384766</ele>
        <time>2011-08-28T10:18:14Z</time>
      </trkpt>
      <trkpt lat="44.92263" lon="5.46085">
        <ele>1371.4577637</ele>
        <time>2011-08-28T10:18:18Z</time>
      </trkpt>
      <trkpt lat="44.92247" lon="5.46097">
        <ele>1370.9772949</ele>
        <time>2011-08-28T10:18:22Z</time>
      </trkpt>
      <trkpt lat="44.922" lon="5.46128">
        <ele>1373.3808594</ele>
        <time>2011-08-28T10:18:35Z</time>
      </trkpt>
      <trkpt lat="44.92187" lon="5.46136">
        <ele>1373.8613281</ele>
        <time>2011-08-28T10:18:45Z</time>
      </trkpt>
      <trkpt lat="44.92165" lon="5.46145">
        <ele>1372.9001465</ele>
        <time>2011-08-28T10:18:52Z</time>
      </trkpt>
      <trkpt lat="44.92155" lon="5.46137">
        <ele>1371.9384766</ele>
        <time>2011-08-28T10:18:55Z</time>
      </trkpt>
      <trkpt lat="44.92134" lon="5.4615">
        <ele>1370.496582</ele>
        <time>2011-08-28T10:19:01Z</time>
      </trkpt>
      <trkpt lat="44.92134" lon="5.46157">
        <ele>1370.9772949</ele>
        <time>2011-08-28T10:19:02Z</time>
      </trkpt>
      <trkpt lat="44.92131" lon="5.46169">
        <ele>1370.9772949</ele>
        <time>2011-08-28T10:19:04Z</time>
      </trkpt>
      <trkpt lat="44.92126" lon="5.4618">
        <ele>1371.4577637</ele>
        <time>2011-08-28T10:19:06Z</time>
      </trkpt>
      <trkpt lat="44.92118" lon="5.46195">
        <ele>1370.9772949</ele>
        <time>2011-08-28T10:19:09Z</time>
      </trkpt>
      <trkpt lat="44.92103" lon="5.46239">
        <ele>1370.0158691</ele>
        <time>2011-08-28T10:19:16Z</time>
      </trkpt>
      <trkpt lat="44.92095" lon="5.46258">
        <ele>1369.5354004</ele>
        <time>2011-08-28T10:19:19Z</time>
      </trkpt>
      <trkpt lat="44.92073" lon="5.463">
        <ele>1370.0158691</ele>
        <time>2011-08-28T10:19:26Z</time>
      </trkpt>
      <trkpt lat="44.92064" lon="5.46318">
        <ele>1370.496582</ele>
        <time>2011-08-28T10:19:29Z</time>
      </trkpt>
      <trkpt lat="44.92029" lon="5.46327">
        <ele>1371.4577637</ele>
        <time>2011-08-28T10:19:38Z</time>
      </trkpt>
      <trkpt lat="44.92024" lon="5.46321">
        <ele>1371.4577637</ele>
        <time>2011-08-28T10:19:40Z</time>
      </trkpt>
      <trkpt lat="44.91992" lon="5.46307">
        <ele>1372.9001465</ele>
        <time>2011-08-28T10:19:51Z</time>
      </trkpt>
      <trkpt lat="44.91948" lon="5.46335">
        <ele>1374.8227539</ele>
        <time>2011-08-28T10:20:04Z</time>
      </trkpt>
      <trkpt lat="44.91912" lon="5.46345">
        <ele>1374.8227539</ele>
        <time>2011-08-28T10:20:15Z</time>
      </trkpt>
      <trkpt lat="44.91899" lon="5.46356">
        <ele>1373.8613281</ele>
        <time>2011-08-28T10:20:18Z</time>
      </trkpt>
      <trkpt lat="44.91877" lon="5.46378">
        <ele>1371.9384766</ele>
        <time>2011-08-28T10:20:22Z</time>
      </trkpt>
      <trkpt lat="44.91829" lon="5.46405">
        <ele>1375.7839355</ele>
        <time>2011-08-28T10:20:31Z</time>
      </trkpt>
      <trkpt lat="44.91811" lon="5.46422">
        <ele>1377.2260742</ele>
        <time>2011-08-28T10:20:36Z</time>
      </trkpt>
      <trkpt lat="44.91776" lon="5.46488">
        <ele>1385.3969727</ele>
        <time>2011-08-28T10:20:52Z</time>
      </trkpt>
      <trkpt lat="44.91771" lon="5.46496">
        <ele>1386.3583984</ele>
        <time>2011-08-28T10:20:55Z</time>
      </trkpt>
      <trkpt lat="44.91759" lon="5.46499">
        <ele>1387.800293</ele>
        <time>2011-08-28T10:21:09Z</time>
      </trkpt>
      <trkpt lat="44.91739" lon="5.46507">
        <ele>1383.9550781</ele>
        <time>2011-08-28T10:22:02Z</time>
      </trkpt>
      <trkpt lat="44.91718" lon="5.46484">
        <ele>1379.1484375</ele>
        <time>2011-08-28T10:22:11Z</time>
      </trkpt>
      <trkpt lat="44.91727" lon="5.46468">
        <ele>1375.3032227</ele>
        <time>2011-08-28T10:22:18Z</time>
      </trkpt>
      <trkpt lat="44.9173" lon="5.46425">
        <ele>1373.3808594</ele>
        <time>2011-08-28T10:22:30Z</time>
      </trkpt>
      <trkpt lat="44.9173" lon="5.46422">
        <ele>1373.8613281</ele>
        <time>2011-08-28T10:22:31Z</time>
      </trkpt>
      <trkpt lat="44.91723" lon="5.46382">
        <ele>1376.7453613</ele>
        <time>2011-08-28T10:22:45Z</time>
      </trkpt>
      <trkpt lat="44.91697" lon="5.46383">
        <ele>1377.2260742</ele>
        <time>2011-08-28T10:22:57Z</time>
      </trkpt>
      <trkpt lat="44.91654" lon="5.46439">
        <ele>1375.7839355</ele>
        <time>2011-08-28T10:23:13Z</time>
      </trkpt>
      <trkpt lat="44.91641" lon="5.46458">
        <ele>1374.8227539</ele>
        <time>2011-08-28T10:23:17Z</time>
      </trkpt>
      <trkpt lat="44.91618" lon="5.46481">
        <ele>1373.3808594</ele>
        <time>2011-08-28T10:23:22Z</time>
      </trkpt>
      <trkpt lat="44.91568" lon="5.46503">
        <ele>1373.8613281</ele>
        <time>2011-08-28T10:23:32Z</time>
      </trkpt>
      <trkpt lat="44.91529" lon="5.46487">
        <ele>1374.8227539</ele>
        <time>2011-08-28T10:23:42Z</time>
      </trkpt>
      <trkpt lat="44.91521" lon="5.46477">
        <ele>1374.342041</ele>
        <time>2011-08-28T10:23:45Z</time>
      </trkpt>
      <trkpt lat="44.91499" lon="5.46477">
        <ele>1374.342041</ele>
        <time>2011-08-28T10:23:52Z</time>
      </trkpt>
      <trkpt lat="44.91489" lon="5.46483">
        <ele>1374.342041</ele>
        <time>2011-08-28T10:23:55Z</time>
      </trkpt>
      <trkpt lat="44.91475" lon="5.46496">
        <ele>1373.8613281</ele>
        <time>2011-08-28T10:23:59Z</time>
      </trkpt>
      <trkpt lat="44.91463" lon="5.46516">
        <ele>1373.3808594</ele>
        <time>2011-08-28T10:24:03Z</time>
      </trkpt>
      <trkpt lat="44.91455" lon="5.46541">
        <ele>1373.8613281</ele>
        <time>2011-08-28T10:24:07Z</time>
      </trkpt>
      <trkpt lat="44.91436" lon="5.46583">
        <ele>1374.8227539</ele>
        <time>2011-08-28T10:24:15Z</time>
      </trkpt>
      <trkpt lat="44.9139" lon="5.46601">
        <ele>1375.3032227</ele>
        <time>2011-08-28T10:24:28Z</time>
      </trkpt>
      <trkpt lat="44.91338" lon="5.46585">
        <ele>1375.3032227</ele>
        <time>2011-08-28T10:24:43Z</time>
      </trkpt>
      <trkpt lat="44.91291" lon="5.46585">
        <ele>1377.2260742</ele>
        <time>2011-08-28T10:24:56Z</time>
      </trkpt>
      <trkpt lat="44.91255" lon="5.46557">
        <ele>1376.7453613</ele>
        <time>2011-08-28T10:25:07Z</time>
      </trkpt>
      <trkpt lat="44.91218" lon="5.46566">
        <ele>1378.1872559</ele>
        <time>2011-08-28T10:25:17Z</time>
      </trkpt>
      <trkpt lat="44.91202" lon="5.46617">
        <ele>1380.5905762</ele>
        <time>2011-08-28T10:25:28Z</time>
      </trkpt>
      <trkpt lat="44.91159" lon="5.4665">
        <ele>1382.9936523</ele>
        <time>2011-08-28T10:25:41Z</time>
      </trkpt>
      <trkpt lat="44.91124" lon="5.46649">
        <ele>1383.9550781</ele>
        <time>2011-08-28T10:25:51Z</time>
      </trkpt>
      <trkpt lat="44.91108" lon="5.46636">
        <ele>1382.9936523</ele>
        <time>2011-08-28T10:25:57Z</time>
      </trkpt>
      <trkpt lat="44.91063" lon="5.46601">
        <ele>1383.4743652</ele>
        <time>2011-08-28T10:26:11Z</time>
      </trkpt>
      <trkpt lat="44.91057" lon="5.46569">
        <ele>1383.4743652</ele>
        <time>2011-08-28T10:26:18Z</time>
      </trkpt>
      <trkpt lat="44.91048" lon="5.4656">
        <ele>1384.435791</ele>
        <time>2011-08-28T10:26:22Z</time>
      </trkpt>
      <trkpt lat="44.91004" lon="5.46571">
        <ele>1387.3195801</ele>
        <time>2011-08-28T10:26:35Z</time>
      </trkpt>
      <trkpt lat="44.90977" lon="5.46595">
        <ele>1388.28125</ele>
        <time>2011-08-28T10:26:45Z</time>
      </trkpt>
      <trkpt lat="44.90939" lon="5.46599">
        <ele>1391.1650391</ele>
        <time>2011-08-28T10:26:57Z</time>
      </trkpt>
      <trkpt lat="44.90889" lon="5.4661">
        <ele>1389.7231445</ele>
        <time>2011-08-28T10:27:15Z</time>
      </trkpt>
      <trkpt lat="44.90851" lon="5.46624">
        <ele>1391.1650391</ele>
        <time>2011-08-28T10:27:31Z</time>
      </trkpt>
      <trkpt lat="44.90819" lon="5.46649">
        <ele>1389.2424316</ele>
        <time>2011-08-28T10:27:47Z</time>
      </trkpt>
      <trkpt lat="44.90783" lon="5.46664">
        <ele>1389.7231445</ele>
        <time>2011-08-28T10:28:04Z</time>
      </trkpt>
      <trkpt lat="44.90752" lon="5.46661">
        <ele>1393.0876465</ele>
        <time>2011-08-28T10:28:18Z</time>
      </trkpt>
      <trkpt lat="44.90739" lon="5.46656">
        <ele>1394.529541</ele>
        <time>2011-08-28T10:28:24Z</time>
      </trkpt>
      <trkpt lat="44.90712" lon="5.46629">
        <ele>1395.4909668</ele>
        <time>2011-08-28T10:28:39Z</time>
      </trkpt>
      <trkpt lat="44.90688" lon="5.46606">
        <ele>1395.4909668</ele>
        <time>2011-08-28T10:28:52Z</time>
      </trkpt>
      <trkpt lat="44.90664" lon="5.46621">
        <ele>1396.4523926</ele>
        <time>2011-08-28T10:29:04Z</time>
      </trkpt>
      <trkpt lat="44.90644" lon="5.46626">
        <ele>1397.8942871</ele>
        <time>2011-08-28T10:29:15Z</time>
      </trkpt>
      <trkpt lat="44.90622" lon="5.46612">
        <ele>1398.3747559</ele>
        <time>2011-08-28T10:29:27Z</time>
      </trkpt>
      <trkpt lat="44.906" lon="5.46576">
        <ele>1400.7780762</ele>
        <time>2011-08-28T10:29:42Z</time>
      </trkpt>
      <trkpt lat="44.9057" lon="5.46565">
        <ele>1401.2587891</ele>
        <time>2011-08-28T10:29:57Z</time>
      </trkpt>
      <trkpt lat="44.90526" lon="5.46572">
        <ele>1404.6235352</ele>
        <time>2011-08-28T10:30:16Z</time>
      </trkpt>
      <trkpt lat="44.90494" lon="5.46561">
        <ele>1407.5075684</ele>
        <time>2011-08-28T10:30:31Z</time>
      </trkpt>
      <trkpt lat="44.90457" lon="5.46566">
        <ele>1410.8720703</ele>
        <time>2011-08-28T10:30:49Z</time>
      </trkpt>
      <trkpt lat="44.90428" lon="5.46575">
        <ele>1414.7172852</ele>
        <time>2011-08-28T10:31:03Z</time>
      </trkpt>
      <trkpt lat="44.9039" lon="5.46565">
        <ele>1417.1206055</ele>
        <time>2011-08-28T10:31:20Z</time>
      </trkpt>
      <trkpt lat="44.90365" lon="5.46548">
        <ele>1414.7172852</ele>
        <time>2011-08-28T10:31:35Z</time>
      </trkpt>
      <trkpt lat="44.90346" lon="5.46551">
        <ele>1415.6787109</ele>
        <time>2011-08-28T10:31:45Z</time>
      </trkpt>
      <trkpt lat="44.90322" lon="5.46557">
        <ele>1417.1206055</ele>
        <time>2011-08-28T10:31:58Z</time>
      </trkpt>
      <trkpt lat="44.90293" lon="5.46566">
        <ele>1417.6010742</ele>
        <time>2011-08-28T10:32:12Z</time>
      </trkpt>
      <trkpt lat="44.90266" lon="5.46555">
        <ele>1416.6398926</ele>
        <time>2011-08-28T10:32:28Z</time>
      </trkpt>
      <trkpt lat="44.90239" lon="5.46548">
        <ele>1419.0432129</ele>
        <time>2011-08-28T10:32:43Z</time>
      </trkpt>
      <trkpt lat="44.90227" lon="5.46549">
        <ele>1417.6010742</ele>
        <time>2011-08-28T10:32:51Z</time>
      </trkpt>
      <trkpt lat="44.90208" lon="5.46553">
        <ele>1414.2365723</ele>
        <time>2011-08-28T10:33:01Z</time>
      </trkpt>
      <trkpt lat="44.90186" lon="5.46554">
        <ele>1418.5625</ele>
        <time>2011-08-28T10:33:14Z</time>
      </trkpt>
      <trkpt lat="44.90169" lon="5.46573">
        <ele>1421.9272461</ele>
        <time>2011-08-28T10:33:29Z</time>
      </trkpt>
      <trkpt lat="44.90163" lon="5.46577">
        <ele>1423.3693848</ele>
        <time>2011-08-28T10:33:33Z</time>
      </trkpt>
      <trkpt lat="44.90125" lon="5.46572">
        <ele>1430.0983887</ele>
        <time>2011-08-28T10:33:55Z</time>
      </trkpt>
      <trkpt lat="44.90092" lon="5.46568">
        <ele>1441.1535645</ele>
        <time>2011-08-28T10:34:14Z</time>
      </trkpt>
      <trkpt lat="44.90086" lon="5.4657">
        <ele>1444.5180664</ele>
        <time>2011-08-28T10:34:18Z</time>
      </trkpt>
      <trkpt lat="44.90083" lon="5.46575">
        <ele>1445.9602051</ele>
        <time>2011-08-28T10:34:34Z</time>
      </trkpt>
      <trkpt lat="44.90083" lon="5.4657">
        <ele>1446.9213867</ele>
        <time>2011-08-28T10:35:58Z</time>
      </trkpt>
      <trkpt lat="44.90082" lon="5.4657">
        <ele>1446.440918</ele>
        <time>2011-08-28T10:36:34Z</time>
      </trkpt>
      <trkpt lat="44.90081" lon="5.46569">
        <ele>1450.7666016</ele>
        <time>2011-08-28T10:44:59Z</time>
      </trkpt>
      <trkpt lat="44.9008" lon="5.46569">
        <ele>1450.7666016</ele>
        <time>2011-08-28T10:45:20Z</time>
      </trkpt>
      <trkpt lat="44.90077" lon="5.46606">
        <ele>1452.6894531</ele>
        <time>2011-08-28T10:45:40Z</time>
      </trkpt>
      <trkpt lat="44.90059" lon="5.46647">
        <ele>1456.0539551</ele>
        <time>2011-08-28T10:46:05Z</time>
      </trkpt>
      <trkpt lat="44.9005" lon="5.46695">
        <ele>1459.8991699</ele>
        <time>2011-08-28T10:46:30Z</time>
      </trkpt>
      <trkpt lat="44.90034" lon="5.46744">
        <ele>1465.6672363</ele>
        <time>2011-08-28T10:46:58Z</time>
      </trkpt>
      <trkpt lat="44.90021" lon="5.46782">
        <ele>1467.5895996</ele>
        <time>2011-08-28T10:47:17Z</time>
      </trkpt>
      <trkpt lat="44.90003" lon="5.46841">
        <ele>1469.0319824</ele>
        <time>2011-08-28T10:47:40Z</time>
      </trkpt>
      <trkpt lat="44.89977" lon="5.46918">
        <ele>1471.9157715</ele>
        <time>2011-08-28T10:48:06Z</time>
      </trkpt>
      <trkpt lat="44.89998" lon="5.46965">
        <ele>1473.3579102</ele>
        <time>2011-08-28T10:48:22Z</time>
      </trkpt>
      <trkpt lat="44.90006" lon="5.47009">
        <ele>1474.3190918</ele>
        <time>2011-08-28T10:48:35Z</time>
      </trkpt>
      <trkpt lat="44.89997" lon="5.47061">
        <ele>1474.7998047</ele>
        <time>2011-08-28T10:48:49Z</time>
      </trkpt>
      <trkpt lat="44.89971" lon="5.47088">
        <ele>1475.7609863</ele>
        <time>2011-08-28T10:49:01Z</time>
      </trkpt>
      <trkpt lat="44.89939" lon="5.47121">
        <ele>1480.567627</ele>
        <time>2011-08-28T10:49:15Z</time>
      </trkpt>
      <trkpt lat="44.89917" lon="5.47163">
        <ele>1481.5288086</ele>
        <time>2011-08-28T10:49:30Z</time>
      </trkpt>
      <trkpt lat="44.89888" lon="5.47206">
        <ele>1484.4130859</ele>
        <time>2011-08-28T10:49:45Z</time>
      </trkpt>
      <trkpt lat="44.89869" lon="5.47277">
        <ele>1486.3356934</ele>
        <time>2011-08-28T10:50:02Z</time>
      </trkpt>
      <trkpt lat="44.89875" lon="5.47352">
        <ele>1483.9321289</ele>
        <time>2011-08-28T10:50:19Z</time>
      </trkpt>
      <trkpt lat="44.89862" lon="5.47365">
        <ele>1484.4130859</ele>
        <time>2011-08-28T10:50:24Z</time>
      </trkpt>
      <trkpt lat="44.89847" lon="5.47341">
        <ele>1485.3742676</ele>
        <time>2011-08-28T10:50:31Z</time>
      </trkpt>
      <trkpt lat="44.89814" lon="5.47314">
        <ele>1485.8549805</ele>
        <time>2011-08-28T10:50:42Z</time>
      </trkpt>
      <trkpt lat="44.89788" lon="5.4728">
        <ele>1486.8161621</ele>
        <time>2011-08-28T10:50:51Z</time>
      </trkpt>
      <trkpt lat="44.89762" lon="5.47271">
        <ele>1485.8549805</ele>
        <time>2011-08-28T10:50:58Z</time>
      </trkpt>
      <trkpt lat="44.89736" lon="5.47321">
        <ele>1487.296875</ele>
        <time>2011-08-28T10:51:10Z</time>
      </trkpt>
      <trkpt lat="44.89737" lon="5.47409">
        <ele>1489.7001953</ele>
        <time>2011-08-28T10:51:27Z</time>
      </trkpt>
      <trkpt lat="44.89709" lon="5.47462">
        <ele>1491.1420898</ele>
        <time>2011-08-28T10:51:45Z</time>
      </trkpt>
      <trkpt lat="44.89681" lon="5.47528">
        <ele>1494.026123</ele>
        <time>2011-08-28T10:52:06Z</time>
      </trkpt>
      <trkpt lat="44.89654" lon="5.47543">
        <ele>1493.5454102</ele>
        <time>2011-08-28T10:52:20Z</time>
      </trkpt>
      <trkpt lat="44.89639" lon="5.4753">
        <ele>1494.9873047</ele>
        <time>2011-08-28T10:52:28Z</time>
      </trkpt>
      <trkpt lat="44.89636" lon="5.47518">
        <ele>1493.5454102</ele>
        <time>2011-08-28T10:52:32Z</time>
      </trkpt>
      <trkpt lat="44.89618" lon="5.47467">
        <ele>1496.4294434</ele>
        <time>2011-08-28T10:52:50Z</time>
      </trkpt>
      <trkpt lat="44.89582" lon="5.47426">
        <ele>1497.390625</ele>
        <time>2011-08-28T10:53:11Z</time>
      </trkpt>
      <trkpt lat="44.89546" lon="5.47412">
        <ele>1499.3132324</ele>
        <time>2011-08-28T10:53:29Z</time>
      </trkpt>
      <trkpt lat="44.89511" lon="5.4743">
        <ele>1503.6394043</ele>
        <time>2011-08-28T10:53:50Z</time>
      </trkpt>
      <trkpt lat="44.89493" lon="5.47467">
        <ele>1509.8876953</ele>
        <time>2011-08-28T10:54:10Z</time>
      </trkpt>
      <trkpt lat="44.89472" lon="5.47515">
        <ele>1509.8876953</ele>
        <time>2011-08-28T10:54:34Z</time>
      </trkpt>
      <trkpt lat="44.89446" lon="5.47522">
        <ele>1512.2910156</ele>
        <time>2011-08-28T10:54:50Z</time>
      </trkpt>
      <trkpt lat="44.89414" lon="5.4752">
        <ele>1515.1750488</ele>
        <time>2011-08-28T10:55:06Z</time>
      </trkpt>
      <trkpt lat="44.89391" lon="5.475">
        <ele>1515.6557617</ele>
        <time>2011-08-28T10:55:20Z</time>
      </trkpt>
      <trkpt lat="44.89379" lon="5.47441">
        <ele>1516.6171875</ele>
        <time>2011-08-28T10:55:37Z</time>
      </trkpt>
      <trkpt lat="44.89376" lon="5.47424">
        <ele>1514.6943359</ele>
        <time>2011-08-28T10:55:50Z</time>
      </trkpt>
      <trkpt lat="44.89374" lon="5.47397">
        <ele>1514.213623</ele>
        <time>2011-08-28T10:56:10Z</time>
      </trkpt>
      <trkpt lat="44.89368" lon="5.47331">
        <ele>1512.2910156</ele>
        <time>2011-08-28T10:56:30Z</time>
      </trkpt>
      <trkpt lat="44.89365" lon="5.47318">
        <ele>1512.2910156</ele>
        <time>2011-08-28T10:56:41Z</time>
      </trkpt>
      <trkpt lat="44.89367" lon="5.47322">
        <ele>1514.213623</ele>
        <time>2011-08-28T10:56:56Z</time>
      </trkpt>
      <trkpt lat="44.89368" lon="5.47321">
        <ele>1512.7717285</ele>
        <time>2011-08-28T10:57:27Z</time>
      </trkpt>
      <trkpt lat="44.89366" lon="5.47321">
        <ele>1513.7329102</ele>
        <time>2011-08-28T11:00:03Z</time>
      </trkpt>
      <trkpt lat="44.89363" lon="5.47315">
        <ele>1512.7717285</ele>
        <time>2011-08-28T11:01:32Z</time>
      </trkpt>
      <trkpt lat="44.89362" lon="5.47246">
        <ele>1508.4458008</ele>
        <time>2011-08-28T11:01:45Z</time>
      </trkpt>
      <trkpt lat="44.89361" lon="5.47239">
        <ele>1508.4458008</ele>
        <time>2011-08-28T11:01:46Z</time>
      </trkpt>
      <trkpt lat="44.89361" lon="5.47218">
        <ele>1507.0039063</ele>
        <time>2011-08-28T11:01:55Z</time>
      </trkpt>
      <trkpt lat="44.89367" lon="5.47162">
        <ele>1506.5231934</ele>
        <time>2011-08-28T11:02:08Z</time>
      </trkpt>
      <trkpt lat="44.89374" lon="5.47126">
        <ele>1504.6005859</ele>
        <time>2011-08-28T11:02:14Z</time>
      </trkpt>
      <trkpt lat="44.89376" lon="5.47103">
        <ele>1503.1586914</ele>
        <time>2011-08-28T11:02:17Z</time>
      </trkpt>
      <trkpt lat="44.8938" lon="5.47058">
        <ele>1500.7553711</ele>
        <time>2011-08-28T11:02:23Z</time>
      </trkpt>
      <trkpt lat="44.89373" lon="5.47027">
        <ele>1500.2749023</ele>
        <time>2011-08-28T11:02:27Z</time>
      </trkpt>
      <trkpt lat="44.8936" lon="5.46999">
        <ele>1499.7939453</ele>
        <time>2011-08-28T11:02:31Z</time>
      </trkpt>
      <trkpt lat="44.89352" lon="5.46959">
        <ele>1498.8325195</ele>
        <time>2011-08-28T11:02:36Z</time>
      </trkpt>
      <trkpt lat="44.89323" lon="5.46934">
        <ele>1496.4294434</ele>
        <time>2011-08-28T11:02:43Z</time>
      </trkpt>
      <trkpt lat="44.89315" lon="5.46947">
        <ele>1495.9487305</ele>
        <time>2011-08-28T11:02:46Z</time>
      </trkpt>
      <trkpt lat="44.89299" lon="5.46983">
        <ele>1499.7939453</ele>
        <time>2011-08-28T11:02:53Z</time>
      </trkpt>
      <trkpt lat="44.89279" lon="5.47004">
        <ele>1501.7167969</ele>
        <time>2011-08-28T11:02:59Z</time>
      </trkpt>
      <trkpt lat="44.89223" lon="5.47014">
        <ele>1501.7167969</ele>
        <time>2011-08-28T11:03:16Z</time>
      </trkpt>
      <trkpt lat="44.89199" lon="5.46968">
        <ele>1501.7167969</ele>
        <time>2011-08-28T11:03:29Z</time>
      </trkpt>
      <trkpt lat="44.89191" lon="5.46893">
        <ele>1499.7939453</ele>
        <time>2011-08-28T11:03:46Z</time>
      </trkpt>
      <trkpt lat="44.89188" lon="5.4688">
        <ele>1499.7939453</ele>
        <time>2011-08-28T11:03:49Z</time>
      </trkpt>
      <trkpt lat="44.89182" lon="5.46862">
        <ele>1503.1586914</ele>
        <time>2011-08-28T11:03:53Z</time>
      </trkpt>
      <trkpt lat="44.89151" lon="5.46841">
        <ele>1504.6005859</ele>
        <time>2011-08-28T11:04:04Z</time>
      </trkpt>
      <trkpt lat="44.89114" lon="5.46819">
        <ele>1504.1201172</ele>
        <time>2011-08-28T11:04:17Z</time>
      </trkpt>
      <trkpt lat="44.89105" lon="5.4679">
        <ele>1503.1586914</ele>
        <time>2011-08-28T11:04:23Z</time>
      </trkpt>
      <trkpt lat="44.89074" lon="5.46741">
        <ele>1502.1972656</ele>
        <time>2011-08-28T11:04:35Z</time>
      </trkpt>
      <trkpt lat="44.89069" lon="5.46725">
        <ele>1502.6779785</ele>
        <time>2011-08-28T11:04:38Z</time>
      </trkpt>
      <trkpt lat="44.89064" lon="5.46709">
        <ele>1503.1586914</ele>
        <time>2011-08-28T11:04:41Z</time>
      </trkpt>
      <trkpt lat="44.89052" lon="5.46667">
        <ele>1502.6779785</ele>
        <time>2011-08-28T11:04:49Z</time>
      </trkpt>
      <trkpt lat="44.89046" lon="5.46639">
        <ele>1501.7167969</ele>
        <time>2011-08-28T11:04:54Z</time>
      </trkpt>
      <trkpt lat="44.89033" lon="5.46607">
        <ele>1503.6394043</ele>
        <time>2011-08-28T11:05:00Z</time>
      </trkpt>
      <trkpt lat="44.89014" lon="5.46585">
        <ele>1505.0812988</ele>
        <time>2011-08-28T11:05:05Z</time>
      </trkpt>
      <trkpt lat="44.89006" lon="5.46578">
        <ele>1505.0812988</ele>
        <time>2011-08-28T11:05:07Z</time>
      </trkpt>
      <trkpt lat="44.88989" lon="5.46548">
        <ele>1503.6394043</ele>
        <time>2011-08-28T11:05:13Z</time>
      </trkpt>
      <trkpt lat="44.88964" lon="5.46502">
        <ele>1502.6779785</ele>
        <time>2011-08-28T11:05:23Z</time>
      </trkpt>
      <trkpt lat="44.88946" lon="5.4648">
        <ele>1503.1586914</ele>
        <time>2011-08-28T11:05:28Z</time>
      </trkpt>
      <trkpt lat="44.8894" lon="5.46457">
        <ele>1503.1586914</ele>
        <time>2011-08-28T11:05:32Z</time>
      </trkpt>
      <trkpt lat="44.88937" lon="5.46432">
        <ele>1501.236084</ele>
        <time>2011-08-28T11:05:36Z</time>
      </trkpt>
      <trkpt lat="44.88917" lon="5.46415">
        <ele>1500.7553711</ele>
        <time>2011-08-28T11:05:42Z</time>
      </trkpt>
      <trkpt lat="44.88905" lon="5.46416">
        <ele>1501.236084</ele>
        <time>2011-08-28T11:05:45Z</time>
      </trkpt>
      <trkpt lat="44.88885" lon="5.46399">
        <ele>1501.7167969</ele>
        <time>2011-08-28T11:05:51Z</time>
      </trkpt>
      <trkpt lat="44.88871" lon="5.46356">
        <ele>1504.6005859</ele>
        <time>2011-08-28T11:06:06Z</time>
      </trkpt>
      <trkpt lat="44.88868" lon="5.46336">
        <ele>1505.0812988</ele>
        <time>2011-08-28T11:06:14Z</time>
      </trkpt>
      <trkpt lat="44.88871" lon="5.46296">
        <ele>1507.965332</ele>
        <time>2011-08-28T11:06:28Z</time>
      </trkpt>
      <trkpt lat="44.88862" lon="5.46264">
        <ele>1515.1750488</ele>
        <time>2011-08-28T11:06:43Z</time>
      </trkpt>
      <trkpt lat="44.88854" lon="5.46245">
        <ele>1520.4624023</ele>
        <time>2011-08-28T11:06:52Z</time>
      </trkpt>
      <trkpt lat="44.88879" lon="5.46198">
        <ele>1514.213623</ele>
        <time>2011-08-28T11:07:08Z</time>
      </trkpt>
      <trkpt lat="44.88894" lon="5.46161">
        <ele>1512.7717285</ele>
        <time>2011-08-28T11:07:17Z</time>
      </trkpt>
      <trkpt lat="44.88893" lon="5.46133">
        <ele>1510.3684082</ele>
        <time>2011-08-28T11:07:21Z</time>
      </trkpt>
      <trkpt lat="44.8889" lon="5.46118">
        <ele>1510.3684082</ele>
        <time>2011-08-28T11:07:23Z</time>
      </trkpt>
      <trkpt lat="44.88895" lon="5.4609">
        <ele>1509.8876953</ele>
        <time>2011-08-28T11:07:27Z</time>
      </trkpt>
      <trkpt lat="44.88931" lon="5.46033">
        <ele>1506.5231934</ele>
        <time>2011-08-28T11:07:36Z</time>
      </trkpt>
      <trkpt lat="44.88947" lon="5.45975">
        <ele>1502.1972656</ele>
        <time>2011-08-28T11:07:44Z</time>
      </trkpt>
      <trkpt lat="44.88952" lon="5.45935">
        <ele>1499.7939453</ele>
        <time>2011-08-28T11:07:49Z</time>
      </trkpt>
      <trkpt lat="44.88958" lon="5.45921">
        <ele>1498.8325195</ele>
        <time>2011-08-28T11:07:51Z</time>
      </trkpt>
      <trkpt lat="44.88965" lon="5.45841">
        <ele>1494.026123</ele>
        <time>2011-08-28T11:08:00Z</time>
      </trkpt>
      <trkpt lat="44.89" lon="5.45797">
        <ele>1490.1809082</ele>
        <time>2011-08-28T11:08:08Z</time>
      </trkpt>
      <trkpt lat="44.89034" lon="5.45747">
        <ele>1486.8161621</ele>
        <time>2011-08-28T11:08:17Z</time>
      </trkpt>
      <trkpt lat="44.89036" lon="5.45731">
        <ele>1486.3356934</ele>
        <time>2011-08-28T11:08:19Z</time>
      </trkpt>
      <trkpt lat="44.89052" lon="5.45701">
        <ele>1485.8549805</ele>
        <time>2011-08-28T11:08:25Z</time>
      </trkpt>
      <trkpt lat="44.89057" lon="5.45694">
        <ele>1485.8549805</ele>
        <time>2011-08-28T11:08:27Z</time>
      </trkpt>
      <trkpt lat="44.89061" lon="5.45682">
        <ele>1485.3742676</ele>
        <time>2011-08-28T11:08:36Z</time>
      </trkpt>
      <trkpt lat="44.89059" lon="5.45663">
        <ele>1483.9321289</ele>
        <time>2011-08-28T11:09:50Z</time>
      </trkpt>
      <trkpt lat="44.89059" lon="5.45646">
        <ele>1482.4902344</ele>
        <time>2011-08-28T11:09:59Z</time>
      </trkpt>
      <trkpt lat="44.8907" lon="5.45631">
        <ele>1481.0483398</ele>
        <time>2011-08-28T11:10:03Z</time>
      </trkpt>
      <trkpt lat="44.89075" lon="5.45592">
        <ele>1480.0869141</ele>
        <time>2011-08-28T11:10:10Z</time>
      </trkpt>
      <trkpt lat="44.89072" lon="5.45587">
        <ele>1479.1254883</ele>
        <time>2011-08-28T11:10:11Z</time>
      </trkpt>
      <trkpt lat="44.89063" lon="5.45578">
        <ele>1477.6835938</ele>
        <time>2011-08-28T11:10:13Z</time>
      </trkpt>
      <trkpt lat="44.89062" lon="5.45532">
        <ele>1472.8771973</ele>
        <time>2011-08-28T11:10:19Z</time>
      </trkpt>
      <trkpt lat="44.89072" lon="5.45491">
        <ele>1469.5126953</ele>
        <time>2011-08-28T11:10:24Z</time>
      </trkpt>
      <trkpt lat="44.89059" lon="5.45463">
        <ele>1466.628418</ele>
        <time>2011-08-28T11:10:31Z</time>
      </trkpt>
      <trkpt lat="44.89049" lon="5.4547">
        <ele>1465.6672363</ele>
        <time>2011-08-28T11:10:33Z</time>
      </trkpt>
      <trkpt lat="44.89034" lon="5.45485">
        <ele>1464.7058105</ele>
        <time>2011-08-28T11:10:36Z</time>
      </trkpt>
      <trkpt lat="44.89023" lon="5.45503">
        <ele>1463.263916</ele>
        <time>2011-08-28T11:10:39Z</time>
      </trkpt>
      <trkpt lat="44.88983" lon="5.45516">
        <ele>1461.3413086</ele>
        <time>2011-08-28T11:10:46Z</time>
      </trkpt>
      <trkpt lat="44.88956" lon="5.4551">
        <ele>1460.3798828</ele>
        <time>2011-08-28T11:10:50Z</time>
      </trkpt>
      <trkpt lat="44.88929" lon="5.45516">
        <ele>1459.8991699</ele>
        <time>2011-08-28T11:10:55Z</time>
      </trkpt>
      <trkpt lat="44.8892" lon="5.45522">
        <ele>1459.4187012</ele>
        <time>2011-08-28T11:10:57Z</time>
      </trkpt>
      <trkpt lat="44.88901" lon="5.45526">
        <ele>1458.4572754</ele>
        <time>2011-08-28T11:11:01Z</time>
      </trkpt>
      <trkpt lat="44.88889" lon="5.45522">
        <ele>1457.4960938</ele>
        <time>2011-08-28T11:11:03Z</time>
      </trkpt>
      <trkpt lat="44.88867" lon="5.45505">
        <ele>1455.0927734</ele>
        <time>2011-08-28T11:11:07Z</time>
      </trkpt>
      <trkpt lat="44.88847" lon="5.45478">
        <ele>1453.170166</ele>
        <time>2011-08-28T11:11:11Z</time>
      </trkpt>
      <trkpt lat="44.88814" lon="5.45375">
        <ele>1445.4794922</ele>
        <time>2011-08-28T11:11:23Z</time>
      </trkpt>
      <trkpt lat="44.88823" lon="5.45355">
        <ele>1444.0375977</ele>
        <time>2011-08-28T11:11:29Z</time>
      </trkpt>
      <trkpt lat="44.8883" lon="5.45366">
        <ele>1443.0761719</ele>
        <time>2011-08-28T11:11:31Z</time>
      </trkpt>
      <trkpt lat="44.88841" lon="5.4539">
        <ele>1441.1535645</ele>
        <time>2011-08-28T11:11:35Z</time>
      </trkpt>
      <trkpt lat="44.88872" lon="5.45425">
        <ele>1439.230957</ele>
        <time>2011-08-28T11:11:42Z</time>
      </trkpt>
      <trkpt lat="44.88917" lon="5.45425">
        <ele>1435.385498</ele>
        <time>2011-08-28T11:11:50Z</time>
      </trkpt>
      <trkpt lat="44.88927" lon="5.45416">
        <ele>1434.4243164</ele>
        <time>2011-08-28T11:11:52Z</time>
      </trkpt>
      <trkpt lat="44.8893" lon="5.4539">
        <ele>1433.9436035</ele>
        <time>2011-08-28T11:11:56Z</time>
      </trkpt>
      <trkpt lat="44.8893" lon="5.45366">
        <ele>1432.0209961</ele>
        <time>2011-08-28T11:11:59Z</time>
      </trkpt>
      <trkpt lat="44.8893" lon="5.45343">
        <ele>1430.5791016</ele>
        <time>2011-08-28T11:12:02Z</time>
      </trkpt>
      <trkpt lat="44.88945" lon="5.45314">
        <ele>1427.2145996</ele>
        <time>2011-08-28T11:12:07Z</time>
      </trkpt>
      <trkpt lat="44.88963" lon="5.45234">
        <ele>1421.9272461</ele>
        <time>2011-08-28T11:12:17Z</time>
      </trkpt>
      <trkpt lat="44.88968" lon="5.45199">
        <ele>1420.0046387</ele>
        <time>2011-08-28T11:12:21Z</time>
      </trkpt>
      <trkpt lat="44.8897" lon="5.45163">
        <ele>1417.6010742</ele>
        <time>2011-08-28T11:12:25Z</time>
      </trkpt>
      <trkpt lat="44.88969" lon="5.45137">
        <ele>1416.1591797</ele>
        <time>2011-08-28T11:12:28Z</time>
      </trkpt>
      <trkpt lat="44.88972" lon="5.45104">
        <ele>1413.2753906</ele>
        <time>2011-08-28T11:12:32Z</time>
      </trkpt>
      <trkpt lat="44.88953" lon="5.45069">
        <ele>1409.4301758</ele>
        <time>2011-08-28T11:12:39Z</time>
      </trkpt>
      <trkpt lat="44.88932" lon="5.4504">
        <ele>1405.5849609</ele>
        <time>2011-08-28T11:12:45Z</time>
      </trkpt>
      <trkpt lat="44.88919" lon="5.44958">
        <ele>1400.7780762</ele>
        <time>2011-08-28T11:12:54Z</time>
      </trkpt>
      <trkpt lat="44.88916" lon="5.44931">
        <ele>1399.3361816</ele>
        <time>2011-08-28T11:12:57Z</time>
      </trkpt>
      <trkpt lat="44.88897" lon="5.44909">
        <ele>1397.8942871</ele>
        <time>2011-08-28T11:13:02Z</time>
      </trkpt>
      <trkpt lat="44.88864" lon="5.4487">
        <ele>1393.0876465</ele>
        <time>2011-08-28T11:13:10Z</time>
      </trkpt>
      <trkpt lat="44.88853" lon="5.44839">
        <ele>1391.1650391</ele>
        <time>2011-08-28T11:13:14Z</time>
      </trkpt>
      <trkpt lat="44.88791" lon="5.44783">
        <ele>1391.1650391</ele>
        <time>2011-08-28T11:13:26Z</time>
      </trkpt>
      <trkpt lat="44.88768" lon="5.44761">
        <ele>1391.1650391</ele>
        <time>2011-08-28T11:13:30Z</time>
      </trkpt>
      <trkpt lat="44.88763" lon="5.44728">
        <ele>1392.6071777</ele>
        <time>2011-08-28T11:13:34Z</time>
      </trkpt>
      <trkpt lat="44.88759" lon="5.44598">
        <ele>1388.7619629</ele>
        <time>2011-08-28T11:13:50Z</time>
      </trkpt>
      <trkpt lat="44.88744" lon="5.44532">
        <ele>1386.3583984</ele>
        <time>2011-08-28T11:13:59Z</time>
      </trkpt>
      <trkpt lat="44.88737" lon="5.4451">
        <ele>1383.4743652</ele>
        <time>2011-08-28T11:14:08Z</time>
      </trkpt>
      <trkpt lat="44.88719" lon="5.44493">
        <ele>1381.0712891</ele>
        <time>2011-08-28T11:14:43Z</time>
      </trkpt>
      <trkpt lat="44.88715" lon="5.44495">
        <ele>1381.0712891</ele>
        <time>2011-08-28T11:14:44Z</time>
      </trkpt>
      <trkpt lat="44.88714" lon="5.4453">
        <ele>1379.6291504</ele>
        <time>2011-08-28T11:14:51Z</time>
      </trkpt>
      <trkpt lat="44.88717" lon="5.44541">
        <ele>1379.1484375</ele>
        <time>2011-08-28T11:14:53Z</time>
      </trkpt>
      <trkpt lat="44.88695" lon="5.44557">
        <ele>1375.3032227</ele>
        <time>2011-08-28T11:15:00Z</time>
      </trkpt>
      <trkpt lat="44.88685" lon="5.44551">
        <ele>1373.3808594</ele>
        <time>2011-08-28T11:15:02Z</time>
      </trkpt>
      <trkpt lat="44.88662" lon="5.44546">
        <ele>1370.496582</ele>
        <time>2011-08-28T11:15:06Z</time>
      </trkpt>
      <trkpt lat="44.88635" lon="5.44533">
        <ele>1368.5739746</ele>
        <time>2011-08-28T11:15:11Z</time>
      </trkpt>
      <trkpt lat="44.8861" lon="5.44528">
        <ele>1365.6901855</ele>
        <time>2011-08-28T11:15:15Z</time>
      </trkpt>
      <trkpt lat="44.88577" lon="5.44518">
        <ele>1363.2868652</ele>
        <time>2011-08-28T11:15:20Z</time>
      </trkpt>
      <trkpt lat="44.8849" lon="5.44491">
        <ele>1358.9609375</ele>
        <time>2011-08-28T11:15:32Z</time>
      </trkpt>
      <trkpt lat="44.88443" lon="5.44459">
        <ele>1353.1928711</ele>
        <time>2011-08-28T11:15:40Z</time>
      </trkpt>
      <trkpt lat="44.88428" lon="5.44455">
        <ele>1352.7121582</ele>
        <time>2011-08-28T11:15:48Z</time>
      </trkpt>
      <trkpt lat="44.88427" lon="5.44458">
        <ele>1353.1928711</ele>
        <time>2011-08-28T11:16:12Z</time>
      </trkpt>
      <trkpt lat="44.88423" lon="5.44459">
        <ele>1352.7121582</ele>
        <time>2011-08-28T11:16:30Z</time>
      </trkpt>
      <trkpt lat="44.88423" lon="5.4446">
        <ele>1352.2314453</ele>
        <time>2011-08-28T11:18:50Z</time>
      </trkpt>
      <trkpt lat="44.88447" lon="5.44421">
        <ele>1373.8613281</ele>
        <time>2011-08-28T12:20:14Z</time>
      </trkpt>
      <trkpt lat="44.88442" lon="5.44438">
        <ele>1375.3032227</ele>
        <time>2011-08-28T12:20:18Z</time>
      </trkpt>
      <trkpt lat="44.88457" lon="5.44414">
        <ele>1345.5024414</ele>
        <time>2011-08-28T12:20:33Z</time>
      </trkpt>
      <trkpt lat="44.88489" lon="5.44348">
        <ele>1342.6186523</ele>
        <time>2011-08-28T12:20:52Z</time>
      </trkpt>
      <trkpt lat="44.88525" lon="5.44281">
        <ele>1340.6958008</ele>
        <time>2011-08-28T12:21:08Z</time>
      </trkpt>
      <trkpt lat="44.88565" lon="5.44241">
        <ele>1339.2536621</ele>
        <time>2011-08-28T12:21:22Z</time>
      </trkpt>
      <trkpt lat="44.88619" lon="5.44226">
        <ele>1337.8117676</ele>
        <time>2011-08-28T12:21:37Z</time>
      </trkpt>
      <trkpt lat="44.88627" lon="5.44223">
        <ele>1338.7731934</ele>
        <time>2011-08-28T12:21:39Z</time>
      </trkpt>
      <trkpt lat="44.88641" lon="5.44206">
        <ele>1338.7731934</ele>
        <time>2011-08-28T12:21:43Z</time>
      </trkpt>
      <trkpt lat="44.88653" lon="5.44164">
        <ele>1336.369873</ele>
        <time>2011-08-28T12:21:49Z</time>
      </trkpt>
      <trkpt lat="44.88656" lon="5.44133">
        <ele>1334.4472656</ele>
        <time>2011-08-28T12:21:53Z</time>
      </trkpt>
      <trkpt lat="44.88654" lon="5.44109">
        <ele>1333.4858398</ele>
        <time>2011-08-28T12:21:56Z</time>
      </trkpt>
      <trkpt lat="44.8864" lon="5.44059">
        <ele>1329.1599121</ele>
        <time>2011-08-28T12:22:03Z</time>
      </trkpt>
      <trkpt lat="44.8864" lon="5.44024">
        <ele>1326.276123</ele>
        <time>2011-08-28T12:22:08Z</time>
      </trkpt>
      <trkpt lat="44.88655" lon="5.43992">
        <ele>1324.3535156</ele>
        <time>2011-08-28T12:22:13Z</time>
      </trkpt>
      <trkpt lat="44.88661" lon="5.43954">
        <ele>1321.9499512</ele>
        <time>2011-08-28T12:22:18Z</time>
      </trkpt>
      <trkpt lat="44.88661" lon="5.43876">
        <ele>1318.1047363</ele>
        <time>2011-08-28T12:22:28Z</time>
      </trkpt>
      <trkpt lat="44.88653" lon="5.43835">
        <ele>1315.7016602</ele>
        <time>2011-08-28T12:22:33Z</time>
      </trkpt>
      <trkpt lat="44.88649" lon="5.4381">
        <ele>1316.6628418</ele>
        <time>2011-08-28T12:22:36Z</time>
      </trkpt>
      <trkpt lat="44.88633" lon="5.43764">
        <ele>1317.6240234</ele>
        <time>2011-08-28T12:22:42Z</time>
      </trkpt>
      <trkpt lat="44.88614" lon="5.43734">
        <ele>1315.2209473</ele>
        <time>2011-08-28T12:22:47Z</time>
      </trkpt>
      <trkpt lat="44.88629" lon="5.43709">
        <ele>1311.3757324</ele>
        <time>2011-08-28T12:22:54Z</time>
      </trkpt>
      <trkpt lat="44.88637" lon="5.43712">
        <ele>1309.453125</ele>
        <time>2011-08-28T12:22:56Z</time>
      </trkpt>
      <trkpt lat="44.8869" lon="5.43735">
        <ele>1301.7624512</ele>
        <time>2011-08-28T12:23:06Z</time>
      </trkpt>
      <trkpt lat="44.88706" lon="5.43752">
        <ele>1300.3205566</ele>
        <time>2011-08-28T12:23:10Z</time>
      </trkpt>
      <trkpt lat="44.88709" lon="5.43773">
        <ele>1296.9558105</ele>
        <time>2011-08-28T12:23:19Z</time>
      </trkpt>
      <trkpt lat="44.88709" lon="5.43773">
        <ele>1295.9946289</ele>
        <time>2011-08-28T12:23:26Z</time>
      </trkpt>
      <trkpt lat="44.88709" lon="5.43784">
        <ele>1295.9946289</ele>
        <time>2011-08-28T12:23:30Z</time>
      </trkpt>
      <trkpt lat="44.88707" lon="5.43792">
        <ele>1295.9946289</ele>
        <time>2011-08-28T12:23:32Z</time>
      </trkpt>
      <trkpt lat="44.88703" lon="5.43812">
        <ele>1294.5524902</ele>
        <time>2011-08-28T12:23:35Z</time>
      </trkpt>
      <trkpt lat="44.88721" lon="5.43878">
        <ele>1289.7458496</ele>
        <time>2011-08-28T12:23:44Z</time>
      </trkpt>
      <trkpt lat="44.88777" lon="5.43927">
        <ele>1285.9006348</ele>
        <time>2011-08-28T12:23:54Z</time>
      </trkpt>
      <trkpt lat="44.88812" lon="5.43921">
        <ele>1286.8618164</ele>
        <time>2011-08-28T12:24:00Z</time>
      </trkpt>
      <trkpt lat="44.88842" lon="5.43884">
        <ele>1284.9394531</ele>
        <time>2011-08-28T12:24:07Z</time>
      </trkpt>
      <trkpt lat="44.88883" lon="5.43882">
        <ele>1282.0554199</ele>
        <time>2011-08-28T12:24:15Z</time>
      </trkpt>
      <trkpt lat="44.88912" lon="5.439">
        <ele>1280.1328125</ele>
        <time>2011-08-28T12:24:20Z</time>
      </trkpt>
      <trkpt lat="44.88936" lon="5.43908">
        <ele>1279.1713867</ele>
        <time>2011-08-28T12:24:24Z</time>
      </trkpt>
      <trkpt lat="44.88959" lon="5.43894">
        <ele>1284.9394531</ele>
        <time>2011-08-28T12:24:33Z</time>
      </trkpt>
      <trkpt lat="44.88946" lon="5.43886">
        <ele>1283.9780273</ele>
        <time>2011-08-28T12:24:42Z</time>
      </trkpt>
      <trkpt lat="44.88924" lon="5.43888">
        <ele>1282.0554199</ele>
        <time>2011-08-28T12:24:48Z</time>
      </trkpt>
      <trkpt lat="44.88871" lon="5.43846">
        <ele>1279.1713867</ele>
        <time>2011-08-28T12:25:00Z</time>
      </trkpt>
      <trkpt lat="44.8882" lon="5.43777">
        <ele>1273.4035645</ele>
        <time>2011-08-28T12:25:11Z</time>
      </trkpt>
      <trkpt lat="44.88809" lon="5.4374">
        <ele>1271.0002441</ele>
        <time>2011-08-28T12:25:16Z</time>
      </trkpt>
      <trkpt lat="44.88781" lon="5.43704">
        <ele>1268.1162109</ele>
        <time>2011-08-28T12:25:22Z</time>
      </trkpt>
      <trkpt lat="44.88762" lon="5.43693">
        <ele>1266.6743164</ele>
        <time>2011-08-28T12:25:25Z</time>
      </trkpt>
      <trkpt lat="44.88741" lon="5.43672">
        <ele>1265.7131348</ele>
        <time>2011-08-28T12:25:29Z</time>
      </trkpt>
      <trkpt lat="44.88678" lon="5.43568">
        <ele>1258.0224609</ele>
        <time>2011-08-28T12:25:43Z</time>
      </trkpt>
      <trkpt lat="44.88667" lon="5.43533">
        <ele>1255.6191406</ele>
        <time>2011-08-28T12:25:47Z</time>
      </trkpt>
      <trkpt lat="44.88653" lon="5.43467">
        <ele>1252.2543945</ele>
        <time>2011-08-28T12:25:54Z</time>
      </trkpt>
      <trkpt lat="44.88651" lon="5.43441">
        <ele>1250.8125</ele>
        <time>2011-08-28T12:25:57Z</time>
      </trkpt>
      <trkpt lat="44.88648" lon="5.43426">
        <ele>1249.3706055</ele>
        <time>2011-08-28T12:25:59Z</time>
      </trkpt>
      <trkpt lat="44.88641" lon="5.43405">
        <ele>1247.9287109</ele>
        <time>2011-08-28T12:26:02Z</time>
      </trkpt>
      <trkpt lat="44.8864" lon="5.43361">
        <ele>1244.5639648</ele>
        <time>2011-08-28T12:26:07Z</time>
      </trkpt>
      <trkpt lat="44.88638" lon="5.43344">
        <ele>1243.1218262</ele>
        <time>2011-08-28T12:26:16Z</time>
      </trkpt>
      <trkpt lat="44.88638" lon="5.43344">
        <ele>1243.1218262</ele>
        <time>2011-08-28T12:26:42Z</time>
      </trkpt>
      <trkpt lat="44.88637" lon="5.43344">
        <ele>1243.1218262</ele>
        <time>2011-08-28T12:29:44Z</time>
      </trkpt>
      <trkpt lat="44.88612" lon="5.43333">
        <ele>1239.2766113</ele>
        <time>2011-08-28T12:29:53Z</time>
      </trkpt>
      <trkpt lat="44.88608" lon="5.43329">
        <ele>1239.2766113</ele>
        <time>2011-08-28T12:29:54Z</time>
      </trkpt>
      <trkpt lat="44.88594" lon="5.43308">
        <ele>1237.8347168</ele>
        <time>2011-08-28T12:29:58Z</time>
      </trkpt>
      <trkpt lat="44.88589" lon="5.43294">
        <ele>1236.873291</ele>
        <time>2011-08-28T12:30:00Z</time>
      </trkpt>
      <trkpt lat="44.88582" lon="5.43272">
        <ele>1235.4313965</ele>
        <time>2011-08-28T12:30:03Z</time>
      </trkpt>
      <trkpt lat="44.88555" lon="5.43221">
        <ele>1232.0668945</ele>
        <time>2011-08-28T12:30:10Z</time>
      </trkpt>
      <trkpt lat="44.88528" lon="5.4318">
        <ele>1229.1828613</ele>
        <time>2011-08-28T12:30:16Z</time>
      </trkpt>
      <trkpt lat="44.88508" lon="5.43159">
        <ele>1227.7407227</ele>
        <time>2011-08-28T12:30:20Z</time>
      </trkpt>
      <trkpt lat="44.8847" lon="5.43124">
        <ele>1223.4150391</ele>
        <time>2011-08-28T12:30:28Z</time>
      </trkpt>
      <trkpt lat="44.88437" lon="5.43112">
        <ele>1220.050293</ele>
        <time>2011-08-28T12:30:34Z</time>
      </trkpt>
      <trkpt lat="44.88412" lon="5.43114">
        <ele>1218.1276855</ele>
        <time>2011-08-28T12:30:38Z</time>
      </trkpt>
      <trkpt lat="44.88383" lon="5.43124">
        <ele>1215.7246094</ele>
        <time>2011-08-28T12:30:43Z</time>
      </trkpt>
      <trkpt lat="44.88338" lon="5.43111">
        <ele>1212.3598633</ele>
        <time>2011-08-28T12:30:52Z</time>
      </trkpt>
      <trkpt lat="44.88322" lon="5.43096">
        <ele>1210.4370117</ele>
        <time>2011-08-28T12:30:56Z</time>
      </trkpt>
      <trkpt lat="44.88315" lon="5.43087">
        <ele>1209.4758301</ele>
        <time>2011-08-28T12:30:58Z</time>
      </trkpt>
      <trkpt lat="44.88247" lon="5.43059">
        <ele>1203.7080078</ele>
        <time>2011-08-28T12:31:09Z</time>
      </trkpt>
      <trkpt lat="44.88174" lon="5.43016">
        <ele>1199.3820801</ele>
        <time>2011-08-28T12:31:21Z</time>
      </trkpt>
      <trkpt lat="44.88148" lon="5.42988">
        <ele>1198.4206543</ele>
        <time>2011-08-28T12:31:26Z</time>
      </trkpt>
      <trkpt lat="44.88122" lon="5.4297">
        <ele>1196.9787598</ele>
        <time>2011-08-28T12:31:31Z</time>
      </trkpt>
      <trkpt lat="44.88104" lon="5.42952">
        <ele>1195.0559082</ele>
        <time>2011-08-28T12:31:35Z</time>
      </trkpt>
      <trkpt lat="44.88088" lon="5.4292">
        <ele>1194.5751953</ele>
        <time>2011-08-28T12:31:40Z</time>
      </trkpt>
      <trkpt lat="44.88082" lon="5.42908">
        <ele>1194.0947266</ele>
        <time>2011-08-28T12:31:42Z</time>
      </trkpt>
      <trkpt lat="44.88052" lon="5.42891">
        <ele>1192.1721191</ele>
        <time>2011-08-28T12:31:48Z</time>
      </trkpt>
      <trkpt lat="44.88019" lon="5.42887">
        <ele>1190.7299805</ele>
        <time>2011-08-28T12:31:56Z</time>
      </trkpt>
      <trkpt lat="44.87985" lon="5.42853">
        <ele>1189.2880859</ele>
        <time>2011-08-28T12:32:04Z</time>
      </trkpt>
      <trkpt lat="44.87958" lon="5.42836">
        <ele>1188.3269043</ele>
        <time>2011-08-28T12:32:11Z</time>
      </trkpt>
      <trkpt lat="44.87942" lon="5.42803">
        <ele>1186.4042969</ele>
        <time>2011-08-28T12:32:18Z</time>
      </trkpt>
      <trkpt lat="44.87908" lon="5.42803">
        <ele>1185.4428711</ele>
        <time>2011-08-28T12:32:22Z</time>
      </trkpt>
      <trkpt lat="44.87889" lon="5.42789">
        <ele>1184.4816895</ele>
        <time>2011-08-28T12:32:25Z</time>
      </trkpt>
      <trkpt lat="44.87867" lon="5.42783">
        <ele>1183.0395508</ele>
        <time>2011-08-28T12:32:29Z</time>
      </trkpt>
      <trkpt lat="44.87816" lon="5.42777">
        <ele>1181.1171875</ele>
        <time>2011-08-28T12:32:35Z</time>
      </trkpt>
      <trkpt lat="44.87769" lon="5.42757">
        <ele>1176.7910156</ele>
        <time>2011-08-28T12:32:43Z</time>
      </trkpt>
      <trkpt lat="44.87733" lon="5.42731">
        <ele>1174.3876953</ele>
        <time>2011-08-28T12:32:49Z</time>
      </trkpt>
      <trkpt lat="44.87723" lon="5.4273">
        <ele>1173.4265137</ele>
        <time>2011-08-28T12:32:51Z</time>
      </trkpt>
      <trkpt lat="44.87681" lon="5.42707">
        <ele>1170.0617676</ele>
        <time>2011-08-28T12:32:57Z</time>
      </trkpt>
      <trkpt lat="44.87665" lon="5.42698">
        <ele>1168.619873</ele>
        <time>2011-08-28T12:33:00Z</time>
      </trkpt>
      <trkpt lat="44.87646" lon="5.42683">
        <ele>1167.1779785</ele>
        <time>2011-08-28T12:33:04Z</time>
      </trkpt>
      <trkpt lat="44.87628" lon="5.42671">
        <ele>1165.736084</ele>
        <time>2011-08-28T12:33:07Z</time>
      </trkpt>
      <trkpt lat="44.87596" lon="5.42658">
        <ele>1162.3710938</ele>
        <time>2011-08-28T12:33:12Z</time>
      </trkpt>
      <trkpt lat="44.87568" lon="5.42644">
        <ele>1160.9291992</ele>
        <time>2011-08-28T12:33:17Z</time>
      </trkpt>
      <trkpt lat="44.8753" lon="5.42635">
        <ele>1157.0839844</ele>
        <time>2011-08-28T12:33:23Z</time>
      </trkpt>
      <trkpt lat="44.87493" lon="5.42629">
        <ele>1154.6806641</ele>
        <time>2011-08-28T12:33:28Z</time>
      </trkpt>
      <trkpt lat="44.87465" lon="5.4261">
        <ele>1155.161377</ele>
        <time>2011-08-28T12:33:33Z</time>
      </trkpt>
      <trkpt lat="44.87438" lon="5.42599">
        <ele>1153.2387695</ele>
        <time>2011-08-28T12:33:37Z</time>
      </trkpt>
      <trkpt lat="44.87417" lon="5.42594">
        <ele>1151.3161621</ele>
        <time>2011-08-28T12:33:41Z</time>
      </trkpt>
      <trkpt lat="44.87398" lon="5.42593">
        <ele>1149.8742676</ele>
        <time>2011-08-28T12:33:44Z</time>
      </trkpt>
      <trkpt lat="44.87374" lon="5.42586">
        <ele>1147.951416</ele>
        <time>2011-08-28T12:33:47Z</time>
      </trkpt>
      <trkpt lat="44.87349" lon="5.42579">
        <ele>1146.5095215</ele>
        <time>2011-08-28T12:33:51Z</time>
      </trkpt>
      <trkpt lat="44.87283" lon="5.42531">
        <ele>1140.7414551</ele>
        <time>2011-08-28T12:34:03Z</time>
      </trkpt>
      <trkpt lat="44.8728" lon="5.42528">
        <ele>1140.2609863</ele>
        <time>2011-08-28T12:34:04Z</time>
      </trkpt>
      <trkpt lat="44.87286" lon="5.42515">
        <ele>1140.2609863</ele>
        <time>2011-08-28T12:34:11Z</time>
      </trkpt>
      <trkpt lat="44.87301" lon="5.42524">
        <ele>1139.2995605</ele>
        <time>2011-08-28T12:34:15Z</time>
      </trkpt>
      <trkpt lat="44.87309" lon="5.42529">
        <ele>1138.3383789</ele>
        <time>2011-08-28T12:34:17Z</time>
      </trkpt>
      <trkpt lat="44.87347" lon="5.42543">
        <ele>1134.4931641</ele>
        <time>2011-08-28T12:34:25Z</time>
      </trkpt>
      <trkpt lat="44.87404" lon="5.42535">
        <ele>1129.2055664</ele>
        <time>2011-08-28T12:34:34Z</time>
      </trkpt>
      <trkpt lat="44.87421" lon="5.42533">
        <ele>1127.7636719</ele>
        <time>2011-08-28T12:34:37Z</time>
      </trkpt>
      <trkpt lat="44.8748" lon="5.42553">
        <ele>1118.6313477</ele>
        <time>2011-08-28T12:34:46Z</time>
      </trkpt>
      <trkpt lat="44.87493" lon="5.42554">
        <ele>1114.3051758</ele>
        <time>2011-08-28T12:34:48Z</time>
      </trkpt>
      <trkpt lat="44.8755" lon="5.42531">
        <ele>1112.3825684</ele>
        <time>2011-08-28T12:34:57Z</time>
      </trkpt>
      <trkpt lat="44.87563" lon="5.42528">
        <ele>1110.9406738</ele>
        <time>2011-08-28T12:34:59Z</time>
      </trkpt>
      <trkpt lat="44.87622" lon="5.42532">
        <ele>1105.1728516</ele>
        <time>2011-08-28T12:35:08Z</time>
      </trkpt>
      <trkpt lat="44.87661" lon="5.42532">
        <ele>1100.8469238</ele>
        <time>2011-08-28T12:35:14Z</time>
      </trkpt>
      <trkpt lat="44.87733" lon="5.42539">
        <ele>1093.15625</ele>
        <time>2011-08-28T12:35:25Z</time>
      </trkpt>
      <trkpt lat="44.87791" lon="5.42551">
        <ele>1091.7143555</ele>
        <time>2011-08-28T12:35:34Z</time>
      </trkpt>
      <trkpt lat="44.87827" lon="5.42566">
        <ele>1091.7143555</ele>
        <time>2011-08-28T12:35:39Z</time>
      </trkpt>
      <trkpt lat="44.87853" lon="5.42566">
        <ele>1089.791748</ele>
        <time>2011-08-28T12:35:46Z</time>
      </trkpt>
      <trkpt lat="44.87853" lon="5.42567">
        <ele>1091.2336426</ele>
        <time>2011-08-28T12:35:54Z</time>
      </trkpt>
      <trkpt lat="44.87862" lon="5.42571">
        <ele>1086.9077148</ele>
        <time>2011-08-28T12:35:58Z</time>
      </trkpt>
      <trkpt lat="44.87872" lon="5.42574">
        <ele>1084.9853516</ele>
        <time>2011-08-28T12:36:01Z</time>
      </trkpt>
      <trkpt lat="44.87895" lon="5.42593">
        <ele>1082.1010742</ele>
        <time>2011-08-28T12:36:11Z</time>
      </trkpt>
      <trkpt lat="44.87896" lon="5.42593">
        <ele>1082.5817871</ele>
        <time>2011-08-28T12:36:14Z</time>
      </trkpt>
      <trkpt lat="44.87923" lon="5.42585">
        <ele>1081.6203613</ele>
        <time>2011-08-28T12:36:24Z</time>
      </trkpt>
      <trkpt lat="44.87932" lon="5.4258">
        <ele>1081.1398926</ele>
        <time>2011-08-28T12:36:26Z</time>
      </trkpt>
      <trkpt lat="44.87964" lon="5.42587">
        <ele>1077.7751465</ele>
        <time>2011-08-28T12:36:32Z</time>
      </trkpt>
      <trkpt lat="44.87991" lon="5.42576">
        <ele>1077.2946777</ele>
        <time>2011-08-28T12:36:37Z</time>
      </trkpt>
      <trkpt lat="44.88001" lon="5.42566">
        <ele>1075.8525391</ele>
        <time>2011-08-28T12:36:39Z</time>
      </trkpt>
      <trkpt lat="44.88013" lon="5.42557">
        <ele>1075.3718262</ele>
        <time>2011-08-28T12:36:41Z</time>
      </trkpt>
      <trkpt lat="44.88024" lon="5.42553">
        <ele>1072.96875</ele>
        <time>2011-08-28T12:36:43Z</time>
      </trkpt>
      <trkpt lat="44.88036" lon="5.4255">
        <ele>1072.0073242</ele>
        <time>2011-08-28T12:36:45Z</time>
      </trkpt>
      <trkpt lat="44.88056" lon="5.4257">
        <ele>1069.604248</ele>
        <time>2011-08-28T12:36:50Z</time>
      </trkpt>
      <trkpt lat="44.88064" lon="5.4258">
        <ele>1068.6428223</ele>
        <time>2011-08-28T12:36:52Z</time>
      </trkpt>
      <trkpt lat="44.88082" lon="5.4258">
        <ele>1065.7587891</ele>
        <time>2011-08-28T12:36:56Z</time>
      </trkpt>
      <trkpt lat="44.88103" lon="5.42567">
        <ele>1064.3166504</ele>
        <time>2011-08-28T12:37:00Z</time>
      </trkpt>
      <trkpt lat="44.88129" lon="5.42559">
        <ele>1061.4328613</ele>
        <time>2011-08-28T12:37:04Z</time>
      </trkpt>
      <trkpt lat="44.88154" lon="5.42548">
        <ele>1060.9521484</ele>
        <time>2011-08-28T12:37:08Z</time>
      </trkpt>
      <trkpt lat="44.88187" lon="5.42578">
        <ele>1054.2231445</ele>
        <time>2011-08-28T12:37:15Z</time>
      </trkpt>
      <trkpt lat="44.88198" lon="5.426">
        <ele>1053.2617188</ele>
        <time>2011-08-28T12:37:18Z</time>
      </trkpt>
      <trkpt lat="44.88207" lon="5.42618">
        <ele>1051.8195801</ele>
        <time>2011-08-28T12:37:21Z</time>
      </trkpt>
      <trkpt lat="44.88229" lon="5.42637">
        <ele>1048.9355469</ele>
        <time>2011-08-28T12:37:26Z</time>
      </trkpt>
      <trkpt lat="44.88289" lon="5.42646">
        <ele>1048.454834</ele>
        <time>2011-08-28T12:37:35Z</time>
      </trkpt>
      <trkpt lat="44.88373" lon="5.42677">
        <ele>1043.1677246</ele>
        <time>2011-08-28T12:37:50Z</time>
      </trkpt>
      <trkpt lat="44.88379" lon="5.42678">
        <ele>1042.6872559</ele>
        <time>2011-08-28T12:37:51Z</time>
      </trkpt>
      <trkpt lat="44.88412" lon="5.42676">
        <ele>1041.2451172</ele>
        <time>2011-08-28T12:37:56Z</time>
      </trkpt>
      <trkpt lat="44.88442" lon="5.42678">
        <ele>1038.3613281</ele>
        <time>2011-08-28T12:38:00Z</time>
      </trkpt>
      <trkpt lat="44.8846" lon="5.42675">
        <ele>1037.8806152</ele>
        <time>2011-08-28T12:38:03Z</time>
      </trkpt>
      <trkpt lat="44.88483" lon="5.42683">
        <ele>1035.9577637</ele>
        <time>2011-08-28T12:38:07Z</time>
      </trkpt>
      <trkpt lat="44.885" lon="5.42694">
        <ele>1034.5158691</ele>
        <time>2011-08-28T12:38:10Z</time>
      </trkpt>
      <trkpt lat="44.88533" lon="5.42678">
        <ele>1030.6706543</ele>
        <time>2011-08-28T12:38:17Z</time>
      </trkpt>
      <trkpt lat="44.88561" lon="5.42679">
        <ele>1028.7480469</ele>
        <time>2011-08-28T12:38:25Z</time>
      </trkpt>
      <trkpt lat="44.8857" lon="5.42688">
        <ele>1027.7866211</ele>
        <time>2011-08-28T12:38:33Z</time>
      </trkpt>
      <trkpt lat="44.88616" lon="5.42715">
        <ele>1022.9802246</ele>
        <time>2011-08-28T12:38:44Z</time>
      </trkpt>
      <trkpt lat="44.8863" lon="5.42721">
        <ele>1021.0576172</ele>
        <time>2011-08-28T12:38:47Z</time>
      </trkpt>
      <trkpt lat="44.88655" lon="5.42731">
        <ele>1019.6154785</ele>
        <time>2011-08-28T12:38:51Z</time>
      </trkpt>
      <trkpt lat="44.88694" lon="5.42744">
        <ele>1015.2895508</ele>
        <time>2011-08-28T12:38:58Z</time>
      </trkpt>
      <trkpt lat="44.8874" lon="5.42778">
        <ele>1009.5217285</ele>
        <time>2011-08-28T12:39:04Z</time>
      </trkpt>
      <trkpt lat="44.88791" lon="5.4282">
        <ele>1004.2346191</ele>
        <time>2011-08-28T12:39:13Z</time>
      </trkpt>
      <trkpt lat="44.88809" lon="5.42848">
        <ele>1000.8696289</ele>
        <time>2011-08-28T12:39:17Z</time>
      </trkpt>
      <trkpt lat="44.88817" lon="5.42874">
        <ele>999.4277344</ele>
        <time>2011-08-28T12:39:20Z</time>
      </trkpt>
      <trkpt lat="44.8882" lon="5.42896">
        <ele>996.5439453</ele>
        <time>2011-08-28T12:39:23Z</time>
      </trkpt>
      <trkpt lat="44.88832" lon="5.429">
        <ele>991.7373047</ele>
        <time>2011-08-28T12:39:30Z</time>
      </trkpt>
      <trkpt lat="44.88829" lon="5.42898">
        <ele>988.3728027</ele>
        <time>2011-08-28T12:39:56Z</time>
      </trkpt>
      <trkpt lat="44.88829" lon="5.42897">
        <ele>988.8535156</ele>
        <time>2011-08-28T12:40:08Z</time>
      </trkpt>
      <trkpt lat="44.88825" lon="5.4288">
        <ele>988.8535156</ele>
        <time>2011-08-28T12:40:12Z</time>
      </trkpt>
      <trkpt lat="44.88819" lon="5.42847">
        <ele>988.8535156</ele>
        <time>2011-08-28T12:40:17Z</time>
      </trkpt>
      <trkpt lat="44.88815" lon="5.42822">
        <ele>987.8918457</ele>
        <time>2011-08-28T12:40:20Z</time>
      </trkpt>
      <trkpt lat="44.88807" lon="5.42799">
        <ele>986.9304199</ele>
        <time>2011-08-28T12:40:23Z</time>
      </trkpt>
      <trkpt lat="44.88788" lon="5.42774">
        <ele>986.4499512</ele>
        <time>2011-08-28T12:40:27Z</time>
      </trkpt>
      <trkpt lat="44.88777" lon="5.42728">
        <ele>984.0466309</ele>
        <time>2011-08-28T12:40:33Z</time>
      </trkpt>
      <trkpt lat="44.88783" lon="5.42703">
        <ele>987.4111328</ele>
        <time>2011-08-28T12:40:42Z</time>
      </trkpt>
      <trkpt lat="44.88783" lon="5.42702">
        <ele>986.9304199</ele>
        <time>2011-08-28T12:40:52Z</time>
      </trkpt>
      <trkpt lat="44.88778" lon="5.42696">
        <ele>985.0080566</ele>
        <time>2011-08-28T12:40:57Z</time>
      </trkpt>
      <trkpt lat="44.88772" lon="5.42682">
        <ele>983.565918</ele>
        <time>2011-08-28T12:41:01Z</time>
      </trkpt>
      <trkpt lat="44.88766" lon="5.4265">
        <ele>981.6433105</ele>
        <time>2011-08-28T12:41:06Z</time>
      </trkpt>
      <trkpt lat="44.88726" lon="5.42609">
        <ele>974.9143066</ele>
        <time>2011-08-28T12:41:15Z</time>
      </trkpt>
      <trkpt lat="44.88713" lon="5.42601">
        <ele>973.4724121</ele>
        <time>2011-08-28T12:41:18Z</time>
      </trkpt>
      <trkpt lat="44.8869" lon="5.42554">
        <ele>970.1074219</ele>
        <time>2011-08-28T12:41:26Z</time>
      </trkpt>
      <trkpt lat="44.88681" lon="5.42533">
        <ele>970.1074219</ele>
        <time>2011-08-28T12:41:27Z</time>
      </trkpt>
      <trkpt lat="44.88689" lon="5.42502">
        <ele>968.1848145</ele>
        <time>2011-08-28T12:41:31Z</time>
      </trkpt>
      <trkpt lat="44.88717" lon="5.42472">
        <ele>963.8588867</ele>
        <time>2011-08-28T12:41:37Z</time>
      </trkpt>
      <trkpt lat="44.88725" lon="5.42451">
        <ele>962.8977051</ele>
        <time>2011-08-28T12:41:41Z</time>
      </trkpt>
      <trkpt lat="44.88712" lon="5.42433">
        <ele>960.4943848</ele>
        <time>2011-08-28T12:41:46Z</time>
      </trkpt>
      <trkpt lat="44.88679" lon="5.42416">
        <ele>957.1298828</ele>
        <time>2011-08-28T12:41:53Z</time>
      </trkpt>
      <trkpt lat="44.88604" lon="5.42384">
        <ele>952.322998</ele>
        <time>2011-08-28T12:42:04Z</time>
      </trkpt>
      <trkpt lat="44.88597" lon="5.42383">
        <ele>952.322998</ele>
        <time>2011-08-28T12:42:05Z</time>
      </trkpt>
      <trkpt lat="44.8857" lon="5.42389">
        <ele>950.4006348</ele>
        <time>2011-08-28T12:42:09Z</time>
      </trkpt>
      <trkpt lat="44.88507" lon="5.42436">
        <ele>947.0358887</ele>
        <time>2011-08-28T12:42:20Z</time>
      </trkpt>
      <trkpt lat="44.88482" lon="5.42413">
        <ele>945.5939941</ele>
        <time>2011-08-28T12:42:26Z</time>
      </trkpt>
      <trkpt lat="44.88479" lon="5.42397">
        <ele>945.1132813</ele>
        <time>2011-08-28T12:42:28Z</time>
      </trkpt>
      <trkpt lat="44.88456" lon="5.42374">
        <ele>942.2294922</ele>
        <time>2011-08-28T12:42:35Z</time>
      </trkpt>
      <trkpt lat="44.88451" lon="5.42377">
        <ele>941.7487793</ele>
        <time>2011-08-28T12:42:36Z</time>
      </trkpt>
      <trkpt lat="44.88417" lon="5.42405">
        <ele>939.8259277</ele>
        <time>2011-08-28T12:42:43Z</time>
      </trkpt>
      <trkpt lat="44.88393" lon="5.42389">
        <ele>939.8259277</ele>
        <time>2011-08-28T12:42:49Z</time>
      </trkpt>
      <trkpt lat="44.88391" lon="5.42381">
        <ele>939.8259277</ele>
        <time>2011-08-28T12:42:50Z</time>
      </trkpt>
      <trkpt lat="44.88391" lon="5.42343">
        <ele>938.3840332</ele>
        <time>2011-08-28T12:42:55Z</time>
      </trkpt>
      <trkpt lat="44.88395" lon="5.42335">
        <ele>937.9033203</ele>
        <time>2011-08-28T12:42:57Z</time>
      </trkpt>
      <trkpt lat="44.88406" lon="5.42295">
        <ele>936.4614258</ele>
        <time>2011-08-28T12:43:02Z</time>
      </trkpt>
      <trkpt lat="44.8839" lon="5.42269">
        <ele>933.5773926</ele>
        <time>2011-08-28T12:43:05Z</time>
      </trkpt>
      <trkpt lat="44.88362" lon="5.42238">
        <ele>928.7709961</ele>
        <time>2011-08-28T12:43:10Z</time>
      </trkpt>
      <trkpt lat="44.88288" lon="5.42186">
        <ele>921.560791</ele>
        <time>2011-08-28T12:43:24Z</time>
      </trkpt>
      <trkpt lat="44.8828" lon="5.42183">
        <ele>920.5996094</ele>
        <time>2011-08-28T12:43:26Z</time>
      </trkpt>
      <trkpt lat="44.88249" lon="5.4215">
        <ele>919.6384277</ele>
        <time>2011-08-28T12:43:30Z</time>
      </trkpt>
      <trkpt lat="44.88232" lon="5.42121">
        <ele>917.2351074</ele>
        <time>2011-08-28T12:43:34Z</time>
      </trkpt>
      <trkpt lat="44.88209" lon="5.421">
        <ele>916.2736816</ele>
        <time>2011-08-28T12:43:38Z</time>
      </trkpt>
      <trkpt lat="44.88107" lon="5.42044">
        <ele>909.5446777</ele>
        <time>2011-08-28T12:43:53Z</time>
      </trkpt>
      <trkpt lat="44.88057" lon="5.42012">
        <ele>908.583252</ele>
        <time>2011-08-28T12:44:02Z</time>
      </trkpt>
      <trkpt lat="44.87998" lon="5.41978">
        <ele>907.6218262</ele>
        <time>2011-08-28T12:44:13Z</time>
      </trkpt>
      <trkpt lat="44.87972" lon="5.4196">
        <ele>907.1411133</ele>
        <time>2011-08-28T12:44:17Z</time>
      </trkpt>
      <trkpt lat="44.87961" lon="5.41939">
        <ele>906.6604004</ele>
        <time>2011-08-28T12:44:21Z</time>
      </trkpt>
      <trkpt lat="44.87916" lon="5.41926">
        <ele>906.6604004</ele>
        <time>2011-08-28T12:44:35Z</time>
      </trkpt>
      <trkpt lat="44.87854" lon="5.41917">
        <ele>902.8151855</ele>
        <time>2011-08-28T12:44:53Z</time>
      </trkpt>
      <trkpt lat="44.87832" lon="5.41909">
        <ele>903.2958984</ele>
        <time>2011-08-28T12:45:00Z</time>
      </trkpt>
      <trkpt lat="44.878" lon="5.41897">
        <ele>902.8151855</ele>
        <time>2011-08-28T12:45:10Z</time>
      </trkpt>
      <trkpt lat="44.87764" lon="5.41886">
        <ele>903.2958984</ele>
        <time>2011-08-28T12:45:20Z</time>
      </trkpt>
      <trkpt lat="44.87712" lon="5.41871">
        <ele>904.2573242</ele>
        <time>2011-08-28T12:45:33Z</time>
      </trkpt>
      <trkpt lat="44.87653" lon="5.41854">
        <ele>905.6992188</ele>
        <time>2011-08-28T12:45:49Z</time>
      </trkpt>
      <trkpt lat="44.87636" lon="5.41849">
        <ele>905.6992188</ele>
        <time>2011-08-28T12:45:55Z</time>
      </trkpt>
      <trkpt lat="44.87604" lon="5.41841">
        <ele>902.3344727</ele>
        <time>2011-08-28T12:46:04Z</time>
      </trkpt>
      <trkpt lat="44.87564" lon="5.41829">
        <ele>901.373291</ele>
        <time>2011-08-28T12:46:16Z</time>
      </trkpt>
      <trkpt lat="44.87531" lon="5.41819">
        <ele>899.9313965</ele>
        <time>2011-08-28T12:46:30Z</time>
      </trkpt>
      <trkpt lat="44.87501" lon="5.41806">
        <ele>898.4892578</ele>
        <time>2011-08-28T12:46:45Z</time>
      </trkpt>
      <trkpt lat="44.87453" lon="5.41783">
        <ele>903.2958984</ele>
        <time>2011-08-28T12:47:05Z</time>
      </trkpt>
      <trkpt lat="44.87376" lon="5.4175">
        <ele>905.6992188</ele>
        <time>2011-08-28T12:47:32Z</time>
      </trkpt>
      <trkpt lat="44.87348" lon="5.41739">
        <ele>907.1411133</ele>
        <time>2011-08-28T12:47:47Z</time>
      </trkpt>
      <trkpt lat="44.87325" lon="5.41731">
        <ele>907.6218262</ele>
        <time>2011-08-28T12:48:16Z</time>
      </trkpt>
      <trkpt lat="44.87261" lon="5.41702">
        <ele>910.9865723</ele>
        <time>2011-08-28T12:48:44Z</time>
      </trkpt>
      <trkpt lat="44.87222" lon="5.41686">
        <ele>912.4284668</ele>
        <time>2011-08-28T12:49:01Z</time>
      </trkpt>
      <trkpt lat="44.87171" lon="5.41673">
        <ele>914.3510742</ele>
        <time>2011-08-28T12:49:23Z</time>
      </trkpt>
      <trkpt lat="44.87114" lon="5.41679">
        <ele>915.7932129</ele>
        <time>2011-08-28T12:49:45Z</time>
      </trkpt>
      <trkpt lat="44.87059" lon="5.41681">
        <ele>918.1962891</ele>
        <time>2011-08-28T12:50:07Z</time>
      </trkpt>
      <trkpt lat="44.87023" lon="5.41658">
        <ele>920.5996094</ele>
        <time>2011-08-28T12:50:24Z</time>
      </trkpt>
      <trkpt lat="44.87005" lon="5.41637">
        <ele>922.5222168</ele>
        <time>2011-08-28T12:50:34Z</time>
      </trkpt>
      <trkpt lat="44.86999" lon="5.41631">
        <ele>923.0029297</ele>
        <time>2011-08-28T12:50:37Z</time>
      </trkpt>
      <trkpt lat="44.8698" lon="5.41607">
        <ele>923.9641113</ele>
        <time>2011-08-28T12:50:49Z</time>
      </trkpt>
      <trkpt lat="44.86964" lon="5.41587">
        <ele>925.40625</ele>
        <time>2011-08-28T12:51:01Z</time>
      </trkpt>
      <trkpt lat="44.86937" lon="5.41559">
        <ele>927.3291016</ele>
        <time>2011-08-28T12:51:17Z</time>
      </trkpt>
      <trkpt lat="44.86924" lon="5.41551">
        <ele>925.8869629</ele>
        <time>2011-08-28T12:51:31Z</time>
      </trkpt>
      <trkpt lat="44.86918" lon="5.41549">
        <ele>926.3676758</ele>
        <time>2011-08-28T12:51:54Z</time>
      </trkpt>
      <trkpt lat="44.86911" lon="5.41546">
        <ele>926.3676758</ele>
        <time>2011-08-28T12:52:18Z</time>
      </trkpt>
      <trkpt lat="44.86904" lon="5.41552">
        <ele>925.8869629</ele>
        <time>2011-08-28T12:52:27Z</time>
      </trkpt>
      <trkpt lat="44.86902" lon="5.41557">
        <ele>926.3676758</ele>
        <time>2011-08-28T12:52:32Z</time>
      </trkpt>
      <trkpt lat="44.86903" lon="5.41563">
        <ele>926.3676758</ele>
        <time>2011-08-28T12:52:36Z</time>
      </trkpt>
      <trkpt lat="44.869" lon="5.41575">
        <ele>927.8095703</ele>
        <time>2011-08-28T12:52:54Z</time>
      </trkpt>
      <trkpt lat="44.86899" lon="5.41573">
        <ele>927.3291016</ele>
        <time>2011-08-28T12:53:14Z</time>
      </trkpt>
      <trkpt lat="44.86899" lon="5.41568">
        <ele>927.8095703</ele>
        <time>2011-08-28T12:54:05Z</time>
      </trkpt>
      <trkpt lat="44.86899" lon="5.41568">
        <ele>928.2902832</ele>
        <time>2011-08-28T12:54:33Z</time>
      </trkpt>
      <trkpt lat="44.86898" lon="5.4157">
        <ele>927.8095703</ele>
        <time>2011-08-28T12:54:57Z</time>
      </trkpt>
      <trkpt lat="44.86893" lon="5.41568">
        <ele>928.2902832</ele>
        <time>2011-08-28T12:55:09Z</time>
      </trkpt>
      <trkpt lat="44.8689" lon="5.41563">
        <ele>928.7709961</ele>
        <time>2011-08-28T12:55:12Z</time>
      </trkpt>
      <trkpt lat="44.8688" lon="5.41554">
        <ele>931.1743164</ele>
        <time>2011-08-28T12:55:18Z</time>
      </trkpt>
      <trkpt lat="44.86836" lon="5.41542">
        <ele>934.5388184</ele>
        <time>2011-08-28T12:55:39Z</time>
      </trkpt>
      <trkpt lat="44.86796" lon="5.4155">
        <ele>934.5388184</ele>
        <time>2011-08-28T12:55:56Z</time>
      </trkpt>
      <trkpt lat="44.86741" lon="5.4156">
        <ele>937.4226074</ele>
        <time>2011-08-28T12:56:17Z</time>
      </trkpt>
      <trkpt lat="44.86689" lon="5.41568">
        <ele>938.8647461</ele>
        <time>2011-08-28T12:56:35Z</time>
      </trkpt>
      <trkpt lat="44.86626" lon="5.41564">
        <ele>943.1906738</ele>
        <time>2011-08-28T12:56:58Z</time>
      </trkpt>
      <trkpt lat="44.86586" lon="5.41557">
        <ele>946.074707</ele>
        <time>2011-08-28T12:57:13Z</time>
      </trkpt>
      <trkpt lat="44.86507" lon="5.41547">
        <ele>949.9199219</ele>
        <time>2011-08-28T12:57:42Z</time>
      </trkpt>
      <trkpt lat="44.86427" lon="5.41531">
        <ele>954.2458496</ele>
        <time>2011-08-28T12:58:11Z</time>
      </trkpt>
      <trkpt lat="44.86404" lon="5.41514">
        <ele>956.6491699</ele>
        <time>2011-08-28T12:58:21Z</time>
      </trkpt>
      <trkpt lat="44.86368" lon="5.41494">
        <ele>959.0524902</ele>
        <time>2011-08-28T12:58:35Z</time>
      </trkpt>
      <trkpt lat="44.86343" lon="5.41484">
        <ele>961.4558105</ele>
        <time>2011-08-28T12:58:45Z</time>
      </trkpt>
      <trkpt lat="44.86298" lon="5.41467">
        <ele>963.8588867</ele>
        <time>2011-08-28T12:59:01Z</time>
      </trkpt>
      <trkpt lat="44.8627" lon="5.41448">
        <ele>965.7817383</ele>
        <time>2011-08-28T12:59:14Z</time>
      </trkpt>
      <trkpt lat="44.86245" lon="5.4141">
        <ele>967.7041016</ele>
        <time>2011-08-28T12:59:29Z</time>
      </trkpt>
      <trkpt lat="44.86236" lon="5.41348">
        <ele>971.5493164</ele>
        <time>2011-08-28T12:59:50Z</time>
      </trkpt>
      <trkpt lat="44.8621" lon="5.41295">
        <ele>974.9143066</ele>
        <time>2011-08-28T13:00:12Z</time>
      </trkpt>
      <trkpt lat="44.86172" lon="5.41262">
        <ele>976.8369141</ele>
        <time>2011-08-28T13:00:32Z</time>
      </trkpt>
      <trkpt lat="44.8614" lon="5.41236">
        <ele>977.317627</ele>
        <time>2011-08-28T13:00:47Z</time>
      </trkpt>
      <trkpt lat="44.86109" lon="5.41206">
        <ele>980.6821289</ele>
        <time>2011-08-28T13:01:02Z</time>
      </trkpt>
      <trkpt lat="44.86091" lon="5.41158">
        <ele>983.565918</ele>
        <time>2011-08-28T13:01:20Z</time>
      </trkpt>
      <trkpt lat="44.86066" lon="5.41112">
        <ele>985.9692383</ele>
        <time>2011-08-28T13:01:39Z</time>
      </trkpt>
      <trkpt lat="44.86053" lon="5.41094">
        <ele>987.4111328</ele>
        <time>2011-08-28T13:01:46Z</time>
      </trkpt>
      <trkpt lat="44.8604" lon="5.4108">
        <ele>987.4111328</ele>
        <time>2011-08-28T13:01:51Z</time>
      </trkpt>
      <trkpt lat="44.86009" lon="5.41037">
        <ele>990.2954102</ele>
        <time>2011-08-28T13:02:09Z</time>
      </trkpt>
      <trkpt lat="44.85964" lon="5.40988">
        <ele>994.6210938</ele>
        <time>2011-08-28T13:02:31Z</time>
      </trkpt>
      <trkpt lat="44.85939" lon="5.40967">
        <ele>996.0632324</ele>
        <time>2011-08-28T13:02:43Z</time>
      </trkpt>
      <trkpt lat="44.85917" lon="5.4095">
        <ele>996.5439453</ele>
        <time>2011-08-28T13:02:54Z</time>
      </trkpt>
      <trkpt lat="44.85891" lon="5.40923">
        <ele>1000.3891602</ele>
        <time>2011-08-28T13:03:02Z</time>
      </trkpt>
      <trkpt lat="44.85929" lon="5.4092">
        <ele>1002.3115234</ele>
        <time>2011-08-28T13:03:18Z</time>
      </trkpt>
      <trkpt lat="44.85966" lon="5.40925">
        <ele>1004.7150879</ele>
        <time>2011-08-28T13:03:33Z</time>
      </trkpt>
      <trkpt lat="44.86022" lon="5.4094">
        <ele>1008.079834</ele>
        <time>2011-08-28T13:03:56Z</time>
      </trkpt>
      <trkpt lat="44.86092" lon="5.40964">
        <ele>1010.4829102</ele>
        <time>2011-08-28T13:04:24Z</time>
      </trkpt>
      <trkpt lat="44.86132" lon="5.40983">
        <ele>1013.3669434</ele>
        <time>2011-08-28T13:04:41Z</time>
      </trkpt>
      <trkpt lat="44.86165" lon="5.40992">
        <ele>1015.7702637</ele>
        <time>2011-08-28T13:04:54Z</time>
      </trkpt>
      <trkpt lat="44.86201" lon="5.40995">
        <ele>1017.692627</ele>
        <time>2011-08-28T13:05:09Z</time>
      </trkpt>
      <trkpt lat="44.86242" lon="5.40989">
        <ele>1021.5380859</ele>
        <time>2011-08-28T13:05:26Z</time>
      </trkpt>
      <trkpt lat="44.8629" lon="5.40988">
        <ele>1023.4609375</ele>
        <time>2011-08-28T13:05:43Z</time>
      </trkpt>
      <trkpt lat="44.86346" lon="5.40982">
        <ele>1026.8254395</ele>
        <time>2011-08-28T13:06:06Z</time>
      </trkpt>
      <trkpt lat="44.86369" lon="5.40973">
        <ele>1030.6706543</ele>
        <time>2011-08-28T13:06:16Z</time>
      </trkpt>
      <trkpt lat="44.86384" lon="5.40965">
        <ele>1033.5544434</ele>
        <time>2011-08-28T13:06:24Z</time>
      </trkpt>
      <trkpt lat="44.86416" lon="5.40976">
        <ele>1034.996582</ele>
        <time>2011-08-28T13:06:36Z</time>
      </trkpt>
      <trkpt lat="44.86476" lon="5.41004">
        <ele>1036.4387207</ele>
        <time>2011-08-28T13:06:58Z</time>
      </trkpt>
      <trkpt lat="44.86537" lon="5.41004">
        <ele>1037.8806152</ele>
        <time>2011-08-28T13:07:21Z</time>
      </trkpt>
      <trkpt lat="44.86604" lon="5.41003">
        <ele>1042.206543</ele>
        <time>2011-08-28T13:07:45Z</time>
      </trkpt>
      <trkpt lat="44.86667" lon="5.41003">
        <ele>1045.090332</ele>
        <time>2011-08-28T13:08:07Z</time>
      </trkpt>
      <trkpt lat="44.86719" lon="5.41003">
        <ele>1048.9355469</ele>
        <time>2011-08-28T13:08:25Z</time>
      </trkpt>
      <trkpt lat="44.86759" lon="5.41011">
        <ele>1052.300293</ele>
        <time>2011-08-28T13:08:41Z</time>
      </trkpt>
      <trkpt lat="44.868" lon="5.41009">
        <ele>1055.1843262</ele>
        <time>2011-08-28T13:08:58Z</time>
      </trkpt>
      <trkpt lat="44.86853" lon="5.41019">
        <ele>1058.5488281</ele>
        <time>2011-08-28T13:09:19Z</time>
      </trkpt>
      <trkpt lat="44.86926" lon="5.4102">
        <ele>1062.394043</ele>
        <time>2011-08-28T13:09:49Z</time>
      </trkpt>
      <trkpt lat="44.8698" lon="5.41017">
        <ele>1065.2780762</ele>
        <time>2011-08-28T13:10:10Z</time>
      </trkpt>
      <trkpt lat="44.87003" lon="5.40999">
        <ele>1068.6428223</ele>
        <time>2011-08-28T13:10:24Z</time>
      </trkpt>
      <trkpt lat="44.86991" lon="5.40988">
        <ele>1068.1621094</ele>
        <time>2011-08-28T13:10:34Z</time>
      </trkpt>
      <trkpt lat="44.86991" lon="5.40988">
        <ele>1068.1621094</ele>
        <time>2011-08-28T13:10:44Z</time>
      </trkpt>
      <trkpt lat="44.86954" lon="5.40996">
        <ele>1069.1235352</ele>
        <time>2011-08-28T13:11:00Z</time>
      </trkpt>
      <trkpt lat="44.86889" lon="5.40987">
        <ele>1075.8525391</ele>
        <time>2011-08-28T13:11:26Z</time>
      </trkpt>
      <trkpt lat="44.86834" lon="5.40963">
        <ele>1078.7365723</ele>
        <time>2011-08-28T13:11:49Z</time>
      </trkpt>
      <trkpt lat="44.86782" lon="5.40926">
        <ele>1081.6203613</ele>
        <time>2011-08-28T13:12:15Z</time>
      </trkpt>
      <trkpt lat="44.86731" lon="5.40916">
        <ele>1084.9853516</ele>
        <time>2011-08-28T13:12:37Z</time>
      </trkpt>
      <trkpt lat="44.86686" lon="5.40909">
        <ele>1086.9077148</ele>
        <time>2011-08-28T13:12:56Z</time>
      </trkpt>
      <trkpt lat="44.86642" lon="5.40896">
        <ele>1090.2724609</ele>
        <time>2011-08-28T13:13:15Z</time>
      </trkpt>
      <trkpt lat="44.86585" lon="5.40881">
        <ele>1094.1176758</ele>
        <time>2011-08-28T13:13:38Z</time>
      </trkpt>
      <trkpt lat="44.86528" lon="5.40857">
        <ele>1098.4433594</ele>
        <time>2011-08-28T13:14:02Z</time>
      </trkpt>
      <trkpt lat="44.8648" lon="5.40836">
        <ele>1101.3276367</ele>
        <time>2011-08-28T13:14:23Z</time>
      </trkpt>
      <trkpt lat="44.86424" lon="5.40821">
        <ele>1105.6535645</ele>
        <time>2011-08-28T13:14:47Z</time>
      </trkpt>
      <trkpt lat="44.86374" lon="5.40808">
        <ele>1108.5373535</ele>
        <time>2011-08-28T13:15:08Z</time>
      </trkpt>
      <trkpt lat="44.86324" lon="5.40789">
        <ele>1111.4213867</ele>
        <time>2011-08-28T13:15:30Z</time>
      </trkpt>
      <trkpt lat="44.86283" lon="5.40772">
        <ele>1114.7858887</ele>
        <time>2011-08-28T13:15:47Z</time>
      </trkpt>
      <trkpt lat="44.86231" lon="5.4075">
        <ele>1117.1894531</ele>
        <time>2011-08-28T13:16:09Z</time>
      </trkpt>
      <trkpt lat="44.86197" lon="5.40725">
        <ele>1118.6313477</ele>
        <time>2011-08-28T13:16:25Z</time>
      </trkpt>
      <trkpt lat="44.86141" lon="5.40704">
        <ele>1122.9572754</ele>
        <time>2011-08-28T13:16:49Z</time>
      </trkpt>
      <trkpt lat="44.86091" lon="5.40687">
        <ele>1127.2832031</ele>
        <time>2011-08-28T13:17:11Z</time>
      </trkpt>
      <trkpt lat="44.86054" lon="5.40676">
        <ele>1129.2055664</ele>
        <time>2011-08-28T13:17:26Z</time>
      </trkpt>
      <trkpt lat="44.86005" lon="5.40661">
        <ele>1130.6477051</ele>
        <time>2011-08-28T13:17:47Z</time>
      </trkpt>
      <trkpt lat="44.85964" lon="5.4063">
        <ele>1132.5705566</ele>
        <time>2011-08-28T13:18:06Z</time>
      </trkpt>
      <trkpt lat="44.85932" lon="5.40623">
        <ele>1135.9350586</ele>
        <time>2011-08-28T13:18:19Z</time>
      </trkpt>
      <trkpt lat="44.85878" lon="5.40612">
        <ele>1139.7802734</ele>
        <time>2011-08-28T13:18:42Z</time>
      </trkpt>
      <trkpt lat="44.85832" lon="5.40592">
        <ele>1141.222168</ele>
        <time>2011-08-28T13:19:02Z</time>
      </trkpt>
      <trkpt lat="44.85793" lon="5.40579">
        <ele>1142.6643066</ele>
        <time>2011-08-28T13:19:19Z</time>
      </trkpt>
      <trkpt lat="44.85725" lon="5.40573">
        <ele>1149.3935547</ele>
        <time>2011-08-28T13:19:47Z</time>
      </trkpt>
      <trkpt lat="44.85683" lon="5.40557">
        <ele>1150.3549805</ele>
        <time>2011-08-28T13:20:05Z</time>
      </trkpt>
      <trkpt lat="44.85653" lon="5.40537">
        <ele>1147.4707031</ele>
        <time>2011-08-28T13:20:19Z</time>
      </trkpt>
      <trkpt lat="44.85609" lon="5.40528">
        <ele>1154.6806641</ele>
        <time>2011-08-28T13:20:38Z</time>
      </trkpt>
      <trkpt lat="44.85559" lon="5.40538">
        <ele>1159.0065918</ele>
        <time>2011-08-28T13:20:59Z</time>
      </trkpt>
      <trkpt lat="44.855" lon="5.40539">
        <ele>1159.4873047</ele>
        <time>2011-08-28T13:21:23Z</time>
      </trkpt>
      <trkpt lat="44.85444" lon="5.40534">
        <ele>1162.3710938</ele>
        <time>2011-08-28T13:21:46Z</time>
      </trkpt>
      <trkpt lat="44.85394" lon="5.40516">
        <ele>1164.7746582</ele>
        <time>2011-08-28T13:22:07Z</time>
      </trkpt>
      <trkpt lat="44.85332" lon="5.40506">
        <ele>1167.6584473</ele>
        <time>2011-08-28T13:22:33Z</time>
      </trkpt>
      <trkpt lat="44.85291" lon="5.40489">
        <ele>1165.736084</ele>
        <time>2011-08-28T13:22:51Z</time>
      </trkpt>
      <trkpt lat="44.85246" lon="5.4047">
        <ele>1169.1005859</ele>
        <time>2011-08-28T13:23:11Z</time>
      </trkpt>
      <trkpt lat="44.85195" lon="5.40481">
        <ele>1174.3876953</ele>
        <time>2011-08-28T13:23:32Z</time>
      </trkpt>
      <trkpt lat="44.85148" lon="5.40489">
        <ele>1177.7521973</ele>
        <time>2011-08-28T13:23:51Z</time>
      </trkpt>
      <trkpt lat="44.85092" lon="5.40492">
        <ele>1182.559082</ele>
        <time>2011-08-28T13:24:15Z</time>
      </trkpt>
      <trkpt lat="44.85033" lon="5.40487">
        <ele>1184.9624023</ele>
        <time>2011-08-28T13:24:40Z</time>
      </trkpt>
      <trkpt lat="44.84976" lon="5.40483">
        <ele>1190.7299805</ele>
        <time>2011-08-28T13:25:04Z</time>
      </trkpt>
      <trkpt lat="44.84923" lon="5.40473">
        <ele>1194.0947266</ele>
        <time>2011-08-28T13:25:26Z</time>
      </trkpt>
      <trkpt lat="44.84872" lon="5.40462">
        <ele>1197.4594727</ele>
        <time>2011-08-28T13:25:48Z</time>
      </trkpt>
      <trkpt lat="44.84818" lon="5.40465">
        <ele>1198.9013672</ele>
        <time>2011-08-28T13:26:12Z</time>
      </trkpt>
      <trkpt lat="44.8477" lon="5.40455">
        <ele>1199.3820801</ele>
        <time>2011-08-28T13:26:33Z</time>
      </trkpt>
      <trkpt lat="44.84752" lon="5.40453">
        <ele>1202.746582</ele>
        <time>2011-08-28T13:26:47Z</time>
      </trkpt>
      <trkpt lat="44.84748" lon="5.40453">
        <ele>1205.1499023</ele>
        <time>2011-08-28T13:27:08Z</time>
      </trkpt>
      <trkpt lat="44.84742" lon="5.40458">
        <ele>1207.5532227</ele>
        <time>2011-08-28T13:27:43Z</time>
      </trkpt>
      <trkpt lat="44.84707" lon="5.40465">
        <ele>1210.4370117</ele>
        <time>2011-08-28T13:27:59Z</time>
      </trkpt>
      <trkpt lat="44.8464" lon="5.40469">
        <ele>1214.2824707</ele>
        <time>2011-08-28T13:28:27Z</time>
      </trkpt>
      <trkpt lat="44.84575" lon="5.40478">
        <ele>1216.685791</ele>
        <time>2011-08-28T13:28:53Z</time>
      </trkpt>
      <trkpt lat="44.84491" lon="5.40483">
        <ele>1220.050293</ele>
        <time>2011-08-28T13:29:23Z</time>
      </trkpt>
      <trkpt lat="44.84427" lon="5.40492">
        <ele>1223.4150391</ele>
        <time>2011-08-28T13:29:46Z</time>
      </trkpt>
      <trkpt lat="44.84378" lon="5.40499">
        <ele>1224.3762207</ele>
        <time>2011-08-28T13:30:04Z</time>
      </trkpt>
      <trkpt lat="44.8432" lon="5.40501">
        <ele>1226.779541</ele>
        <time>2011-08-28T13:30:25Z</time>
      </trkpt>
      <trkpt lat="44.84262" lon="5.40513">
        <ele>1232.5476074</ele>
        <time>2011-08-28T13:30:46Z</time>
      </trkpt>
      <trkpt lat="44.84179" lon="5.40536">
        <ele>1237.8347168</ele>
        <time>2011-08-28T13:31:17Z</time>
      </trkpt>
      <trkpt lat="44.84148" lon="5.40551">
        <ele>1239.7573242</ele>
        <time>2011-08-28T13:31:31Z</time>
      </trkpt>
      <trkpt lat="44.84106" lon="5.4059">
        <ele>1242.6413574</ele>
        <time>2011-08-28T13:31:51Z</time>
      </trkpt>
      <trkpt lat="44.84063" lon="5.40614">
        <ele>1245.0446777</ele>
        <time>2011-08-28T13:32:10Z</time>
      </trkpt>
      <trkpt lat="44.84024" lon="5.40616">
        <ele>1245.0446777</ele>
        <time>2011-08-28T13:32:25Z</time>
      </trkpt>
      <trkpt lat="44.83993" lon="5.40626">
        <ele>1246.9672852</ele>
        <time>2011-08-28T13:32:39Z</time>
      </trkpt>
      <trkpt lat="44.8399" lon="5.40634">
        <ele>1246.9672852</ele>
        <time>2011-08-28T13:32:52Z</time>
      </trkpt>
      <trkpt lat="44.8399" lon="5.40635">
        <ele>1246.9672852</ele>
        <time>2011-08-28T13:32:54Z</time>
      </trkpt>
    </trkseg>
  </trk>
</gpx>